SondeTracker

Meteorological Radiosondes Database

Operations
Statistics for the Launch Site: Altenstadt (DE)

3978

321

303787.00 m / 22922.94 m / 24169.00 m

5.01 m/s / 4.94 m/s

9.62 m/s / 8.95 m/s

773

90

60

Radiosondes Table with Launch Site: Altenstadt (DE) (3978)
Number Type Last Frame [UTC] φ λ Course Speed Altitude Climbing Frequency Nearest City Distance from QTH Status
D21052521 DFM 2023-01-27 06:34:27 47.3786 10.1131 219 ° 57 km/h 3635 m -3.6 m/s 402.010 MHz Mittelberg (AT) 0.00 km UNKNOWN
T2950801 RS41 2023-01-26 18:21:27 47.4215 10.3276 44 ° 13 km/h 1876 m -2.4 m/s 402.50 MHz Sonthofen (DE) 0.00 km UNKNOWN
D21052058 DFM17 2023-01-26 12:45:24 47.5241 10.3524 169 ° 7 km/h 1911 m -3.1 m/s 402.010 MHz Sonthofen (DE) 0.00 km UNKNOWN
T2940290 RS41 2023-01-26 06:36:05 47.6167 10.2778 196 ° 4 km/h 1030 m -2.6 m/s 402.50 MHz Sonthofen (DE) 0.00 km UNKNOWN
D21052165 DFM17 2023-01-25 18:37:50 47.7677 9.84469 265 ° 9 km/h 860 m -6.3 m/s 402.512 MHz Wangen im Allgäu (DE) 0.00 km FOUND
T2940292 RS41 2023-01-25 13:17:25 47.7125 10.0933 254 ° 6 km/h 1034 m -5.3 m/s 402.50 MHz Leutkirch (DE) 0.00 km UNKNOWN
T2940428 RS41 2023-01-25 06:53:31 47.8093 9.42594 261 ° 24 km/h 792 m -3.5 m/s 402.50 MHz Ravensburg (DE) 0.00 km NEED ATTENTION
T2940291 RS41-SGP 2023-01-24 18:59:45 47.7314 9.69956 308 ° 20 km/h 742 m -3.4 m/s 402.50 MHz Ravensburg (DE) 0.00 km FOUND
T2950799 RS41 2023-01-24 12:55:21 47.8035 10.2964 277 ° 13 km/h 757 m -10.3 m/s 402.50 MHz Kempten (DE) 0.00 km FOUND
D21052409 DFM 2023-01-24 10:03:30 47.6924 9.23954 228 ° 24 km/h 625 m -3.5 m/s 402.010 MHz Konstanz (DE) 0.00 km LOST
T2950800 RS41 2023-01-24 06:58:15 47.7036 9.1524 246 ° 39 km/h 729 m -2.8 m/s 402.50 MHz Konstanz (DE) 0.00 km FOUND
T2950803 RS41 2023-01-23 18:49:44 47.7388 9.05482 232 ° 48 km/h 844 m -3.4 m/s 402.50 MHz Radolfzell (DE) 0.00 km FOUND
T2940534 RS41 2023-01-23 13:25:35 48.1062 10.375 249 ° 35 km/h 765 m -4.8 m/s 402.50 MHz Memmingen (DE) 0.00 km FOUND
D21052496 DFM 2023-01-23 07:07:50 48.0675 9.73656 257 ° 44 km/h 1511 m -3.2 m/s 404.310 MHz Biberach an der Riß (DE) 0.00 km UNKNOWN
T2950292 RS41 2023-01-20 06:31:37 47.8023 11.3429 125 ° 9 km/h 798 m -3.2 m/s 402.50 MHz Geretsried (DE) 0.00 km UNKNOWN
T2950290 RS41 2023-01-19 18:51:11 47.9833 11.6459 15 ° 2 km/h 668 m -3.0 m/s 402.50 MHz Unterhaching (DE) 0.00 km FOUND
T2940444 RS41 2023-01-19 12:43:14 48.2493 12.052 38 ° 11 km/h 630 m -9.7 m/s 402.50 MHz Erding (DE) 0.00 km FOUND
T2940442 RS41 2023-01-19 06:19:14 48.1964 11.473 71 ° 22 km/h 654 m -6.9 m/s 402.50 MHz Dachau (DE) 0.00 km FOUND
T2940529 RS41 2023-01-18 18:15:23 48.416 11.9791 97 ° 30 km/h 848 m -13.5 m/s 402.50 MHz Erding (DE) 0.00 km FOUND
T2940425 RS41 2023-01-18 13:06:09 48.9756 13.0582 65 ° 24 km/h 1115 m -2.9 m/s 402.50 MHz Deggendorf (DE) 0.00 km UNKNOWN
T2950786 RS41 2023-01-18 06:59:03 48.6457 12.2564 125 ° 17 km/h 526 m -4.5 m/s 402.50 MHz Landshut (DE) 0.00 km UNKNOWN
T2950291 RS41-SGP 2023-01-17 19:09:50 48.8648 12.5151 246 ° 9 km/h 563 m -2.1 m/s 402.50 MHz Straubing (DE) 0.00 km UNKNOWN
T2950783 RS41 2023-01-17 12:44:11 48.5783 13.2092 282 ° 9 km/h 572 m -8.5 m/s 402.50 MHz Passau (DE) 0.00 km UNKNOWN
T2950781 RS41 2023-01-17 06:32:08 48.0855 12.7135 69 ° 19 km/h 590 m -3.1 m/s 402.50 MHz Ostermiething (AT) 0.00 km UNKNOWN
T2950785 RS41 2023-01-16 18:47:55 48.5307 12.415 109 ° 7 km/h 693 m -2.0 m/s 402.50 MHz Landshut (DE) 0.00 km UNKNOWN
T2950782 RS41 2023-01-16 12:50:42 48.3919 12.5594 326 ° 31 km/h 966 m -5.7 m/s 402.50 MHz Waldkraiburg (DE) 0.00 km FOUND
T2940423 RS41 2023-01-16 06:51:50 48.1184 12.3325 315 ° 9 km/h 574 m -6.7 m/s 402.50 MHz Waldkraiburg (DE) 0.00 km FOUND
T2940406 RS41 2023-01-13 06:41:43 47.8137 12.8353 163 ° 9 km/h 744 m -2.5 m/s 402.50 MHz Grossgmain (AT) 0.00 km FOUND
T2940394 RS41 2023-01-12 18:37:47 47.1187 12.3856 121 ° 59 km/h 3303 m -8.0 m/s 402.50 MHz Virgen (AT) 0.00 km UNKNOWN
T2940392 RS41 2023-01-12 13:07:51 47.0957 13.1074 143 ° 76 km/h 3932 m -4.0 m/s 402.50 MHz Badgastein (AT) 0.00 km UNKNOWN
T2930668 RS41 2023-01-12 06:24:44 47.0057 11.8874 153 ° 57 km/h 3543 m -6.2 m/s 402.50 MHz Mayrhofen (AT) 0.00 km UNKNOWN
T2940393 RS41 2023-01-11 18:36:55 48.0255 12.5665 48 ° 30 km/h 714 m -4.2 m/s 402.50 MHz Traunreut (DE) 0.00 km UNKNOWN
T2950707 RS41 2023-01-11 13:21:08 47.5695 13.5272 107 ° 35 km/h 2073 m -4.6 m/s 402.50 MHz Bad Goisern (AT) 0.00 km UNKNOWN
D21052481 DFM 2023-01-11 09:47:03 47.5198 12.1745 9 ° 7 km/h 1209 m -2.3 m/s 402.008 MHz Söll (AT) 0.00 km UNKNOWN
T2930509 RS41 2023-01-11 06:36:07 47.1929 12.0636 123 ° 35 km/h 3026 m -3.1 m/s 402.50 MHz Mayrhofen (AT) 0.00 km UNKNOWN
T2940396 RS41 2023-01-10 18:27:28 46.3947 11.37 172 ° 87 km/h 3789 m -3.2 m/s 402.50 MHz Laives (IT) 0.00 km UNKNOWN
T2940395 RS41 2023-01-10 12:55:00 46.4898 12.4308 173 ° 30 km/h 2736 m -7.4 m/s 402.50 MHz Maniago (IT) 0.00 km FOUND
T2940502 RS41 2023-01-10 06:17:55 47.317 11.5265 236 ° 7 km/h 998 m -11.2 m/s 402.50 MHz Absam (AT) 0.00 km UNKNOWN
T2930505 RS41 2023-01-09 18:36:49 48.1194 11.9324 67 ° 30 km/h 716 m -1.7 m/s 402.50 MHz Vaterstetten (DE) 0.00 km UNKNOWN
T2930667 RS41 2023-01-09 13:20:27 48.4456 13.6332 92 ° 24 km/h 561 m -5.3 m/s 402.50 MHz Sankt Florian am Inn (AT) 0.00 km UNKNOWN
T2950813 RS41 2023-01-09 13:14:34 48.3583 13.2691 78 ° 35 km/h 729 m -6.0 m/s 404.30 MHz Altheim (AT) 0.00 km UNKNOWN
T2940388 RS41 2023-01-09 06:52:35 48.5067 12.6511 84 ° 72 km/h 925 m -2.4 m/s 402.50 MHz Landshut (DE) 0.00 km UNKNOWN
T2930604 RS41 2022-12-23 06:32:57 46.9557 12.8336 130 ° 94 km/h 4132 m -5.7 m/s 402.50 MHz Dölsach (AT) 0.00 km FOUND
T2940575 RS41 2022-12-22 18:20:11 47.1689 12.4402 114 ° 54 km/h 3330 m -9.0 m/s 402.50 MHz Mittersill (AT) 0.00 km UNKNOWN
T2940574 RS41 2022-12-22 12:43:27 47.5357 12.6193 110 ° 37 km/h 2383 m -7.7 m/s 402.50 MHz Fieberbrunn (AT) 0.00 km UNKNOWN
T2950315 RS41 2022-12-21 18:46:04 48.0443 12.2833 75 ° 24 km/h 694 m -3.4 m/s 402.50 MHz Waldkraiburg (DE) 0.00 km UNKNOWN
T2950419 RS41 2022-12-21 13:24:59 48.3269 13.2955 183 ° 11 km/h 376 m -3.1 m/s 402.50 MHz Altheim (AT) 0.00 km UNKNOWN
T2940386 RS41 2022-12-21 07:10:43 48.5529 12.853 92 ° 28 km/h 963 m -3.0 m/s 402.50 MHz Deggendorf (DE) 0.00 km FOUND
T2940390 RS41 2022-12-20 18:42:15 47.8198 12.599 6 ° 13 km/h 920 m -2.5 m/s 402.50 MHz Traunreut (DE) 0.00 km FOUND
T2940385 RS41 2022-12-20 12:41:26 47.8477 12.7044 15 ° 7 km/h 901 m -11.1 m/s 402.50 MHz Traunreut (DE) 0.00 km FOUND
T2930506 RS41 2022-12-20 06:42:55 47.8488 12.6774 280 ° 4 km/h 766 m -2.4 m/s 402.50 MHz Traunreut (DE) 0.00 km FOUND
T2940572 RS41 2022-12-19 18:31:31 47.7415 12.4335 29 ° 6 km/h 1121 m -8.9 m/s 402.50 MHz Kössen (AT) 0.00 km UNKNOWN
T2930510 RS41 2022-12-19 13:21:36 47.5647 13.3107 357 ° 6 km/h 1753 m -3.0 m/s 402.50 MHz Abtenau (AT) 0.00 km UNKNOWN
T2930602 RS41 2022-12-19 06:35:28 47.205 12.4166 106 ° 15 km/h 2971 m -2.6 m/s 402.50 MHz Mittersill (AT) 0.00 km UNKNOWN
T2930603 RS41 2022-12-16 06:51:38 48.5429 12.4782 135 ° 7 km/h 829 m -2.9 m/s 402.50 MHz Landshut (DE) 0.00 km FOUND
T2940571 RS41 2022-12-15 18:37:50 48.5085 12.3344 277 ° 24 km/h 646 m -2.9 m/s 402.50 MHz Landshut (DE) 0.00 km FOUND
T2940573 RS41 2022-12-15 12:50:28 48.2951 13.0504 346 ° 11 km/h 497 m -4.6 m/s 402.50 MHz Braunau am Inn (AT) 0.00 km UNKNOWN
T2940387 RS41 2022-12-15 06:41:08 47.9534 13.0821 30 ° 4 km/h 833 m -5.8 m/s 402.50 MHz Mattsee (AT) 0.00 km UNKNOWN
T2950427 RS41 2022-12-14 13:25:54 48.0607 14.0272 299 ° 13 km/h 493 m -4.3 m/s 402.50 MHz Sattledt (AT) 0.00 km UNKNOWN
T2940389 RS41 2022-12-14 06:28:10 47.6622 13.2164 98 ° 28 km/h 1675 m -4.7 m/s 402.50 MHz Kuchl (AT) 0.00 km UNKNOWN
T2950416 RS41 2022-12-13 18:14:05 47.3962 12.8635 103 ° 56 km/h 2814 m -3.8 m/s 402.50 MHz Saalfelden am Steinernen Meer (AT) 0.00 km UNKNOWN
T2940533 RS41 2022-12-13 12:30:03 47.3858 12.7475 90 ° 31 km/h 2694 m -12.7 m/s 402.50 MHz Leogang (AT) 0.00 km UNKNOWN
T2940531 RS41 2022-12-13 06:43:11 47.2717 12.9727 89 ° 24 km/h 3151 m -8.9 m/s 402.50 MHz Taxenbach (AT) 0.00 km UNKNOWN
T2940432 RS41 2022-12-12 18:26:45 47.1513 12.8074 125 ° 11 km/h 2825 m -2.8 m/s 402.50 MHz Bruck an der Großglocknerstraße (AT) 0.00 km UNKNOWN
T2940532 RS41 2022-12-12 12:59:08 47.2969 12.9213 120 ° 46 km/h 3313 m -3.4 m/s 402.50 MHz Taxenbach (AT) 0.00 km UNKNOWN
T2940530 RS41 2022-12-12 05:12:35 47.7465 11.1497 129 ° 11 km/h 1237 m -18.2 m/s 402.50 MHz Weilheim in Oberbayern (DE) 0.00 km LOST
T2940523 RS41 2022-12-09 06:47:45 48.1919 13.0396 259 ° 22 km/h 465 m -2.0 m/s 402.50 MHz Neukirchen an der Enknach (AT) 0.00 km FOUND
T2940528 RS41 2022-12-08 18:54:19 47.8461 13.0765 202 ° 9 km/h 612 m -2.9 m/s 402.50 MHz Hallwang (AT) 0.00 km FOUND
T2940563 RS41 2022-12-08 13:06:17 47.7472 12.9349 235 ° 4 km/h 695 m -4.7 m/s 402.50 MHz Grossgmain (AT) 0.00 km FOUND
T2950773 RS41 2022-12-08 06:35:00 47.8072 12.1022 11 ° 17 km/h 910 m -4.5 m/s 402.50 MHz Rosenheim (DE) 0.00 km UNKNOWN
T2950772 RS41 2022-12-07 18:16:27 47.6227 11.7158 115 ° 11 km/h 1640 m -10.1 m/s 402.50 MHz Achenkirch (AT) 0.00 km UNKNOWN
T2940527 RS41 2022-12-07 13:09:43 47.439 11.9101 151 ° 2 km/h 747 m -3.1 m/s 402.50 MHz Radfeld (AT) 0.00 km UNKNOWN
T2940287 RS41 2022-12-07 07:02:06 47.4336 12.6159 109 ° 17 km/h 1745 m -2.0 m/s 402.50 MHz Fieberbrunn (AT) 0.00 km UNKNOWN
T2940445 RS41 2022-12-06 18:34:37 47.5184 12.1911 32 ° 9 km/h 1118 m -2.9 m/s 402.50 MHz Söll (AT) 0.00 km FOUND
T2940491 RS41 2022-12-06 13:09:41 47.279 12.2318 91 ° 26 km/h 2520 m -3.8 m/s 402.50 MHz Neukirchen am Großvenediger (AT) 0.00 km UNKNOWN
T2940537 RS41 2022-12-06 06:46:38 47.3618 12.1803 91 ° 24 km/h 2205 m -3.3 m/s 402.50 MHz Westendorf (AT) 0.00 km UNKNOWN
T2940490 RS41 2022-12-05 18:49:03 48.184 11.8855 105 ° 30 km/h 655 m -2.1 m/s 402.50 MHz Vaterstetten (DE) 0.00 km UNKNOWN
T2940410 RS41 2022-12-05 12:44:21 48.0307 11.8048 61 ° 17 km/h 791 m -5.4 m/s 402.50 MHz Vaterstetten (DE) 0.00 km FOUND
T2940286 RS41 2022-12-05 06:43:03 48.2798 11.97 103 ° 15 km/h 655 m -4.3 m/s 402.50 MHz Erding (DE) 0.00 km LOST
T2940448 RS41 2022-12-02 06:55:07 47.8998 10.5298 88 ° 6 km/h 906 m -3.9 m/s 402.50 MHz Kaufbeuren (DE) 0.00 km FOUND
T2950637 RS41 2022-12-01 19:03:12 47.8897 10.6736 221 ° 9 km/h 880 m -3.1 m/s 404.30 MHz Kaufbeuren (DE) 0.00 km FOUND
T2950639 RS41 2022-12-01 12:52:56 47.8111 10.8439 230 ° 6 km/h 890 m -8.5 m/s 402.50 MHz Kaufbeuren (DE) 0.00 km UNKNOWN
T2940427 RS41 2022-12-01 06:41:56 47.8078 10.4315 261 ° 17 km/h 947 m -3.4 m/s 402.50 MHz Kempten (DE) 0.00 km FOUND
T2950428 RS41 2022-11-30 20:09:13 47.9284 10.7046 206 ° 15 km/h 842 m -3.5 m/s 402.50 MHz Kaufbeuren (DE) 0.00 km FOUND
T2940426 RS41 2022-11-30 13:05:55 48.1819 10.5243 292 ° 22 km/h 810 m -3.1 m/s 402.50 MHz Königsbrunn (DE) 0.00 km UNKNOWN
T2940421 RS41-SGP 2022-11-30 06:47:32 48.2546 10.3551 315 ° 7 km/h 652 m -2.6 m/s 402.50 MHz Senden (DE) 0.00 km FOUND
T2950431 RS41 2022-11-29 18:51:03 47.9027 10.1824 204 ° 6 km/h 896 m -2.4 m/s 402.50 MHz Memmingen (DE) 0.00 km UNKNOWN
T2950832 RS41 2022-11-29 12:49:56 48.0728 10.724 189 ° 11 km/h 1049 m -9.0 m/s 402.50 MHz Landsberg am Lech (DE) 0.00 km FOUND
T2950430 RS41 2022-11-29 06:29:50 48.2269 10.6749 90 ° 11 km/h 803 m -3.4 m/s 402.50 MHz Königsbrunn (DE) 0.00 km FOUND
T2950420 RS41-SGP 2022-11-28 18:54:25 48.391 11.2457 279 ° 19 km/h 621 m -3.2 m/s 402.50 MHz Aichach (DE) 0.00 km LOST
T2950361 RS41 2022-11-28 13:03:34 48.1874 11.7291 70 ° 7 km/h 672 m -2.8 m/s 402.50 MHz Vaterstetten (DE) 0.00 km FOUND
T2950284 RS41 2022-11-28 06:36:09 47.9162 11.77 38 ° 20 km/h 813 m -3.5 m/s 402.50 MHz Unterhaching (DE) 0.00 km UNKNOWN
T2950429 RS41 2022-11-25 06:25:25 47.6692 12.1016 113 ° 4 km/h 1348 m -14.5 m/s 402.50 MHz Niederndorf (AT) 0.00 km UNKNOWN
T2950285 RS41-SGP 2022-11-24 18:44:12 46.8367 12.6886 147 ° 65 km/h 3411 m -5.6 m/s 402.50 MHz Lienz (AT) 0.00 km UNKNOWN
T2950423 RS41 2022-11-24 12:22:07 47.5721 12.2099 58 ° 24 km/h 1521 m -7.0 m/s 402.50 MHz Kufstein (AT) 0.00 km UNKNOWN
T2950417 RS41 2022-11-24 06:37:16 47.4272 12.4058 195 ° 6 km/h 1292 m -4.2 m/s 402.50 MHz Kitzbühel (AT) 0.00 km UNKNOWN
T2950418 RS41 2022-11-23 18:35:27 47.3989 12.1534 105 ° 31 km/h 2286 m -8.6 m/s 402.50 MHz Westendorf (AT) 0.00 km UNKNOWN
U1340671 RS41 2022-11-23 12:44:48 47.6384 11.6487 136 ° 46 km/h 5275 m -15.1 m/s 402.50 MHz Achenkirch (AT) 0.00 km UNKNOWN
T2950415 RS41 2022-11-23 06:54:42 47.8416 11.5651 74 ° 9 km/h 902 m -2.3 m/s 402.50 MHz Geretsried (DE) 0.00 km UNKNOWN
T2940328 RS41 2022-11-22 18:44:48 48.2783 11.3992 72 ° 24 km/h 655 m -4.4 m/s 402.50 MHz Dachau (DE) 0.00 km UNKNOWN
T2950709 RS41 2022-11-22 12:40:27 48.4075 11.4435 89 ° 11 km/h 616 m -6.9 m/s 402.50 MHz Pfaffenhofen an der Ilm (DE) 0.00 km FOUND
T2940733 RS41 2022-11-22 06:52:53 48.5511 11.8903 50 ° 7 km/h 637 m -2.7 m/s 402.50 MHz Landshut (DE) 0.00 km UNKNOWN
T2950364 RS41 2022-11-21 18:41:57 47.6321 12.4867 110 ° 9 km/h 1493 m -3.0 m/s 402.50 MHz Kössen (AT) 0.00 km UNKNOWN
T2950426 RS41 2022-11-21 12:59:12 47.2307 12.6535 87 ° 41 km/h 3352 m -5.4 m/s 402.50 MHz Niedernsill (AT) 0.00 km UNKNOWN
T2940072 RS41 2022-11-21 06:29:57 47.3225 12.4721 105 ° 67 km/h 2887 m -2.5 m/s 402.50 MHz Mittersill (AT) 0.00 km UNKNOWN
T2950286 RS41 2022-11-18 06:01:17 47.9585 11.7108 59 ° 44 km/h 769 m -3.4 m/s 404.30 MHz Unterhaching (DE) 0.00 km UNKNOWN
T2950425 RS41 2022-11-17 18:52:43 47.8757 13.3044 327 ° 15 km/h 997 m -2.9 m/s 404.30 MHz Mondsee (AT) 0.00 km UNKNOWN
T2940706 RS41 2022-11-17 13:20:30 47.7689 13.6543 104 ° 59 km/h 1729 m -4.2 m/s 404.30 MHz Bad Ischl (AT) 0.00 km UNKNOWN
D21049550 DFM09P 2022-11-17 10:09:39 47.7036 13.1937 96 ° 22 km/h 1382 m -3.1 m/s 402.011 MHz Oberalm (AT) 0.00 km UNKNOWN
D19015368 DFM17 2022-11-17 09:59:26 47.6655 13.3206 101 ° 72 km/h 2266 m -4.0 m/s 402.010 MHz Sankt Gilgen (AT) 0.00 km UNKNOWN
T2950841 RS41 2022-11-17 06:11:14 47.6579 12.3774 336 ° 11 km/h 1501 m -3.5 m/s 402.50 MHz Kössen (AT) 0.00 km UNKNOWN
T2940569 RS41 2022-11-16 18:38:19 47.5892 12.1899 48 ° 15 km/h 1758 m -2.9 m/s 402.50 MHz Kufstein (AT) 0.00 km UNKNOWN
T2950320 RS41 2022-11-16 12:38:42 48.0554 12.1822 243 ° 11 km/h 484 m -5.6 m/s 402.50 MHz Rosenheim (DE) 0.00 km UNKNOWN
D19015489 DFM17 2022-11-16 09:54:53 48.1062 11.9333 61 ° 15 km/h 676 m -4.0 m/s 402.010 MHz Vaterstetten (DE) 0.00 km FOUND
T2940738 RS41-SGP 2022-11-16 06:38:57 48.0097 11.8826 109 ° 39 km/h 899 m -3.1 m/s 402.50 MHz Vaterstetten (DE) 0.00 km FOUND
T2950347 RS41 2022-11-15 18:31:57 47.5155 11.672 30 ° 6 km/h 1760 m -3.4 m/s 402.50 MHz Achenkirch (AT) 0.00 km UNKNOWN
T2950363 RS41 2022-11-15 12:52:08 47.6387 11.4974 126 ° 9 km/h 1798 m -3.5 m/s 402.50 MHz Achenkirch (AT) 0.00 km UNKNOWN
T2940329 RS41 2022-11-15 07:03:03 47.7615 11.2666 48 ° 6 km/h 848 m -2.6 m/s 402.50 MHz Weilheim in Oberbayern (DE) 0.00 km UNKNOWN
T2940705 RS41 2022-11-14 19:16:07 48.1794 11.2826 59 ° 17 km/h 711 m -2.4 m/s 402.50 MHz Fürstenfeldbruck (DE) 0.00 km NEED ATTENTION
T3040562 RS41 2022-11-14 12:43:34 48.4131 10.9693 53 ° 11 km/h 620 m -6.7 m/s 402.50 MHz Augsburg (DE) 0.00 km NEED ATTENTION
U1310388 RS41 2022-11-14 06:48:26 48.4389 10.5593 7 ° 19 km/h 677 m -3.7 m/s 402.50 MHz Dillingen (DE) 0.00 km UNKNOWN
T2940330 RS41 2022-11-11 06:47:27 47.2124 9.95058 80 ° 2 km/h 2031 m -3.5 m/s 402.50 MHz Bludenz (AT) 0.00 km UNKNOWN
T2940759 RS41 2022-11-10 18:22:05 46.9836 10.333 205 ° 22 km/h 3731 m -3.1 m/s 402.50 MHz Kappl (AT) 0.00 km UNKNOWN
T3020059 RS41 2022-11-10 12:47:24 47.1644 10.8232 136 ° 17 km/h 3099 m -8.9 m/s 402.50 MHz Arzl im Pitztal (AT) 0.00 km UNKNOWN
T2940802 RS41 2022-11-10 07:10:09 47.8748 12.4182 74 ° 20 km/h 858 m -4.1 m/s 402.50 MHz Traunreut (DE) 0.00 km LOST
T3040560 RS41 2022-11-09 18:38:33 48.1979 12.4145 357 ° 11 km/h 654 m -4.0 m/s 402.50 MHz Waldkraiburg (DE) 0.00 km UNKNOWN
T3040497 RS41 2022-11-09 12:57:33 48.1116 12.1973 342 ° 4 km/h 566 m -4.7 m/s 402.50 MHz Waldkraiburg (DE) 0.00 km FOUND
U1310387 RS41 2022-11-09 07:12:04 48.0939 11.7895 77 ° 57 km/h 15552 m -9.3 m/s 402.50 MHz Waldkraiburg (DE) 0.00 km UNKNOWN
T3040461 RS41 2022-11-08 18:55:40 48.0679 11.979 19 ° 17 km/h 739 m -2.8 m/s 402.50 MHz Vaterstetten (DE) 0.00 km UNKNOWN
U1310415 RS41 2022-11-08 12:41:43 48.0143 11.9938 335 ° 6 km/h 812 m -8.0 m/s 402.50 MHz Vaterstetten (DE) 0.00 km FOUND
U1310379 RS41 2022-11-08 06:28:53 47.7837 11.9983 16 ° 4 km/h 982 m -7.3 m/s 402.50 MHz Rosenheim (DE) 0.00 km UNKNOWN
T2940803 RS41 2022-11-07 18:53:53 47.5308 12.1996 299 ° 9 km/h 1529 m -3.7 m/s 402.50 MHz Söll (AT) 0.00 km UNKNOWN
T2950287 RS41 2022-11-07 13:21:52 47.6194 12.5556 191 ° 11 km/h 1582 m -3.2 m/s 402.50 MHz Kirchdorf in Tirol (AT) 0.00 km UNKNOWN
T2940736 RS41 2022-11-07 07:19:00 47.9356 12.8579 20 ° 11 km/h 522 m -4.3 m/s 402.50 MHz Sankt Georgen bei Salzburg (AT) 0.00 km UNKNOWN
T2940326 RS41 2022-11-04 06:17:50 48.4719 11.7493 88 ° 33 km/h 624 m -4.4 m/s 402.50 MHz Freising (DE) 0.00 km UNKNOWN
T2940800 RS41 2022-11-03 18:46:16 48.2441 12.4233 286 ° 20 km/h 600 m -2.4 m/s 402.50 MHz Waldkraiburg (DE) 0.00 km UNKNOWN
T2950365 RS41 2022-11-03 12:35:29 47.7968 12.2993 24 ° 7 km/h 1094 m -11.5 m/s 402.50 MHz Rosenheim (DE) 0.00 km UNKNOWN
T2940327 RS41 2022-11-03 06:33:33 47.8001 12.0019 250 ° 4 km/h 805 m -3.6 m/s 402.50 MHz Rosenheim (DE) 0.00 km UNKNOWN
U1340670 RS41 2022-11-02 19:06:53 47.7279 12.3204 140 ° 6 km/h 1350 m -3.2 m/s 402.50 MHz Kössen (AT) 0.00 km UNKNOWN
U1310420 RS41 2022-11-02 13:17:00 48.1565 13.137 113 ° 20 km/h 492 m -3.1 m/s 402.50 MHz Mauerkirchen (AT) 0.00 km FOUND
U1310358 RS41 2022-11-02 07:01:33 48.1694 12.9535 28 ° 19 km/h 497 m -3.4 m/s 402.50 MHz Neukirchen an der Enknach (AT) 0.00 km FOUND
T3040551 RS41 2022-10-28 05:37:16 47.6685 11.8158 71 ° 9 km/h 1495 m -4.3 m/s 402.50 MHz Achenkirch (AT) 0.00 km UNKNOWN
U1310357 RS41 2022-10-27 17:59:56 47.6068 11.7124 37 ° 11 km/h 1665 m -2.6 m/s 402.50 MHz Achenkirch (AT) 0.00 km UNKNOWN
T3040416 RS41 2022-10-27 12:21:25 47.7416 12.023 82 ° 17 km/h 1535 m -4.6 m/s 402.500 MHz Rosenheim (DE) 0.00 km UNKNOWN
T3040443 RS41 2022-10-27 06:10:08 47.7319 11.8482 236 ° 9 km/h 1230 m -5.0 m/s 402.50 MHz Rosenheim (DE) 0.00 km UNKNOWN
T2950274 RS41 2022-10-26 18:00:13 47.3904 12.0363 96 ° 13 km/h 1877 m -2.6 m/s 402.50 MHz Alpbach (AT) 0.00 km UNKNOWN
D19014018 DFM 2022-10-26 14:20:19 47.4639 11.9289 95 ° 30 km/h 2255 m -13.1 m/s 404.293 MHz Radfeld (AT) 0.00 km UNKNOWN
T2950859 RS41 2022-10-26 12:24:32 47.7144 12.9322 133 ° 13 km/h 1160 m -5.1 m/s 404.30 MHz Grossgmain (AT) 0.00 km UNKNOWN
T3040546 RS41 2022-10-26 06:04:18 47.8942 12.1549 118 ° 59 km/h 6369 m -3.5 m/s 404.30 MHz Rosenheim (DE) 0.00 km UNKNOWN
T3040418 RS41 2022-10-25 17:44:02 47.3974 12.7945 85 ° 26 km/h 2935 m -3.2 m/s 402.50 MHz Leogang (AT) 0.00 km UNKNOWN
T3040471 RS41 2022-10-25 11:56:08 47.7297 13.2443 112 ° 11 km/h 1469 m -9.4 m/s 402.50 MHz Faistenau (AT) 0.00 km UNKNOWN
D18080380 DFM 2022-10-25 07:49:03 47.8346 11.9219 92 ° 33 km/h 1605 m -13.8 m/s 402.009 MHz Rosenheim (DE) 0.00 km UNKNOWN
T3020011 RS41 2022-10-25 06:03:42 47.9702 13.4101 82 ° 19 km/h 823 m -2.3 m/s 402.50 MHz Frankenmarkt (AT) 0.00 km UNKNOWN
T3040474 RS41 2022-10-24 17:57:13 48.3446 13.0164 17 ° 33 km/h 607 m -2.8 m/s 402.50 MHz Braunau am Inn (AT) 0.00 km FOUND
D18082243 DFM 2022-10-24 15:00:46 48.353 12.9881 14 ° 28 km/h 596 m -1.8 m/s 402.009 MHz Braunau am Inn (AT) 0.00 km FOUND
T3040476 RS41 2022-10-24 12:18:14 48.3371 13.1109 97 ° 19 km/h 970 m -13.1 m/s 402.50 MHz Sankt Peter (AT) 0.00 km FOUND
T3040473 RS41 2022-10-24 06:14:37 48.4164 13.3627 335 ° 13 km/h 447 m -3.3 m/s 402.50 MHz Schärding (AT) 0.00 km UNKNOWN
T3040478 RS41 2022-10-21 05:42:05 48.204 12.4664 304 ° 22 km/h 564 m -3.6 m/s 402.50 MHz Waldkraiburg (DE) 0.00 km UNKNOWN
T2940757 RS41-SGP 2022-10-20 17:44:20 48.0152 12.1682 271 ° 9 km/h 508 m -8.6 m/s 402.50 MHz Rosenheim (DE) 0.00 km FOUND
T3040640 RS41 2022-10-20 11:38:39 47.7493 11.8745 3 ° 7 km/h 1295 m -11.2 m/s 402.50 MHz Rosenheim (DE) 0.00 km UNKNOWN
T2940717 RS41 2022-10-20 05:48:00 47.4219 12.224 42 ° 7 km/h 1890 m -2.7 m/s 402.50 MHz Westendorf (AT) 0.00 km UNKNOWN
T2940768 RS41 2022-10-19 17:29:28 47.486 12.0503 120 ° 69 km/h 8308 m -6.8 m/s 402.50 MHz Wörgl (AT) 0.00 km UNKNOWN
T3040479 RS41 2022-10-19 11:48:12 47.4162 12.0299 43 ° 2 km/h 1786 m -8.7 m/s 402.50 MHz Alpbach (AT) 0.00 km UNKNOWN
T2940703 RS41 2022-10-19 05:47:32 47.3172 12.3144 131 ° 17 km/h 2578 m -3.3 m/s 402.50 MHz Bramberg am Wildkogel (AT) 0.00 km UNKNOWN
T3040552 RS41 2022-10-18 17:57:09 47.6393 12.6904 109 ° 17 km/h 1863 m -2.8 m/s 402.50 MHz Grossgmain (AT) 0.00 km UNKNOWN
T2940766 RS41 2022-10-18 11:40:32 47.9558 12.1143 106 ° 33 km/h 3604 m -3.8 m/s 402.50 MHz Rosenheim (DE) 0.00 km FOUND
T3040444 RS41 2022-10-18 05:22:22 48.0126 11.8078 79 ° 22 km/h 778 m -11.3 m/s 402.50 MHz Vaterstetten (DE) 0.00 km FOUND
T3040460 RS41 2022-10-17 17:28:27 48.0637 11.662 39 ° 43 km/h 11692 m -5.8 m/s 402.50 MHz Unterhaching (DE) 0.00 km UNKNOWN
T2940447 RS41 2022-10-17 11:56:54 48.1271 11.6958 93 ° 6 km/h 704 m -5.7 m/s 402.50 MHz Vaterstetten (DE) 0.00 km FOUND
T2940673 RS41 2022-10-17 06:03:43 48.1481 11.8281 59 ° 7 km/h 643 m -2.9 m/s 402.50 MHz Vaterstetten (DE) 0.00 km FOUND
D18080403 DFM09 2022-10-14 08:22:04 46.9188 11.6607 153 ° 19 km/h 3174 m -3.0 m/s 404.288 MHz Bressanone (IT) 0.00 km UNKNOWN
T2940446 RS41 2022-10-14 05:33:19 46.9685 11.7885 153 ° 107 km/h 8515 m -4.1 m/s 402.50 MHz Brunico (IT) 0.00 km UNKNOWN
T2940414 RS41 2022-10-13 17:39:56 47.7558 11.9394 27 ° 15 km/h 996 m -4.1 m/s 402.50 MHz Rosenheim (DE) 0.00 km UNKNOWN
T2940675 RS41 2022-10-13 12:26:11 47.6932 11.959 87 ° 11 km/h 1203 m -2.7 m/s 402.50 MHz Kufstein (AT) 0.00 km UNKNOWN
D19007727 DFM 2022-10-13 09:12:55 47.418 11.8636 1 ° 7 km/h 2063 m -5.3 m/s 402.491 MHz Reith im Alpbachtal (AT) 0.00 km UNKNOWN
T2950641 RS41 2022-10-13 06:09:42 47.3652 11.8198 342 ° 9 km/h 1787 m -3.0 m/s 402.50 MHz Fügen (AT) 0.00 km UNKNOWN
T2940489 RS41 2022-10-12 17:45:29 47.6004 11.6777 98 ° 20 km/h 1725 m -2.8 m/s 402.50 MHz Achenkirch (AT) 0.00 km UNKNOWN
D18082286 DFM09 2022-10-12 14:52:43 47.6367 11.7814 111 ° 15 km/h 1704 m -3.7 m/s 402.010 MHz Achenkirch (AT) 0.00 km UNKNOWN
T2940492 RS41 2022-10-12 11:59:21 47.6522 11.7234 322 ° 6 km/h 1497 m -4.1 m/s 402.50 MHz Achenkirch (AT) 0.00 km UNKNOWN
T2950348 RS41 2022-10-12 05:46:23 47.7207 12.0166 136 ° 2 km/h 1329 m -4.7 m/s 402.50 MHz Niederndorf (AT) 0.00 km UNKNOWN
T2950640 RS41 2022-10-11 17:39:39 47.8355 11.9181 145 ° 2 km/h 764 m -3.4 m/s 402.50 MHz Rosenheim (DE) 0.00 km UNKNOWN
T2940411 RS41 2022-10-11 12:08:45 47.8757 12.0297 349 ° 6 km/h 653 m -6.0 m/s 402.50 MHz Rosenheim (DE) 0.00 km UNKNOWN
D18080319 DFM 2022-10-11 08:52:04 47.7407 11.9913 95 ° 13 km/h 2448 m -1.7 m/s 402.509 MHz Rosenheim (DE) 0.00 km UNKNOWN
T2940417 RS41 2022-10-11 06:20:39 47.6957 12.0126 104 ° 17 km/h 1754 m -2.6 m/s 404.30 MHz Niederndorf (AT) 0.00 km UNKNOWN
T2940379 RS41 2022-10-10 17:45:32 47.7784 11.6558 21 ° 4 km/h 1058 m -3.2 m/s 402.50 MHz Geretsried (DE) 0.00 km UNKNOWN
D18080246 DFM 2022-10-10 14:57:02 47.8679 11.5958 49 ° 9 km/h 863 m -3.3 m/s 402.010 MHz Geretsried (DE) 0.00 km FOUND
T2940430 RS41 2022-10-10 12:13:17 47.9665 11.5941 146 ° 7 km/h 826 m -3.7 m/s 402.50 MHz Unterhaching (DE) 0.00 km FOUND
T2940801 RS41 2022-10-10 06:03:47 47.9684 11.3716 79 ° 24 km/h 854 m -3.2 m/s 402.50 MHz Starnberg (DE) 0.00 km FOUND
D18083876 DFM09 2022-10-07 07:12:12 47.9377 11.1457 54 ° 52 km/h 9763 m 3.0 m/s 402.009 MHz Weilheim in Oberbayern (DE) 0.00 km UNKNOWN
T2950802 RS41 2022-10-07 05:16:26 48.1212 11.6376 14 ° 13 km/h 599 m -2.3 m/s 402.50 MHz München (DE) 0.00 km FOUND
T2940422 RS41 2022-10-06 18:06:25 48.2802 12.0431 229 ° 31 km/h 686 m -1.8 m/s 402.50 MHz Erding (DE) 0.00 km FOUND
T2940440 RS41 2022-10-06 11:50:07 48.5455 11.8888 98 ° 15 km/h 614 m -5.3 m/s 402.50 MHz Landshut (DE) 0.00 km FOUND
D18082329 DFM 2022-10-06 08:55:15 48.6094 11.9837 127 ° 11 km/h 578 m -2.7 m/s 402.010 MHz Landshut (DE) 0.00 km UNKNOWN
S3140370 RS41 2022-10-06 05:47:09 48.4801 11.6415 87 ° 20 km/h 601 m -11.1 m/s 402.50 MHz Pfaffenhofen an der Ilm (DE) 0.00 km UNKNOWN
S3140371 RS41 2022-10-05 17:52:13 48.1172 11.0801 54 ° 26 km/h 708 m -4.8 m/s 402.50 MHz Fürstenfeldbruck (DE) 0.00 km FOUND
S3140364 RS41 2022-10-05 12:28:00 47.8669 10.8019 109 ° 20 km/h 1088 m -3.0 m/s 402.50 MHz Kaufbeuren (DE) 0.00 km FOUND
D18082186 DFM09 2022-10-05 08:11:17 47.6312 10.7257 50 ° 9 km/h 1505 m -9.3 m/s 404.293 MHz Reutte (AT) 0.00 km FOUND
T1331024 RS41 2022-10-05 05:01:37 47.4759 10.7521 186 ° 41 km/h 17638 m 5.0 m/s 402.50 MHz Reutte (AT) 0.00 km UNKNOWN
S3141044 RS41 2022-10-04 17:40:16 46.9792 11.0145 161 ° 41 km/h 3545 m -3.2 m/s 402.50 MHz Sölden (AT) 0.00 km UNKNOWN
T1331029 RS41 2022-10-04 12:07:50 47.0161 11.4799 145 ° 43 km/h 3499 m -3.3 m/s 402.50 MHz Steinach am Brenner (AT) 0.00 km UNKNOWN
S3140369 RS41 2022-10-04 06:11:02 46.7085 11.4033 177 ° 48 km/h 3938 m -3.8 m/s 402.50 MHz Merano (IT) 0.00 km UNKNOWN
T2940382 RS41 2022-09-30 05:55:52 48.4177 11.8898 270 ° 2 km/h 604 m -2.7 m/s 402.50 MHz Freising (DE) 0.00 km UNKNOWN
T2940381 RS41 2022-09-29 17:47:03 48.4583 11.8715 230 ° 7 km/h 647 m -6.4 m/s 402.50 MHz Freising (DE) 0.00 km UNKNOWN
T2940804 RS41 2022-09-29 12:45:06 48.0822 11.2634 51 ° 57 km/h 13219 m 3.3 m/s 402.50 MHz Germering (DE) 0.00 km UNKNOWN
T2950642 RS41 2022-09-29 11:53:27 48.4026 11.8548 256 ° 11 km/h 623 m -9.7 m/s 402.50 MHz Freising (DE) 0.00 km UNKNOWN
D19002978 DFM09 2022-09-29 08:10:24 48.2158 11.8092 307 ° 13 km/h 665 m -3.2 m/s 402.009 MHz Vaterstetten (DE) 0.00 km FOUND
T2940409 RS41 2022-09-29 05:56:24 48.3346 12.4704 287 ° 4 km/h 780 m -2.6 m/s 402.50 MHz Waldkraiburg (DE) 0.00 km UNKNOWN
T2940449 RS41 2022-09-28 17:58:22 48.2198 12.8949 9 ° 11 km/h 408 m -2.5 m/s 402.50 MHz Hochburg-Ach (AT) 0.00 km FOUND
T2940412 RS41 2022-09-28 11:51:16 48.1811 12.6516 90 ° 11 km/h 522 m -7.2 m/s 402.50 MHz Hochburg-Ach (AT) 0.00 km FOUND
T2940413 RS41 2022-09-28 05:40:32 47.9006 13.2543 310 ° 15 km/h 887 m -2.5 m/s 402.50 MHz Neumarkt am Wallersee (AT) 0.00 km UNKNOWN
T2940384 RS41 2022-09-27 17:35:35 47.8617 12.8382 64 ° 4 km/h 550 m -3.3 m/s 402.50 MHz Oberndorf bei Salzburg (AT) 0.00 km UNKNOWN
T2940799 RS41 2022-09-27 12:03:51 47.7741 12.9674 106 ° 37 km/h 582 m -10.4 m/s 402.50 MHz Viehausen (AT) 0.00 km FOUND
D19004510 DFM09 2022-09-27 09:51:00 47.5109 12.9774 106 ° 56 km/h 2510 m -2.7 m/s 404.308 MHz Saalfelden am Steinernen Meer (AT) 0.00 km UNKNOWN
D19015835 DFM17 2022-09-27 08:12:01 47.5798 12.2486 102 ° 35 km/h 1935 m -11.5 m/s 402.009 MHz Ebbs (AT) 0.00 km UNKNOWN
T2940487 RS41 2022-09-27 05:44:34 47.9474 12.6465 19 ° 17 km/h 733 m -3.5 m/s 402.50 MHz Traunreut (DE) 0.00 km UNKNOWN
T2940380 RS41 2022-09-26 17:59:53 47.9271 12.2459 53 ° 13 km/h 785 m -3.8 m/s 402.50 MHz Rosenheim (DE) 0.00 km UNKNOWN
D18082317 DFM 2022-09-26 14:47:19 47.8706 11.9188 74 ° 13 km/h 823 m -4.4 m/s 402.010 MHz Rosenheim (DE) 0.00 km FOUND
T2940383 RS41 2022-09-26 11:58:15 47.8541 11.5544 51 ° 13 km/h 878 m -5.8 m/s 402.50 MHz Geretsried (DE) 0.00 km FOUND
D18080369 DFM 2022-09-26 08:59:43 47.799 11.6598 89 ° 22 km/h 1016 m -5.1 m/s 402.008 MHz Geretsried (DE) 0.00 km UNKNOWN
D18051719 DFM 2022-09-26 07:42:24 47.9064 11.1583 92 ° 30 km/h 1161 m -12.3 m/s 402.509 MHz Weilheim in Oberbayern (DE) 0.00 km FOUND
T2940415 RS41 2022-09-26 06:08:57 47.8124 11.778 89 ° 35 km/h 1074 m -4.3 m/s 402.50 MHz Geretsried (DE) 0.00 km UNKNOWN
D18080390 DFM 2022-09-23 09:07:17 47.2212 11.436 144 ° 33 km/h 2988 m -3.7 m/s 402.010 MHz Sistrans (AT) 0.00 km UNKNOWN
T2940419 RS41 2022-09-23 05:34:13 47.2849 11.2376 197 ° 6 km/h 837 m -6.2 m/s 402.50 MHz Zirl (AT) 0.00 km UNKNOWN
T2940526 RS41 2022-09-22 17:34:20 46.7969 10.9438 178 ° 74 km/h 4498 m -4.7 m/s 402.50 MHz Sölden (AT) 0.00 km UNKNOWN
T2950770 RS41 2022-09-22 12:09:52 46.952 11.1804 110 ° 7 km/h 3371 m -4.5 m/s 402.50 MHz Sölden (AT) 0.00 km UNKNOWN
T2940439 RS41 2022-09-22 05:36:06 47.1657 11.3017 169 ° 85 km/h 7175 m -11.4 m/s 402.50 MHz 0.00 km UNKNOWN
D18050829 DFM09 2022-09-21 19:59:30 47.0064 10.9662 160 ° 33 km/h 4055 m -12.5 m/s 402.350 MHz Sölden (AT) 0.00 km UNKNOWN
D18081405 DFM 2022-09-21 18:42:48 47.3348 10.8806 171 ° 70 km/h 6222 m -14.7 m/s 402.251 MHz Ehrwald (AT) 0.00 km UNKNOWN
T2950774 RS41 2022-09-21 17:43:32 46.6945 11.4406 154 ° 31 km/h 3524 m -2.4 m/s 402.50 MHz Bressanone (IT) 0.00 km UNKNOWN
T2940525 RS41 2022-09-21 11:43:50 46.9174 11.5152 165 ° 30 km/h 3828 m -5.4 m/s 402.50 MHz Steinach am Brenner (AT) 0.00 km UNKNOWN
T2940429 RS41-SGP 2022-09-21 05:33:22 46.7193 11.6169 197 ° 33 km/h 4282 m -4.0 m/s 402.50 MHz Bressanone (IT) 0.00 km FOUND
T2940524 RS41 2022-09-20 18:32:49 46.3633 12.6769 258 ° 9 km/h 1995 m -3.3 m/s 402.50 MHz Maniago (IT) 0.00 km FOUND
S3140363 RS41 2022-09-20 11:47:58 47.0552 12.1044 131 ° 30 km/h 3393 m -7.2 m/s 402.50 MHz Mayrhofen (AT) 0.00 km UNKNOWN
S3140549 RS41 2022-09-20 05:44:51 46.5477 12.4211 97 ° 19 km/h 2221 m -2.4 m/s 402.50 MHz Lienz (AT) 0.00 km UNKNOWN
S3140365 RS41 2022-09-19 17:30:56 46.8793 12.3049 150 ° 31 km/h 2943 m -3.6 m/s 402.50 MHz Virgen (AT) 0.00 km UNKNOWN
S3140377 RS41 2022-09-19 13:28:04 47.4664 11.4765 135 ° 133 km/h 11339 m -6.5 m/s 402.50 MHz Achenkirch (AT) 0.00 km UNKNOWN
S3140550 RS41 2022-09-19 11:47:38 47.0737 12.3128 148 ° 41 km/h 3356 m -6.8 m/s 402.50 MHz Virgen (AT) 0.00 km UNKNOWN
D18050262 DFM09 2022-09-19 08:00:48 46.9475 12.0902 152 ° 67 km/h 3141 m -6.5 m/s 402.011 MHz Brunico (IT) 0.00 km UNKNOWN
S3140551 RS41 2022-09-19 05:18:52 47.0235 12.4875 146 ° 31 km/h 2688 m -11.9 m/s 402.50 MHz Virgen (AT) 0.00 km UNKNOWN
T1251020 RS41 2022-09-16 07:31:42 47.8249 11.6236 91 ° 109 km/h 12026 m 4.1 m/s 402.50 MHz Geretsried (DE) 0.00 km UNKNOWN
T1330067 RS41 2022-09-16 06:22:12 47.8587 13.2736 96 ° 28 km/h 1080 m -2.9 m/s 402.50 MHz Thalgau (AT) 0.00 km UNKNOWN
T1251090 RS41 2022-09-15 11:58:44 47.9259 12.3172 95 ° 37 km/h 662 m -3.1 m/s 404.30 MHz Rosenheim (DE) 0.00 km UNKNOWN
T2930612 RS41 2022-09-15 11:50:59 47.928 12.3899 92 ° 48 km/h 852 m -2.5 m/s 402.50 MHz Traunreut (DE) 0.00 km UNKNOWN
T2950358 RS41 2022-09-15 06:48:57 48.07 12.4317 69 ° 50 km/h 782 m -8.1 m/s 402.50 MHz Waldkraiburg (DE) 0.00 km UNKNOWN
T2940510 RS41 2022-09-14 11:57:18 47.948 12.5935 85 ° 22 km/h 879 m -5.2 m/s 402.50 MHz Traunreut (DE) 0.00 km FOUND
D18050278 DFM09 2022-09-14 08:14:17 48.0301 12.4383 67 ° 33 km/h 697 m -2.8 m/s 402.009 MHz Traunreut (DE) 0.00 km UNKNOWN
T2940516 RS41 2022-09-14 05:40:36 47.9861 12.6494 60 ° 20 km/h 684 m -4.7 m/s 402.50 MHz Traunreut (DE) 0.00 km UNKNOWN
T2930611 RS41 2022-09-13 17:53:27 47.3547 12.4093 90 ° 43 km/h 2710 m -2.7 m/s 402.50 MHz Bramberg am Wildkogel (AT) 0.00 km UNKNOWN
T2940721 RS41 2022-09-13 11:39:03 47.368 11.9785 154 ° 2 km/h 1201 m -10.1 m/s 402.50 MHz Alpbach (AT) 0.00 km UNKNOWN
T2940507 RS41 2022-09-13 06:09:46 47.1314 11.9837 112 ° 30 km/h 2779 m -2.7 m/s 402.50 MHz Mayrhofen (AT) 0.00 km UNKNOWN
T2940728 RS41 2022-09-12 12:10:52 47.0989 11.8541 104 ° 33 km/h 3250 m -4.1 m/s 402.50 MHz Mayrhofen (AT) 0.00 km UNKNOWN
T2940687 RS41 2022-09-12 05:50:23 47.1135 11.6708 119 ° 37 km/h 2894 m -10.8 m/s 402.50 MHz Steinach am Brenner (AT) 0.00 km UNKNOWN
T2940512 RS41 2022-09-09 05:56:10 48.3523 12.7484 28 ° 17 km/h 727 m -4.2 m/s 402.50 MHz Braunau am Inn (AT) 0.00 km FOUND
T2940514 RS41 2022-09-08 18:07:09 48.3584 13.0066 328 ° 15 km/h 629 m -2.5 m/s 402.50 MHz Braunau am Inn (AT) 0.00 km NEED ATTENTION
T2940727 RS41 2022-09-08 12:06:18 48.4405 12.269 70 ° 20 km/h 777 m -2.8 m/s 402.50 MHz Landshut (DE) 0.00 km UNKNOWN
T2930607 RS41 2022-09-08 05:53:08 48.448 12.1169 77 ° 35 km/h 668 m -4.0 m/s 402.50 MHz Landshut (DE) 0.00 km UNKNOWN
T2940515 RS41 2022-09-07 18:06:35 48.0077 12.1878 292 ° 19 km/h 698 m -6.7 m/s 402.50 MHz Rosenheim (DE) 0.00 km LOST
T2940797 RS41 2022-09-07 11:51:22 48.0656 12.148 74 ° 22 km/h 871 m -10.2 m/s 402.50 MHz Rosenheim (DE) 0.00 km UNKNOWN
T1251016 RS41 2022-09-07 06:08:41 47.8763 12.3312 13 ° 17 km/h 710 m -3.5 m/s 402.50 MHz Rosenheim (DE) 0.00 km UNKNOWN
T2940725 RS41 2022-09-06 12:15:34 47.8854 12.4487 3 ° 7 km/h 866 m -4.9 m/s 402.50 MHz Traunreut (DE) 0.00 km LOST
T2940505 RS41 2022-09-05 11:52:45 47.7844 11.8292 158 ° 7 km/h 1074 m -6.8 m/s 402.50 MHz Rosenheim (DE) 0.00 km UNKNOWN
T2940506 RS41 2022-09-01 11:53:09 47.8488 11.4963 252 ° 15 km/h 715 m -8.6 m/s 402.50 MHz Geretsried (DE) 0.00 km UNKNOWN
T2930608 RS41 2022-08-31 13:08:16 47.6992 12.5016 74 ° 30 km/h 5514 m -3.9 m/s 404.30 MHz Kössen (AT) 0.00 km UNKNOWN
T2940513 RS41 2022-08-30 12:03:13 47.8102 11.5625 235 ° 15 km/h 796 m -4.6 m/s 402.50 MHz Geretsried (DE) 0.00 km UNKNOWN
T2930610 RS41 2022-08-30 07:39:59 47.7913 11.4805 293 ° 9 km/h 780 m -7.6 m/s 402.50 MHz Geretsried (DE) 0.00 km UNKNOWN
T2940276 RS41 2022-08-29 11:56:26 47.7803 11.1241 242 ° 6 km/h 1541 m -6.9 m/s 404.300 MHz Weilheim in Oberbayern (DE) 0.00 km UNKNOWN
T2940723 RS41 2022-08-29 06:11:29 47.7735 11.228 249 ° 4 km/h 796 m -2.8 m/s 402.50 MHz Weilheim in Oberbayern (DE) 0.00 km UNKNOWN
S3141041 RS41 2022-08-25 11:29:01 47.78 10.7089 161 ° 6 km/h 994 m -13.9 m/s 402.50 MHz Kaufbeuren (DE) 0.00 km UNKNOWN
T2940509 RS41 2022-08-24 12:11:14 47.5681 10.59 342 ° 6 km/h 1158 m -1.7 m/s 402.50 MHz Reutte (AT) 0.00 km NEED ATTENTION
T2940508 RS41 2022-08-24 08:00:30 47.3115 10.6152 288 ° 11 km/h 2579 m -8.4 m/s 402.50 MHz Imst (AT) 0.00 km UNKNOWN
T2940755 RS41 2022-08-23 08:10:54 47.2445 10.9753 164 ° 2 km/h 2364 m -3.9 m/s 404.30 MHz Silz (AT) 0.00 km UNKNOWN
T1251089 RS41 2022-08-22 11:48:27 47.5911 10.8837 275 ° 11 km/h 1572 m -10.0 m/s 402.50 MHz Reutte (AT) 0.00 km UNKNOWN
T1251087 RS41 2022-08-22 07:42:05 47.5433 10.868 243 ° 13 km/h 1958 m -5.2 m/s 402.50 MHz Reutte (AT) 0.00 km UNKNOWN
T2940686 RS41 2022-08-18 11:38:04 48.3552 11.4506 211 ° 7 km/h 614 m -10.8 m/s 402.50 MHz Dachau (DE) 0.00 km UNKNOWN
T2940726 RS41 2022-08-17 12:10:31 48.4779 11.5474 239 ° 9 km/h 575 m -2.7 m/s 402.50 MHz Pfaffenhofen an der Ilm (DE) 0.00 km NEED ATTENTION
T1251092 RS41 2022-08-16 17:55:34 48.0005 11.6764 28 ° 6 km/h 647 m -2.3 m/s 402.50 MHz Unterhaching (DE) 0.00 km LOST
T2930609 RS41 2022-08-16 11:44:48 47.8861 11.404 294 ° 6 km/h 1044 m -11.0 m/s 402.50 MHz Geretsried (DE) 0.00 km FOUND
T2940731 RS41 2022-08-16 06:00:32 47.6404 11.4857 114 ° 13 km/h 2156 m -16.1 m/s 404.30 MHz Achenkirch (AT) 0.00 km UNKNOWN
T2940732 RS41 2022-08-12 05:34:28 46.8506 10.301 173 ° 33 km/h 3889 m -14.7 m/s 402.50 MHz Pfunds (AT) 0.00 km UNKNOWN
T2940724 RS41 2022-08-11 17:57:54 47.0173 10.1007 134 ° 33 km/h 3532 m -3.0 m/s 402.50 MHz Sankt Gallenkirch (AT) 0.00 km UNKNOWN
T2940729 RS41 2022-08-11 12:13:00 47.372 9.84751 79 ° 20 km/h 2349 m -7.0 m/s 402.50 MHz Egg (AT) 0.00 km UNKNOWN
T2940688 RS41 2022-08-11 05:46:27 47.3813 10.2735 70 ° 20 km/h 2230 m -10.4 m/s 402.50 MHz Mittelberg (AT) 0.00 km UNKNOWN
T1251088 RS41 2022-08-10 17:43:44 47.5587 10.4595 258 ° 15 km/h 1476 m -3.0 m/s 402.50 MHz Sonthofen (DE) 0.00 km UNKNOWN
T2940730 RS41 2022-08-10 11:57:33 47.7141 10.5862 250 ° 28 km/h 869 m -11.9 m/s 402.50 MHz Kaufbeuren (DE) 0.00 km FOUND
D18050676 DFM09 2022-08-10 11:48:43 47.7576 10.6941 240 ° 30 km/h 1336 m -3.3 m/s 402.009 MHz Kaufbeuren (DE) 0.00 km FOUND
T2940722 RS41 2022-08-10 05:34:08 47.712 11.1128 242 ° 6 km/h 796 m -8.7 m/s 402.50 MHz Weilheim in Oberbayern (DE) 0.00 km FOUND
T1251152 RS41 2022-08-09 18:09:45 47.581 11.1394 209 ° 37 km/h 1124 m -3.0 m/s 402.50 MHz Garmisch-Partenkirchen (DE) 0.00 km UNKNOWN
T1250861 RS41 2022-08-09 12:21:36 47.5541 10.7665 236 ° 9 km/h 1873 m -5.1 m/s 402.50 MHz Reutte (AT) 0.00 km UNKNOWN
T1251149 RS41 2022-08-09 05:19:49 47.5536 10.9561 255 ° 15 km/h 1862 m -15.1 m/s 402.50 MHz Garmisch-Partenkirchen (DE) 0.00 km UNKNOWN
T1251151 RS41 2022-08-08 17:43:34 47.5212 11.0222 227 ° 7 km/h 1966 m -5.0 m/s 402.50 MHz Garmisch-Partenkirchen (DE) 0.00 km UNKNOWN
T1250860 RS41 2022-08-08 10:13:27 47.7729 10.8094 243 ° 17 km/h 1500 m -20.4 m/s 402.50 MHz Kaufbeuren (DE) 0.00 km UNKNOWN
T1250990 RS41 2022-08-08 06:13:00 47.6659 11.1317 241 ° 20 km/h 1340 m -2.6 m/s 402.50 MHz Weilheim in Oberbayern (DE) 0.00 km UNKNOWN
T1250988 RS41 2022-08-05 06:07:57 48.4005 11.929 89 ° 37 km/h 615 m -3.4 m/s 402.50 MHz Erding (DE) 0.00 km UNKNOWN
T1340587 RS41 2022-08-04 17:56:41 48.1258 11.6159 152 ° 7 km/h 635 m -3.5 m/s 402.50 MHz München (DE) 0.00 km FOUND
T1250408 RS41 2022-08-04 12:06:20 48.033 11.3343 127 ° 17 km/h 803 m -7.0 m/s 402.50 MHz Starnberg (DE) 0.00 km FOUND
T1250404 RS41 2022-08-04 06:11:02 47.9086 11.5649 33 ° 15 km/h 821 m -2.7 m/s 402.50 MHz Geretsried (DE) 0.00 km UNKNOWN
T1250859 RS41 2022-08-03 16:30:48 47.8262 10.9431 166 ° 13 km/h 901 m -3.5 m/s 402.50 MHz Weilheim in Oberbayern (DE) 0.00 km UNKNOWN
T1250405 RS41 2022-08-03 12:10:27 47.719 10.9849 163 ° 19 km/h 1383 m -2.7 m/s 402.50 MHz Weilheim in Oberbayern (DE) 0.00 km UNKNOWN
T1250406 RS41 2022-08-03 06:16:16 47.3826 11.0222 115 ° 19 km/h 2363 m -2.9 m/s 402.50 MHz Ehrwald (AT) 0.00 km UNKNOWN
T1250403 RS41 2022-08-02 16:47:14 47.5725 10.9058 144 ° 2 km/h 1863 m -3.8 m/s 402.50 MHz Garmisch-Partenkirchen (DE) 0.00 km UNKNOWN
T1250987 RS41 2022-08-02 12:07:56 47.1173 10.703 87 ° 6 km/h 3053 m -7.6 m/s 402.50 MHz Fliess (AT) 0.00 km UNKNOWN
T1340584 RS41 2022-08-02 05:57:59 47.2919 11.1727 173 ° 9 km/h 751 m -4.6 m/s 402.50 MHz Inzing (AT) 0.00 km UNKNOWN
T1250949 RS41 2022-08-01 14:20:59 47.7476 11.9399 124 ° 30 km/h 1074 m -10.6 m/s 402.50 MHz Rosenheim (DE) 0.00 km UNKNOWN
T1340581 RS41 2022-08-01 11:46:59 47.7031 11.6986 105 ° 26 km/h 1322 m -13.7 m/s 402.50 MHz Achenkirch (AT) 0.00 km UNKNOWN
T1250952 RS41 2022-08-01 06:07:34 47.4088 12.5852 114 ° 35 km/h 2060 m -3.3 m/s 402.50 MHz Fieberbrunn (AT) 0.00 km UNKNOWN
T1250878 RS41-SGP 2022-07-29 05:45:04 48.0518 12.096 75 ° 11 km/h 662 m -3.6 m/s 402.50 MHz Rosenheim (DE) 0.00 km FOUND
T1250877 RS41 2022-07-28 18:16:40 48.1812 12.4417 253 ° 20 km/h 671 m -2.7 m/s 402.50 MHz Waldkraiburg (DE) 0.00 km UNKNOWN
T1340580 RS41 2022-07-28 11:52:11 48.1314 11.8267 255 ° 19 km/h 676 m -6.5 m/s 402.50 MHz Vaterstetten (DE) 0.00 km FOUND
T1250989 RS41 2022-07-28 05:33:44 47.9089 11.932 279 ° 15 km/h 917 m -9.6 m/s 402.50 MHz Rosenheim (DE) 0.00 km UNKNOWN
T1340582 RS41 2022-07-27 17:53:07 47.7614 12.0487 223 ° 7 km/h 1124 m -4.5 m/s 402.50 MHz Rosenheim (DE) 0.00 km UNKNOWN
T1340586 RS41 2022-07-27 11:39:01 47.9296 11.5609 224 ° 13 km/h 836 m -13.1 m/s 402.50 MHz Geretsried (DE) 0.00 km UNKNOWN
T1340583 RS41 2022-07-27 06:01:40 48.1123 12.4304 48 ° 11 km/h 604 m -3.0 m/s 402.500 MHz Waldkraiburg (DE) 0.00 km UNKNOWN
T1340588 RS41 2022-07-26 17:46:07 47.9375 12.1727 18 ° 17 km/h 566 m -4.1 m/s 402.50 MHz Rosenheim (DE) 0.00 km UNKNOWN
T1250407 RS41 2022-07-26 11:16:38 47.9226 12 80 ° 11 km/h 752 m -7.7 m/s 402.50 MHz Rosenheim (DE) 0.00 km UNKNOWN
D18050702 DFM 2022-07-26 07:55:02 48.0385 11.7619 89 ° 26 km/h 831 m -13.8 m/s 402.509 MHz Vaterstetten (DE) 0.00 km FOUND
T1250950 RS41 2022-07-26 06:00:52 48.2811 12.4414 91 ° 30 km/h 683 m -2.8 m/s 402.50 MHz Waldkraiburg (DE) 0.00 km UNKNOWN
T1340579 RS41 2022-07-25 18:04:12 48.277 12.8296 79 ° 20 km/h 561 m -3.3 m/s 402.50 MHz Braunau am Inn (AT) 0.00 km UNKNOWN
T1251150 RS41 2022-07-25 12:02:51 48.1138 11.8641 108 ° 30 km/h 652 m -6.5 m/s 402.50 MHz Vaterstetten (DE) 0.00 km UNKNOWN
T1250985 RS41 2022-07-25 05:59:20 47.8282 12.1047 3 ° 17 km/h 827 m -1.9 m/s 402.50 MHz Rosenheim (DE) 0.00 km UNKNOWN
T1250951 RS41 2022-07-22 05:52:07 47.6602 11.7384 319 ° 7 km/h 1622 m -3.8 m/s 402.50 MHz Achenkirch (AT) 0.00 km UNKNOWN
T1250953 RS41 2022-07-21 16:15:03 47.8876 11.1 31 ° 9 km/h 1150 m -17.8 m/s 402.50 MHz Weilheim in Oberbayern (DE) 0.00 km UNKNOWN
T1250954 RS41-SGP 2022-07-21 12:16:25 48.0431 11.3177 149 ° 4 km/h 805 m -5.9 m/s 402.50 MHz Starnberg (DE) 0.00 km FOUND
T1251158 RS41 2022-07-21 05:54:02 48.1564 11.5043 58 ° 26 km/h 659 m -3.0 m/s 402.50 MHz München (DE) 0.00 km NEED ATTENTION
T1250879 RS41 2022-07-20 17:24:53 48.0649 11.0865 88 ° 13 km/h 779 m -5.1 m/s 402.50 MHz Landsberg am Lech (DE) 0.00 km UNKNOWN
T1250864 RS41 2022-07-20 12:17:10 48.0246 10.9214 103 ° 9 km/h 830 m -3.9 m/s 402.50 MHz Landsberg am Lech (DE) 0.00 km UNKNOWN
D18050316 DFM09 2022-07-20 09:12:05 47.9253 11.1899 104 ° 9 km/h 1007 m -3.3 m/s 404.290 MHz Weilheim in Oberbayern (DE) 0.00 km UNKNOWN
T1250863 RS41 2022-07-20 06:05:26 47.8633 11.2353 110 ° 9 km/h 887 m -3.4 m/s 402.50 MHz Weilheim in Oberbayern (DE) 0.00 km UNKNOWN
T1251157 RS41 2022-07-19 17:16:22 47.7329 11.1051 254 ° 17 km/h 903 m -13.3 m/s 402.50 MHz Weilheim in Oberbayern (DE) 0.00 km UNKNOWN
T1251156 RS41 2022-07-19 11:36:37 47.6891 10.8043 253 ° 24 km/h 1312 m -13.8 m/s 402.50 MHz Reutte (AT) 0.00 km UNKNOWN
D17050626 DFM09 2022-07-19 09:13:17 47.5393 10.9623 291 ° 9 km/h 1834 m -3.3 m/s 402.509 MHz Garmisch-Partenkirchen (DE) 0.00 km UNKNOWN
T1250986 RS41 2022-07-19 06:03:00 47.3301 11.0062 113 ° 6 km/h 1254 m -2.8 m/s 402.50 MHz Mieming (AT) 0.00 km UNKNOWN
T1250880 RS41 2022-07-18 16:42:57 47.6615 10.965 185 ° 11 km/h 1559 m -3.4 m/s 402.50 MHz Garmisch-Partenkirchen (DE) 0.00 km UNKNOWN
T1340578 RS41 2022-07-18 11:50:25 47.1766 10.8347 128 ° 13 km/h 2968 m -7.3 m/s 402.50 MHz Oetz (AT) 0.00 km UNKNOWN
T1250881 RS41 2022-07-18 04:09:14 47.7708 10.9208 290 ° 7 km/h 981 m -17.4 m/s 402.50 MHz Weilheim in Oberbayern (DE) 0.00 km UNKNOWN
T1251155 RS41 2022-07-15 05:14:45 47.5287 12.2063 157 ° 20 km/h 1918 m -15.2 m/s 402.50 MHz Söll (AT) 0.00 km FOUND
T1251153 RS41 2022-07-14 17:45:42 47.7009 12.6381 82 ° 24 km/h 1514 m -4.8 m/s 402.50 MHz Kössen (AT) 0.00 km UNKNOWN
T1251148 RS41 2022-07-14 11:31:40 47.7851 11.9448 95 ° 17 km/h 928 m -4.6 m/s 402.50 MHz Rosenheim (DE) 0.00 km UNKNOWN
T1251164 RS41 2022-07-14 05:48:46 47.7673 12.3473 347 ° 7 km/h 1154 m -4.6 m/s 402.50 MHz Kössen (AT) 0.00 km UNKNOWN
T1251173 RS41 2022-07-13 17:47:21 47.4508 11.9648 162 ° 9 km/h 1351 m -4.8 m/s 402.50 MHz Kundl (AT) 0.00 km UNKNOWN
D18050552 DFM09 2022-07-13 13:37:25 47.6399 11.1879 35 ° 7 km/h 1457 m -4.8 m/s 404.311 MHz Garmisch-Partenkirchen (DE) 0.00 km UNKNOWN
D18081482 DFM 2022-07-13 12:13:49 47.388 11.0127 184 ° 9 km/h 2201 m -11.9 m/s 402.509 MHz Ehrwald (AT) 0.00 km UNKNOWN
T1250700 RS41 2022-07-13 12:01:19 47.3228 11.2688 293 ° 4 km/h 2403 m -6.4 m/s 402.50 MHz Zirl (AT) 0.00 km UNKNOWN
D18050633 DFM09 2022-07-13 08:10:37 47.2977 11.1202 239 ° 7 km/h 2680 m -3.2 m/s 402.009 MHz Telfs (AT) 0.00 km FOUND
D18082102 DFM 2022-07-13 06:52:09 47.4931 10.8332 31 ° 4 km/h 2003 m -11.7 m/s 402.508 MHz Reutte (AT) 0.00 km UNKNOWN
T1251120 RS41 2022-07-13 04:49:57 47.4511 10.8724 359 ° 2 km/h 2118 m -2.9 m/s 402.50 MHz Ehrwald (AT) 0.00 km UNKNOWN
T1251220 RS41 2022-07-12 16:25:32 47.6686 10.9091 109 ° 11 km/h 971 m -4.4 m/s 402.50 MHz Garmisch-Partenkirchen (DE) 0.00 km UNKNOWN
D18051496 DFM09 2022-07-12 13:40:02 47.5146 11.0425 200 ° 7 km/h 1958 m -3.1 m/s 402.010 MHz Garmisch-Partenkirchen (DE) 0.00 km UNKNOWN
T1251200 RS41 2022-07-12 11:49:48 46.9568 10.9472 107 ° 19 km/h 3968 m -7.9 m/s 402.50 MHz Sölden (AT) 0.00 km UNKNOWN
D18051367 DFM 2022-07-12 07:54:50 47.3827 11.2463 127 ° 9 km/h 2113 m -3.9 m/s 402.009 MHz Seefeld in Tirol (AT) 0.00 km UNKNOWN
T1251163 RS41 2022-07-12 04:39:34 47.7157 11.0141 269 ° 6 km/h 956 m -2.4 m/s 402.50 MHz Weilheim in Oberbayern (DE) 0.00 km UNKNOWN
D18080292 DFM 2022-07-11 19:12:41 47.6361 11.3437 220 ° 6 km/h 1110 m -12.5 m/s 402.509 MHz Garmisch-Partenkirchen (DE) 0.00 km LOST
T1251168 RS41 2022-07-11 17:16:43 47.3412 11.6932 241 ° 41 km/h 725 m -3.1 m/s 402.50 MHz Vomp (AT) 0.00 km UNKNOWN
D18050521 DFM 2022-07-11 14:06:45 47.3468 11.8486 127 ° 13 km/h 1940 m -2.9 m/s 402.490 MHz Fügen (AT) 0.00 km UNKNOWN
D18080343 DFM09 2022-07-11 12:15:59 47.4758 11.4694 77 ° 19 km/h 1980 m -12.5 m/s 402.509 MHz Achenkirch (AT) 0.00 km UNKNOWN
T1251165 RS41 2022-07-11 11:59:32 47.1806 11.605 114 ° 17 km/h 2993 m -6.3 m/s 402.50 MHz Volders (AT) 0.00 km UNKNOWN
D18051362 DFM09 2022-07-11 07:23:34 47.7009 10.9982 282 ° 11 km/h 1369 m -2.9 m/s 402.010 MHz Weilheim in Oberbayern (DE) 0.00 km UNKNOWN
T1251160 RS41 2022-07-11 04:31:18 47.5937 11.0747 111 ° 26 km/h 1893 m -4.7 m/s 402.50 MHz Garmisch-Partenkirchen (DE) 0.00 km UNKNOWN
D18050628 DFM 2022-07-08 07:40:18 47.1249 10.8324 175 ° 15 km/h 3188 m -5.9 m/s 402.009 MHz Umhausen (AT) 0.00 km UNKNOWN
D18082100 DFM09 2022-07-08 06:09:34 46.7581 10.8856 190 ° 109 km/h 4893 m -17.8 m/s 402.510 MHz Merano (IT) 0.00 km UNKNOWN
T1251167 RS41 2022-07-08 05:03:44 46.5729 10.8222 179 ° 30 km/h 3534 m -4.8 m/s 402.50 MHz Lana (IT) 0.00 km UNKNOWN
T1250698 RS41 2022-07-07 16:25:45 47.5464 11.1357 102 ° 43 km/h 1695 m -16.6 m/s 402.50 MHz Garmisch-Partenkirchen (DE) 0.00 km UNKNOWN
T1251162 RS41 2022-07-07 13:40:12 47.6233 11.4554 114 ° 46 km/h 1792 m -3.6 m/s 402.50 MHz Achenkirch (AT) 0.00 km UNKNOWN
T1251170 RS41 2022-07-07 11:51:20 47.4767 11.614 150 ° 13 km/h 1759 m -3.0 m/s 402.50 MHz Achenkirch (AT) 0.00 km UNKNOWN
D18082308 DFM09 2022-07-07 07:22:11 47.5064 11.5322 66 ° 7 km/h 1905 m -14.9 m/s 402.508 MHz Achenkirch (AT) 0.00 km UNKNOWN
D18050522 DFM09 2022-07-07 07:07:56 47.8065 11.0612 94 ° 11 km/h 1184 m -3.4 m/s 402.490 MHz Weilheim in Oberbayern (DE) 0.00 km UNKNOWN
T1251169 RS41 2022-07-07 04:55:46 47.5093 11.471 96 ° 20 km/h 1992 m -3.3 m/s 402.50 MHz Achenkirch (AT) 0.00 km UNKNOWN
T1251161 RS41 2022-07-06 16:20:06 47.8266 11.1001 135 ° 19 km/h 1317 m -3.5 m/s 402.50 MHz Weilheim in Oberbayern (DE) 0.00 km UNKNOWN
D18050542 DFM09 2022-07-06 13:36:09 47.7605 11.3096 134 ° 17 km/h 1242 m -4.1 m/s 404.311 MHz Weilheim in Oberbayern (DE) 0.00 km UNKNOWN
D18080629 DFM 2022-07-06 12:44:07 47.6571 11.5783 169 ° 22 km/h 1314 m -14.1 m/s 402.508 MHz Achenkirch (AT) 0.00 km UNKNOWN
T1251154 RS41 2022-07-06 11:48:53 47.6291 11.6265 136 ° 17 km/h 1784 m -11.5 m/s 402.50 MHz Achenkirch (AT) 0.00 km UNKNOWN
T1251166 RS41 2022-07-06 05:55:21 47.5705 11.9399 117 ° 15 km/h 1753 m -6.0 m/s 402.50 MHz Breitenbach am Inn (AT) 0.00 km UNKNOWN
D18050554 DFM09 2022-07-05 13:39:54 47.8104 11.3304 116 ° 2 km/h 1063 m -3.6 m/s 404.310 MHz Geretsried (DE) 0.00 km UNKNOWN
D18080584 DFM09 2022-07-05 12:53:06 47.8608 11.7959 57 ° 22 km/h 865 m -11.3 m/s 401.103 MHz Geretsried (DE) 0.00 km UNKNOWN
T1251172 RS41 2022-07-05 12:07:42 47.8779 11.5498 96 ° 20 km/h 861 m -3.2 m/s 402.50 MHz Geretsried (DE) 0.00 km FOUND
D18050609 DFM 2022-07-05 08:28:01 47.8318 11.5779 90 ° 20 km/h 815 m -3.0 m/s 402.010 MHz Geretsried (DE) 0.00 km UNKNOWN
D18080579 DFM09 2022-07-05 07:34:38 48.0359 11.5747 105 ° 13 km/h 684 m -13.6 m/s 401.101 MHz Unterhaching (DE) 0.00 km UNKNOWN
D18080560 DFM 2022-07-05 07:14:35 48.0392 11.5237 107 ° 30 km/h 2513 m -13.5 m/s 403.108 MHz Unterhaching (DE) 0.00 km UNKNOWN
T1251176 RS41 2022-07-05 05:03:19 47.7974 11.3126 68 ° 11 km/h 705 m -2.9 m/s 402.50 MHz Weilheim in Oberbayern (DE) 0.00 km UNKNOWN
T1251159 RS41 2022-07-04 16:57:58 47.907 11.4934 168 ° 9 km/h 745 m -3.1 m/s 402.50 MHz Geretsried (DE) 0.00 km UNKNOWN
D18050597 DFM 2022-07-04 14:07:42 48.0787 11.6229 250 ° 7 km/h 636 m -3.5 m/s 402.508 MHz Unterhaching (DE) 0.00 km FOUND
D18080631 DFM 2022-07-04 13:07:26 48.1143 11.5563 84 ° 15 km/h 611 m -9.1 m/s 403.109 MHz München (DE) 0.00 km NEED ATTENTION
T1310781 RS41 2022-07-04 11:38:55 48.1404 11.7515 43 ° 11 km/h 607 m -13.5 m/s 402.50 MHz Vaterstetten (DE) 0.00 km FOUND
D18082969 DFM09 2022-07-04 11:22:38 48.2303 11.8351 63 ° 15 km/h 986 m -12.1 m/s 403.109 MHz Erding (DE) 0.00 km FOUND
D18080566 DFM09 2022-07-04 10:32:58 48.3413 12.5656 64 ° 11 km/h 806 m -14.8 m/s 403.108 MHz Waldkraiburg (DE) 0.00 km FOUND
D18051403 DFM09 2022-07-04 07:53:03 48.001 11.7663 114 ° 20 km/h 702 m -3.4 m/s 404.30 MHz Vaterstetten (DE) 0.00 km NEED ATTENTION
D18082966 DFM09 2022-07-04 07:20:36 48.0976 11.9344 1 ° 48 km/h 7664 m 0.0 m/s 403.110 MHz Vaterstetten (DE) 0.00 km NEED ATTENTION
T1310786 RS41 2022-07-04 06:35:06 48.1852 12.1997 61 ° 20 km/h 642 m -2.7 m/s 402.50 MHz Waldkraiburg (DE) 0.00 km FOUND
T1310741 RS41 2022-07-01 06:52:54 48.7684 11.1073 126 ° 19 km/h 603 m -3.9 m/s 402.50 MHz Neuburg an der Donau (DE) 0.00 km UNKNOWN
T1331100 RS41 2022-06-30 16:31:31 47.9507 10.9855 275 ° 22 km/h 948 m -3.0 m/s 402.50 MHz Landsberg am Lech (DE) 0.00 km UNKNOWN
D18081148 DFM09 2022-06-30 13:53:06 47.977 11.0257 241 ° 22 km/h 889 m -5.1 m/s 404.310 MHz Landsberg am Lech (DE) 0.00 km FOUND
T1310782 RS41 2022-06-30 12:08:29 48.483 11.111 240 ° 4 km/h 535 m -5.5 m/s 402.50 MHz Aichach (DE) 0.00 km NEED ATTENTION
T1310784 RS41 2022-06-30 06:05:11 48.2726 11.0125 248 ° 7 km/h 657 m -5.4 m/s 402.50 MHz Königsbrunn (DE) 0.00 km LOST
T1310785 RS41 2022-06-29 17:33:48 47.9505 10.9613 14 ° 6 km/h 1003 m -13.8 m/s 402.50 MHz Landsberg am Lech (DE) 0.00 km UNKNOWN
D18079628 DFM 2022-06-29 14:01:54 47.8106 11.0588 143 ° 13 km/h 826 m -1.6 m/s 402.509 MHz Weilheim in Oberbayern (DE) 0.00 km FOUND
T1310740 RS41 2022-06-29 12:17:21 48.221 10.763 133 ° 7 km/h 591 m -4.5 m/s 402.50 MHz Königsbrunn (DE) 0.00 km FOUND
T1310775 RS41 2022-06-29 05:59:34 48.3141 11.158 94 ° 19 km/h 653 m -3.5 m/s 402.50 MHz Aichach (DE) 0.00 km UNKNOWN
T1310791 RS41 2022-06-28 18:26:44 48.5049 10.805 278 ° 9 km/h 635 m -3.6 m/s 402.50 MHz Neusäß (DE) 0.00 km FOUND
T1340012 RS41 2022-06-28 12:01:43 48.457 11.3485 254 ° 13 km/h 606 m -3.9 m/s 402.50 MHz Pfaffenhofen an der Ilm (DE) 0.00 km FOUND
T1240809 RS41 2022-06-28 05:26:25 48.4867 11.6808 87 ° 7 km/h 617 m -13.1 m/s 402.50 MHz Freising (DE) 0.00 km UNKNOWN
T1240727 RS41 2022-06-27 17:37:18 48.4523 11.8287 126 ° 37 km/h 599 m -3.6 m/s 402.50 MHz Freising (DE) 0.00 km UNKNOWN
T1240733 RS41 2022-06-27 12:06:24 48.3906 11.6309 206 ° 13 km/h 618 m -5.3 m/s 402.50 MHz Freising (DE) 0.00 km UNKNOWN
T1251080 RS41 2022-06-27 05:17:02 48.2279 11.8108 184 ° 13 km/h 662 m -11.8 m/s 402.50 MHz Erding (DE) 0.00 km UNKNOWN
D18081149 DFM 2022-06-24 07:20:29 47.9263 10.9988 84 ° 19 km/h 897 m -3.0 m/s 402.010 MHz Weilheim in Oberbayern (DE) 0.00 km UNKNOWN
T1240730 RS41 2022-06-24 06:08:36 48.3298 12.3222 71 ° 19 km/h 757 m -3.4 m/s 402.50 MHz Waldkraiburg (DE) 0.00 km UNKNOWN
T1251073 RS41 2022-06-23 17:41:46 47.9564 11.6596 261 ° 24 km/h 753 m -6.3 m/s 402.50 MHz Unterhaching (DE) 0.00 km UNKNOWN
T1251070 RS41 2022-06-23 11:39:36 47.7898 11.5194 259 ° 13 km/h 1012 m -8.6 m/s 402.50 MHz Geretsried (DE) 0.00 km UNKNOWN
T1251071 RS41 2022-06-23 06:00:09 47.674 12.0029 76 ° 15 km/h 1589 m -3.6 m/s 402.50 MHz Kufstein (AT) 0.00 km UNKNOWN
T1250875 RS41 2022-06-22 17:56:41 48.0426 12.3039 276 ° 13 km/h 780 m -3.1 m/s 402.50 MHz Waldkraiburg (DE) 0.00 km FOUND
D18052936 DFM 2022-06-22 14:00:14 47.9442 11.3282 123 ° 19 km/h 799 m -3.2 m/s 402.509 MHz Starnberg (DE) 0.00 km LOST
T1251083 RS41 2022-06-22 12:10:22 48.0648 11.7905 140 ° 15 km/h 651 m -4.6 m/s 402.50 MHz Vaterstetten (DE) 0.00 km UNKNOWN
T1251072 RS41 2022-06-22 05:02:15 47.8228 11.9338 15 ° 17 km/h 879 m -8.1 m/s 402.50 MHz Rosenheim (DE) 0.00 km UNKNOWN
T1251075 RS41 2022-06-21 17:47:27 47.7824 12.8454 302 ° 7 km/h 1019 m -4.4 m/s 402.50 MHz Grossgmain (AT) 0.00 km UNKNOWN
T1251082 RS41 2022-06-21 11:56:14 47.7313 12.1757 257 ° 13 km/h 1240 m -5.3 m/s 402.50 MHz Niederndorf (AT) 0.00 km UNKNOWN
D18083628 DFM 2022-06-21 07:30:23 47.7714 11.4068 222 ° 17 km/h 1050 m -4.2 m/s 402.009 MHz Geretsried (DE) 0.00 km FOUND
T1251084 RS41 2022-06-21 05:36:57 47.6828 12.5543 92 ° 20 km/h 1690 m -3.8 m/s 402.50 MHz Kössen (AT) 0.00 km UNKNOWN
T1251037 RS41 2022-06-20 17:54:37 48.0992 13.0274 143 ° 26 km/h 585 m -2.3 m/s 402.50 MHz Eggelsberg (AT) 0.00 km FOUND
T1251050 RS41 2022-06-20 12:26:56 48.2554 12.3808 79 ° 31 km/h 655 m -3.0 m/s 402.50 MHz Waldkraiburg (DE) 0.00 km UNKNOWN
T1251047 RS41-SGP 2022-06-20 06:02:21 48.118 12.0072 98 ° 37 km/h 842 m -3.5 m/s 402.50 MHz Vaterstetten (DE) 0.00 km UNKNOWN
T1251060 RS41 2022-06-15 17:46:00 47.4256 11.619 8 ° 9 km/h 2136 m -3.3 m/s 402.50 MHz Eben am Achensee (AT) 0.00 km UNKNOWN
T1251042 RS41-SGP 2022-06-15 11:44:13 47.1668 11.737 152 ° 15 km/h 2719 m -3.4 m/s 402.50 MHz Mayrhofen (AT) 0.00 km UNKNOWN
T1251034 RS41 2022-06-15 05:47:26 47.3983 12.0129 61 ° 13 km/h 1870 m -5.6 m/s 402.50 MHz Alpbach (AT) 0.00 km UNKNOWN
T1251058 RS41 2022-06-14 17:17:45 47.5954 11.541 209 ° 4 km/h 1513 m -12.4 m/s 402.50 MHz Achenkirch (AT) 0.00 km UNKNOWN
D18080455 DFM09 2022-06-14 12:05:43 47.4763 11.2224 95 ° 15 km/h 1907 m -14.2 m/s 402.108 MHz Garmisch-Partenkirchen (DE) 0.00 km FOUND
T1251043 RS41 2022-06-14 11:20:57 47.4804 11.4848 113 ° 9 km/h 2208 m -12.0 m/s 402.50 MHz Achenkirch (AT) 0.00 km UNKNOWN
D18084418 DFM09 2022-06-14 09:13:02 47.318 11.6154 5 ° 4 km/h 879 m -3.1 m/s 404.308 MHz Terfens (AT) 0.00 km UNKNOWN
T1251044 RS41 2022-06-14 05:44:49 47.1954 11.745 95 ° 19 km/h 2707 m -4.6 m/s 402.50 MHz Mayrhofen (AT) 0.00 km UNKNOWN
T1251035 RS41 2022-06-13 17:40:22 47.3802 12.2861 137 ° 19 km/h 2429 m -2.3 m/s 402.50 MHz Westendorf (AT) 0.00 km UNKNOWN
T1251222 RS41 2022-06-13 11:28:21 47.5951 12.3027 134 ° 30 km/h 1709 m -8.6 m/s 402.50 MHz Ebbs (AT) 0.00 km UNKNOWN
D18080437 DFM09 2022-06-13 08:18:29 47.6474 12.154 17 ° 22 km/h 1047 m -3.6 m/s 402.010 MHz Niederndorf (AT) 0.00 km UNKNOWN
T1251223 RS41 2022-06-13 05:42:27 47.8036 12.4134 74 ° 20 km/h 971 m -4.0 m/s 402.50 MHz Kössen (AT) 0.00 km UNKNOWN
T1251224 RS41 2022-06-10 05:47:12 46.5669 10.9372 359 ° 6 km/h 3892 m -3.7 m/s 402.50 MHz Lana (IT) 0.00 km UNKNOWN
T1250978 RS41 2022-06-09 17:22:08 47.7242 11.2178 69 ° 24 km/h 816 m -2.8 m/s 402.50 MHz Weilheim in Oberbayern (DE) 0.00 km FOUND
T1250967 RS41 2022-06-09 11:40:03 47.8259 11.2076 1 ° 15 km/h 769 m -3.9 m/s 402.50 MHz Weilheim in Oberbayern (DE) 0.00 km FOUND
T1250968 RS41 2022-06-09 05:42:29 47.827 10.9515 76 ° 26 km/h 925 m -8.5 m/s 402.50 MHz Weilheim in Oberbayern (DE) 0.00 km FOUND
T1251239 RS41 2022-06-08 17:42:21 48.1744 11.5211 109 ° 19 km/h 618 m -3.8 m/s 402.50 MHz München (DE) 0.00 km NEED ATTENTION
T1251240 RS41 2022-06-08 11:35:47 47.8438 11.2063 240 ° 11 km/h 760 m -10.0 m/s 402.50 MHz Weilheim in Oberbayern (DE) 0.00 km FOUND
T1251241 RS41 2022-06-08 04:30:32 47.8363 10.9234 55 ° 19 km/h 928 m -17.3 m/s 402.50 MHz Weilheim in Oberbayern (DE) 0.00 km UNKNOWN
T1310608 RS41 2022-06-07 17:33:25 48.0188 11.1776 49 ° 15 km/h 893 m -11.5 m/s 402.50 MHz Starnberg (DE) 0.00 km LOST
T1250971 RS41 2022-06-07 11:23:40 48.1063 11.3615 121 ° 11 km/h 770 m -11.7 m/s 402.50 MHz Germering (DE) 0.00 km FOUND
T1250624 RS41 2022-06-07 05:49:54 48.2732 11.7178 147 ° 6 km/h 635 m -5.7 m/s 402.50 MHz Unterschleißheim (DE) 0.00 km UNKNOWN
T1251219 RS41 2022-06-03 05:48:27 47.8867 12.0048 11 ° 9 km/h 953 m -4.1 m/s 402.50 MHz Rosenheim (DE) 0.00 km UNKNOWN
T1251242 RS41 2022-06-02 18:05:00 47.8928 12.3264 278 ° 15 km/h 1015 m -12.7 m/s 402.50 MHz Rosenheim (DE) 0.00 km UNKNOWN
T1250970 RS41 2022-06-02 11:43:28 47.8532 12.2299 230 ° 20 km/h 903 m -3.9 m/s 402.50 MHz Rosenheim (DE) 0.00 km UNKNOWN
D18079638 DFM09 2022-06-02 08:38:52 47.8026 13.0223 11 ° 11 km/h 534 m -4.0 m/s 402.010 MHz Salzburg (AT) 0.00 km UNKNOWN
T1250972 RS41 2022-06-02 05:54:49 47.9145 12.7262 29 ° 11 km/h 642 m -4.2 m/s 402.50 MHz Traunreut (DE) 0.00 km FOUND
T1310610 RS41 2022-06-01 17:46:52 47.8902 12.6302 56 ° 22 km/h 765 m -8.7 m/s 402.50 MHz Traunreut (DE) 0.00 km UNKNOWN
D18080446 DFM09 2022-06-01 14:15:34 47.9777 12.2706 143 ° 7 km/h 599 m -4.3 m/s 402.010 MHz Rosenheim (DE) 0.00 km UNKNOWN
T1251221 RS41 2022-06-01 11:35:12 47.942 12.1728 79 ° 13 km/h 993 m -13.7 m/s 402.50 MHz Rosenheim (DE) 0.00 km UNKNOWN
D18083631 DFM09 2022-06-01 08:24:42 47.8744 11.9453 65 ° 13 km/h 776 m -4.5 m/s 402.010 MHz Rosenheim (DE) 0.00 km FOUND
T1250969 RS41 2022-06-01 05:55:18 47.8044 12.8015 248 ° 11 km/h 1054 m -2.4 m/s 402.50 MHz Grossgmain (AT) 0.00 km UNKNOWN
T1240744 RS41 2022-05-31 18:07:33 47.9978 12.7917 50 ° 9 km/h 520 m -6.9 m/s 402.50 MHz Ostermiething (AT) 0.00 km UNKNOWN
D17046635 DFM09 2022-05-31 13:48:12 48.0542 11.7827 92 ° 15 km/h 617 m -2.8 m/s 404.288 MHz Vaterstetten (DE) 0.00 km FOUND
T1240805 RS41 2022-05-31 11:51:09 48.027 12.2738 309 ° 11 km/h 579 m -4.3 m/s 402.50 MHz Rosenheim (DE) 0.00 km UNKNOWN
T1251085 RS41 2022-05-31 06:08:00 48.1084 12.466 320 ° 9 km/h 680 m -4.6 m/s 402.50 MHz Waldkraiburg (DE) 0.00 km UNKNOWN
T1241050 RS41 2022-05-30 17:43:06 47.9725 12.1679 342 ° 6 km/h 1048 m -9.3 m/s 402.50 MHz Rosenheim (DE) 0.00 km NEED ATTENTION
D17046513 DFM09 2022-05-30 15:07:44 48.5766 13.481 75 ° 15 km/h 704 m -3.8 m/s 402.508 MHz Passau (DE) 0.00 km UNKNOWN
T1251081 RS41 2022-05-30 11:43:58 48.2692 12.3335 271 ° 11 km/h 793 m -8.0 m/s 402.50 MHz Waldkraiburg (DE) 0.00 km UNKNOWN
T1240748 RS41 2022-05-30 05:58:46 48.1622 12.3651 272 ° 20 km/h 710 m -7.4 m/s 402.50 MHz Waldkraiburg (DE) 0.00 km FOUND
T1240807 RS41 2022-05-25 17:29:21 47.6068 11.3784 65 ° 13 km/h 1596 m -11.9 m/s 402.50 MHz Garmisch-Partenkirchen (DE) 0.00 km UNKNOWN
T1250876 RS41 2022-05-25 11:42:02 48.1229 11.808 51 ° 13 km/h 678 m -11.3 m/s 402.50 MHz Vaterstetten (DE) 0.00 km LOST
T1251078 RS41 2022-05-25 05:28:47 48.2584 11.8074 148 ° 19 km/h 629 m -4.5 m/s 402.50 MHz Erding (DE) 0.00 km LOST
T1251086 RS41 2022-05-24 18:13:02 48.509 12.0224 38 ° 24 km/h 607 m -4.2 m/s 402.50 MHz Landshut (DE) 0.00 km UNKNOWN
T1240728 RS41 2022-05-24 11:46:30 48.3962 11.8904 51 ° 11 km/h 604 m -5.7 m/s 402.50 MHz Erding (DE) 0.00 km UNKNOWN
D17044460 DFM09 2022-05-24 08:15:54 48.2968 11.8078 99 ° 11 km/h 554 m -2.9 m/s 402.009 MHz Erding (DE) 0.00 km FOUND
T1251079 RS41 2022-05-24 05:29:07 48.1884 11.5608 40 ° 20 km/h 655 m -9.6 m/s 402.50 MHz München (DE) 0.00 km FOUND
T1251069 RS41 2022-05-23 17:59:09 48.181 11.6417 67 ° 19 km/h 613 m -4.0 m/s 402.50 MHz München (DE) 0.00 km FOUND
D17047412 DFM09 2022-05-23 14:09:26 48.091 11.6451 217 ° 2 km/h 592 m -3.9 m/s 402.507 MHz Unterhaching (DE) 0.00 km FOUND
T1251076 RS41 2022-05-23 11:54:08 47.9323 11.6726 266 ° 20 km/h 747 m -4.3 m/s 402.50 MHz Unterhaching (DE) 0.00 km UNKNOWN
D17047158 DFM09 2022-05-23 09:16:22 47.802 11.9893 279 ° 15 km/h 879 m -3.3 m/s 402.508 MHz Rosenheim (DE) 0.00 km UNKNOWN
T1240732 RS41 2022-05-23 05:48:30 47.5631 11.738 13 ° 11 km/h 1655 m -7.2 m/s 402.50 MHz Achenkirch (AT) 0.00 km UNKNOWN
T1240810 RS41 2022-05-20 05:56:44 47.5425 11.4295 107 ° 11 km/h 1620 m -3.9 m/s 402.50 MHz Achenkirch (AT) 0.00 km UNKNOWN
T1251077 RS41 2022-05-19 17:57:50 47.7339 11.3338 118 ° 22 km/h 1102 m -9.6 m/s 402.50 MHz Geretsried (DE) 0.00 km FOUND
T1240729 RS41 2022-05-19 11:43:48 47.7183 11.1354 97 ° 26 km/h 879 m -7.9 m/s 402.50 MHz Weilheim in Oberbayern (DE) 0.00 km FOUND
T1240808 RS41 2022-05-19 05:33:02 47.5351 11.0587 85 ° 22 km/h 1841 m -10.9 m/s 402.50 MHz Garmisch-Partenkirchen (DE) 0.00 km UNKNOWN
T1251046 RS41 2022-05-18 18:03:19 47.2845 10.9865 238 ° 28 km/h 720 m -6.8 m/s 402.50 MHz Mieming (AT) 0.00 km UNKNOWN
T1240731 RS41 2022-05-18 12:02:19 47.2548 11.0596 215 ° 6 km/h 2554 m -8.2 m/s 402.50 MHz Rietz (AT) 0.00 km UNKNOWN
T1240750 RS41 2022-05-18 06:09:24 47.1906 11.3492 262 ° 4 km/h 1677 m -10.6 m/s 402.50 MHz Fulpmes (AT) 0.00 km UNKNOWN
T1240747 RS41 2022-05-17 17:33:25 47.2138 11.3839 228 ° 24 km/h 1184 m -6.4 m/s 402.50 MHz Mutters (AT) 0.00 km UNKNOWN
T2920639 RS41 2022-05-17 11:45:11 47.1261 11.325 172 ° 6 km/h 2642 m -6.4 m/s 402.50 MHz Neustift im Stubaital (AT) 0.00 km UNKNOWN
T2940304 RS41 2022-05-17 05:39:06 47.226 11.2996 75 ° 6 km/h 1067 m -10.8 m/s 402.50 MHz Götzens (AT) 0.00 km UNKNOWN
T2940283 RS41 2022-05-16 11:45:51 47.8343 11.5029 78 ° 15 km/h 724 m -2.8 m/s 402.50 MHz Geretsried (DE) 0.00 km UNKNOWN
D17046938 DFM 2022-05-16 08:42:50 47.7988 11.562 106 ° 20 km/h 803 m -3.2 m/s 402.508 MHz Geretsried (DE) 0.00 km UNKNOWN
T2940295 RS41 2022-05-16 05:37:46 47.7884 11.3416 11 ° 9 km/h 726 m -5.9 m/s 402.50 MHz Geretsried (DE) 0.00 km UNKNOWN
T1240749 RS41 2022-05-13 06:04:43 47.8469 12.6093 358 ° 6 km/h 707 m -4.3 m/s 402.50 MHz Traunreut (DE) 0.00 km UNKNOWN
T1240746 RS41 2022-05-12 17:54:23 47.9283 12.3854 109 ° 15 km/h 771 m -5.7 m/s 402.50 MHz Traunreut (DE) 0.00 km UNKNOWN
T1251038 RS41 2022-05-12 12:01:11 47.9099 12.4609 112 ° 22 km/h 889 m -2.9 m/s 402.50 MHz Traunreut (DE) 0.00 km LOST
D17046564 DFM 2022-05-12 07:28:37 47.8672 11.1962 61 ° 19 km/h 789 m -4.7 m/s 402.009 MHz Weilheim in Oberbayern (DE) 0.00 km NEED ATTENTION
T1251074 RS41 2022-05-12 05:54:29 47.9991 12.1923 88 ° 48 km/h 816 m -6.4 m/s 402.50 MHz Rosenheim (DE) 0.00 km UNKNOWN
T1251033 RS41 2022-05-11 17:49:04 47.9101 11.7189 114 ° 15 km/h 817 m -3.8 m/s 402.50 MHz Geretsried (DE) 0.00 km FOUND
T1320374 RS41 2022-05-11 11:49:20 47.7527 11.3736 65 ° 6 km/h 852 m -4.3 m/s 402.50 MHz Geretsried (DE) 0.00 km UNKNOWN
T1320336 RS41 2022-05-11 05:47:04 47.5505 11.2007 85 ° 24 km/h 1963 m -10.0 m/s 402.50 MHz Garmisch-Partenkirchen (DE) 0.00 km UNKNOWN
T1320396 RS41 2022-05-10 18:10:42 47.1644 10.8588 99 ° 24 km/h 3103 m -3.3 m/s 402.50 MHz Oetz (AT) 0.00 km UNKNOWN
T1320394 RS41 2022-05-10 11:53:21 47.2966 10.6344 349 ° 61 km/h 2831 m -2.1 m/s 402.50 MHz Imst (AT) 0.00 km UNKNOWN
T1320354 RS41 2022-05-10 05:40:16 47.3131 10.5537 71 ° 6 km/h 2523 m -7.3 m/s 402.50 MHz Imst (AT) 0.00 km UNKNOWN
T1320395 RS41 2022-05-09 17:45:07 47.5116 10.7764 290 ° 13 km/h 1805 m -3.9 m/s 402.50 MHz Reutte (AT) 0.00 km UNKNOWN
T1251041 RS41 2022-05-09 11:39:46 47.6201 10.7168 209 ° 15 km/h 954 m -4.4 m/s 402.50 MHz Reutte (AT) 0.00 km LOST
D17047127 DFM09 2022-05-09 08:33:41 47.6837 10.7135 250 ° 11 km/h 1271 m -2.7 m/s 402.009 MHz Reutte (AT) 0.00 km UNKNOWN
T1251049 RS41 2022-05-09 05:51:08 47.6532 10.746 273 ° 20 km/h 1516 m -9.4 m/s 402.50 MHz Reutte (AT) 0.00 km LOST
T1251045 RS41 2022-05-06 05:47:05 47.9707 11.1107 231 ° 7 km/h 913 m -6.9 m/s 402.50 MHz Weilheim in Oberbayern (DE) 0.00 km LOST
T1320288 RS41 2022-05-05 17:13:27 48.0467 11.2821 236 ° 19 km/h 823 m -8.3 m/s 402.50 MHz Starnberg (DE) 0.00 km FOUND
D17046872 DFM09 2022-05-05 14:10:35 48.1532 11.261 199 ° 20 km/h 768 m -3.6 m/s 400.049 MHz Fürstenfeldbruck (DE) 0.00 km FOUND
T1330441 RS41 2022-05-05 11:21:42 48.0225 11.3656 164 ° 9 km/h 758 m -7.1 m/s 402.50 MHz Starnberg (DE) 0.00 km FOUND
T1330443 RS41 2022-05-05 05:15:40 47.8411 11.3519 57 ° 11 km/h 773 m -6.4 m/s 402.50 MHz Geretsried (DE) 0.00 km UNKNOWN
T1330440 RS41 2022-05-04 17:55:41 48.0163 11.2849 61 ° 9 km/h 771 m -4.2 m/s 402.50 MHz Starnberg (DE) 0.00 km FOUND
T1330439 RS41 2022-05-04 11:40:40 48.0058 11.1771 57 ° 15 km/h 881 m -6.4 m/s 402.50 MHz Starnberg (DE) 0.00 km FOUND
D17046612 DFM09 2022-05-04 08:15:29 47.9998 11.0701 90 ° 17 km/h 929 m -2.8 m/s 400.049 MHz Landsberg am Lech (DE) 0.00 km NEED ATTENTION
T1330335 RS41 2022-05-04 05:31:40 47.9344 11.075 58 ° 15 km/h 736 m -3.3 m/s 402.50 MHz Weilheim in Oberbayern (DE) 0.00 km UNKNOWN
T1330336 RS41 2022-05-03 17:37:32 47.8145 11.1177 177 ° 11 km/h 810 m -7.2 m/s 402.50 MHz Weilheim in Oberbayern (DE) 0.00 km FOUND
T1330447 RS41 2022-05-03 11:49:18 47.8989 10.9666 183 ° 11 km/h 1069 m -5.1 m/s 402.50 MHz Weilheim in Oberbayern (DE) 0.00 km UNKNOWN
T1330445 RS41 2022-05-03 05:34:01 47.8106 10.9553 355 ° 7 km/h 957 m -11.6 m/s 402.50 MHz Weilheim in Oberbayern (DE) 0.00 km UNKNOWN
T1330442 RS41 2022-05-02 17:49:59 47.7729 10.8807 13 ° 13 km/h 908 m -10.2 m/s 402.50 MHz Weilheim in Oberbayern (DE) 0.00 km UNKNOWN
T1330444 RS41 2022-05-02 12:06:38 47.8599 10.7266 221 ° 26 km/h 899 m -3.8 m/s 402.50 MHz Kaufbeuren (DE) 0.00 km UNKNOWN
T1251022 RS41 2022-05-02 05:24:35 47.7532 10.8027 16 ° 6 km/h 877 m -9.4 m/s 402.50 MHz Kaufbeuren (DE) 0.00 km FOUND
T2940760 RS41 2022-04-29 05:32:42 47.3853 10.9527 116 ° 7 km/h 2488 m -6.3 m/s 402.50 MHz Ehrwald (AT) 0.00 km UNKNOWN
T1251048 RS41 2022-04-28 17:44:52 47.3262 10.8234 263 ° 4 km/h 2548 m -6.0 m/s 402.50 MHz Tarrenz (AT) 0.00 km UNKNOWN
D17046548 DFM09 2022-04-28 14:00:32 47.3742 10.5399 119 ° 17 km/h 2556 m -4.9 m/s 402.508 MHz Reutte (AT) 0.00 km UNKNOWN
T2940762 RS41 2022-04-28 11:51:34 47.3891 10.7358 238 ° 15 km/h 2012 m -6.6 m/s 402.50 MHz Reutte (AT) 0.00 km UNKNOWN
D17047341 DFM09 2022-04-28 08:02:17 47.4267 10.5777 306 ° 6 km/h 2329 m -3.9 m/s 402.508 MHz Reutte (AT) 0.00 km UNKNOWN
T2940763 RS41 2022-04-28 05:44:31 47.4606 10.9671 47 ° 7 km/h 2141 m -4.4 m/s 402.50 MHz Ehrwald (AT) 0.00 km LOST
T2940718 RS41 2022-04-27 17:35:28 47.6305 11.3867 205 ° 9 km/h 1572 m -9.2 m/s 402.50 MHz Geretsried (DE) 0.00 km UNKNOWN
D17046763 DFM09 2022-04-27 14:49:15 47.4052 11.5677 181 ° 9 km/h 2104 m -4.4 m/s 402.509 MHz Terfens (AT) 0.00 km UNKNOWN
T1320284 RS41 2022-04-27 11:48:57 47.4882 11.2382 107 ° 7 km/h 2031 m -4.4 m/s 402.50 MHz Garmisch-Partenkirchen (DE) 0.00 km UNKNOWN
D17046754 DFM09 2022-04-27 08:18:34 47.1654 11.1404 210 ° 9 km/h 2067 m -2.7 m/s 402.509 MHz Oberperfuss (AT) 0.00 km FOUND
T1310792 RS41 2022-04-27 05:45:21 47.4851 11.3272 100 ° 20 km/h 2074 m -3.6 m/s 402.50 MHz Garmisch-Partenkirchen (DE) 0.00 km UNKNOWN
T1310774 RS41 2022-04-26 16:57:31 47.9597 11.7897 52 ° 13 km/h 810 m -7.8 m/s 402.50 MHz Vaterstetten (DE) 0.00 km NEED ATTENTION
T1321102 RS41 2022-04-26 11:52:31 48.0648 11.5975 92 ° 20 km/h 613 m -6.2 m/s 402.50 MHz Unterhaching (DE) 0.00 km FOUND
T1320278 RS41 2022-04-26 05:43:44 47.9669 11.6169 61 ° 9 km/h 772 m -9.3 m/s 402.50 MHz Unterhaching (DE) 0.00 km UNKNOWN
T1320285 RS41 2022-04-25 17:26:36 47.9039 11.4438 115 ° 6 km/h 664 m -8.6 m/s 402.50 MHz Geretsried (DE) 0.00 km FOUND
T1320286 RS41 2022-04-25 11:43:48 47.858 11.4724 133 ° 17 km/h 678 m -7.7 m/s 402.50 MHz Geretsried (DE) 0.00 km FOUND
T1320287 RS41 2022-04-25 05:49:24 47.7027 11.6931 90 ° 31 km/h 1367 m -7.4 m/s 402.50 MHz Achenkirch (AT) 0.00 km UNKNOWN
T1251057 RS41 2022-04-22 05:27:03 48.0792 11.0495 254 ° 28 km/h 781 m -4.3 m/s 402.50 MHz Landsberg am Lech (DE) 0.00 km FOUND
T2920638 RS41 2022-04-21 17:48:16 48.0035 10.9339 243 ° 31 km/h 909 m -10.7 m/s 402.50 MHz Landsberg am Lech (DE) 0.00 km UNKNOWN
T2920640 RS41 2022-04-21 11:58:26 47.9442 10.8481 233 ° 19 km/h 866 m -4.3 m/s 402.50 MHz Landsberg am Lech (DE) 0.00 km FOUND
T2920641 RS41 2022-04-21 05:58:31 47.7495 11.0205 306 ° 6 km/h 870 m -3.4 m/s 402.50 MHz Weilheim in Oberbayern (DE) 0.00 km FOUND
T2940667 RS41 2022-04-20 17:42:16 47.5502 11.3324 214 ° 7 km/h 1529 m -4.3 m/s 402.50 MHz Garmisch-Partenkirchen (DE) 0.00 km UNKNOWN
T2920642 RS41 2022-04-20 12:08:15 47.5557 11.0504 156 ° 17 km/h 1720 m -6.6 m/s 402.50 MHz Garmisch-Partenkirchen (DE) 0.00 km UNKNOWN
T2940301 RS41 2022-04-20 05:40:49 47.3922 11.2284 350 ° 6 km/h 1780 m -4.0 m/s 402.50 MHz Leutasch (AT) 0.00 km UNKNOWN
T2940715 RS41 2022-04-19 11:53:12 47.0209 11.0868 134 ° 43 km/h 3528 m -6.0 m/s 402.50 MHz Sölden (AT) 0.00 km UNKNOWN
T2940716 RS41 2022-04-19 05:39:54 47.0282 10.8761 144 ° 44 km/h 3388 m -3.3 m/s 402.50 MHz Umhausen (AT) 0.00 km UNKNOWN
T2940073 RS41 2022-04-14 17:44:30 47.6864 11.2622 164 ° 15 km/h 1334 m -6.8 m/s 402.50 MHz Weilheim in Oberbayern (DE) 0.00 km FOUND
T2940306 RS41 2022-04-14 11:46:05 47.7884 11.1128 130 ° 13 km/h 1156 m -4.5 m/s 402.50 MHz Weilheim in Oberbayern (DE) 0.00 km FOUND
D17046576 DFM09 2022-04-14 08:06:37 48.0027 11.0887 94 ° 22 km/h 838 m -4.6 m/s 404.309 MHz Landsberg am Lech (DE) 0.00 km FOUND
T2920637 RS41 2022-04-14 05:45:51 47.7506 11.0327 76 ° 30 km/h 924 m -3.6 m/s 402.50 MHz Weilheim in Oberbayern (DE) 0.00 km FOUND
T2940767 RS41 2022-04-13 18:11:02 47.7602 11.0137 249 ° 15 km/h 893 m -6.6 m/s 402.50 MHz Weilheim in Oberbayern (DE) 0.00 km FOUND
T2940299 RS41 2022-04-13 11:49:53 47.8902 10.9729 244 ° 13 km/h 1014 m -5.3 m/s 402.50 MHz Weilheim in Oberbayern (DE) 0.00 km FOUND
D17047149 DFM09 2022-04-13 08:59:11 47.939 11.0658 15 ° 6 km/h 805 m -4.4 m/s 404.310 MHz Weilheim in Oberbayern (DE) 0.00 km NEED ATTENTION
D17044690 DFM09 2022-04-13 08:39:44 48.095 10.9481 135 ° 4 km/h 772 m -4.2 m/s 402.008 MHz Landsberg am Lech (DE) 0.00 km FOUND
T2940305 RS41 2022-04-13 06:15:34 47.8093 11.1231 349 ° 6 km/h 798 m -3.3 m/s 402.50 MHz Weilheim in Oberbayern (DE) 0.00 km FOUND
T2940300 RS41 2022-04-12 18:25:26 47.6734 11.6589 85 ° 6 km/h 1495 m -3.4 m/s 402.50 MHz Achenkirch (AT) 0.00 km UNKNOWN
D17046519 DFM09 2022-04-12 15:08:49 47.6838 11.9042 278 ° 4 km/h 1613 m -5.8 m/s 402.507 MHz Kirchbichl (AT) 0.00 km UNKNOWN
T2940719 RS41 2022-04-12 11:56:46 47.6756 11.7676 234 ° 7 km/h 1286 m -7.3 m/s 402.50 MHz Achenkirch (AT) 0.00 km LOST
D17047588 DFM09 2022-04-12 09:11:55 47.6269 11.932 317 ° 13 km/h 1825 m -4.2 m/s 402.011 MHz Kirchbichl (AT) 0.00 km UNKNOWN
T2940753 RS41 2022-04-12 06:03:40 47.5508 11.9856 68 ° 4 km/h 2022 m -4.1 m/s 402.50 MHz Kirchbichl (AT) 0.00 km UNKNOWN
T2940752 RS41 2022-04-11 17:57:06 47.1293 12.3838 125 ° 39 km/h 3167 m -6.8 m/s 402.50 MHz Virgen (AT) 0.00 km UNKNOWN
T2940761 RS41 2022-04-11 11:54:48 47.079 12.5402 129 ° 56 km/h 3613 m -3.9 m/s 402.50 MHz Matrei in Osttirol (AT) 0.00 km UNKNOWN
D17046647 DFM09 2022-04-11 07:35:06 47.4328 11.6417 136 ° 13 km/h 2177 m -14.3 m/s 404.310 MHz Eben am Achensee (AT) 0.00 km UNKNOWN
T2940303 RS41 2022-04-11 05:30:27 47.1835 12.3802 119 ° 26 km/h 2772 m -9.9 m/s 402.50 MHz Bramberg am Wildkogel (AT) 0.00 km UNKNOWN
D17046820 DFM09 2022-04-08 08:24:43 47.7039 13.6501 120 ° 20 km/h 1399 m -2.8 m/s 402.009 MHz Bad Ischl (AT) 0.00 km FOUND
T2940758 RS41 2022-04-08 05:55:27 47.4328 13.99 89 ° 46 km/h 2531 m -3.2 m/s 402.50 MHz Gröbming (AT) 0.00 km UNKNOWN
T2930492 RS41 2022-04-07 17:30:09 47.4845 12.996 80 ° 7 km/h 2460 m -4.2 m/s 402.50 MHz Saalfelden am Steinernen Meer (AT) 0.00 km UNKNOWN
T2940297 RS41-SGP 2022-04-07 11:36:43 47.4822 12.516 183 ° 11 km/h 1144 m -6.9 m/s 402.50 MHz Fieberbrunn (AT) 0.00 km FOUND
T1320665 RS41 2022-04-07 05:28:42 47.6742 12.2816 58 ° 15 km/h 1517 m -6.4 m/s 402.50 MHz Niederndorf (AT) 0.00 km UNKNOWN
T1330381 RS41 2022-04-06 18:12:33 47.765 12.4432 110 ° 30 km/h 1088 m -5.3 m/s 402.50 MHz Kössen (AT) 0.00 km UNKNOWN
D17046613 DFM09 2022-04-06 13:55:49 48.0094 11.4406 145 ° 31 km/h 747 m -4.9 m/s 404.308 MHz Starnberg (DE) 0.00 km NEED ATTENTION
T1311073 RS41 2022-04-06 11:49:52 47.7048 12.062 145 ° 4 km/h 1512 m -4.3 m/s 402.50 MHz Niederndorf (AT) 0.00 km UNKNOWN
D17046623 DFM09 2022-04-06 08:39:37 47.8387 12.0602 33 ° 15 km/h 974 m -3.4 m/s 402.009 MHz Rosenheim (DE) 0.00 km UNKNOWN
T1311069 RS41 2022-04-06 05:29:26 47.592 11.9534 114 ° 26 km/h 1904 m -9.8 m/s 402.50 MHz Kirchbichl (AT) 0.00 km UNKNOWN
T1320022 RS41 2022-04-05 17:12:19 47.5307 12.1202 96 ° 43 km/h 1897 m -4.6 m/s 402.50 MHz Schwoich (AT) 0.00 km UNKNOWN
D17047176 DFM09 2022-04-05 14:26:14 47.5321 12.2255 89 ° 50 km/h 2040 m -2.3 m/s 404.310 MHz Söll (AT) 0.00 km UNKNOWN
T1330372 RS41 2022-04-05 11:40:34 47.3703 12.3251 104 ° 20 km/h 1995 m -5.9 m/s 402.50 MHz Kirchberg in Tirol (AT) 0.00 km UNKNOWN
D17047173 DFM09 2022-04-05 08:38:13 47.3742 12.1997 102 ° 33 km/h 1959 m -5.6 m/s 404.290 MHz Westendorf (AT) 0.00 km UNKNOWN
T1311072 RS41 2022-04-05 05:50:40 47.1279 12.1869 124 ° 28 km/h 3035 m -5.6 m/s 402.50 MHz Neukirchen am Großvenediger (AT) 0.00 km UNKNOWN
T1311071 RS41 2022-04-04 18:53:02 46.8623 12.1997 166 ° 48 km/h 4138 m -4.1 m/s 402.50 MHz Brunico (IT) 0.00 km UNKNOWN
T1311076 RS41 2022-04-04 11:52:23 47.0336 11.6135 32 ° 17 km/h 2823 m -6.1 m/s 402.50 MHz Steinach am Brenner (AT) 0.00 km UNKNOWN
D17046743 DFM09 2022-04-04 08:58:35 47.2487 11.0496 37 ° 19 km/h 2755 m -6.1 m/s 402.509 MHz Rietz (AT) 0.00 km UNKNOWN
T1330114 RS41 2022-04-04 05:26:23 47.2039 11.5307 46 ° 24 km/h 2685 m -5.0 m/s 402.50 MHz Sistrans (AT) 0.00 km UNKNOWN
T1320024 RS41 2022-04-01 05:51:12 48.1936 12.4782 306 ° 13 km/h 611 m -3.7 m/s 402.50 MHz Waldkraiburg (DE) 0.00 km UNKNOWN
T1330111 RS41 2022-03-31 17:26:55 48.1806 12.1513 242 ° 17 km/h 663 m -5.0 m/s 402.50 MHz Waldkraiburg (DE) 0.00 km FOUND
T1320020 RS41 2022-03-31 12:15:03 48.1117 12.8269 193 ° 4 km/h 561 m -3.8 m/s 402.50 MHz Hochburg-Ach (AT) 0.00 km FOUND
D17047374 DFM09 2022-03-31 07:59:14 48.2499 11.4455 283 ° 6 km/h 618 m -3.1 m/s 404.309 MHz Dachau (DE) 0.00 km FOUND
T1311070 RS41 2022-03-31 05:57:34 47.8692 12.8527 156 ° 7 km/h 589 m -5.6 m/s 402.50 MHz Oberndorf bei Salzburg (AT) 0.00 km FOUND
T1311074 RS41 2022-03-30 18:00:09 47.4948 13.2726 236 ° 4 km/h 1551 m -4.3 m/s 402.50 MHz Werfen (AT) 0.00 km NEED ATTENTION
T1320021 RS41 2022-03-30 11:47:32 47.6824 12.7664 307 ° 4 km/h 1600 m -2.5 m/s 402.50 MHz Grossgmain (AT) 0.00 km UNKNOWN
T1320048 RS41 2022-03-30 05:40:00 47.5548 12.8152 178 ° 6 km/h 1979 m -9.2 m/s 402.50 MHz Saalfelden am Steinernen Meer (AT) 0.00 km UNKNOWN
T1330382 RS41 2022-03-29 17:28:50 47.6334 12.5641 177 ° 9 km/h 1601 m -7.6 m/s 402.50 MHz Kirchdorf in Tirol (AT) 0.00 km UNKNOWN
T1330895 RS41 2022-03-29 11:34:49 47.9541 12.2774 92 ° 24 km/h 582 m -3.5 m/s 402.50 MHz Rosenheim (DE) 0.00 km FOUND
T1320023 RS41 2022-03-29 06:07:51 47.4133 12.6336 38 ° 7 km/h 1658 m -2.8 m/s 402.50 MHz Fieberbrunn (AT) 0.00 km UNKNOWN
T1311075 RS41-SGP 2022-03-28 18:03:38 47.4981 12.362 203 ° 22 km/h 848 m -7.6 m/s 402.50 MHz Oberndorf in Tirol (AT) 0.00 km FOUND
T1320186 RS41 2022-03-28 12:18:53 47.6131 11.9427 125 ° 2 km/h 2016 m -6.2 m/s 402.50 MHz Kirchbichl (AT) 0.00 km UNKNOWN
T1320350 RS41-SGP 2022-03-28 05:49:38 47.5528 11.5292 57 ° 9 km/h 1626 m -4.8 m/s 402.50 MHz Achenkirch (AT) 0.00 km UNKNOWN
T1320351 RS41 2022-03-25 07:02:19 47.5944 11.4174 196 ° 4 km/h 1451 m -4.6 m/s 402.50 MHz Achenkirch (AT) 0.00 km UNKNOWN
T1320512 RS41 2022-03-24 18:46:41 47.8316 11.3119 223 ° 19 km/h 727 m -4.5 m/s 402.50 MHz Weilheim in Oberbayern (DE) 0.00 km LOST
T1320684 RS41 2022-03-24 12:32:35 47.8967 11.1902 233 ° 7 km/h 1020 m -6.6 m/s 402.50 MHz Weilheim in Oberbayern (DE) 0.00 km LOST
T1320089 RS41 2022-03-24 06:55:56 47.9488 11.1562 1 ° 6 km/h 741 m -3.2 m/s 402.50 MHz Weilheim in Oberbayern (DE) 0.00 km UNKNOWN
T1320353 RS41 2022-03-23 18:23:17 47.921 10.9404 224 ° 17 km/h 975 m -6.4 m/s 402.50 MHz Landsberg am Lech (DE) 0.00 km FOUND
T1320449 RS41 2022-03-23 12:56:57 47.9939 10.7673 154 ° 9 km/h 846 m -6.5 m/s 402.50 MHz Landsberg am Lech (DE) 0.00 km FOUND
T1320398 RS41 2022-03-23 06:30:12 47.9332 10.7086 64 ° 11 km/h 784 m -8.1 m/s 402.50 MHz Kaufbeuren (DE) 0.00 km FOUND
T1230008 RS41 2022-03-22 18:54:33 47.9752 10.5879 250 ° 20 km/h 941 m -4.5 m/s 402.50 MHz Kaufbeuren (DE) 0.00 km UNKNOWN
T1251209 RS41 2022-03-22 13:01:59 47.9793 10.3819 178 ° 15 km/h 892 m -5.3 m/s 402.50 MHz Memmingen (DE) 0.00 km UNKNOWN
T1320329 RS41-SGP 2022-03-22 06:53:33 47.9788 10.4044 108 ° 9 km/h 928 m -4.5 m/s 402.50 MHz Memmingen (DE) 0.00 km FOUND
T1320325 RS41 2022-03-21 18:38:32 47.9175 10.4253 242 ° 28 km/h 970 m -4.6 m/s 402.50 MHz Kaufbeuren (DE) 0.00 km UNKNOWN
T1320328 RS41 2022-03-21 12:45:58 47.8448 10.4112 171 ° 9 km/h 972 m -5.1 m/s 402.50 MHz Kempten (DE) 0.00 km UNKNOWN
T1320086 RS41-SGP 2022-03-21 06:58:26 47.9716 10.3923 76 ° 6 km/h 850 m -4.7 m/s 402.50 MHz Memmingen (DE) 0.00 km FOUND
T1320330 RS41 2022-03-18 06:31:52 47.6674 10.9328 270 ° 13 km/h 1063 m -6.4 m/s 402.50 MHz Garmisch-Partenkirchen (DE) 0.00 km UNKNOWN
T1320088 RS41 2022-03-17 19:32:01 47.6924 11.2069 296 ° 7 km/h 1241 m -2.8 m/s 402.50 MHz Weilheim in Oberbayern (DE) 0.00 km UNKNOWN
T1320087 RS41 2022-03-17 12:38:08 47.8593 11.184 137 ° 4 km/h 760 m -8.0 m/s 402.50 MHz Weilheim in Oberbayern (DE) 0.00 km UNKNOWN
D17046793 DFM 2022-03-17 09:17:25 47.7511 11.2535 229 ° 9 km/h 762 m -3.7 m/s 402.009 MHz Weilheim in Oberbayern (DE) 0.00 km UNKNOWN
T1320184 RS41-SGP 2022-03-17 06:38:00 47.7494 11.172 100 ° 7 km/h 1116 m -5.9 m/s 402.50 MHz Weilheim in Oberbayern (DE) 0.00 km FOUND
T1320375 RS41 2022-03-16 19:03:57 47.3348 11.4429 109 ° 20 km/h 2624 m -7.9 m/s 402.50 MHz Thaur (AT) 0.00 km UNKNOWN
T1320090 RS41 2022-03-16 13:02:21 47.3103 11.6641 120 ° 4 km/h 652 m -6.5 m/s 402.50 MHz Terfens (AT) 0.00 km UNKNOWN
T1320331 RS41 2022-03-16 06:43:25 47.2858 11.9095 131 ° 28 km/h 2348 m -3.4 m/s 402.50 MHz Fügen (AT) 0.00 km UNKNOWN
T1320185 RS41 2022-03-15 18:45:12 47.28 12.3114 83 ° 63 km/h 2989 m -7.8 m/s 402.50 MHz Bramberg am Wildkogel (AT) 0.00 km UNKNOWN
T1320327 RS41 2022-03-15 12:39:42 47.6472 12.3625 70 ° 17 km/h 1532 m -6.5 m/s 402.50 MHz Kössen (AT) 0.00 km FOUND
T1320182 RS41 2022-03-15 06:53:05 47.6437 12.359 57 ° 7 km/h 1535 m -3.1 m/s 402.50 MHz Kössen (AT) 0.00 km FOUND
T1320326 RS41 2022-03-14 18:23:36 47.6824 12.1558 169 ° 4 km/h 1478 m -9.7 m/s 402.50 MHz Niederndorf (AT) 0.00 km UNKNOWN
T1320183 RS41 2022-03-14 12:50:29 47.8164 12.3783 345 ° 2 km/h 1145 m -8.5 m/s 402.50 MHz Kössen (AT) 0.00 km UNKNOWN
T1320378 RS41 2022-03-14 06:47:00 48.0712 11.6779 63 ° 13 km/h 645 m -6.6 m/s 402.50 MHz Unterhaching (DE) 0.00 km UNKNOWN
T1320377 RS41 2022-03-11 06:47:30 47.7882 11.6854 357 ° 11 km/h 1006 m -6.2 m/s 402.50 MHz Geretsried (DE) 0.00 km FOUND
T1251208 RS41 2022-03-10 18:56:26 47.9238 12.0514 274 ° 44 km/h 912 m -8.9 m/s 402.50 MHz Rosenheim (DE) 0.00 km UNKNOWN
T1310152 RS41 2022-03-10 13:01:38 47.9398 11.6251 277 ° 22 km/h 789 m -4.0 m/s 402.50 MHz Geretsried (DE) 0.00 km LOST
T1251207 RS41 2022-03-10 06:44:23 47.7413 11.4669 185 ° 6 km/h 913 m -4.5 m/s 402.50 MHz Geretsried (DE) 0.00 km LOST
T1310153 RS41 2022-03-09 19:18:09 47.562 11.3372 244 ° 9 km/h 1502 m -3.3 m/s 402.50 MHz Garmisch-Partenkirchen (DE) 0.00 km UNKNOWN
T1310151 RS41 2022-03-09 13:12:30 47.6574 11.1527 84 ° 7 km/h 1516 m -3.7 m/s 402.50 MHz Garmisch-Partenkirchen (DE) 0.00 km UNKNOWN
T1310783 RS41 2022-03-09 06:43:18 47.5891 10.9674 95 ° 11 km/h 1847 m -6.3 m/s 402.50 MHz Garmisch-Partenkirchen (DE) 0.00 km UNKNOWN
T1331101 RS41 2022-03-08 18:27:16 47.5391 10.5379 312 ° 7 km/h 1573 m -3.6 m/s 402.50 MHz Reutte (AT) 0.00 km UNKNOWN
D17047346 DFM09 2022-03-08 15:54:10 47.5227 10.409 63 ° 7 km/h 1701 m -3.3 m/s 402.509 MHz Sonthofen (DE) 0.00 km FOUND
T1340011 RS41 2022-03-08 12:40:27 47.4899 10.6754 349 ° 7 km/h 1234 m -3.4 m/s 402.50 MHz Reutte (AT) 0.00 km UNKNOWN
T1340122 RS41 2022-03-08 06:33:59 47.3907 10.8076 272 ° 9 km/h 2246 m -5.2 m/s 402.50 MHz Ehrwald (AT) 0.00 km UNKNOWN
T1331099 RS41 2022-03-07 18:32:47 47.4085 10.7394 281 ° 6 km/h 1466 m -9.5 m/s 402.50 MHz Reutte (AT) 0.00 km UNKNOWN
T1310789 RS41 2022-03-07 12:41:36 47.4653 10.4349 339 ° 6 km/h 1821 m -6.3 m/s 402.50 MHz Sonthofen (DE) 0.00 km UNKNOWN
T1331103 RS41 2022-03-07 06:14:41 47.4371 10.5206 59 ° 2 km/h 2156 m -4.8 m/s 402.50 MHz Reutte (AT) 0.00 km UNKNOWN
T1331104 RS41 2022-03-04 06:36:28 47.0508 10.4968 162 ° 43 km/h 3574 m -6.9 m/s 402.50 MHz Kappl (AT) 0.00 km UNKNOWN
T1331102 RS41 2022-03-03 18:33:47 47.1284 11.4061 148 ° 26 km/h 2415 m -4.9 m/s 402.50 MHz Fulpmes (AT) 0.00 km UNKNOWN
T1340180 RS41 2022-03-03 12:56:56 47.2289 11.1617 131 ° 4 km/h 2108 m -1.7 m/s 402.50 MHz Inzing (AT) 0.00 km UNKNOWN
T1340177 RS41 2022-03-03 07:00:25 47.2741 10.8735 39 ° 7 km/h 1799 m -3.9 m/s 402.50 MHz Haiming (AT) 0.00 km UNKNOWN
T1340121 RS41 2022-03-02 18:45:15 47.0799 11.5615 170 ° 20 km/h 2360 m -6.0 m/s 402.50 MHz Steinach am Brenner (AT) 0.00 km UNKNOWN
T1340178 RS41 2022-03-02 12:37:12 47.2019 11.27 265 ° 4 km/h 1762 m -7.2 m/s 402.50 MHz Axams (AT) 0.00 km UNKNOWN
T1340005 RS41 2022-03-02 06:43:54 47.101 11.146 144 ° 39 km/h 3643 m -5.7 m/s 402.50 MHz Neustift im Stubaital (AT) 0.00 km UNKNOWN
T2950712 RS41 2022-03-01 18:32:12 46.8498 10.7269 187 ° 63 km/h 3908 m -5.3 m/s 402.50 MHz Pfunds (AT) 0.00 km UNKNOWN
T2950421 RS41 2022-03-01 12:46:36 46.9186 10.6353 191 ° 37 km/h 3865 m -4.0 m/s 402.50 MHz Pfunds (AT) 0.00 km UNKNOWN
T1330421 RS41 2022-03-01 06:36:04 47.0289 10.4383 231 ° 37 km/h 3467 m -9.4 m/s 402.50 MHz Kappl (AT) 0.00 km UNKNOWN
T1340009 RS41 2022-02-28 18:34:04 46.8668 10.4335 206 ° 94 km/h 4033 m -3.8 m/s 402.50 MHz Pfunds (AT) 0.00 km UNKNOWN
T1340007 RS41 2022-02-28 12:31:50 47.1435 10.4207 211 ° 57 km/h 3213 m -7.7 m/s 402.50 MHz Kappl (AT) 0.00 km UNKNOWN
T1340002 RS41 2022-02-28 06:34:49 47.2471 10.2777 207 ° 17 km/h 2514 m -8.2 m/s 402.50 MHz Mittelberg (AT) 0.00 km UNKNOWN
T2940678 RS41 2022-02-25 06:47:11 47.9301 13.141 79 ° 37 km/h 732 m -4.5 m/s 402.50 MHz Köstendorf (AT) 0.00 km UNKNOWN
T2940695 RS41 2022-02-24 18:47:29 48.0446 12.6087 70 ° 26 km/h 617 m -6.9 m/s 402.50 MHz Traunreut (DE) 0.00 km FOUND
T2950255 RS41 2022-02-24 12:54:39 48.2325 12.6862 341 ° 2 km/h 554 m -4.8 m/s 402.50 MHz Hochburg-Ach (AT) 0.00 km FOUND
T2940693 RS41 2022-02-24 06:31:57 47.8724 12.3945 25 ° 11 km/h 686 m -8.1 m/s 402.50 MHz Traunreut (DE) 0.00 km LOST
T2940696 RS41 2022-02-23 18:49:16 47.2946 12.3261 287 ° 17 km/h 2815 m -4.1 m/s 402.50 MHz Bramberg am Wildkogel (AT) 0.00 km UNKNOWN
T2940694 RS41 2022-02-23 13:25:10 47.0411 12.2344 198 ° 44 km/h 3513 m -5.6 m/s 404.30 MHz Virgen (AT) 0.00 km UNKNOWN
T2940692 RS41 2022-02-23 12:45:24 47.0808 12.1589 192 ° 30 km/h 3047 m -9.6 m/s 402.50 MHz Neukirchen am Großvenediger (AT) 0.00 km UNKNOWN
D17046628 DFM09 2022-02-23 09:29:00 46.8396 12.1671 177 ° 81 km/h 4158 m -2.5 m/s 402.007 MHz Brunico (IT) 0.00 km FOUND
T2950422 RS41 2022-02-23 06:41:34 46.9526 12.3178 161 ° 115 km/h 4505 m -5.3 m/s 402.50 MHz Virgen (AT) 0.00 km UNKNOWN
T2950424 RS41 2022-02-22 19:03:22 46.8185 12.3093 169 ° 74 km/h 3765 m -6.6 m/s 402.50 MHz Virgen (AT) 0.00 km UNKNOWN
D17046785 DFM09 2022-02-22 15:26:42 46.693 11.9098 167 ° 67 km/h 3608 m -1.7 m/s 402.507 MHz Brunico (IT) 0.00 km FOUND
T2950713 RS41 2022-02-22 12:32:02 46.7844 11.6069 173 ° 100 km/h 4443 m -8.4 m/s 402.50 MHz Bressanone (IT) 0.00 km UNKNOWN
D17046614 DFM09 2022-02-22 09:48:38 45.5928 11.0807 141 ° 20 km/h 1097 m -2.7 m/s 402.508 MHz Grezzana (IT) 0.00 km FOUND
T1340004 RS41 2022-02-22 06:42:38 46.237 11.3892 170 ° 48 km/h 2758 m -3.7 m/s 402.50 MHz Laives (IT) 0.00 km UNKNOWN
T1340008 RS41 2022-02-21 18:52:09 47.3458 12.281 108 ° 52 km/h 2532 m -8.5 m/s 402.50 MHz Westendorf (AT) 0.00 km UNKNOWN
T1340179 RS41 2022-02-21 13:06:50 47.9119 13.1331 71 ° 33 km/h 820 m -2.9 m/s 402.50 MHz Henndorf am Wallersee (AT) 0.00 km FOUND
T1340124 RS41 2022-02-21 06:48:32 48.2567 13.0629 85 ° 30 km/h 397 m -7.2 m/s 402.50 MHz Braunau am Inn (AT) 0.00 km FOUND
T1340123 RS41 2022-02-18 06:33:38 47.0218 12.9624 132 ° 104 km/h 4344 m -5.7 m/s 402.50 MHz Badgastein (AT) 0.00 km UNKNOWN
T1340176 RS41 2022-02-17 19:01:51 46.5916 13.3557 126 ° 52 km/h 2260 m -6.0 m/s 402.50 MHz Hermagor (AT) 0.00 km UNKNOWN
T1330953 RS41 2022-02-17 12:24:26 46.971 12.8001 113 ° 93 km/h 3552 m -7.9 m/s 404.30 MHz Lienz (AT) 0.00 km UNKNOWN
T2950703 RS41 2022-02-17 06:41:24 46.8455 12.868 113 ° 83 km/h 3234 m -5.2 m/s 404.30 MHz Dölsach (AT) 0.00 km UNKNOWN
T2950254 RS41 2022-02-16 19:00:42 46.6823 11.8913 146 ° 59 km/h 4125 m -6.7 m/s 404.30 MHz Brunico (IT) 0.00 km UNKNOWN
T2950273 RS41 2022-02-16 12:22:10 46.9538 11.7213 126 ° 65 km/h 4190 m -12.1 m/s 402.50 MHz Brunico (IT) 0.00 km UNKNOWN
T2950863 RS41 2022-02-16 06:36:54 46.8976 11.8359 128 ° 30 km/h 4087 m -7.2 m/s 402.50 MHz Brunico (IT) 0.00 km UNKNOWN
T2950866 RS41 2022-02-15 18:46:00 47.6726 11.9048 100 ° 20 km/h 1803 m -7.5 m/s 402.50 MHz Kirchbichl (AT) 0.00 km UNKNOWN
T2950860 RS41 2022-02-15 12:52:33 48.1073 12.0507 88 ° 26 km/h 787 m -4.2 m/s 402.50 MHz Vaterstetten (DE) 0.00 km FOUND
T2950276 RS41 2022-02-15 06:29:19 48.111 11.9726 91 ° 35 km/h 738 m -7.1 m/s 402.50 MHz Vaterstetten (DE) 0.00 km UNKNOWN
T2950275 RS41 2022-02-14 18:21:00 47.9426 11.7345 339 ° 2 km/h 765 m -8.9 m/s 402.50 MHz Unterhaching (DE) 0.00 km UNKNOWN
T2950861 RS41 2022-02-14 12:53:01 47.9086 11.8153 331 ° 7 km/h 880 m -6.1 m/s 402.50 MHz Vaterstetten (DE) 0.00 km UNKNOWN
T2950711 RS41 2022-02-14 06:30:00 47.7605 11.5943 42 ° 9 km/h 1256 m -7.8 m/s 402.50 MHz Geretsried (DE) 0.00 km UNKNOWN
T2950865 RS41 2022-02-11 07:10:21 48.3262 14.207 95 ° 17 km/h 421 m -3.2 m/s 402.50 MHz Wilhering (AT) 0.00 km FOUND
T1340126 RS41 2022-02-10 18:48:32 48.2612 13.5589 114 ° 7 km/h 591 m -4.1 m/s 402.50 MHz Taiskirchen im Innkreis (AT) 0.00 km UNKNOWN
T2950257 RS41 2022-02-10 12:36:47 48.3091 13.029 75 ° 19 km/h 603 m -8.0 m/s 402.50 MHz Braunau am Inn (AT) 0.00 km FOUND
D17047061 DFM 2022-02-10 09:41:35 48.2691 12.9412 10 ° 17 km/h 536 m -3.8 m/s 402.509 MHz Braunau am Inn (AT) 0.00 km FOUND
T2950271 RS41 2022-02-10 06:24:39 48.151 12.6234 359 ° 9 km/h 521 m -5.3 m/s 402.50 MHz Waldkraiburg (DE) 0.00 km FOUND
T2950867 RS41 2022-02-09 19:02:55 47.5241 12.5514 68 ° 17 km/h 1770 m -9.2 m/s 402.50 MHz Fieberbrunn (AT) 0.00 km UNKNOWN
T2950253 RS41 2022-02-09 12:55:47 47.4319 12.4125 112 ° 6 km/h 1225 m -4.5 m/s 402.50 MHz Kitzbühel (AT) 0.00 km FOUND
D17046585 DFM 2022-02-09 09:14:07 47.403 11.8658 318 ° 9 km/h 1208 m -4.0 m/s 402.509 MHz Reith im Alpbachtal (AT) 0.00 km UNKNOWN
T2950288 RS41 2022-02-09 06:31:11 47.2132 11.9451 114 ° 44 km/h 2940 m -5.9 m/s 402.50 MHz Mayrhofen (AT) 0.00 km UNKNOWN
T2950710 RS41 2022-02-08 18:40:46 47.0155 11.7741 167 ° 61 km/h 3487 m -5.2 m/s 402.50 MHz Mayrhofen (AT) 0.00 km UNKNOWN
D17046877 DFM 2022-02-08 15:00:22 46.6986 11.4128 162 ° 83 km/h 4932 m -5.3 m/s 402.009 MHz Bressanone (IT) 0.00 km UNKNOWN
T2950283 RS41 2022-02-08 12:30:52 46.8254 11.4334 170 ° 93 km/h 4425 m -5.9 m/s 402.50 MHz Bressanone (IT) 0.00 km UNKNOWN
D18083911 DFM09 2022-02-08 09:02:32 46.5813 11.2661 176 ° 96 km/h 3816 m -4.2 m/s 404.309 MHz Lana (IT) 0.00 km UNKNOWN
T2950714 RS41 2022-02-08 07:08:47 46.2092 11.4975 173 ° 54 km/h 2644 m -7.5 m/s 402.50 MHz Pergine Valsugana (IT) 0.00 km UNKNOWN
T2940691 RS41 2022-02-07 18:19:42 46.3432 11.4645 164 ° 104 km/h 3243 m -5.8 m/s 402.50 MHz Laives (IT) 0.00 km UNKNOWN
T2940674 RS41 2022-02-07 12:23:40 46.2529 11.7631 166 ° 50 km/h 2669 m -13.7 m/s 402.50 MHz Feltre (IT) 0.00 km UNKNOWN
D18081324 DFM 2022-02-07 08:18:54 46.8466 11.3923 140 ° 106 km/h 4800 m -15.5 m/s 402.509 MHz Bressanone (IT) 0.00 km UNKNOWN
T2940676 RS41 2022-02-07 06:34:42 46.8209 12.6051 149 ° 76 km/h 3610 m -5.6 m/s 402.50 MHz Lienz (AT) 0.00 km UNKNOWN
T1340006 RS41 2022-02-04 06:19:42 47.4037 11.9726 306 ° 2 km/h 1466 m -5.2 m/s 402.50 MHz Alpbach (AT) 0.00 km FOUND
T1340010 RS41 2022-02-03 18:29:28 47.0508 12.8979 131 ° 81 km/h 4511 m -4.7 m/s 402.50 MHz Badgastein (AT) 0.00 km UNKNOWN
T1330464 RS41 2022-02-03 12:32:20 46.8243 12.4962 140 ° 54 km/h 3434 m -7.0 m/s 402.50 MHz Matrei in Osttirol (AT) 0.00 km UNKNOWN
T1330468 RS41 2022-02-03 06:19:48 46.6922 12.1553 166 ° 61 km/h 3532 m -11.0 m/s 402.50 MHz Brunico (IT) 0.00 km UNKNOWN
T1330467 RS41 2022-02-02 18:48:50 45.9065 12.3789 76 ° 20 km/h 174 m -3.0 m/s 402.50 MHz San Vendemiano (IT) 0.00 km FOUND
T1330499 RS41 2022-02-02 12:36:34 45.7965 12.4803 274 ° 2 km/h 107 m -5.2 m/s 402.50 MHz Oderzo (IT) 0.00 km UNKNOWN
T1340003 RS41 2022-02-02 06:49:26 45.4988 12.6794 253 ° 20 km/h 80 m -4.6 m/s 402.50 MHz Iesolo (IT) 0.00 km LOST
T1340001 RS41 2022-02-01 19:10:07 45.5436 12.9136 2 ° 35 km/h 73 m -5.1 m/s 402.50 MHz Caorle (IT) 0.00 km LOST
T1330466 RS41 2022-02-01 12:17:12 46.1419 11.213 171 ° 78 km/h 2224 m -10.5 m/s 404.30 MHz Lavis (IT) 0.00 km FOUND
T1330029 RS41 2022-02-01 05:59:58 46.4792 11.6248 171 ° 94 km/h 3991 m -11.0 m/s 402.50 MHz Bolzano (IT) 0.00 km UNKNOWN
T1321084 RS41 2022-01-31 18:21:16 46.516 11.8726 152 ° 94 km/h 3598 m -6.0 m/s 402.50 MHz Bressanone (IT) 0.00 km UNKNOWN
T1321081 RS41 2022-01-31 12:01:29 47.433 12.3396 98 ° 46 km/h 1683 m -5.1 m/s 402.50 MHz Kirchberg in Tirol (AT) 0.00 km UNKNOWN
D18079634 DFM 2022-01-31 09:14:22 47.6188 12.7476 92 ° 78 km/h 2151 m -13.3 m/s 402.010 MHz Grossgmain (AT) 0.00 km UNKNOWN
T1321085 RS41 2022-01-31 06:32:20 47.3974 13.4296 94 ° 74 km/h 2898 m -4.6 m/s 402.50 MHz Eben im Pongau (AT) 0.00 km UNKNOWN
T1321113 RS41 2022-01-28 06:25:10 46.9399 12.1447 153 ° 122 km/h 4628 m -7.4 m/s 402.50 MHz Brunico (IT) 0.00 km UNKNOWN
T1321115 RS41 2022-01-27 18:51:20 47.3893 12.4109 112 ° 65 km/h 2398 m -3.4 m/s 402.50 MHz Kitzbühel (AT) 0.00 km UNKNOWN
T1321086 RS41 2022-01-27 12:07:30 47.3887 11.4812 95 ° 41 km/h 2712 m -4.0 m/s 402.50 MHz Thaur (AT) 0.00 km UNKNOWN
D18081077 DFM 2022-01-27 09:45:55 47.1943 11.3776 127 ° 4 km/h 1205 m -3.3 m/s 402.509 MHz Mutters (AT) 0.00 km UNKNOWN
T1321112 RS41 2022-01-27 06:35:21 47.1967 11.1453 217 ° 2 km/h 1406 m -6.8 m/s 402.50 MHz Inzing (AT) 0.00 km UNKNOWN
T1320391 RS41 2022-01-26 18:43:38 46.9003 11.0212 147 ° 41 km/h 3152 m -8.4 m/s 402.50 MHz Sölden (AT) 0.00 km UNKNOWN
T1330028 RS41 2022-01-26 12:34:55 47.2341 11.6233 102 ° 19 km/h 2332 m -12.5 m/s 402.50 MHz Wattens (AT) 0.00 km UNKNOWN
T1330027 RS41 2022-01-26 06:54:40 46.9975 11.9552 157 ° 54 km/h 3332 m -6.2 m/s 402.50 MHz Mayrhofen (AT) 0.00 km UNKNOWN
T1230010 RS41 2022-01-25 18:42:35 47.0757 11.328 56 ° 2 km/h 1644 m -4.8 m/s 402.50 MHz Neustift im Stubaital (AT) 0.00 km UNKNOWN
T1320390 RS41 2022-01-25 12:16:08 47.2136 10.9524 152 ° 24 km/h 3081 m -3.5 m/s 402.50 MHz Oetz (AT) 0.00 km UNKNOWN
T1321107 RS41 2022-01-25 06:21:06 47.2225 10.9149 160 ° 24 km/h 2725 m -9.5 m/s 402.50 MHz Oetz (AT) 0.00 km FOUND
T1320392 RS41 2022-01-24 18:21:08 47.193 10.4932 237 ° 33 km/h 3171 m -8.4 m/s 402.50 MHz Zams (AT) 0.00 km UNKNOWN
T1321083 RS41 2022-01-24 12:44:24 47.0097 10.6928 230 ° 44 km/h 3299 m -7.5 m/s 402.50 MHz Pfunds (AT) 0.00 km UNKNOWN
T1321111 RS41 2022-01-24 06:28:28 47.0648 10.5362 223 ° 57 km/h 3478 m -3.4 m/s 402.50 MHz Landeck (AT) 0.00 km UNKNOWN
T1330480 RS41 2022-01-21 06:49:12 46.2438 11.7471 165 ° 7 km/h 2238 m -10.7 m/s 402.50 MHz Feltre (IT) 0.00 km UNKNOWN
S3140552 RS41 2022-01-20 18:40:33 46.4822 12.4241 161 ° 26 km/h 2534 m -4.7 m/s 402.50 MHz Belluno (IT) 0.00 km UNKNOWN
S3140376 RS41 2022-01-20 12:14:36 46.8843 11.7194 148 ° 48 km/h 3954 m -6.5 m/s 402.50 MHz Brunico (IT) 0.00 km UNKNOWN
T1320261 RS41 2022-01-20 06:29:55 47.2621 12.164 91 ° 17 km/h 2416 m -5.3 m/s 402.50 MHz Neukirchen am Großvenediger (AT) 0.00 km UNKNOWN
T1320364 RS41 2022-01-19 18:46:52 47.7142 12.8278 69 ° 22 km/h 1617 m -4.8 m/s 402.50 MHz Grossgmain (AT) 0.00 km UNKNOWN
T1320365 RS41 2022-01-19 12:35:14 47.7517 12.2277 126 ° 4 km/h 1038 m -4.2 m/s 402.50 MHz Niederndorf (AT) 0.00 km UNKNOWN
T1320322 RS41 2022-01-19 06:43:25 47.42 12.1784 119 ° 35 km/h 1796 m -4.2 m/s 402.50 MHz Westendorf (AT) 0.00 km FOUND
T1320352 RS41 2022-01-18 18:52:20 46.8524 11.8895 250 ° 39 km/h 4085 m -4.9 m/s 402.50 MHz Brunico (IT) 0.00 km FOUND
T1320376 RS41 2022-01-18 12:13:06 47.1798 11.6356 143 ° 80 km/h 15598 m -15.0 m/s 402.50 MHz Wattens (AT) 0.00 km UNKNOWN
T1230011 RS41 2022-01-18 06:23:48 46.9897 11.4735 206 ° 56 km/h 3463 m -6.9 m/s 402.50 MHz Steinach am Brenner (AT) 0.00 km FOUND
T1230009 RS41 2022-01-17 18:08:02 47.1013 11.6728 107 ° 178 km/h 25684 m 6.6 m/s 402.50 MHz Steinach am Brenner (AT) 0.00 km UNKNOWN
T1320307 RS41 2022-01-17 12:31:24 46.6698 11.3336 168 ° 87 km/h 3876 m -6.3 m/s 402.50 MHz Merano (IT) 0.00 km UNKNOWN
T1321114 RS41 2022-01-17 06:14:12 46.8952 11.214 161 ° 96 km/h 3799 m -6.2 m/s 402.50 MHz Sölden (AT) 0.00 km UNKNOWN
T1330026 RS41 2022-01-14 06:53:58 47.0539 11.011 205 ° 37 km/h 3609 m -3.6 m/s 402.50 MHz Sölden (AT) 0.00 km UNKNOWN
T1321116 RS41 2022-01-13 19:01:32 46.9943 9.73527 294 ° 28 km/h 3117 m -4.3 m/s 402.50 MHz Landquart (CH) 0.00 km UNKNOWN
T1321109 RS41 2022-01-13 12:52:51 46.9243 9.67679 266 ° 57 km/h 2945 m -4.1 m/s 402.50 MHz Landquart (CH) 0.00 km UNKNOWN
T1320334 RS41 2022-01-13 06:40:52 46.9706 9.4278 338 ° 7 km/h 2368 m -4.6 m/s 402.50 MHz Mels (CH) 0.00 km UNKNOWN
T1320324 RS41 2022-01-12 18:55:30 46.7594 9.71322 227 ° 59 km/h 3451 m -3.5 m/s 402.50 MHz Davos (CH) 0.00 km UNKNOWN
T1330025 RS41 2022-01-12 12:48:40 47.0442 10.4289 226 ° 50 km/h 3410 m -3.6 m/s 402.50 MHz Kappl (AT) 0.00 km UNKNOWN
T1321069 RS41 2022-01-12 06:46:24 46.9805 10.3886 234 ° 61 km/h 3836 m -4.5 m/s 402.50 MHz Kappl (AT) 0.00 km UNKNOWN
T1320438 RS41 2022-01-11 18:58:14 46.9253 10.4151 217 ° 69 km/h 3859 m -4.2 m/s 402.50 MHz Pfunds (AT) 0.00 km UNKNOWN
T1320681 RS41 2022-01-11 12:53:03 47.1362 10.0472 236 ° 22 km/h 2609 m -4.1 m/s 402.50 MHz Schruns (AT) 0.00 km UNKNOWN
T1321082 RS41 2022-01-11 06:44:10 47.1454 10.2836 271 ° 43 km/h 2773 m -4.2 m/s 402.50 MHz Sankt Anton am Arlberg (AT) 0.00 km UNKNOWN
T1320366 RS41 2022-01-10 19:07:08 47.0592 10.8022 247 ° 54 km/h 3363 m -3.8 m/s 402.50 MHz Umhausen (AT) 0.00 km UNKNOWN
T1321071 RS41 2022-01-10 12:55:42 47.3866 11.095 304 ° 6 km/h 1953 m -8.3 m/s 402.50 MHz Leutasch (AT) 0.00 km UNKNOWN
T1320363 RS41 2022-01-10 06:49:05 47.352 11.2951 161 ° 15 km/h 1820 m -3.4 m/s 402.50 MHz Seefeld in Tirol (AT) 0.00 km UNKNOWN
T1321074 RS41 2022-01-05 18:09:00 48.2419 12.2178 87 ° 56 km/h 833 m -5.0 m/s 402.50 MHz Waldkraiburg (DE) 0.00 km UNKNOWN
T1321067 RS41 2022-01-05 12:57:08 48.4768 13.8666 97 ° 31 km/h 635 m -3.3 m/s 402.50 MHz Altenfelden (AT) 0.00 km FOUND
T1321066 RS41 2022-01-05 06:57:54 48.4377 13.8798 76 ° 19 km/h 599 m -4.6 m/s 402.50 MHz Altenfelden (AT) 0.00 km UNKNOWN
T1320309 RS41 2022-01-04 19:01:22 48.0829 13.9936 82 ° 26 km/h 498 m -10.2 m/s 402.50 MHz Steinerkirchen an der Traun (AT) 0.00 km UNKNOWN
T1321168 RS41 2022-01-04 12:56:15 47.9017 14.2098 74 ° 13 km/h 920 m -4.4 m/s 402.50 MHz Molln (AT) 0.00 km UNKNOWN
D18080442 DFM09 2022-01-04 09:56:24 47.7368 13.8692 114 ° 13 km/h 1445 m -3.2 m/s 404.309 MHz Ebensee (AT) 0.00 km UNKNOWN
T1321070 RS41 2022-01-04 06:37:35 47.5411 13.6139 64 ° 50 km/h 2205 m -2.5 m/s 402.50 MHz Bad Goisern (AT) 0.00 km UNKNOWN
T1321064 RS41 2022-01-03 18:43:44 47.019 13.9106 59 ° 13 km/h 3008 m -4.4 m/s 402.50 MHz Tamsweg (AT) 0.00 km UNKNOWN
T1321080 RS41 2022-01-03 12:23:44 47.3745 13.2362 112 ° 46 km/h 2684 m -11.8 m/s 402.50 MHz Sankt Johann im Pongau (AT) 0.00 km UNKNOWN
T1321068 RS41 2022-01-03 06:33:06 47.4147 13.6028 112 ° 56 km/h 2690 m -6.1 m/s 402.50 MHz Schladming (AT) 0.00 km UNKNOWN
T1320349 RS41 2021-12-23 18:42:32 46.822 12.7389 125 ° 74 km/h 3917 m -6.5 m/s 402.50 MHz Lienz (AT) 0.00 km UNKNOWN
T1321057 RS41 2021-12-23 12:31:52 46.8237 12.2522 131 ° 69 km/h 3689 m -7.8 m/s 402.50 MHz Brunico (IT) 0.00 km UNKNOWN
T1321065 RS41 2021-12-23 06:27:58 47.0295 12.3073 125 ° 63 km/h 3695 m -4.1 m/s 402.50 MHz Virgen (AT) 0.00 km UNKNOWN
S3120097 RS41 2021-12-22 18:53:06 46.6923 12.2696 159 ° 39 km/h 3228 m -3.1 m/s 402.50 MHz Brunico (IT) 0.00 km UNKNOWN
T1310766 RS41 2021-12-22 12:21:08 47.0402 11.8043 149 ° 22 km/h 3256 m -6.2 m/s 402.50 MHz Mayrhofen (AT) 0.00 km UNKNOWN
D18080421 DFM 2021-12-22 09:29:14 46.9848 11.4692 152 ° 20 km/h 3105 m -3.9 m/s 402.509 MHz Steinach am Brenner (AT) 0.00 km UNKNOWN
S3120114 RS41 2021-12-22 06:39:22 46.9334 12.1229 163 ° 48 km/h 3837 m -6.2 m/s 402.50 MHz Brunico (IT) 0.00 km UNKNOWN
S3131371 RS41 2021-12-21 18:26:31 47.2208 12.1565 100 ° 24 km/h 2562 m -8.0 m/s 402.50 MHz Neukirchen am Großvenediger (AT) 0.00 km UNKNOWN
S3120113 RS41 2021-12-21 12:28:18 47.2536 12.2634 103 ° 28 km/h 2749 m -10.8 m/s 402.50 MHz Neukirchen am Großvenediger (AT) 0.00 km UNKNOWN
S3131341 RS41 2021-12-21 06:31:06 47.1007 12.2478 120 ° 30 km/h 3407 m -6.0 m/s 402.50 MHz Neukirchen am Großvenediger (AT) 0.00 km UNKNOWN
T1321166 RS41 2021-12-20 19:00:20 46.7852 12.4619 152 ° 39 km/h 3165 m -4.5 m/s 402.50 MHz Lienz (AT) 0.00 km UNKNOWN
S3131383 RS41 2021-12-20 12:39:56 46.8489 11.7118 169 ° 69 km/h 3811 m -4.6 m/s 402.50 MHz Bressanone (IT) 0.00 km FOUND
S3131343 RS41 2021-12-20 06:43:00 46.8634 12.1703 170 ° 96 km/h 3868 m -7.8 m/s 402.50 MHz Brunico (IT) 0.00 km FOUND
S3131340 RS41 2021-12-17 06:36:32 47.1985 10.1751 140 ° 6 km/h 2319 m -5.3 m/s 402.50 MHz Sankt Anton am Arlberg (AT) 0.00 km UNKNOWN
S3131337 RS41 2021-12-16 18:47:26 47.1809 10.2664 267 ° 22 km/h 2699 m -9.8 m/s 402.50 MHz Sankt Anton am Arlberg (AT) 0.00 km UNKNOWN
S3131339 RS41 2021-12-16 12:48:40 47.0248 10.712 167 ° 33 km/h 3418 m -5.8 m/s 402.50 MHz Fliess (AT) 0.00 km UNKNOWN
S3131329 RS41 2021-12-16 06:41:26 47.0868 11.0823 188 ° 35 km/h 3335 m -3.6 m/s 402.50 MHz Umhausen (AT) 0.00 km UNKNOWN
S3131327 RS41 2021-12-15 18:36:54 47.236 10.6112 256 ° 31 km/h 2805 m -5.1 m/s 402.50 MHz Zams (AT) 0.00 km UNKNOWN
S3131331 RS41 2021-12-15 13:02:00 47.0879 10.3878 219 ° 35 km/h 3161 m -4.3 m/s 402.50 MHz Kappl (AT) 0.00 km UNKNOWN
S3120095 RS41 2021-12-15 06:23:09 47.0894 10.1785 163 ° 22 km/h 2891 m -4.7 m/s 402.50 MHz Sankt Anton am Arlberg (AT) 0.00 km UNKNOWN
S3120093 RS41 2021-12-14 18:54:12 46.6121 10.5535 178 ° 74 km/h 4710 m -4.1 m/s 402.50 MHz Pfunds (AT) 0.00 km UNKNOWN
S3120100 RS41 2021-12-14 12:34:30 47.0383 11.3823 157 ° 50 km/h 3110 m -2.8 m/s 402.50 MHz Steinach am Brenner (AT) 0.00 km UNKNOWN
S3131332 RS41 2021-12-14 06:37:03 47.1564 11.7247 180 ° 39 km/h 2897 m -8.3 m/s 402.50 MHz Mayrhofen (AT) 0.00 km UNKNOWN
S3131381 RS41 2021-12-13 18:52:04 47.2821 11.3944 76 ° 7 km/h 858 m -4.0 m/s 402.50 MHz Innsbruck (AT) 0.00 km FOUND
S3120079 RS41 2021-12-13 12:30:45 47.427 11.2082 178 ° 6 km/h 1895 m -4.2 m/s 402.50 MHz Leutasch (AT) 0.00 km UNKNOWN
S3131373 RS41 2021-12-13 06:39:35 47.3889 11.3897 161 ° 15 km/h 2310 m -9.7 m/s 402.50 MHz Thaur (AT) 0.00 km UNKNOWN
S3140309 RS41 2021-12-10 06:45:32 47.5246 11.8308 320 ° 9 km/h 1583 m -4.3 m/s 402.50 MHz Achenkirch (AT) 0.00 km UNKNOWN
S3131328 RS41 2021-12-09 18:46:08 47.8594 11.2933 80 ° 28 km/h 803 m -4.1 m/s 402.50 MHz Weilheim in Oberbayern (DE) 0.00 km UNKNOWN
S3131370 RS41 2021-12-09 12:53:58 48.0992 11.2458 100 ° 43 km/h 948 m -3.8 m/s 402.50 MHz Fürstenfeldbruck (DE) 0.00 km FOUND
S3131369 RS41 2021-12-09 07:02:52 48.3651 11.1118 111 ° 26 km/h 692 m -4.7 m/s 402.50 MHz Aichach (DE) 0.00 km UNKNOWN
S3131344 RS41 2021-12-08 18:49:32 48.7028 11.5889 252 ° 6 km/h 429 m -3.6 m/s 402.50 MHz Ingolstadt (DE) 0.00 km FOUND
S3131342 RS41 2021-12-08 13:01:08 48.798 11.9664 219 ° 7 km/h 517 m -3.2 m/s 402.50 MHz Regensburg (DE) 0.00 km LOST
S3120087 RS41 2021-12-08 06:34:00 48.2219 12.0809 48 ° 17 km/h 704 m -3.9 m/s 402.50 MHz Erding (DE) 0.00 km UNKNOWN
S3120102 RS41 2021-12-07 18:58:48 47.0496 12.5053 152 ° 69 km/h 4003 m -4.5 m/s 402.50 MHz Matrei in Osttirol (AT) 0.00 km UNKNOWN
S3131374 RS41 2021-12-07 12:40:14 46.9372 12.1134 163 ° 54 km/h 4015 m -4.2 m/s 402.50 MHz Brunico (IT) 0.00 km UNKNOWN
S3120091 RS41 2021-12-07 06:50:02 47.439 11.9628 73 ° 30 km/h 1594 m -6.4 m/s 402.50 MHz Kundl (AT) 0.00 km UNKNOWN
S3150578 RS41 2021-12-06 18:22:50 47.0616 11.435 184 ° 28 km/h 3092 m -3.9 m/s 402.50 MHz Steinach am Brenner (AT) 0.00 km UNKNOWN
S3140264 RS41 2021-12-06 12:42:48 47.1995 11.2563 105 ° 4 km/h 1554 m -5.0 m/s 402.50 MHz Axams (AT) 0.00 km UNKNOWN
D18080502 DFM 2021-12-06 08:54:20 47.6838 10.8299 133 ° 19 km/h 2125 m -14.5 m/s 402.509 MHz Reutte (AT) 0.00 km UNKNOWN
S3140263 RS41 2021-12-06 06:35:17 47.4379 11.1098 131 ° 15 km/h 1989 m -4.3 m/s 402.50 MHz Garmisch-Partenkirchen (DE) 0.00 km UNKNOWN
S3140634 RS41 2021-12-03 06:43:24 47.072 12.1659 153 ° 39 km/h 3552 m -5.6 m/s 402.50 MHz Neukirchen am Großvenediger (AT) 0.00 km UNKNOWN
S3150487 RS41 2021-12-02 18:54:58 48.0881 12.8507 121 ° 15 km/h 575 m -5.8 m/s 402.50 MHz Ostermiething (AT) 0.00 km UNKNOWN
S3150580 RS41 2021-12-02 12:50:51 48.3157 12.849 79 ° 19 km/h 628 m -4.9 m/s 402.50 MHz Braunau am Inn (AT) 0.00 km FOUND
S3150579 RS41 2021-12-02 06:28:43 48.2055 12.7857 82 ° 20 km/h 495 m -6.3 m/s 402.50 MHz Hochburg-Ach (AT) 0.00 km UNKNOWN
S3150577 RS41 2021-12-01 18:34:57 48.1348 12.9337 67 ° 24 km/h 522 m -5.6 m/s 402.50 MHz Hochburg-Ach (AT) 0.00 km UNKNOWN
S3120080 RS41 2021-12-01 12:32:11 48.0396 12.5871 38 ° 28 km/h 682 m -9.7 m/s 402.50 MHz Traunreut (DE) 0.00 km UNKNOWN
D18080501 DFM 2021-12-01 09:22:00 47.8762 12.5455 92 ° 20 km/h 803 m -2.9 m/s 402.509 MHz Traunreut (DE) 0.00 km FOUND
S3120230 RS41 2021-12-01 06:29:04 47.5183 12.3081 79 ° 19 km/h 1151 m -4.2 m/s 402.50 MHz Ellmau (AT) 0.00 km FOUND
S3120085 RS41 2021-11-30 18:50:08 46.6002 12.7082 132 ° 117 km/h 3466 m -4.2 m/s 402.50 MHz Lienz (AT) 0.00 km UNKNOWN
S3120099 RS41 2021-11-30 12:49:56 46.7798 12.6025 144 ° 102 km/h 3641 m -6.6 m/s 402.50 MHz Lienz (AT) 0.00 km UNKNOWN
S3140730 RS41 2021-11-30 06:30:42 46.7999 11.7833 162 ° 89 km/h 5023 m -9.0 m/s 402.50 MHz Brunico (IT) 0.00 km UNKNOWN
S3140633 RS41 2021-11-29 18:50:14 47.1806 11.8381 157 ° 33 km/h 3077 m -4.4 m/s 402.50 MHz Mayrhofen (AT) 0.00 km UNKNOWN
S3120098 RS41 2021-11-29 12:33:05 47.5939 11.5922 126 ° 41 km/h 2349 m -5.1 m/s 402.50 MHz Achenkirch (AT) 0.00 km UNKNOWN
S3120094 RS41 2021-11-29 07:00:52 47.7388 11.9887 86 ° 13 km/h 1260 m -3.4 m/s 402.50 MHz Rosenheim (DE) 0.00 km UNKNOWN
S3120236 RS41 2021-11-26 06:47:06 48.335 12.2242 92 ° 6 km/h 730 m -7.2 m/s 402.50 MHz Waldkraiburg (DE) 0.00 km UNKNOWN
S3120244 RS41 2021-11-25 18:53:20 48.2927 11.9224 105 ° 9 km/h 600 m -3.6 m/s 402.50 MHz Erding (DE) 0.00 km FOUND
S3140727 RS41 2021-11-25 12:26:01 48.1233 11.764 223 ° 6 km/h 643 m -11.0 m/s 402.50 MHz Vaterstetten (DE) 0.00 km UNKNOWN
S3150582 RS41 2021-11-25 06:44:27 48.0338 12.0689 176 ° 4 km/h 555 m -4.6 m/s 402.50 MHz Rosenheim (DE) 0.00 km UNKNOWN
S3140731 RS41 2021-11-24 18:50:00 48.0558 11.4283 319 ° 6 km/h 723 m -5.5 m/s 402.50 MHz Starnberg (DE) 0.00 km FOUND
S3140787 RS41 2021-11-24 13:13:53 48.0275 11.1527 240 ° 9 km/h 977 m -3.7 m/s 402.50 MHz Starnberg (DE) 0.00 km FOUND
D18080428 DFM 2021-11-24 09:23:35 47.9626 10.5982 273 ° 17 km/h 1195 m -4.5 m/s 402.509 MHz Kaufbeuren (DE) 0.00 km UNKNOWN
S3140674 RS41 2021-11-24 06:25:46 47.7835 10.9086 273 ° 24 km/h 1307 m -5.8 m/s 402.50 MHz Weilheim in Oberbayern (DE) 0.00 km UNKNOWN
S3120101 RS41 2021-11-23 18:33:46 47.6011 10.8214 292 ° 24 km/h 1784 m -7.8 m/s 402.50 MHz Reutte (AT) 0.00 km UNKNOWN
D18080416 DFM 2021-11-23 15:15:52 47.674 10.4666 279 ° 37 km/h 1843 m -12.5 m/s 402.009 MHz Kempten (DE) 0.00 km UNKNOWN
S3140419 RS41 2021-11-23 12:26:10 47.6512 10.7728 282 ° 28 km/h 1685 m -6.6 m/s 402.50 MHz Reutte (AT) 0.00 km UNKNOWN
D18079622 DFM 2021-11-23 09:35:42 47.6471 10.2376 266 ° 26 km/h 1273 m -4.6 m/s 402.489 MHz Kempten (DE) 0.00 km UNKNOWN
S3140792 RS41 2021-11-23 06:47:37 47.5333 10.8102 289 ° 26 km/h 2027 m -7.2 m/s 402.50 MHz Reutte (AT) 0.00 km UNKNOWN
S3140790 RS41 2021-11-22 19:10:20 47.6234 11.8144 265 ° 19 km/h 1781 m -3.9 m/s 402.50 MHz Achenkirch (AT) 0.00 km UNKNOWN
S3140678 RS41 2021-11-22 12:59:00 47.8625 11.729 260 ° 7 km/h 902 m -4.6 m/s 402.50 MHz Geretsried (DE) 0.00 km UNKNOWN
D18080547 DFM 2021-11-22 10:15:00 48.0673 11.5754 213 ° 15 km/h 752 m -2.9 m/s 402.008 MHz Unterhaching (DE) 0.00 km FOUND
S3140791 RS41 2021-11-22 06:51:00 47.9544 11.6703 238 ° 7 km/h 746 m -4.2 m/s 402.50 MHz Unterhaching (DE) 0.00 km FOUND
D18080591 DFM 2021-11-19 09:27:30 47.2213 10.5781 158 ° 17 km/h 3390 m -3.9 m/s 402.009 MHz Zams (AT) 0.00 km UNKNOWN
S3140789 RS41 2021-11-19 07:20:16 47.1464 10.6297 167 ° 30 km/h 4072 m -6.3 m/s 402.50 MHz Fliess (AT) 0.00 km UNKNOWN
S3140434 RS41 2021-11-18 18:31:22 47.0851 10.6703 187 ° 24 km/h 3178 m -8.0 m/s 402.50 MHz Fliess (AT) 0.00 km UNKNOWN
S3140437 RS41 2021-11-18 12:30:54 47.1632 10.5585 161 ° 19 km/h 3247 m -7.1 m/s 402.50 MHz Zams (AT) 0.00 km UNKNOWN
D18080559 DFM 2021-11-18 09:05:30 47.0916 10.3818 147 ° 17 km/h 3205 m -4.3 m/s 402.008 MHz Kappl (AT) 0.00 km UNKNOWN
S3140478 RS41 2021-11-18 06:31:26 47.1496 10.6657 160 ° 24 km/h 3409 m -5.3 m/s 402.50 MHz Fliess (AT) 0.00 km UNKNOWN
S3140728 RS41 2021-11-17 18:46:26 47.7118 11.2829 65 ° 17 km/h 1617 m -10.4 m/s 402.50 MHz Weilheim in Oberbayern (DE) 0.00 km UNKNOWN
S3140438 RS41 2021-11-17 12:47:56 47.9344 11.3285 135 ° 11 km/h 774 m -5.1 m/s 402.50 MHz Starnberg (DE) 0.00 km LOST
D18080593 DFM 2021-11-17 08:53:00 48.074 11.1813 131 ° 20 km/h 823 m -3.2 m/s 402.508 MHz Fürstenfeldbruck (DE) 0.00 km NEED ATTENTION
S3140395 RS41 2021-11-17 06:48:00 48.0015 11.2022 90 ° 30 km/h 1163 m -4.3 m/s 402.50 MHz Starnberg (DE) 0.00 km LOST
S3140435 RS41 2021-11-16 19:06:57 48.1692 11.0688 74 ° 13 km/h 1189 m -3.8 m/s 402.50 MHz Fürstenfeldbruck (DE) 0.00 km FOUND
D18080549 DFM 2021-11-16 15:48:08 48.2843 11.018 107 ° 20 km/h 779 m -2.8 m/s 402.511 MHz Königsbrunn (DE) 0.00 km FOUND
D18080561 DFM 2021-11-16 15:38:03 48.2195 10.9759 137 ° 6 km/h 707 m -4.2 m/s 402.011 MHz Königsbrunn (DE) 0.00 km FOUND
S3140460 RS41 2021-11-16 12:48:46 48.1457 11.0737 60 ° 17 km/h 1072 m -6.0 m/s 402.50 MHz Fürstenfeldbruck (DE) 0.00 km FOUND
D18079625 DFM 2021-11-16 09:32:17 48.2288 10.9005 75 ° 19 km/h 650 m -4.9 m/s 402.490 MHz Königsbrunn (DE) 0.00 km FOUND
S3140642 RS41 2021-11-16 06:33:01 48.0389 10.9796 92 ° 15 km/h 1165 m -6.9 m/s 402.50 MHz Landsberg am Lech (DE) 0.00 km UNKNOWN
S3140409 RS41 2021-11-15 19:07:04 48.0037 10.8124 262 ° 7 km/h 889 m -4.4 m/s 402.50 MHz Landsberg am Lech (DE) 0.00 km FOUND
S3140417 RS41 2021-11-15 12:31:23 48.0392 10.8423 237 ° 13 km/h 867 m -6.2 m/s 402.50 MHz Landsberg am Lech (DE) 0.00 km FOUND
D18080582 DFM09 2021-11-15 09:12:11 48.149 10.8219 284 ° 20 km/h 683 m -4.8 m/s 402.008 MHz Landsberg am Lech (DE) 0.00 km FOUND
S3140418 RS41 2021-11-15 06:50:04 47.9792 10.7647 279 ° 19 km/h 1181 m -7.7 m/s 402.50 MHz Landsberg am Lech (DE) 0.00 km FOUND
S3140459 RS41 2021-11-12 07:18:29 48.0926 11.1397 270 ° 13 km/h 954 m -4.5 m/s 402.50 MHz Fürstenfeldbruck (DE) 0.00 km LOST
S3140462 RS41 2021-11-11 18:52:03 48.0777 11.0886 104 ° 15 km/h 1057 m -5.0 m/s 402.50 MHz Fürstenfeldbruck (DE) 0.00 km FOUND
S3140386 RS41 2021-11-11 13:01:51 48.1353 11.0669 107 ° 17 km/h 954 m -5.9 m/s 402.50 MHz Fürstenfeldbruck (DE) 0.00 km FOUND
S3140416 RS41 2021-11-11 06:50:34 48.1087 11.136 119 ° 15 km/h 904 m -4.1 m/s 402.50 MHz Fürstenfeldbruck (DE) 0.00 km FOUND
S3140458 RS41 2021-11-10 18:52:34 48.3538 11.1706 264 ° 24 km/h 793 m -5.8 m/s 402.50 MHz Aichach (DE) 0.00 km FOUND
S3140436 RS41 2021-11-10 12:37:32 48.4057 11.0328 285 ° 11 km/h 815 m -7.5 m/s 402.50 MHz Aichach (DE) 0.00 km FOUND
S3140428 RS41 2021-11-10 06:57:15 48.4026 11.0094 49 ° 20 km/h 877 m -4.5 m/s 402.50 MHz Augsburg (DE) 0.00 km FOUND
R3320577 RS41 2021-11-09 18:48:40 48.3788 11.0071 297 ° 35 km/h 778 m -3.6 m/s 402.50 MHz Augsburg (DE) 0.00 km FOUND
R3320582 RS41-SGP 2021-11-09 13:08:16 48.0522 10.0311 245 ° 33 km/h 774 m -5.8 m/s 402.50 MHz Memmingen (DE) 0.00 km FOUND
R3330301 RS41 2021-11-09 06:41:35 47.5632 10.0907 262 ° 26 km/h 1232 m -4.5 m/s 402.50 MHz Sonthofen (DE) 0.00 km UNKNOWN
R3320529 RS41 2021-11-08 18:57:42 47.1411 10.5242 234 ° 31 km/h 3240 m -6.2 m/s 402.50 MHz Landeck (AT) 0.00 km UNKNOWN
R3321082 RS41 2021-11-08 12:53:19 47.3976 11.0091 64 ° 2 km/h 2425 m -8.8 m/s 402.50 MHz Ehrwald (AT) 0.00 km UNKNOWN
R3330322 RS41 2021-11-08 06:46:12 47.5509 11.4375 128 ° 7 km/h 2169 m -5.1 m/s 402.50 MHz Achenkirch (AT) 0.00 km UNKNOWN
R3330275 RS41 2021-11-05 07:09:25 48.2008 11.8172 51 ° 15 km/h 588 m -7.1 m/s 402.50 MHz Vaterstetten (DE) 0.00 km FOUND
R3320578 RS41 2021-11-04 19:11:55 48.5881 12.1071 87 ° 54 km/h 1084 m -3.4 m/s 402.50 MHz Landshut (DE) 0.00 km UNKNOWN
R3330891 RS41 2021-11-04 12:55:10 48.5514 11.9283 75 ° 50 km/h 925 m -7.0 m/s 402.50 MHz Landshut (DE) 0.00 km UNKNOWN
R3330343 RS41 2021-11-04 06:56:02 48.7278 11.5608 64 ° 28 km/h 455 m -8.0 m/s 402.50 MHz Ingolstadt (DE) 0.00 km FOUND
R3320794 RS41 2021-11-03 18:54:34 48.8508 12.0198 133 ° 19 km/h 947 m -4.2 m/s 402.50 MHz Regensburg (DE) 0.00 km FOUND
R3321128 RS41 2021-11-03 12:56:35 48.7364 12.4653 301 ° 37 km/h 679 m -3.8 m/s 402.50 MHz Straubing (DE) 0.00 km FOUND
S3120877 RS41 2021-11-03 06:45:25 48.4194 12.3558 320 ° 31 km/h 1118 m -4.6 m/s 402.50 MHz Landshut (DE) 0.00 km FOUND
R3330617 RS41 2021-11-02 19:01:49 48.1957 12.9612 44 ° 20 km/h 437 m -2.6 m/s 402.50 MHz Neukirchen an der Enknach (AT) 0.00 km UNKNOWN
R3320793 RS41 2021-11-02 12:59:40 48.1895 12.376 75 ° 15 km/h 770 m -6.2 m/s 402.50 MHz Waldkraiburg (DE) 0.00 km FOUND
R3320530 RS41 2021-11-02 07:17:00 48.2306 12.1502 69 ° 26 km/h 705 m -7.9 m/s 402.50 MHz Waldkraiburg (DE) 0.00 km FOUND
R3320580 RS41 2021-10-29 05:56:03 48.4689 11.3406 116 ° 7 km/h 661 m -5.2 m/s 402.50 MHz Pfaffenhofen an der Ilm (DE) 0.00 km NEED ATTENTION
T1320311 RS41 2021-10-28 17:55:45 48.4855 10.7218 90 ° 7 km/h 962 m -4.1 m/s 402.50 MHz Neusäß (DE) 0.00 km FOUND
R3340803 RS41 2021-10-28 12:06:43 48.6222 10.9121 23 ° 6 km/h 760 m -5.3 m/s 402.50 MHz Neuburg an der Donau (DE) 0.00 km FOUND
T1320435 RS41 2021-10-28 06:18:08 48.3845 10.4622 344 ° 13 km/h 673 m -3.8 m/s 402.50 MHz Dillingen (DE) 0.00 km FOUND
R3340800 RS41 2021-10-27 18:06:01 47.8075 10.3257 290 ° 28 km/h 1193 m -2.5 m/s 402.50 MHz Kempten (DE) 0.00 km NEED ATTENTION
R3330654 RS41 2021-10-27 12:05:00 47.6702 10.5481 277 ° 24 km/h 1899 m -6.1 m/s 402.50 MHz Kempten (DE) 0.00 km UNKNOWN
D18080569 DFM 2021-10-27 08:08:10 47.5803 10.1561 285 ° 20 km/h 1296 m -2.9 m/s 404.289 MHz Sonthofen (DE) 0.00 km UNKNOWN
T1321176 RS41 2021-10-27 05:49:44 47.4699 10.8556 221 ° 7 km/h 2374 m -10.9 m/s 402.50 MHz Ehrwald (AT) 0.00 km UNKNOWN
T1320323 RS41 2021-10-26 17:38:00 47.4628 11.3788 119 ° 19 km/h 2314 m -6.7 m/s 402.50 MHz Thaur (AT) 0.00 km UNKNOWN
T1320362 RS41 2021-10-26 11:55:00 48.3261 12.3523 82 ° 17 km/h 1143 m -11.7 m/s 402.50 MHz Waldkraiburg (DE) 0.00 km UNKNOWN
R3320865 RS41 2021-10-26 06:02:00 48.3216 12.292 121 ° 28 km/h 999 m -3.9 m/s 402.50 MHz Waldkraiburg (DE) 0.00 km UNKNOWN
R3320931 RS41 2021-10-25 17:44:43 48.3641 12.0271 95 ° 6 km/h 846 m -6.5 m/s 402.50 MHz Erding (DE) 0.00 km UNKNOWN
R3320531 RS41 2021-10-25 11:56:04 48.4927 11.8852 76 ° 7 km/h 760 m -4.4 m/s 402.50 MHz Freising (DE) 0.00 km FOUND
R3320572 RS41 2021-10-25 05:56:29 48.324 11.7845 97 ° 9 km/h 611 m -4.6 m/s 402.50 MHz Freising (DE) 0.00 km FOUND
D18081527 DFM 2021-10-22 08:58:52 47.9936 13.1536 64 ° 20 km/h 712 m -3.0 m/s 404.309 MHz Lengau (AT) 0.00 km FOUND
T1320437 RS41 2021-10-22 07:42:00 47.842 11.3367 107 ° 72 km/h 9514 m 3.9 m/s 402.50 MHz Geretsried (DE) 0.00 km LOST
R3330783 RS41 2021-10-22 06:01:05 48.1254 13.3314 101 ° 9 km/h 714 m -3.3 m/s 402.50 MHz Mettmach (AT) 0.00 km UNKNOWN
T1321169 RS41 2021-10-21 17:46:50 48.294 13.6115 77 ° 31 km/h 545 m -3.8 m/s 402.50 MHz Taiskirchen im Innkreis (AT) 0.00 km UNKNOWN
R3320533 RS41 2021-10-21 11:49:13 48.7499 14.0419 86 ° 69 km/h 1131 m -6.9 m/s 402.50 MHz Ulrichsberg (AT) 0.00 km UNKNOWN
R3320938 RS41 2021-10-21 05:55:33 48.5154 13.332 143 ° 15 km/h 547 m -5.9 m/s 402.50 MHz Passau (DE) 0.00 km FOUND
T1330501 RS41 2021-10-20 17:34:32 48.1692 12.6465 44 ° 20 km/h 544 m -10.6 m/s 402.50 MHz Hochburg-Ach (AT) 0.00 km UNKNOWN
T1330463 RS41 2021-10-20 12:01:41 48.096 12.7434 109 ° 6 km/h 594 m -7.9 m/s 402.50 MHz Ostermiething (AT) 0.00 km UNKNOWN
S3120878 RS41 2021-10-20 05:50:39 47.7333 12.192 20 ° 26 km/h 1180 m -8.3 m/s 402.50 MHz Niederndorf (AT) 0.00 km UNKNOWN
R3320933 RS41 2021-10-19 17:45:08 47.0864 11.8107 150 ° 37 km/h 3256 m -4.0 m/s 402.50 MHz Mayrhofen (AT) 0.00 km UNKNOWN
S3141083 RS41 2021-10-19 11:42:50 47.1164 11.7996 89 ° 22 km/h 3175 m -9.8 m/s 402.50 MHz Mayrhofen (AT) 0.00 km UNKNOWN
T1330479 RS41 2021-10-19 05:55:26 47.0115 11.698 149 ° 24 km/h 3117 m -7.7 m/s 402.50 MHz Steinach am Brenner (AT) 0.00 km UNKNOWN
S3050101 RS41 2021-10-18 17:24:14 47.0717 11.1979 90 ° 13 km/h 3068 m -9.9 m/s 402.50 MHz Neustift im Stubaital (AT) 0.00 km UNKNOWN
T1321170 RS41 2021-10-18 12:05:00 46.7944 11.2477 201 ° 35 km/h 4034 m -10.2 m/s 402.50 MHz Merano (IT) 0.00 km UNKNOWN
S3050054 RS41 2021-10-18 05:38:57 47.3421 11.7437 358 ° 7 km/h 1355 m -6.6 m/s 402.50 MHz Schwaz (AT) 0.00 km UNKNOWN
S3140375 RS41 2021-10-15 06:01:27 47.4018 11.5581 190 ° 6 km/h 2274 m -3.3 m/s 402.50 MHz Terfens (AT) 0.00 km UNKNOWN
R3320328 RS41 2021-10-14 18:00:10 47.0447 11.0768 190 ° 59 km/h 3919 m -4.5 m/s 402.50 MHz Sölden (AT) 0.00 km UNKNOWN
R3330274 RS41 2021-10-14 11:35:56 47.0438 10.7693 190 ° 69 km/h 4952 m -8.4 m/s 402.50 MHz Fliess (AT) 0.00 km UNKNOWN
S3140366 RS41 2021-10-14 05:22:18 46.8625 10.6317 201 ° 85 km/h 4260 m -7.1 m/s 402.50 MHz Pfunds (AT) 0.00 km UNKNOWN
S3141082 RS41 2021-10-13 17:22:06 46.7127 10.5972 188 ° 87 km/h 5118 m -7.8 m/s 402.50 MHz Pfunds (AT) 0.00 km UNKNOWN
R3330320 RS41 2021-10-13 11:44:50 46.8361 10.862 191 ° 56 km/h 4802 m -8.2 m/s 402.50 MHz Sölden (AT) 0.00 km UNKNOWN
D19003845 DFM 2021-10-13 09:48:00 47.3775 10.7946 180 ° 30 km/h 3683 m -15.0 m/s 402.009 MHz Ehrwald (AT) 0.00 km UNKNOWN
S3130706 RS41 2021-10-13 05:45:50 46.9887 11.2699 137 ° 39 km/h 3589 m -7.5 m/s 402.50 MHz Neustift im Stubaital (AT) 0.00 km UNKNOWN
T1321063 RS41 2021-10-12 17:37:44 47.2554 11.7559 89 ° 15 km/h 2362 m -8.3 m/s 402.50 MHz Vomp (AT) 0.00 km UNKNOWN
S3140362 RS41 2021-10-12 11:42:06 47.1753 11.7964 122 ° 28 km/h 3235 m -3.0 m/s 402.50 MHz Mayrhofen (AT) 0.00 km UNKNOWN
T1321165 RS41 2021-10-12 05:32:24 47.251 11.9186 98 ° 19 km/h 2630 m -9.2 m/s 402.50 MHz Mayrhofen (AT) 0.00 km UNKNOWN
R3330893 RS41 2021-10-11 17:17:02 47.1773 11.5961 132 ° 30 km/h 2771 m -4.6 m/s 402.50 MHz Volders (AT) 0.00 km UNKNOWN
R3341001 RS41 2021-10-11 11:44:00 47.2708 11.3171 196 ° 24 km/h 3256 m -7.2 m/s 402.50 MHz Völs (AT) 0.00 km UNKNOWN
D18051511 DFM09 2021-10-11 09:21:00 47.3378 10.9356 198 ° 35 km/h 3153 m -14.1 m/s 402.030 MHz Mieming (AT) 0.00 km UNKNOWN
T1321167 RS41 2021-10-11 06:02:36 47.0385 10.9225 207 ° 50 km/h 3869 m -4.2 m/s 402.50 MHz Umhausen (AT) 0.00 km UNKNOWN
T1320361 RS41 2021-10-08 05:54:39 47.395 10.3964 276 ° 31 km/h 2343 m -5.0 m/s 402.50 MHz Sonthofen (DE) 0.00 km UNKNOWN
T1321073 RS41 2021-10-07 17:45:35 47.5635 10.2124 264 ° 37 km/h 1315 m -3.9 m/s 402.50 MHz Sonthofen (DE) 0.00 km UNKNOWN
T1321072 RS41 2021-10-07 11:54:09 47.56 10.5176 263 ° 24 km/h 1693 m -3.9 m/s 402.50 MHz Reutte (AT) 0.00 km UNKNOWN
S3050636 RS41 2021-10-07 06:01:34 47.5909 11.0538 154 ° 9 km/h 1926 m -6.1 m/s 402.50 MHz Garmisch-Partenkirchen (DE) 0.00 km UNKNOWN
S3050098 RS41 2021-10-06 17:56:00 47.9179 11.5943 91 ° 30 km/h 819 m -5.3 m/s 402.50 MHz Geretsried (DE) 0.00 km UNKNOWN
S3041046 RS41 2021-10-06 11:56:17 48.204 11.6982 131 ° 28 km/h 557 m -2.9 m/s 402.50 MHz München (DE) 0.00 km FOUND
S3050100 RS41 2021-10-06 05:47:31 48.2299 11.8485 48 ° 13 km/h 564 m -4.4 m/s 402.50 MHz Erding (DE) 0.00 km FOUND
R3330345 RS41 2021-10-05 17:37:43 48.3004 11.7314 44 ° 17 km/h 572 m -5.7 m/s 402.50 MHz Freising (DE) 0.00 km FOUND
S3050082 RS41 2021-10-05 12:08:13 48.8355 11.8035 43 ° 11 km/h 527 m -3.6 m/s 402.50 MHz Ingolstadt (DE) 0.00 km FOUND
S3050096 RS41 2021-10-05 06:12:30 48.8932 11.6325 108 ° 17 km/h 608 m -4.2 m/s 402.50 MHz Ingolstadt (DE) 0.00 km NEED ATTENTION
S2940001 RS41 2021-10-04 17:51:17 48.6341 11.8773 217 ° 15 km/h 810 m -3.5 m/s 402.50 MHz Landshut (DE) 0.00 km UNKNOWN
S2930718 RS41 2021-10-04 12:01:58 48.7456 12.0155 152 ° 30 km/h 746 m -4.6 m/s 402.50 MHz Landshut (DE) 0.00 km UNKNOWN
D18082307 DFM09 2021-10-04 07:50:59 48.2517 11.2652 228 ° 15 km/h 1257 m -12.8 m/s 402.009 MHz Olching (DE) 0.00 km FOUND
S2930652 RS41 2021-10-04 04:37:25 48.2462 11.2666 178 ° 30 km/h 856 m -18.4 m/s 402.50 MHz Olching (DE) 0.00 km UNKNOWN
S3050097 RS41 2021-10-01 05:44:07 47.5963 11.6929 54 ° 7 km/h 1901 m -8.7 m/s 402.50 MHz Achenkirch (AT) 0.00 km UNKNOWN
S2930715 RS41 2021-09-30 17:42:26 47.4779 11.9397 255 ° 11 km/h 1183 m -4.6 m/s 402.50 MHz Breitenbach am Inn (AT) 0.00 km NEED ATTENTION
S2930654 RS41 2021-09-30 11:26:31 47.5332 11.9708 53 ° 15 km/h 2258 m -7.9 m/s 402.50 MHz Breitenbach am Inn (AT) 0.00 km UNKNOWN
S2930716 RS41 2021-09-30 05:38:01 47.7609 12.1023 71 ° 15 km/h 906 m -5.3 m/s 402.50 MHz Rosenheim (DE) 0.00 km UNKNOWN
S2930717 RS41 2021-09-29 17:12:00 48.0456 12.0764 27 ° 24 km/h 703 m -3.4 m/s 402.50 MHz Rosenheim (DE) 0.00 km FOUND
R3320296 RS41 2021-09-29 11:48:06 48.041 12.026 82 ° 19 km/h 802 m -5.9 m/s 402.50 MHz Vaterstetten (DE) 0.00 km LOST
D18082277 DFM 2021-09-29 08:52:30 48.1743 12.1996 21 ° 11 km/h 601 m -4.2 m/s 402.508 MHz Waldkraiburg (DE) 0.00 km FOUND
R3320258 RS41 2021-09-29 05:58:21 48.2602 11.9846 62 ° 20 km/h 599 m -3.6 m/s 402.50 MHz Erding (DE) 0.00 km FOUND
R3321054 RS41 2021-09-28 17:34:23 48.0631 11.781 213 ° 19 km/h 632 m -7.3 m/s 402.50 MHz Vaterstetten (DE) 0.00 km FOUND
R3321056 RS41 2021-09-28 11:36:35 47.939 11.7481 237 ° 9 km/h 738 m -8.2 m/s 402.50 MHz Unterhaching (DE) 0.00 km FOUND
D18080660 DFM 2021-09-28 08:40:21 47.7971 11.9579 167 ° 9 km/h 936 m -3.2 m/s 402.509 MHz Rosenheim (DE) 0.00 km UNKNOWN
R3420760 RS41 2021-09-28 05:37:16 47.6984 11.9026 120 ° 15 km/h 1327 m -4.4 m/s 402.50 MHz Kufstein (AT) 0.00 km UNKNOWN
R3330768 RS41 2021-09-27 17:22:33 47.722 11.8156 68 ° 11 km/h 1326 m -4.8 m/s 402.50 MHz Achenkirch (AT) 0.00 km UNKNOWN
S3120290 RS41 2021-09-27 10:43:15 47.6052 11.3947 62 ° 7 km/h 1540 m -7.0 m/s 402.50 MHz Achenkirch (AT) 0.00 km UNKNOWN
S3050294 RS41 2021-09-27 05:38:07 47.8111 11.564 97 ° 13 km/h 1134 m -4.8 m/s 402.50 MHz Geretsried (DE) 0.00 km UNKNOWN
D18079425 DFM 2021-09-24 08:36:06 47.4145 11.4507 97 ° 28 km/h 2528 m -8.3 m/s 402.509 MHz Thaur (AT) 0.00 km UNKNOWN
S3050298 RS41 2021-09-24 05:50:32 47.2757 11.5966 172 ° 4 km/h 1092 m -4.5 m/s 402.50 MHz Wattens (AT) 0.00 km UNKNOWN
S3120432 RS41 2021-09-23 17:35:24 47.3819 11.4277 96 ° 37 km/h 2600 m -10.5 m/s 402.50 MHz Thaur (AT) 0.00 km UNKNOWN
S3120439 RS41 2021-09-23 11:31:40 47.4039 11.4193 22 ° 11 km/h 2512 m -12.8 m/s 402.50 MHz Thaur (AT) 0.00 km UNKNOWN
S3120291 RS41 2021-09-23 05:35:41 47.3231 11.3405 91 ° 9 km/h 2363 m -7.7 m/s 402.50 MHz Innsbruck (AT) 0.00 km UNKNOWN
S3140063 RS41 2021-09-22 17:40:22 47.1155 10.986 200 ° 57 km/h 4142 m -4.8 m/s 402.50 MHz Umhausen (AT) 0.00 km UNKNOWN
D18082105 DFM09 2021-09-22 13:24:36 47.3842 10.8965 196 ° 33 km/h 2978 m -13.8 m/s 404.311 MHz Ehrwald (AT) 0.00 km UNKNOWN
S3131710 RS41 2021-09-22 11:34:30 47.0996 10.8995 190 ° 69 km/h 4127 m -6.5 m/s 402.50 MHz Umhausen (AT) 0.00 km UNKNOWN
S3140077 RS41 2021-09-22 05:32:00 47.0637 10.7896 171 ° 56 km/h 4545 m -4.9 m/s 402.50 MHz Umhausen (AT) 0.00 km UNKNOWN
S3140064 RS41 2021-09-21 17:48:24 47.2551 10.9669 306 ° 2 km/h 1678 m -4.4 m/s 402.50 MHz Silz (AT) 0.00 km UNKNOWN
S3120292 RS41 2021-09-21 11:39:10 47.4233 10.9395 124 ° 20 km/h 2419 m -5.6 m/s 402.50 MHz Ehrwald (AT) 0.00 km UNKNOWN
S3140218 RS41 2021-09-21 05:29:20 47.459 10.7247 142 ° 9 km/h 2616 m -4.8 m/s 402.50 MHz Reutte (AT) 0.00 km UNKNOWN
S3140217 RS41 2021-09-20 17:42:29 47.756 10.8245 255 ° 9 km/h 1128 m -7.1 m/s 402.50 MHz Kaufbeuren (DE) 0.00 km NEED ATTENTION
S3140221 RS41 2021-09-20 11:50:12 47.8353 11.0082 251 ° 6 km/h 878 m -6.8 m/s 402.50 MHz Weilheim in Oberbayern (DE) 0.00 km FOUND
S3140156 RS41 2021-09-20 05:54:40 47.7055 11.2185 47 ° 7 km/h 762 m -3.7 m/s 402.50 MHz Weilheim in Oberbayern (DE) 0.00 km FOUND
S3050290 RS41 2021-09-17 06:28:36 47.6665 11.9741 109 ° 13 km/h 1802 m -7.1 m/s 402.50 MHz Kufstein (AT) 0.00 km UNKNOWN
S3050295 RS41 2021-09-16 17:44:00 47.9938 11.8019 168 ° 30 km/h 775 m -5.3 m/s 402.50 MHz Vaterstetten (DE) 0.00 km LOST
S3050236 RS41 2021-09-16 12:01:51 48.025 12.1073 77 ° 28 km/h 992 m -5.8 m/s 402.50 MHz Rosenheim (DE) 0.00 km UNKNOWN
S3050293 RS41 2021-09-16 06:04:00 47.9717 12.0972 58 ° 13 km/h 682 m -4.1 m/s 402.50 MHz Rosenheim (DE) 0.00 km UNKNOWN
S3050245 RS41 2021-09-15 17:52:00 48.0037 11.7753 173 ° 7 km/h 714 m -5.2 m/s 402.50 MHz Vaterstetten (DE) 0.00 km FOUND
D18079472 DFMx 2021-09-15 14:40:25 48.2997 11.7039 167 ° 2 km/h 566 m -2.4 m/s 402.010 MHz Unterschleißheim (DE) 0.00 km FOUND
S3120410 RS41 2021-09-15 11:49:59 48.0602 11.7355 163 ° 11 km/h 652 m -3.6 m/s 402.50 MHz Vaterstetten (DE) 0.00 km FOUND
D18082264 DFM 2021-09-15 09:24:00 48.0407 12.1201 313 ° 7 km/h 610 m -3.9 m/s 402.507 MHz Rosenheim (DE) 0.00 km FOUND
S3050578 RS41 2021-09-15 05:55:03 47.7822 11.8099 57 ° 19 km/h 994 m -4.3 m/s 402.50 MHz Rosenheim (DE) 0.00 km FOUND
S3110703 RS41 2021-09-14 18:07:25 47.6055 11.8111 330 ° 9 km/h 1864 m -3.7 m/s 402.50 MHz Achenkirch (AT) 0.00 km UNKNOWN
S3110675 RS41 2021-09-14 12:10:42 47.7307 11.5935 206 ° 7 km/h 1214 m -5.9 m/s 402.50 MHz Geretsried (DE) 0.00 km UNKNOWN
S3140078 RS41 2021-09-14 05:48:00 47.6591 11.5753 19 ° 13 km/h 1269 m -4.6 m/s 402.50 MHz Achenkirch (AT) 0.00 km UNKNOWN
S3130702 RS41 2021-09-13 17:34:10 47.5473 11.5219 17 ° 2 km/h 1666 m -4.8 m/s 402.50 MHz Achenkirch (AT) 0.00 km UNKNOWN
S3110707 RS41 2021-09-13 11:46:00 47.718 11.5998 156 ° 6 km/h 1229 m -9.3 m/s 402.50 MHz Geretsried (DE) 0.00 km UNKNOWN
D18082249 DFM 2021-09-13 08:31:21 47.7453 11.5837 256 ° 2 km/h 1408 m -4.8 m/s 402.508 MHz Geretsried (DE) 0.00 km FOUND
S3110695 RS41 2021-09-13 05:34:09 47.7391 11.5639 329 ° 4 km/h 1119 m -7.1 m/s 402.50 MHz Geretsried (DE) 0.00 km UNKNOWN
S3120416 RS41 2021-09-10 06:27:00 48.021 11.2256 110 ° 15 km/h 825 m -2.7 m/s 402.50 MHz Starnberg (DE) 0.00 km UNKNOWN
S3140171 RS41 2021-09-09 17:42:24 48.008 11.0422 94 ° 17 km/h 1093 m -6.0 m/s 402.50 MHz Landsberg am Lech (DE) 0.00 km FOUND
S3120630 RS41 2021-09-09 11:42:42 47.9796 10.7867 94 ° 35 km/h 1126 m -5.2 m/s 402.50 MHz Landsberg am Lech (DE) 0.00 km FOUND
S3120411 RS41 2021-09-09 05:39:46 47.772 10.6085 33 ° 17 km/h 839 m -8.7 m/s 402.50 MHz Kaufbeuren (DE) 0.00 km FOUND
S3120422 RS41 2021-09-08 17:50:27 47.6835 10.3682 275 ° 24 km/h 974 m -12.0 m/s 402.50 MHz Kempten (DE) 0.00 km UNKNOWN
S3110705 RS41 2021-09-08 11:52:30 47.7534 10.374 129 ° 9 km/h 874 m -5.8 m/s 402.50 MHz Kempten (DE) 0.00 km LOST
S3110691 RS41 2021-09-08 05:37:10 47.4875 10.2777 22 ° 6 km/h 1423 m -7.5 m/s 402.50 MHz Sonthofen (DE) 0.00 km UNKNOWN
S3120309 RS41 2021-09-07 17:44:12 47.125 10.3606 57 ° 11 km/h 3342 m -6.1 m/s 402.50 MHz Kappl (AT) 0.00 km UNKNOWN
S3050584 RS41 2021-09-07 11:28:16 47.3222 10.5716 115 ° 4 km/h 2533 m -5.9 m/s 402.50 MHz Imst (AT) 0.00 km UNKNOWN
S3050596 RS41 2021-09-07 05:45:10 47.3205 10.9068 73 ° 7 km/h 1800 m -4.8 m/s 402.50 MHz Mieming (AT) 0.00 km UNKNOWN
S3120409 RS41 2021-09-06 18:07:51 47.2774 10.9501 165 ° 13 km/h 783 m -8.0 m/s 402.50 MHz Silz (AT) 0.00 km UNKNOWN
S3110706 RS41 2021-09-06 11:27:03 47.5448 10.9131 58 ° 4 km/h 2099 m -7.2 m/s 402.50 MHz Garmisch-Partenkirchen (DE) 0.00 km UNKNOWN
S3110692 RS41 2021-09-06 05:27:17 47.5196 11.0586 126 ° 15 km/h 2297 m -7.2 m/s 402.50 MHz Garmisch-Partenkirchen (DE) 0.00 km UNKNOWN
D18079446 DFM 2021-09-03 07:34:00 47.83 10.8345 89 ° 2 km/h 1413 m -12.8 m/s 404.309 MHz Kaufbeuren (DE) 0.00 km UNKNOWN
S3110696 RS41 2021-09-03 05:26:27 47.7651 11.1318 197 ° 4 km/h 706 m -7.1 m/s 402.50 MHz Weilheim in Oberbayern (DE) 0.00 km FOUND
S3110704 RS41 2021-09-02 17:47:20 47.7566 11.2522 278 ° 15 km/h 1499 m -5.7 m/s 402.50 MHz Weilheim in Oberbayern (DE) 0.00 km NEED ATTENTION
S3120442 RS41 2021-09-02 12:02:47 47.6992 11.1672 251 ° 7 km/h 1631 m -4.1 m/s 404.30 MHz Weilheim in Oberbayern (DE) 0.00 km LOST
S3050291 RS41 2021-09-02 06:11:43 47.537 11.1647 72 ° 9 km/h 2251 m -4.7 m/s 402.50 MHz Garmisch-Partenkirchen (DE) 0.00 km UNKNOWN
S3050276 RS41 2021-09-01 17:34:22 47.5951 10.7047 211 ° 26 km/h 890 m -8.2 m/s 402.50 MHz Reutte (AT) 0.00 km FOUND
S3050274 RS41 2021-09-01 11:32:19 47.5783 10.7217 206 ° 11 km/h 856 m -3.8 m/s 402.50 MHz Reutte (AT) 0.00 km UNKNOWN
D18082281 DFM 2021-09-01 08:54:39 47.4432 10.6497 205 ° 13 km/h 2295 m -2.8 m/s 404.308 MHz Reutte (AT) 0.00 km UNKNOWN
S3050272 RS41 2021-09-01 05:24:07 47.5764 10.7858 4 ° 2 km/h 1176 m -9.4 m/s 402.50 MHz Reutte (AT) 0.00 km UNKNOWN
S3050289 RS41 2021-08-31 17:27:12 47.5607 10.9032 196 ° 22 km/h 2021 m -13.6 m/s 402.50 MHz Garmisch-Partenkirchen (DE) 0.00 km UNKNOWN
S3050292 RS41 2021-08-31 11:53:35 47.6014 10.8739 151 ° 11 km/h 1552 m -3.6 m/s 402.50 MHz Reutte (AT) 0.00 km UNKNOWN
D18080338 DFM 2021-08-31 08:37:00 47.4925 11.1249 120 ° 13 km/h 2108 m -3.1 m/s 402.010 MHz Garmisch-Partenkirchen (DE) 0.00 km UNKNOWN
S3120484 RS41 2021-08-31 06:01:15 47.5439 11.2979 272 ° 6 km/h 1068 m -4.5 m/s 402.50 MHz Garmisch-Partenkirchen (DE) 0.00 km UNKNOWN
S3050240 RS41 2021-08-30 18:00:49 47.4287 11.1591 112 ° 15 km/h 2163 m -5.3 m/s 402.50 MHz Leutasch (AT) 0.00 km UNKNOWN
S3050300 RS41 2021-08-30 11:41:50 47.5976 11.3405 71 ° 20 km/h 1260 m -7.3 m/s 402.50 MHz Garmisch-Partenkirchen (DE) 0.00 km LOST
S3120441 RS41 2021-08-30 05:54:58 47.4479 11.429 80 ° 43 km/h 2600 m -6.9 m/s 402.50 MHz Thaur (AT) 0.00 km UNKNOWN
S3050310 RS41 2021-08-27 05:57:26 47.0932 12.7843 147 ° 39 km/h 3641 m -1.9 m/s 402.50 MHz Bruck an der Großglocknerstraße (AT) 0.00 km UNKNOWN
S3050238 RS41 2021-08-26 17:01:19 47.2117 12.1325 101 ° 28 km/h 2844 m -4.8 m/s 402.50 MHz Neukirchen am Großvenediger (AT) 0.00 km UNKNOWN
S3050308 RS41 2021-08-26 11:47:15 47.3613 12.0455 112 ° 17 km/h 2238 m -7.5 m/s 402.50 MHz Alpbach (AT) 0.00 km UNKNOWN
S3050243 RS41 2021-08-26 05:38:29 47.4241 11.3674 97 ° 26 km/h 2408 m -9.9 m/s 402.50 MHz Thaur (AT) 0.00 km UNKNOWN
S3050309 RS41 2021-08-25 17:38:57 47.4943 10.6172 73 ° 20 km/h 2154 m -11.8 m/s 402.50 MHz Reutte (AT) 0.00 km UNKNOWN
S3050271 RS41 2021-08-25 12:01:59 47.4398 10.2673 261 ° 6 km/h 1708 m -3.9 m/s 402.50 MHz Sonthofen (DE) 0.00 km UNKNOWN
D18082240 DFM 2021-08-25 08:53:30 47.3571 10.161 184 ° 9 km/h 1946 m -3.1 m/s 402.488 MHz Mittelberg (AT) 0.00 km UNKNOWN
S3050273 RS41 2021-08-25 05:38:49 47.6345 10.6439 247 ° 9 km/h 1066 m -3.3 m/s 402.50 MHz Reutte (AT) 0.00 km UNKNOWN
S3050231 RS41 2021-08-24 17:59:50 47.6991 10.7432 261 ° 31 km/h 866 m -5.9 m/s 402.50 MHz Kaufbeuren (DE) 0.00 km UNKNOWN
S3050195 RS41 2021-08-24 11:27:43 47.7524 10.7988 257 ° 13 km/h 878 m -10.6 m/s 402.50 MHz Kaufbeuren (DE) 0.00 km UNKNOWN
S3050299 RS41 2021-08-24 05:32:35 47.6396 11.0358 182 ° 6 km/h 1320 m -8.3 m/s 402.50 MHz Garmisch-Partenkirchen (DE) 0.00 km UNKNOWN
S3050312 RS41 2021-08-23 18:05:00 47.4531 11.3841 116 ° 35 km/h 2457 m -3.5 m/s 402.50 MHz Thaur (AT) 0.00 km UNKNOWN
S3050237 RS41 2021-08-23 12:01:08 47.8226 11.5372 111 ° 17 km/h 902 m -5.3 m/s 402.50 MHz Geretsried (DE) 0.00 km FOUND
S3050239 RS41 2021-08-23 05:46:41 47.9608 12.3989 85 ° 31 km/h 854 m -7.8 m/s 402.50 MHz Traunreut (DE) 0.00 km UNKNOWN
D18082091 DFM 2021-08-20 08:57:30 48.0399 12.0727 315 ° 11 km/h 609 m -2.8 m/s 402.509 MHz Rosenheim (DE) 0.00 km FOUND
S3050128 RS41 2021-08-20 05:55:00 48.0827 11.7813 51 ° 9 km/h 646 m -6.1 m/s 402.50 MHz Vaterstetten (DE) 0.00 km UNKNOWN
S3050242 RS41 2021-08-19 18:26:05 47.8283 12.2491 93 ° 6 km/h 1021 m -3.1 m/s 402.50 MHz Rosenheim (DE) 0.00 km UNKNOWN
S3050244 RS41 2021-08-19 11:45:56 47.8642 11.9114 74 ° 9 km/h 996 m -4.9 m/s 402.50 MHz Rosenheim (DE) 0.00 km FOUND
D18080340 DFM 2021-08-19 08:40:00 47.8262 11.9679 94 ° 20 km/h 1064 m -4.6 m/s 402.509 MHz Rosenheim (DE) 0.00 km FOUND
S3050113 RS41 2021-08-19 05:54:30 47.7061 11.9663 181 ° 9 km/h 1235 m -4.3 m/s 402.50 MHz Niederndorf (AT) 0.00 km UNKNOWN
S3050241 RS41 2021-08-18 17:44:19 47.5151 11.5847 103 ° 17 km/h 2048 m -5.2 m/s 402.50 MHz Achenkirch (AT) 0.00 km UNKNOWN
R3420716 RS41 2021-08-18 12:11:31 47.1933 11.7402 119 ° 26 km/h 2888 m -4.9 m/s 402.50 MHz Mayrhofen (AT) 0.00 km UNKNOWN
R3330362 RS41 2021-08-18 05:52:06 46.9547 12.0357 145 ° 43 km/h 3912 m -14.1 m/s 402.50 MHz Brunico (IT) 0.00 km UNKNOWN
R3420681 RS41 2021-08-17 17:29:27 47.5818 11.9953 72 ° 19 km/h 2171 m -8.4 m/s 402.50 MHz Kirchbichl (AT) 0.00 km UNKNOWN
R3330144 RS41 2021-08-17 11:26:23 47.5386 11.9581 110 ° 20 km/h 2060 m -7.8 m/s 402.50 MHz Breitenbach am Inn (AT) 0.00 km UNKNOWN
D18082211 DFM09 2021-08-17 08:24:00 47.5139 11.5007 127 ° 57 km/h 3745 m -14.6 m/s 402.048 MHz Achenkirch (AT) 0.00 km UNKNOWN
R3330132 RS41 2021-08-17 05:42:00 47.8964 12.3652 118 ° 33 km/h 917 m -6.9 m/s 402.50 MHz Traunreut (DE) 0.00 km UNKNOWN
R3420684 RS41 2021-08-16 18:20:46 48.4053 12.3946 75 ° 44 km/h 979 m -6.4 m/s 402.50 MHz Waldkraiburg (DE) 0.00 km UNKNOWN
R3420486 RS41 2021-08-16 11:31:00 48.1276 11.8301 135 ° 22 km/h 663 m -14.6 m/s 402.50 MHz Vaterstetten (DE) 0.00 km FOUND
R3251228 RS41 2021-08-16 05:34:52 47.9041 12.118 91 ° 41 km/h 1090 m -7.8 m/s 402.50 MHz Rosenheim (DE) 0.00 km UNKNOWN
R3251259 RS41 2021-08-13 06:19:40 47.7521 12.0103 66 ° 30 km/h 1268 m -5.1 m/s 402.50 MHz Rosenheim (DE) 0.00 km UNKNOWN
R3251230 RS41 2021-08-12 18:16:41 47.7506 12.0415 344 ° 11 km/h 1182 m -3.3 m/s 402.50 MHz Rosenheim (DE) 0.00 km UNKNOWN
R3251227 RS41 2021-08-12 11:51:00 47.6984 11.7957 90 ° 13 km/h 1422 m -8.3 m/s 402.50 MHz Achenkirch (AT) 0.00 km UNKNOWN
R3320314 RS41 2021-08-12 05:47:00 47.5953 11.8029 79 ° 11 km/h 1930 m -4.9 m/s 402.50 MHz Achenkirch (AT) 0.00 km UNKNOWN
R3320256 RS41 2021-08-11 18:03:11 47.4174 12.1529 72 ° 7 km/h 1932 m -5.9 m/s 402.50 MHz Hopfgarten im Brixental (AT) 0.00 km UNKNOWN
R3320310 RS41 2021-08-11 11:51:55 47.5088 11.7594 57 ° 13 km/h 2162 m -11.9 m/s 402.50 MHz Achenkirch (AT) 0.00 km UNKNOWN
D18080324 DFM 2021-08-11 08:42:57 47.5071 12.1653 84 ° 24 km/h 2121 m -3.4 m/s 404.309 MHz Söll (AT) 0.00 km FOUND
R3320257 RS41 2021-08-11 05:55:33 47.5907 12.1313 23 ° 7 km/h 1191 m -3.9 m/s 402.50 MHz Kufstein (AT) 0.00 km FOUND
R3320306 RS41 2021-08-10 18:14:07 47.7919 12.7221 75 ° 13 km/h 1204 m -4.5 m/s 402.50 MHz Grossgmain (AT) 0.00 km FOUND
R3320297 RS41 2021-08-10 11:38:40 47.9646 12.2303 101 ° 4 km/h 848 m -9.4 m/s 402.50 MHz Rosenheim (DE) 0.00 km UNKNOWN
S2940006 RS41 2021-08-10 05:52:45 47.9747 12.4445 346 ° 19 km/h 823 m -11.5 m/s 402.50 MHz Traunreut (DE) 0.00 km FOUND
R3320286 RS41 2021-08-09 17:40:56 48.1964 12.5677 348 ° 2 km/h 578 m -6.7 m/s 402.50 MHz Waldkraiburg (DE) 0.00 km FOUND
R3251225 RS41 2021-08-09 12:37:49 48.3455 12.9112 279 ° 11 km/h 588 m -3.3 m/s 402.50 MHz Braunau am Inn (AT) 0.00 km UNKNOWN
S2930650 RS41 2021-08-09 05:55:50 48.2033 12.3754 306 ° 6 km/h 501 m -4.2 m/s 402.50 MHz Waldkraiburg (DE) 0.00 km UNKNOWN
R3320859 RS41 2021-08-06 06:01:28 47.6253 12.4117 64 ° 19 km/h 1634 m -2.9 m/s 402.50 MHz Kössen (AT) 0.00 km UNKNOWN
S2940005 RS41 2021-08-05 18:14:54 47.7708 11.8659 85 ° 43 km/h 1070 m -6.1 m/s 402.50 MHz Rosenheim (DE) 0.00 km UNKNOWN
S3130204 RS41 2021-08-05 11:31:51 47.7941 11.5827 73 ° 13 km/h 996 m -6.6 m/s 402.50 MHz Geretsried (DE) 0.00 km UNKNOWN
S3130975 RS41 2021-08-05 06:14:00 48.0381 11.497 79 ° 11 km/h 691 m -3.5 m/s 402.50 MHz Unterhaching (DE) 0.00 km UNKNOWN
S2930649 RS41 2021-08-04 17:52:20 48.4778 12.1688 346 ° 19 km/h 689 m -5.8 m/s 402.50 MHz Landshut (DE) 0.00 km UNKNOWN
S2940004 RS41 2021-08-04 11:40:10 48.231 12.2125 12 ° 6 km/h 772 m -9.5 m/s 402.50 MHz Waldkraiburg (DE) 0.00 km FOUND
S3130203 RS41 2021-08-04 05:44:26 48.1119 12.3865 78 ° 11 km/h 663 m -5.2 m/s 402.50 MHz Waldkraiburg (DE) 0.00 km UNKNOWN
R3320292 RS41 2021-08-03 17:40:37 47.9257 12.1947 113 ° 31 km/h 910 m -2.1 m/s 402.50 MHz Rosenheim (DE) 0.00 km UNKNOWN
R3320294 RS41 2021-08-03 11:44:31 48.107 12.1164 123 ° 2 km/h 678 m -4.9 m/s 402.50 MHz Waldkraiburg (DE) 0.00 km FOUND
R3251170 RS41 2021-08-03 05:51:35 48.0169 11.8021 7 ° 9 km/h 786 m -6.1 m/s 402.50 MHz Vaterstetten (DE) 0.00 km FOUND
R3320298 RS41 2021-08-02 17:59:00 48.007 11.6499 198 ° 11 km/h 685 m -3.7 m/s 402.50 MHz Unterhaching (DE) 0.00 km UNKNOWN
S2930653 RS41 2021-08-02 06:12:08 48.2323 12.0938 68 ° 19 km/h 658 m -4.5 m/s 402.50 MHz Erding (DE) 0.00 km FOUND
S3130890 RS41 2021-07-30 05:57:00 48.05 12.185 128 ° 6 km/h 594 m -4.4 m/s 402.50 MHz Rosenheim (DE) 0.00 km LOST
S3130889 RS41 2021-07-29 17:51:05 48.0967 12.0328 99 ° 17 km/h 833 m -7.9 m/s 402.50 MHz Vaterstetten (DE) 0.00 km FOUND
S2940002 RS41 2021-07-29 11:46:03 48.096 11.9243 77 ° 7 km/h 745 m -8.9 m/s 402.50 MHz Vaterstetten (DE) 0.00 km UNKNOWN
D18080474 DFMx 2021-07-29 09:03:00 48.0597 12.4174 176 ° 7 km/h 774 m -3.0 m/s 404.309 MHz Waldkraiburg (DE) 0.00 km FOUND
D18080426 DFM09 2021-07-29 07:33:30 47.8972 11.488 79 ° 72 km/h 12177 m 5.0 m/s 404.309 MHz Geretsried (DE) 0.00 km UNKNOWN
S3130906 RS41 2021-07-29 05:29:30 47.9751 12.1738 35 ° 9 km/h 808 m -4.1 m/s 402.50 MHz Rosenheim (DE) 0.00 km UNKNOWN
S3130896 RS41 2021-07-28 18:21:00 48.0363 11.9156 46 ° 17 km/h 869 m -3.4 m/s 402.50 MHz Vaterstetten (DE) 0.00 km UNKNOWN
S3130136 RS41 2021-07-28 11:57:51 48.5024 11.7965 96 ° 26 km/h 691 m -4.7 m/s 402.50 MHz Freising (DE) 0.00 km UNKNOWN
D18082323 DFM09 2021-07-28 08:50:59 48.532 12.0928 78 ° 11 km/h 807 m -2.8 m/s 402.048 MHz Landshut (DE) 0.00 km FOUND
S3130894 RS41 2021-07-28 05:40:07 48.4284 12.091 79 ° 13 km/h 604 m -4.5 m/s 402.50 MHz Landshut (DE) 0.00 km UNKNOWN
S2930651 RS41 2021-07-27 17:43:22 48.1991 11.6135 9 ° 4 km/h 554 m -2.7 m/s 402.50 MHz München (DE) 0.00 km FOUND
S3130696 RS41 2021-07-27 12:00:39 48.2567 11.6991 260 ° 9 km/h 565 m -4.8 m/s 402.50 MHz Unterschleißheim (DE) 0.00 km FOUND
S3130891 RS41 2021-07-27 06:13:53 48.4 11.6829 95 ° 11 km/h 572 m -4.3 m/s 402.50 MHz Freising (DE) 0.00 km UNKNOWN
S3130892 RS41 2021-07-26 17:45:01 48.4172 11.5558 115 ° 24 km/h 611 m -5.4 m/s 402.50 MHz Pfaffenhofen an der Ilm (DE) 0.00 km UNKNOWN
R3330613 RS41 2021-07-26 11:53:49 48.5204 11.446 315 ° 7 km/h 662 m -3.0 m/s 402.50 MHz Pfaffenhofen an der Ilm (DE) 0.00 km FOUND
R3251284 RS41 2021-07-26 05:37:50 48.2535 11.1251 90 ° 20 km/h 838 m -4.2 m/s 402.50 MHz Fürstenfeldbruck (DE) 0.00 km FOUND
R3321101 RS41 2021-07-23 05:32:58 47.5005 11.5111 116 ° 61 km/h 2143 m -7.3 m/s 402.50 MHz Achenkirch (AT) 0.00 km UNKNOWN
R3330636 RS41 2021-07-22 17:44:07 47.7338 11.517 243 ° 15 km/h 1387 m -8.7 m/s 402.50 MHz Geretsried (DE) 0.00 km UNKNOWN
R3320285 RS41 2021-07-22 11:40:31 47.8169 11.2623 239 ° 11 km/h 755 m -10.4 m/s 402.50 MHz Weilheim in Oberbayern (DE) 0.00 km FOUND
D18080465 DFM 2021-07-22 08:33:44 47.8198 11.4207 279 ° 6 km/h 679 m -2.0 m/s 404.310 MHz Geretsried (DE) 0.00 km UNKNOWN
R3251229 RS41 2021-07-22 05:50:01 47.8117 11.1697 6 ° 11 km/h 771 m -9.3 m/s 402.50 MHz Weilheim in Oberbayern (DE) 0.00 km FOUND
R3330615 RS41 2021-07-21 17:37:46 47.7979 11.2653 203 ° 15 km/h 876 m -9.0 m/s 402.50 MHz Weilheim in Oberbayern (DE) 0.00 km FOUND
D18080164 DFM 2021-07-21 14:09:25 47.7788 11.2936 215 ° 11 km/h 835 m -5.2 m/s 404.309 MHz Weilheim in Oberbayern (DE) 0.00 km NEED ATTENTION
R3320302 RS41 2021-07-21 11:36:16 47.8565 11.1658 206 ° 11 km/h 790 m -11.5 m/s 402.50 MHz Weilheim in Oberbayern (DE) 0.00 km UNKNOWN
D18080423 DFM 2021-07-21 09:23:43 47.7848 11.0669 85 ° 30 km/h 2695 m -14.3 m/s 402.108 MHz Weilheim in Oberbayern (DE) 0.00 km UNKNOWN
D18082096 DFM09 2021-07-21 08:44:45 47.7539 11.4618 139 ° 11 km/h 800 m -4.2 m/s 404.293 MHz Geretsried (DE) 0.00 km FOUND
R3320304 RS41 2021-07-21 05:48:10 47.7198 11.3291 27 ° 6 km/h 854 m -4.7 m/s 402.50 MHz Geretsried (DE) 0.00 km UNKNOWN
R3330639 RS41 2021-07-20 17:48:10 47.5064 11.5805 76 ° 24 km/h 2507 m -6.5 m/s 402.50 MHz Achenkirch (AT) 0.00 km UNKNOWN
D18080463 DFM 2021-07-20 14:34:31 47.3864 11.9364 217 ° 11 km/h 1387 m -2.7 m/s 402.509 MHz Alpbach (AT) 0.00 km UNKNOWN
R3320303 RS41 2021-07-20 11:36:46 47.5267 11.5963 100 ° 15 km/h 2185 m -9.9 m/s 402.50 MHz Achenkirch (AT) 0.00 km UNKNOWN
R3320313 RS41 2021-07-20 05:23:15 47.541 11.883 118 ° 35 km/h 2083 m -5.9 m/s 402.50 MHz Breitenbach am Inn (AT) 0.00 km UNKNOWN
R3320318 RS41 2021-07-19 17:33:42 47.6915 11.4197 166 ° 11 km/h 1625 m -10.8 m/s 402.50 MHz Geretsried (DE) 0.00 km FOUND
R3251168 RS41 2021-07-19 11:47:07 47.6757 11.1817 180 ° 4 km/h 1423 m -6.2 m/s 402.50 MHz Weilheim in Oberbayern (DE) 0.00 km UNKNOWN
D18080489 DFM09 2021-07-19 08:26:00 47.5353 11.0992 296 ° 6 km/h 1735 m -2.9 m/s 402.048 MHz Garmisch-Partenkirchen (DE) 0.00 km UNKNOWN
S3130701 RS41 2021-07-19 05:43:21 47.5566 11.0178 287 ° 15 km/h 1813 m -3.9 m/s 402.50 MHz Garmisch-Partenkirchen (DE) 0.00 km UNKNOWN
D18080472 DFM 2021-07-16 07:46:00 47.8917 10.7849 149 ° 9 km/h 1475 m -13.7 m/s 404.308 MHz Kaufbeuren (DE) 0.00 km UNKNOWN
S3130658 RS41 2021-07-16 05:47:37 47.8442 10.7352 105 ° 7 km/h 896 m -7.1 m/s 402.50 MHz Kaufbeuren (DE) 0.00 km UNKNOWN
S3140070 RS41 2021-07-15 18:00:48 47.897 11.2301 68 ° 24 km/h 878 m -4.3 m/s 402.50 MHz Weilheim in Oberbayern (DE) 0.00 km FOUND
S3140069 RS41 2021-07-15 11:46:55 47.8801 11.2037 42 ° 19 km/h 1041 m -4.7 m/s 402.50 MHz Weilheim in Oberbayern (DE) 0.00 km FOUND
D18050502 DFM09 2021-07-15 07:21:00 47.8337 11.0539 25 ° 24 km/h 1845 m -12.7 m/s 402.050 MHz Weilheim in Oberbayern (DE) 0.00 km UNKNOWN
S3140076 RS41 2021-07-15 05:25:31 47.9219 11.0504 34 ° 30 km/h 994 m -8.0 m/s 402.50 MHz Weilheim in Oberbayern (DE) 0.00 km UNKNOWN
R3330663 RS41 2021-07-14 17:39:45 47.9667 10.6841 70 ° 31 km/h 1065 m -8.5 m/s 402.50 MHz Kaufbeuren (DE) 0.00 km FOUND
D18050613 DFM 2021-07-14 14:33:18 48.1499 10.7928 49 ° 13 km/h 676 m -3.7 m/s 402.510 MHz Landsberg am Lech (DE) 0.00 km FOUND
S3140073 RS41 2021-07-14 11:43:07 48.1683 10.568 70 ° 17 km/h 901 m -6.4 m/s 402.50 MHz Landsberg am Lech (DE) 0.00 km FOUND
D18050874 DFM09 2021-07-14 08:40:00 48.2845 10.6264 70 ° 4 km/h 1940 m -3.5 m/s 402.049 MHz Neusäß (DE) 0.00 km FOUND
R3330635 RS41 2021-07-14 05:48:14 48.1841 10.2966 63 ° 20 km/h 705 m -6.6 m/s 402.50 MHz Memmingen (DE) 0.00 km FOUND
S3140067 RS41 2021-07-13 17:42:11 48.5838 10.6157 58 ° 22 km/h 519 m -9.0 m/s 402.50 MHz Dillingen (DE) 0.00 km UNKNOWN
S3140124 RS41 2021-07-13 11:32:53 48.5506 10.7656 64 ° 41 km/h 565 m -5.6 m/s 402.50 MHz Neusäß (DE) 0.00 km UNKNOWN
S3130124 RS41 2021-07-13 05:55:15 48.6222 11.0725 153 ° 20 km/h 575 m -3.7 m/s 402.50 MHz Neuburg an der Donau (DE) 0.00 km FOUND
S3130694 RS41 2021-07-12 17:47:01 48.2071 11.4464 270 ° 13 km/h 705 m -4.3 m/s 402.50 MHz Dachau (DE) 0.00 km FOUND
D18050715 DFM09 2021-07-12 13:42:09 47.9459 11.429 236 ° 22 km/h 772 m -14.1 m/s 402.010 MHz Starnberg (DE) 0.00 km FOUND
S3130698 RS41 2021-07-12 11:41:05 48.0004 11.4748 246 ° 9 km/h 758 m -5.7 m/s 402.50 MHz Starnberg (DE) 0.00 km NEED ATTENTION
D18051152 DFM 2021-07-12 07:44:41 47.7995 11.6007 85 ° 7 km/h 896 m -11.2 m/s 402.509 MHz Geretsried (DE) 0.00 km UNKNOWN
S3140065 RS41 2021-07-12 06:47:23 47.801 11.5917 295 ° 13 km/h 982 m -8.9 m/s 404.30 MHz Geretsried (DE) 0.00 km UNKNOWN
R3251189 RS41 2021-07-12 05:45:24 47.7703 11.6129 207 ° 7 km/h 924 m -8.2 m/s 402.50 MHz Geretsried (DE) 0.00 km FOUND
R3420591 RS41 2021-07-09 05:39:37 48.0372 11.0919 86 ° 61 km/h 1004 m -7.7 m/s 402.50 MHz Landsberg am Lech (DE) 0.00 km UNKNOWN
R3330802 RS41 2021-07-08 17:36:03 48.632 10.9653 26 ° 9 km/h 533 m -6.5 m/s 402.50 MHz Neuburg an der Donau (DE) 0.00 km FOUND
S3140071 RS41 2021-07-08 11:26:57 48.8214 11.1811 316 ° 7 km/h 606 m -10.1 m/s 402.50 MHz Neuburg an der Donau (DE) 0.00 km UNKNOWN
D18051394 DFM 2021-07-08 07:31:21 48.3549 11.2693 277 ° 9 km/h 1107 m -12.3 m/s 402.509 MHz Aichach (DE) 0.00 km FOUND
R3330786 RS41 2021-07-08 05:37:40 48.7056 11.2389 187 ° 15 km/h 493 m -7.1 m/s 402.50 MHz Neuburg an der Donau (DE) 0.00 km FOUND
R3330637 RS41 2021-07-07 17:29:09 48.6431 11.6104 228 ° 11 km/h 486 m -8.6 m/s 402.50 MHz Pfaffenhofen an der Ilm (DE) 0.00 km FOUND
R3330656 RS41 2021-07-07 11:34:05 48.6616 11.4893 244 ° 4 km/h 460 m -10.0 m/s 402.50 MHz Ingolstadt (DE) 0.00 km FOUND
D18052208 DFM09 2021-07-07 07:22:00 48.05 11.1762 8 ° 7 km/h 815 m -12.2 m/s 402.049 MHz Starnberg (DE) 0.00 km LOST
R3330655 RS41 2021-07-07 05:42:49 48.6481 11.7096 213 ° 9 km/h 561 m -6.7 m/s 402.50 MHz Pfaffenhofen an der Ilm (DE) 0.00 km UNKNOWN
R3320628 RS41 2021-07-06 17:26:41 48.4408 11.6018 104 ° 35 km/h 692 m -7.4 m/s 402.50 MHz Freising (DE) 0.00 km FOUND
D18050526 DFM09 2021-07-06 13:42:33 48.2399 11.6562 234 ° 9 km/h 576 m -13.7 m/s 402.009 MHz Unterschleißheim (DE) 0.00 km FOUND
S3130697 RS41 2021-07-06 11:33:13 48.349 11.5136 286 ° 13 km/h 637 m -8.4 m/s 402.50 MHz Unterschleißheim (DE) 0.00 km UNKNOWN
S3140123 RS41 2021-07-06 05:41:38 48.1511 11.6938 334 ° 15 km/h 585 m -8.3 m/s 402.50 MHz Vaterstetten (DE) 0.00 km NEED ATTENTION
S3140074 RS41 2021-07-05 17:32:22 47.6979 11.9847 338 ° 4 km/h 1383 m -6.4 m/s 402.50 MHz Niederndorf (AT) 0.00 km UNKNOWN
R3330643 RS41 2021-07-05 11:32:29 47.6999 11.9855 171 ° 7 km/h 1600 m -14.2 m/s 402.50 MHz Niederndorf (AT) 0.00 km UNKNOWN
D18050777 DFM 2021-07-05 07:57:20 47.6177 12.0771 351 ° 6 km/h 1607 m -10.2 m/s 402.509 MHz Kufstein (AT) 0.00 km FOUND
S3140066 RS41 2021-07-05 05:22:41 47.5611 11.8084 93 ° 20 km/h 2010 m -13.8 m/s 402.50 MHz Achenkirch (AT) 0.00 km UNKNOWN
D18050878 DFM09 2021-07-02 07:49:00 47.7217 11.6444 98 ° 19 km/h 1545 m -13.2 m/s 404.289 MHz Geretsried (DE) 0.00 km UNKNOWN
S3130699 RS41 2021-07-02 05:21:44 47.8097 11.3717 51 ° 11 km/h 760 m -9.1 m/s 402.50 MHz Geretsried (DE) 0.00 km UNKNOWN
S3140121 RS41 2021-07-01 17:39:42 47.5561 11.2549 84 ° 31 km/h 1965 m -8.6 m/s 402.50 MHz Garmisch-Partenkirchen (DE) 0.00 km UNKNOWN
S3140122 RS41 2021-07-01 11:35:10 47.6519 11.3755 67 ° 19 km/h 1477 m -8.0 m/s 402.50 MHz Geretsried (DE) 0.00 km UNKNOWN
D18051419 DFM 2021-07-01 07:42:20 47.7256 11.3618 86 ° 39 km/h 1216 m -11.8 m/s 402.009 MHz Geretsried (DE) 0.00 km UNKNOWN
R3320309 RS41 2021-07-01 05:31:30 47.8505 11.4568 74 ° 17 km/h 698 m -5.7 m/s 402.50 MHz Geretsried (DE) 0.00 km UNKNOWN
R3330618 RS41 2021-06-30 17:40:47 47.9774 11.3902 186 ° 2 km/h 861 m -12.2 m/s 402.50 MHz Starnberg (DE) 0.00 km FOUND
D18051244 DFM 2021-06-30 13:56:38 48.2441 11.3993 12 ° 22 km/h 659 m -13.9 m/s 402.509 MHz Dachau (DE) 0.00 km FOUND
R3320293 RS41 2021-06-30 11:28:48 48.3151 11.2865 76 ° 37 km/h 935 m -12.9 m/s 402.50 MHz Dachau (DE) 0.00 km FOUND
R3320289 RS41 2021-06-30 05:27:37 48.218 11.5307 51 ° 26 km/h 619 m -8.5 m/s 402.50 MHz Unterschleißheim (DE) 0.00 km LOST
R3420758 RS41 2021-06-29 17:43:54 48.256 11.1051 78 ° 30 km/h 803 m -6.0 m/s 402.50 MHz Fürstenfeldbruck (DE) 0.00 km UNKNOWN
R3420757 RS41 2021-06-29 11:45:26 48.4493 11.2824 287 ° 17 km/h 708 m -7.9 m/s 402.50 MHz Aichach (DE) 0.00 km UNKNOWN
D18051393 DFM 2021-06-29 08:10:24 48.3062 11.524 337 ° 7 km/h 873 m -11.1 m/s 402.009 MHz Unterschleißheim (DE) 0.00 km FOUND
R3330850 RS41 2021-06-29 05:33:21 48.3647 11.0507 75 ° 35 km/h 745 m -10.4 m/s 402.50 MHz Augsburg (DE) 0.00 km UNKNOWN
R3420715 RS41 2021-06-28 17:30:57 48.2162 11.2192 260 ° 31 km/h 951 m -5.4 m/s 402.50 MHz Fürstenfeldbruck (DE) 0.00 km NEED ATTENTION
D18051349 DFM 2021-06-28 14:08:00 48.1865 11.3724 237 ° 20 km/h 696 m -13.6 m/s 402.009 MHz Olching (DE) 0.00 km FOUND
R3420562 RS41 2021-06-28 11:42:00 48.2394 11.3874 269 ° 17 km/h 755 m -7.7 m/s 402.50 MHz Dachau (DE) 0.00 km UNKNOWN
R3420691 RS41 2021-06-28 05:49:00 48.0769 11.4439 22 ° 6 km/h 714 m -6.7 m/s 402.50 MHz Germering (DE) 0.00 km FOUND
D18051420 DFM 2021-06-25 07:48:00 47.9694 11.2825 89 ° 20 km/h 973 m -12.6 m/s 402.009 MHz Starnberg (DE) 0.00 km FOUND
R3340947 RS41 2021-06-25 05:27:00 47.9986 11.1835 80 ° 28 km/h 994 m -6.7 m/s 402.50 MHz Starnberg (DE) 0.00 km FOUND
R3340944 RS41 2021-06-24 17:42:52 48.3258 11.2238 23 ° 2 km/h 941 m -7.1 m/s 402.50 MHz Olching (DE) 0.00 km FOUND
D18050605 DFM 2021-06-24 13:25:48 48.082 11.1384 153 ° 9 km/h 1080 m -13.9 m/s 404.309 MHz Fürstenfeldbruck (DE) 0.00 km FOUND
R3420683 RS41 2021-06-24 11:32:54 48.5444 11.438 123 ° 19 km/h 594 m -8.5 m/s 402.50 MHz Pfaffenhofen an der Ilm (DE) 0.00 km FOUND
D18051392 DFM 2021-06-24 07:32:14 48.3169 11.3568 101 ° 26 km/h 1083 m -11.4 m/s 402.510 MHz Dachau (DE) 0.00 km UNKNOWN
R3340948 RS41 2021-06-24 05:32:31 48.4337 11.3741 116 ° 15 km/h 682 m -8.0 m/s 402.50 MHz Pfaffenhofen an der Ilm (DE) 0.00 km FOUND
R3420556 RS41 2021-06-23 17:13:44 48.4406 11.1929 222 ° 30 km/h 669 m -9.1 m/s 402.50 MHz Aichach (DE) 0.00 km FOUND
R3330139 RS41 2021-06-23 11:30:40 48.4241 11.2211 187 ° 13 km/h 650 m -11.4 m/s 402.50 MHz Aichach (DE) 0.00 km FOUND
D18050614 DFM09 2021-06-23 07:39:00 48.0554 11.1722 283 ° 11 km/h 869 m -9.2 m/s 405.049 MHz Starnberg (DE) 0.00 km LOST
R3330141 RS41 2021-06-23 05:43:19 48.4925 11.1922 181 ° 15 km/h 641 m -9.2 m/s 402.500 MHz Aichach (DE) 0.00 km FOUND
R3340945 RS41 2021-06-22 17:08:24 48.3104 11.3589 117 ° 11 km/h 1225 m -12.7 m/s 402.50 MHz Dachau (DE) 0.00 km FOUND
D18051923 DFM 2021-06-22 14:14:00 48.3864 11.3613 161 ° 15 km/h 871 m -11.5 m/s 402.509 MHz Dachau (DE) 0.00 km FOUND
R3330142 RS41 2021-06-22 11:34:34 48.456 11.1357 230 ° 9 km/h 1457 m -9.6 m/s 402.50 MHz Aichach (DE) 0.00 km UNKNOWN
R3330175 RS41 2021-06-22 05:31:09 48.3695 11.1209 271 ° 6 km/h 927 m -12.7 m/s 402.50 MHz Aichach (DE) 0.00 km FOUND
R3340946 RS41 2021-06-21 17:30:23 48.3547 11.2415 189 ° 20 km/h 843 m -14.1 m/s 402.50 MHz Aichach (DE) 0.00 km UNKNOWN
R3420693 RS41 2021-06-21 11:31:00 48.2771 11.2571 96 ° 9 km/h 800 m -10.5 m/s 402.50 MHz Olching (DE) 0.00 km UNKNOWN
D18051391 DFM 2021-06-21 08:00:38 48.2949 11.3315 93 ° 15 km/h 702 m -10.0 m/s 402.010 MHz Dachau (DE) 0.00 km NEED ATTENTION
R3320018 RS41 2021-06-21 05:49:23 48.3384 11.059 72 ° 33 km/h 746 m -8.5 m/s 402.50 MHz Augsburg (DE) 0.00 km FOUND
R3420695 RS41 2021-06-18 05:38:41 47.8848 10.5035 54 ° 24 km/h 946 m -6.6 m/s 402.50 MHz Kaufbeuren (DE) 0.00 km FOUND
R3330128 RS41 2021-06-17 17:32:58 47.849 10.6131 223 ° 17 km/h 878 m -8.7 m/s 402.50 MHz Kaufbeuren (DE) 0.00 km FOUND
R3420694 RS41 2021-06-17 11:51:44 47.9926 10.4908 116 ° 11 km/h 993 m -7.7 m/s 402.50 MHz Kaufbeuren (DE) 0.00 km NEED ATTENTION
R3330129 RS41 2021-06-17 05:45:05 47.9599 10.3744 117 ° 13 km/h 1059 m -9.4 m/s 402.50 MHz Memmingen (DE) 0.00 km NEED ATTENTION
R3420702 RS41 2021-06-16 17:35:29 47.7452 10.4569 224 ° 15 km/h 1017 m -12.2 m/s 402.50 MHz Kempten (DE) 0.00 km UNKNOWN
D18050714 DFM 2021-06-16 14:25:15 47.6787 10.5696 214 ° 9 km/h 939 m -11.8 m/s 404.310 MHz Kempten (DE) 0.00 km UNKNOWN
R3320688 RS41 2021-06-16 11:34:36 47.6347 10.4377 210 ° 7 km/h 1072 m -9.5 m/s 402.50 MHz Kempten (DE) 0.00 km UNKNOWN
R3420701 RS41 2021-06-16 05:40:12 47.4129 10.5933 47 ° 6 km/h 1880 m -4.1 m/s 402.50 MHz Reutte (AT) 0.00 km UNKNOWN
R3420699 RS41 2021-06-15 17:42:40 47.4 11.0125 128 ° 15 km/h 2644 m -6.5 m/s 402.50 MHz Ehrwald (AT) 0.00 km UNKNOWN
R3420511 RS41 2021-06-15 11:27:26 47.5464 11.0012 104 ° 6 km/h 1925 m -3.9 m/s 402.50 MHz Garmisch-Partenkirchen (DE) 0.00 km UNKNOWN
D18050861 DFM09 2021-06-15 08:40:05 47.5282 11.0667 69 ° 11 km/h 1850 m -3.4 m/s 402.010 MHz Garmisch-Partenkirchen (DE) 0.00 km UNKNOWN
R3340025 RS41 2021-06-15 05:39:31 47.5002 10.796 115 ° 4 km/h 1607 m -8.9 m/s 402.50 MHz Reutte (AT) 0.00 km UNKNOWN
R3420696 RS41 2021-06-14 17:52:29 47.3124 11.0373 299 ° 19 km/h 890 m -4.1 m/s 402.50 MHz Telfs (AT) 0.00 km UNKNOWN
R3330127 RS41 2021-06-14 11:46:48 47.2639 10.9145 258 ° 22 km/h 801 m -8.3 m/s 402.50 MHz Silz (AT) 0.00 km UNKNOWN
R3330179 RS41 2021-06-14 05:23:31 47.2398 10.9188 119 ° 15 km/h 2733 m -6.0 m/s 402.50 MHz Silz (AT) 0.00 km UNKNOWN
R3320150 RS41 2021-06-11 05:33:56 47.3219 10.8132 150 ° 13 km/h 2604 m -3.5 m/s 402.50 MHz Tarrenz (AT) 0.00 km UNKNOWN
R3330799 RS41 2021-06-10 17:43:28 47.285 10.9125 216 ° 7 km/h 1451 m -3.8 m/s 402.50 MHz Silz (AT) 0.00 km UNKNOWN
R3320947 RS41 2021-06-10 11:34:32 47.343 10.7419 194 ° 7 km/h 2220 m -6.4 m/s 402.50 MHz Tarrenz (AT) 0.00 km UNKNOWN
R3330512 RS41 2021-06-10 05:30:13 47.3252 10.7683 45 ° 6 km/h 2366 m -4.6 m/s 402.50 MHz Tarrenz (AT) 0.00 km UNKNOWN
R3330180 RS41 2021-06-09 17:35:27 47.5638 10.9804 228 ° 6 km/h 1912 m -5.9 m/s 402.50 MHz Garmisch-Partenkirchen (DE) 0.00 km UNKNOWN
R3320589 RS41 2021-06-09 11:46:21 47.6597 10.9122 181 ° 7 km/h 989 m -5.4 m/s 402.50 MHz Garmisch-Partenkirchen (DE) 0.00 km UNKNOWN
D18051956 DFM09 2021-06-09 08:30:46 47.7343 10.7874 133 ° 13 km/h 1259 m -3.1 m/s 402.011 MHz Kaufbeuren (DE) 0.00 km UNKNOWN
R3330798 RS41 2021-06-09 05:30:39 47.6673 10.8407 51 ° 4 km/h 977 m -7.2 m/s 402.50 MHz Reutte (AT) 0.00 km UNKNOWN
R3330666 RS41 2021-06-08 17:59:42 47.7443 10.8746 2 ° 2 km/h 874 m -4.4 m/s 402.50 MHz Weilheim in Oberbayern (DE) 0.00 km NEED ATTENTION
R3330671 RS41 2021-06-08 11:24:16 47.8439 10.8171 212 ° 11 km/h 962 m -4.1 m/s 402.50 MHz Kaufbeuren (DE) 0.00 km UNKNOWN
D18050319 DFM 2021-06-08 09:03:28 47.8539 10.7377 277 ° 7 km/h 1059 m -3.5 m/s 402.009 MHz Kaufbeuren (DE) 0.00 km FOUND
R3330664 RS41 2021-06-08 05:49:23 47.7842 10.7468 194 ° 4 km/h 932 m -5.1 m/s 402.50 MHz Kaufbeuren (DE) 0.00 km FOUND
R3330649 RS41 2021-06-07 17:40:07 47.8636 10.7581 156 ° 9 km/h 902 m -9.3 m/s 402.50 MHz Kaufbeuren (DE) 0.00 km LOST
R3320532 RS41 2021-06-07 11:38:04 47.9029 10.5345 237 ° 17 km/h 897 m -5.9 m/s 402.50 MHz Kaufbeuren (DE) 0.00 km FOUND
R3321063 RS41 2021-06-07 05:51:06 47.8238 10.502 277 ° 15 km/h 1163 m -4.8 m/s 402.50 MHz Kaufbeuren (DE) 0.00 km FOUND
R3321064 RS41 2021-06-02 17:51:47 47.4093 11.4573 222 ° 13 km/h 2400 m -2.2 m/s 402.50 MHz Thaur (AT) 0.00 km UNKNOWN
R3320693 RS41 2021-06-02 11:22:40 47.6058 11.359 153 ° 20 km/h 1259 m -9.4 m/s 402.50 MHz Garmisch-Partenkirchen (DE) 0.00 km LOST
D18050323 DFM 2021-06-02 09:47:00 47.6803 11.2723 111 ° 20 km/h 1682 m -12.2 m/s 402.011 MHz Weilheim in Oberbayern (DE) 0.00 km UNKNOWN
R3320946 RS41 2021-06-02 05:46:14 47.5198 11.3728 79 ° 33 km/h 2398 m -4.2 m/s 402.50 MHz Garmisch-Partenkirchen (DE) 0.00 km UNKNOWN
R3321086 RS41 2021-06-01 17:50:07 47.5055 11.2124 224 ° 2 km/h 1850 m -4.6 m/s 402.50 MHz Garmisch-Partenkirchen (DE) 0.00 km UNKNOWN
R3321050 RS41 2021-06-01 11:32:10 47.5717 11.0088 207 ° 6 km/h 1941 m -8.3 m/s 404.30 MHz Garmisch-Partenkirchen (DE) 0.00 km UNKNOWN
D18050322 DFM 2021-06-01 07:43:36 47.6407 10.9212 203 ° 20 km/h 3885 m -14.6 m/s 402.508 MHz Garmisch-Partenkirchen (DE) 0.00 km UNKNOWN
R3320797 RS41 2021-06-01 05:33:58 47.4926 10.961 81 ° 11 km/h 1044 m -5.9 m/s 402.50 MHz Garmisch-Partenkirchen (DE) 0.00 km UNKNOWN
R3321066 RS41 2021-05-31 17:27:57 47.4902 10.9296 251 ° 6 km/h 1077 m -7.0 m/s 402.50 MHz Ehrwald (AT) 0.00 km UNKNOWN
R3321065 RS41 2021-05-31 12:05:57 47.4039 10.7557 204 ° 7 km/h 1889 m -5.1 m/s 402.50 MHz Reutte (AT) 0.00 km UNKNOWN
D18050615 DFM 2021-05-31 08:25:47 47.3185 10.6875 98 ° 17 km/h 2681 m -15.2 m/s 402.509 MHz Tarrenz (AT) 0.00 km UNKNOWN
R3321081 RS41 2021-05-31 05:04:39 47.406 10.7923 89 ° 2 km/h 1934 m -9.3 m/s 402.50 MHz Ehrwald (AT) 0.00 km UNKNOWN
R3321083 RS41 2021-05-28 05:57:10 47.0752 11.9367 133 ° 43 km/h 3465 m -4.3 m/s 402.50 MHz Mayrhofen (AT) 0.00 km UNKNOWN
D18050870 DFM 2021-05-27 20:21:09 47.2027 11.8035 95 ° 28 km/h 2797 m -3.7 m/s 402.509 MHz Mayrhofen (AT) 0.00 km UNKNOWN
R3321084 RS41 2021-05-27 17:42:41 47.548 11.7972 123 ° 44 km/h 2036 m -4.1 m/s 402.50 MHz Achenkirch (AT) 0.00 km UNKNOWN
D18050213 DFM 2021-05-27 14:27:00 47.6807 11.973 116 ° 19 km/h 1108 m -2.8 m/s 402.509 MHz Kufstein (AT) 0.00 km NEED ATTENTION
R3321085 RS41 2021-05-27 11:55:17 47.9408 12.0464 74 ° 17 km/h 968 m -6.2 m/s 402.500 MHz Rosenheim (DE) 0.00 km UNKNOWN
R3320795 RS41 2021-05-27 05:32:00 47.9594 12.1785 64 ° 9 km/h 608 m -8.1 m/s 402.500 MHz Rosenheim (DE) 0.00 km FOUND
R3321158 RS41 2021-05-26 17:59:55 48.0586 12.3731 93 ° 24 km/h 771 m -7.7 m/s 402.50 MHz Waldkraiburg (DE) 0.00 km UNKNOWN
R3320796 RS41 2021-05-26 13:16:26 47.9121 11.513 83 ° 128 km/h 10324 m 2.9 m/s 402.50 MHz Geretsried (DE) 0.00 km UNKNOWN
R3321127 RS41 2021-05-26 11:54:50 48.0031 12.4353 246 ° 13 km/h 753 m -4.4 m/s 402.50 MHz Traunreut (DE) 0.00 km UNKNOWN
D18051981 DFM 2021-05-26 10:26:43 48.0434 13.1796 174 ° 4 km/h 600 m -12.7 m/s 402.009 MHz Munderfing (AT) 0.00 km FOUND
D18050793 DFM09 2021-05-26 09:29:30 47.8955 11.8688 45 ° 11 km/h 824 m -11.8 m/s 404.310 MHz Rosenheim (DE) 0.00 km FOUND
R3321049 RS41 2021-05-26 06:15:31 47.9974 12.7609 325 ° 11 km/h 637 m -3.2 m/s 402.50 MHz Ostermiething (AT) 0.00 km FOUND
R3340810 RS41 2021-05-25 17:37:59 47.9632 12.1163 98 ° 28 km/h 554 m -6.3 m/s 402.50 MHz Rosenheim (DE) 0.00 km FOUND
R3420595 RS41 2021-05-25 11:36:12 48.4468 12.2116 65 ° 46 km/h 752 m -6.3 m/s 402.50 MHz Landshut (DE) 0.00 km FOUND
R3320581 RS41 2021-05-25 05:42:30 48.5866 12.2624 90 ° 52 km/h 838 m -7.1 m/s 402.500 MHz Landshut (DE) 0.00 km UNKNOWN
D18051951 DFM 2021-05-21 06:50:00 47.664 12.8406 39 ° 13 km/h 1844 m -11.3 m/s 402.011 MHz Grossgmain (AT) 0.00 km UNKNOWN
R3321067 RS41 2021-05-20 12:03:08 47.1702 11.3646 179 ° 6 km/h 1293 m -4.1 m/s 402.50 MHz Fulpmes (AT) 0.00 km FOUND
D18050812 DFM 2021-05-20 08:53:00 47.3654 11.4344 152 ° 15 km/h 2753 m -5.5 m/s 402.009 MHz Thaur (AT) 0.00 km UNKNOWN
R3321068 RS41 2021-05-20 05:44:14 47.5643 11.2964 72 ° 4 km/h 1008 m -8.6 m/s 402.50 MHz Garmisch-Partenkirchen (DE) 0.00 km UNKNOWN
R3320932 RS41 2021-05-19 17:20:55 47.6875 11.3069 68 ° 13 km/h 856 m -10.6 m/s 402.50 MHz Weilheim in Oberbayern (DE) 0.00 km FOUND
S3120674 RS41 2021-05-19 11:50:51 47.7557 11.3833 73 ° 13 km/h 794 m -5.8 m/s 402.50 MHz Geretsried (DE) 0.00 km FOUND
D18050333 DFM09 2021-05-19 10:43:00 47.7283 11.4992 56 ° 24 km/h 1276 m -5.0 m/s 404.288 MHz Geretsried (DE) 0.00 km UNKNOWN
D18051997 DFM09 2021-05-19 08:31:00 47.787 11.5942 39 ° 24 km/h 992 m -3.2 m/s 404.293 MHz Geretsried (DE) 0.00 km NEED ATTENTION
R3420601 RS41 2021-05-19 05:47:00 47.8537 11.5485 92 ° 19 km/h 946 m -4.3 m/s 402.50 MHz Geretsried (DE) 0.00 km NEED ATTENTION
S3120670 RS41 2021-05-18 17:37:29 47.9145 12.0048 130 ° 17 km/h 944 m -10.9 m/s 402.50 MHz Rosenheim (DE) 0.00 km UNKNOWN
S3140841 RS41 2021-05-18 11:53:05 47.901 12.273 117 ° 33 km/h 848 m -4.6 m/s 402.50 MHz Rosenheim (DE) 0.00 km UNKNOWN
S3140878 RS41 2021-05-18 05:53:38 47.7847 12.0577 96 ° 57 km/h 1245 m -3.0 m/s 402.50 MHz Rosenheim (DE) 0.00 km UNKNOWN
S3120666 RS41 2021-05-17 17:34:00 47.8077 11.9105 81 ° 54 km/h 1286 m -9.6 m/s 402.50 MHz Rosenheim (DE) 0.00 km UNKNOWN
S3120689 RS41 2021-05-17 11:45:43 47.8784 12.0755 89 ° 46 km/h 1092 m -9.7 m/s 402.50 MHz Rosenheim (DE) 0.00 km FOUND
S3120665 RS41 2021-05-17 05:52:00 48.0279 12.2401 76 ° 26 km/h 650 m -2.3 m/s 402.50 MHz Rosenheim (DE) 0.00 km FOUND
S3140842 RS41 2021-05-12 17:40:21 48.0523 10.735 142 ° 17 km/h 1302 m -7.3 m/s 402.50 MHz Landsberg am Lech (DE) 0.00 km FOUND
S3120661 RS41 2021-05-12 11:56:35 48.1613 10.6439 81 ° 26 km/h 795 m -4.0 m/s 402.500 MHz Landsberg am Lech (DE) 0.00 km FOUND
S3120671 RS41 2021-05-12 05:40:22 48.1816 10.6562 96 ° 35 km/h 837 m -4.6 m/s 402.50 MHz Königsbrunn (DE) 0.00 km FOUND
S3140879 RS41 2021-05-11 16:56:53 48.4132 10.8857 103 ° 20 km/h 777 m -7.4 m/s 402.50 MHz Neusäß (DE) 0.00 km LOST
S3120668 RS41 2021-05-11 11:59:02 48.8047 10.9269 184 ° 22 km/h 995 m -4.4 m/s 402.50 MHz Neuburg an der Donau (DE) 0.00 km UNKNOWN
S3120688 RS41 2021-05-11 05:58:47 48.7113 11.2389 182 ° 7 km/h 767 m -4.3 m/s 402.50 MHz Neuburg an der Donau (DE) 0.00 km FOUND
S3130207 RS41 2021-05-10 17:30:00 48.4075 11.3414 272 ° 11 km/h 1101 m -6.2 m/s 402.500 MHz Aichach (DE) 0.00 km FOUND
S3130947 RS41 2021-05-10 11:39:30 48.3598 11.3997 302 ° 6 km/h 903 m -5.4 m/s 402.50 MHz Dachau (DE) 0.00 km FOUND
S3140843 RS41 2021-05-10 05:41:19 48.2576 11.5506 360 ° 33 km/h 661 m -4.7 m/s 402.50 MHz Unterschleißheim (DE) 0.00 km FOUND
S3120664 RS41 2021-05-07 05:46:31 48.0242 13.2203 100 ° 28 km/h 678 m -4.3 m/s 402.50 MHz Lengau (AT) 0.00 km UNKNOWN
S3140882 RS41 2021-05-06 18:02:48 48.0034 13.7833 193 ° 13 km/h 535 m -4.7 m/s 402.50 MHz Laakirchen (AT) 0.00 km UNKNOWN
S3140948 RS41 2021-05-06 11:42:35 47.992 13.1354 60 ° 19 km/h 737 m -10.7 m/s 402.50 MHz Mattsee (AT) 0.00 km UNKNOWN
S3140944 RS41 2021-05-06 05:46:17 47.9007 13.356 65 ° 24 km/h 959 m -6.1 m/s 402.50 MHz Tiefgraben (AT) 0.00 km UNKNOWN
S3140946 RS41 2021-05-05 18:28:22 47.8119 13.9742 89 ° 22 km/h 1390 m -1.8 m/s 402.50 MHz Scharnstein (AT) 0.00 km UNKNOWN
S3140846 RS41 2021-05-05 11:53:38 48.3131 13.0574 57 ° 15 km/h 479 m -6.2 m/s 402.50 MHz Braunau am Inn (AT) 0.00 km LOST
D18050348 DFM09 2021-05-05 08:13:00 48.0662 12.1302 104 ° 6 km/h 624 m -11.6 m/s 402.009 MHz Rosenheim (DE) 0.00 km FOUND
S3140945 RS41 2021-05-05 05:46:32 48.2412 12.8596 123 ° 20 km/h 440 m -4.5 m/s 402.50 MHz Hochburg-Ach (AT) 0.00 km FOUND
S3140456 RS41 2021-05-04 17:46:12 48.008 12.5687 85 ° 30 km/h 714 m -8.2 m/s 402.50 MHz Traunreut (DE) 0.00 km FOUND
D18050358 DFM 2021-05-04 13:41:30 47.979 11.764 101 ° 28 km/h 851 m -14.2 m/s 402.510 MHz Vaterstetten (DE) 0.00 km FOUND
S3140880 RS41 2021-05-04 12:07:20 48.0928 12.8131 102 ° 7 km/h 578 m -4.3 m/s 402.50 MHz Ostermiething (AT) 0.00 km FOUND
D18050315 DFM 2021-05-04 07:50:59 47.9824 11.8932 72 ° 13 km/h 690 m -3.9 m/s 404.292 MHz Vaterstetten (DE) 0.00 km UNKNOWN
S3140840 RS41 2021-05-04 05:32:48 47.858 12.2994 65 ° 19 km/h 853 m -5.0 m/s 402.50 MHz Rosenheim (DE) 0.00 km UNKNOWN
D502662 DFM09 2021-05-03 19:21:09 47.8084 11.9612 274 ° 9 km/h 917 m -12.3 m/s 402.111 MHz Rosenheim (DE) 0.00 km UNKNOWN
S3140876 RS41 2021-05-03 18:09:19 47.6962 12.4408 109 ° 19 km/h 1715 m -3.6 m/s 402.50 MHz Kössen (AT) 0.00 km UNKNOWN
D502656 DFM09 2021-05-03 18:07:34 47.8036 11.7286 140 ° 4 km/h 1539 m -10.9 m/s 402.110 MHz Geretsried (DE) 0.00 km FOUND
S3140838 RS41 2021-05-03 11:44:25 47.8847 12.3566 82 ° 19 km/h 1003 m -9.6 m/s 402.50 MHz Rosenheim (DE) 0.00 km FOUND
D18051999 DFM09 2021-05-03 06:54:30 47.798 11.6415 72 ° 24 km/h 1002 m -11.8 m/s 402.011 MHz Geretsried (DE) 0.00 km FOUND
S3140943 RS41 2021-05-03 05:40:33 47.9651 12.2668 92 ° 19 km/h 993 m -10.5 m/s 402.50 MHz Rosenheim (DE) 0.00 km FOUND
S3130206 RS41 2021-04-30 07:01:19 48.3611 14.0472 351 ° 6 km/h 380 m -4.0 m/s 402.50 MHz Feldkirchen an der Donau (AT) 0.00 km FOUND
S3140844 RS41 2021-04-30 06:46:23 48.1595 12.3309 185 ° 2 km/h 706 m -3.7 m/s 404.30 MHz Waldkraiburg (DE) 0.00 km UNKNOWN
S3130205 RS41 2021-04-29 18:07:30 48.3901 12.8508 85 ° 19 km/h 745 m -3.6 m/s 402.50 MHz Braunau am Inn (AT) 0.00 km FOUND
S3130123 RS41 2021-04-29 11:54:06 48.4462 12.6185 97 ° 19 km/h 1010 m -1.9 m/s 402.50 MHz Waldkraiburg (DE) 0.00 km FOUND
D18051585 DFM 2021-04-29 11:34:30 48.1701 11.6535 122 ° 7 km/h 590 m -12.6 m/s 402.110 MHz München (DE) 0.00 km UNKNOWN
D18050449 DFM09 2021-04-29 08:36:00 48.3405 12.3838 109 ° 30 km/h 916 m -3.1 m/s 402.010 MHz Waldkraiburg (DE) 0.00 km FOUND
D18051631 DFM09 2021-04-29 07:47:03 48.1668 11.8137 97 ° 46 km/h 700 m -12.5 m/s 402.109 MHz Vaterstetten (DE) 0.00 km FOUND
S3130041 RS41 2021-04-29 05:36:30 48.1821 12.3058 89 ° 30 km/h 753 m -4.1 m/s 402.500 MHz Waldkraiburg (DE) 0.00 km FOUND
S3130768 RS41 2021-04-28 17:46:00 48.1124 12.2399 218 ° 11 km/h 635 m -9.5 m/s 402.50 MHz Waldkraiburg (DE) 0.00 km FOUND
D18050399 DFM 2021-04-28 11:58:30 48.0832 11.6135 217 ° 13 km/h 604 m -11.2 m/s 402.109 MHz Unterhaching (DE) 0.00 km FOUND
S3130121 RS41 2021-04-28 11:41:18 48.0635 12.0648 280 ° 4 km/h 868 m -8.0 m/s 402.50 MHz Vaterstetten (DE) 0.00 km UNKNOWN
S3130765 RS41 2021-04-28 08:46:30 48.0523 12.0879 269 ° 9 km/h 848 m -11.0 m/s 402.50 MHz Rosenheim (DE) 0.00 km FOUND
S3130113 RS41 2021-04-28 05:52:00 48.0424 12.2383 29 ° 7 km/h 647 m -4.2 m/s 402.50 MHz Waldkraiburg (DE) 0.00 km FOUND
S3140734 RS41 2021-04-27 17:41:45 47.7 12.3932 169 ° 4 km/h 1367 m -6.1 m/s 402.50 MHz Kössen (AT) 0.00 km UNKNOWN
D18050503 DFM 2021-04-27 12:26:14 47.7254 12.1453 183 ° 17 km/h 1155 m -13.7 m/s 402.109 MHz Niederndorf (AT) 0.00 km LOST
S3140947 RS41 2021-04-27 11:52:16 47.7382 12.4741 296 ° 4 km/h 1376 m -5.9 m/s 402.50 MHz Kössen (AT) 0.00 km UNKNOWN
D18051140 DFM 2021-04-27 07:37:30 47.9017 11.6405 291 ° 13 km/h 824 m -11.0 m/s 402.009 MHz Geretsried (DE) 0.00 km FOUND
D18052945 DFM09 2021-04-27 07:22:30 47.9912 11.1649 274 ° 20 km/h 866 m -11.7 m/s 402.110 MHz Starnberg (DE) 0.00 km LOST
S3140839 RS41 2021-04-27 07:11:30 47.7746 11.1401 92 ° 76 km/h 9099 m 5.3 m/s 402.50 MHz Weilheim in Oberbayern (DE) 0.00 km UNKNOWN
S3140803 RS41 2021-04-27 06:19:08 47.699 12.6084 235 ° 9 km/h 1479 m -3.7 m/s 402.50 MHz Kössen (AT) 0.00 km UNKNOWN
S3140805 RS41 2021-04-26 17:22:08 47.5551 12.3705 72 ° 19 km/h 2262 m -9.7 m/s 402.500 MHz Sankt Johann in Tirol (AT) 0.00 km UNKNOWN
D18051201 DFM 2021-04-26 11:57:00 47.795 11.9886 232 ° 13 km/h 1102 m -11.8 m/s 402.010 MHz Rosenheim (DE) 0.00 km UNKNOWN
S3140815 RS41 2021-04-26 11:22:13 47.6668 12.6022 81 ° 6 km/h 1810 m -3.7 m/s 402.50 MHz Kössen (AT) 0.00 km UNKNOWN
D18051369 DFM 2021-04-26 08:05:27 47.8412 12.3888 251 ° 26 km/h 1159 m -12.7 m/s 402.010 MHz Kössen (AT) 0.00 km LOST
D18050361 DFM 2021-04-26 07:24:43 47.7697 11.4971 248 ° 13 km/h 1596 m -12.6 m/s 402.510 MHz Geretsried (DE) 0.00 km FOUND
S3130218 RS41 2021-04-26 05:20:37 47.5633 12.6081 74 ° 7 km/h 1843 m -5.0 m/s 402.50 MHz Fieberbrunn (AT) 0.00 km UNKNOWN
D18051947 DFM 2021-04-23 08:06:16 47.2165 11.1182 117 ° 24 km/h 2556 m -4.7 m/s 404.289 MHz Inzing (AT) 0.00 km UNKNOWN
S3140806 RS41 2021-04-23 05:28:20 47.3608 11.3894 124 ° 26 km/h 2658 m -9.8 m/s 402.50 MHz Thaur (AT) 0.00 km UNKNOWN
S3140801 RS41 2021-04-22 17:25:57 47.2942 11.3695 332 ° 6 km/h 1349 m -6.9 m/s 402.50 MHz Innsbruck (AT) 0.00 km UNKNOWN
S3140747 RS41 2021-04-22 11:51:30 47.5183 11.6052 114 ° 17 km/h 1846 m -7.3 m/s 402.50 MHz Achenkirch (AT) 0.00 km UNKNOWN
D18050269 DFM 2021-04-22 08:52:30 47.3907 11.5313 118 ° 24 km/h 2330 m -4.8 m/s 404.310 MHz Terfens (AT) 0.00 km UNKNOWN
S3130209 RS41 2021-04-22 05:08:54 47.5742 11.3299 203 ° 7 km/h 1265 m -3.7 m/s 402.50 MHz Garmisch-Partenkirchen (DE) 0.00 km LOST
S3140813 RS41 2021-04-21 17:53:16 47.6669 11.4146 146 ° 4 km/h 1056 m -11.0 m/s 402.50 MHz Geretsried (DE) 0.00 km FOUND
D18050280 DFM 2021-04-21 15:30:46 47.7666 11.1743 10 ° 13 km/h 693 m -2.6 m/s 402.509 MHz Weilheim in Oberbayern (DE) 0.00 km FOUND
S3140746 RS41 2021-04-21 13:58:00 47.833 10.936 236 ° 13 km/h 8856 m 3.5 m/s 404.300 MHz Weilheim in Oberbayern (DE) 0.00 km UNKNOWN
S3130208 RS41 2021-04-21 11:38:29 47.7423 11.1938 308 ° 4 km/h 721 m -5.7 m/s 402.50 MHz Weilheim in Oberbayern (DE) 0.00 km FOUND
D18050284 DFM09 2021-04-21 09:18:44 47.7878 11.0644 272 ° 7 km/h 707 m -2.6 m/s 404.029 MHz Weilheim in Oberbayern (DE) 0.00 km FOUND
S3140812 RS41 2021-04-21 05:49:05 47.7012 11.2346 23 ° 11 km/h 795 m -6.5 m/s 402.50 MHz Weilheim in Oberbayern (DE) 0.00 km FOUND
S3130122 RS41 2021-04-20 17:36:02 47.6475 10.9634 265 ° 7 km/h 1246 m -8.7 m/s 402.50 MHz Garmisch-Partenkirchen (DE) 0.00 km UNKNOWN
D18051971 DFM 2021-04-20 13:23:18 47.7686 10.7302 91 ° 4 km/h 1795 m -13.8 m/s 402.509 MHz Kaufbeuren (DE) 0.00 km FOUND
S3130110 RS41 2021-04-20 11:33:13 47.6417 10.7959 257 ° 11 km/h 929 m -8.4 m/s 402.50 MHz Reutte (AT) 0.00 km UNKNOWN
R3330347 RS41 2021-04-20 05:53:18 47.5438 10.7639 287 ° 7 km/h 1318 m -4.3 m/s 402.50 MHz Reutte (AT) 0.00 km UNKNOWN
S3130764 RS41 2021-04-19 17:45:08 47.618 10.7736 195 ° 11 km/h 926 m -6.3 m/s 402.50 MHz Reutte (AT) 0.00 km UNKNOWN
S3130766 RS41 2021-04-19 11:44:13 47.6488 10.7019 226 ° 15 km/h 910 m -4.0 m/s 402.50 MHz Reutte (AT) 0.00 km UNKNOWN
D18050891 DFM 2021-04-19 08:08:09 47.6404 10.4789 34 ° 6 km/h 1322 m -3.6 m/s 402.010 MHz Kempten (DE) 0.00 km UNKNOWN
R3330283 RS41 2021-04-19 05:58:17 47.5903 10.6929 36 ° 7 km/h 854 m -4.5 m/s 402.50 MHz Reutte (AT) 0.00 km UNKNOWN
S3130111 RS41 2021-04-16 05:37:36 47.8398 10.7264 263 ° 22 km/h 930 m -4.8 m/s 402.50 MHz Kaufbeuren (DE) 0.00 km UNKNOWN
S3130767 RS41 2021-04-15 17:42:40 47.8143 10.993 253 ° 20 km/h 1319 m -3.8 m/s 402.50 MHz Weilheim in Oberbayern (DE) 0.00 km FOUND
R3320316 RS41 2021-04-15 11:59:39 47.8121 11.2036 280 ° 9 km/h 1247 m -4.0 m/s 402.50 MHz Weilheim in Oberbayern (DE) 0.00 km UNKNOWN
D18050906 DFM 2021-04-15 08:44:01 47.7399 11.0453 249 ° 15 km/h 1230 m -3.0 m/s 402.510 MHz Weilheim in Oberbayern (DE) 0.00 km UNKNOWN
R3320311 RS41 2021-04-15 06:22:00 47.7591 11.5219 278 ° 9 km/h 1178 m -3.9 m/s 402.50 MHz Geretsried (DE) 0.00 km UNKNOWN
R3320336 RS41 2021-04-14 17:49:30 47.783 11.7133 259 ° 15 km/h 948 m -3.9 m/s 402.50 MHz Geretsried (DE) 0.00 km FOUND
R3320327 RS41 2021-04-14 11:33:30 47.7031 11.5675 147 ° 4 km/h 1260 m -7.2 m/s 402.50 MHz Geretsried (DE) 0.00 km UNKNOWN
D18051945 DFM 2021-04-14 08:21:00 47.5463 11.5612 231 ° 17 km/h 1729 m -4.5 m/s 402.510 MHz Achenkirch (AT) 0.00 km UNKNOWN
R3320331 RS41 2021-04-14 05:40:00 47.5486 11.6989 224 ° 6 km/h 1833 m -5.7 m/s 402.50 MHz Achenkirch (AT) 0.00 km UNKNOWN
R3320319 RS41 2021-04-13 17:51:30 47.9258 11.633 153 ° 6 km/h 790 m -12.8 m/s 402.50 MHz Geretsried (DE) 0.00 km FOUND
D506487 DFM 2021-04-13 12:09:20 48.0772 10.9854 187 ° 11 km/h 2247 m -11.6 m/s 404.148 MHz Landsberg am Lech (DE) 0.00 km FOUND
R3320339 RS41 2021-04-13 12:01:38 48.1568 11.5242 175 ° 7 km/h 614 m -4.6 m/s 402.50 MHz München (DE) 0.00 km UNKNOWN
R3320826 RS41 2021-04-13 05:37:43 48.2317 11.4078 122 ° 15 km/h 732 m -3.7 m/s 402.50 MHz Dachau (DE) 0.00 km FOUND
R3320301 RS41 2021-04-12 16:58:30 48.3055 11.3247 109 ° 24 km/h 941 m -4.8 m/s 402.50 MHz Dachau (DE) 0.00 km FOUND
R3320338 RS41 2021-04-12 11:39:52 48.4146 11.8785 127 ° 24 km/h 728 m -8.8 m/s 402.50 MHz Freising (DE) 0.00 km FOUND
R3321053 RS41 2021-04-12 05:46:45 48.4178 11.9929 126 ° 37 km/h 778 m -4.7 m/s 402.50 MHz Erding (DE) 0.00 km FOUND
R3320335 RS41 2021-04-09 05:51:29 47.4806 12.5567 62 ° 19 km/h 1859 m -4.7 m/s 402.50 MHz Fieberbrunn (AT) 0.00 km UNKNOWN
R3320337 RS41 2021-04-08 17:31:01 47.2306 12.0406 65 ° 30 km/h 2583 m -6.2 m/s 402.50 MHz Mayrhofen (AT) 0.00 km UNKNOWN
R3320333 RS41 2021-04-08 11:19:40 47.1311 11.9345 87 ° 19 km/h 2937 m -6.8 m/s 402.50 MHz Mayrhofen (AT) 0.00 km UNKNOWN
R3320342 RS41 2021-04-08 05:28:17 46.9757 12.3062 145 ° 87 km/h 4199 m -5.1 m/s 402.50 MHz Virgen (AT) 0.00 km UNKNOWN
R3320340 RS41 2021-04-07 17:30:57 47.2005 12.2119 71 ° 20 km/h 2425 m -8.6 m/s 402.50 MHz Neukirchen am Großvenediger (AT) 0.00 km UNKNOWN
R3320326 RS41 2021-04-07 11:28:17 47.4338 12.1193 90 ° 31 km/h 1769 m -8.6 m/s 402.50 MHz Hopfgarten im Brixental (AT) 0.00 km FOUND
R3320329 RS41 2021-04-07 05:46:35 47.5547 12.6249 224 ° 6 km/h 2118 m -3.2 m/s 402.50 MHz Fieberbrunn (AT) 0.00 km UNKNOWN
R3320341 RS41 2021-04-06 17:38:41 47.4435 12.5413 115 ° 54 km/h 2445 m -4.1 m/s 402.50 MHz Fieberbrunn (AT) 0.00 km UNKNOWN
R3310124 RS41 2021-04-06 11:40:15 47.5887 12.5293 163 ° 7 km/h 1410 m -5.5 m/s 402.50 MHz Kirchdorf in Tirol (AT) 0.00 km FOUND
R3310122 RS41 2021-04-06 05:05:24 47.5505 12.2079 113 ° 11 km/h 2161 m -5.2 m/s 402.50 MHz Kufstein (AT) 0.00 km UNKNOWN
R3310897 RS41 2021-03-31 17:56:15 47.7884 11.0292 105 ° 9 km/h 1132 m -5.6 m/s 402.50 MHz Weilheim in Oberbayern (DE) 0.00 km FOUND
R3320010 RS41 2021-03-31 11:59:24 47.8214 10.8886 90 ° 15 km/h 1133 m -5.9 m/s 402.50 MHz Weilheim in Oberbayern (DE) 0.00 km NEED ATTENTION
D18050307 DFM 2021-03-31 11:55:49 47.8811 10.9295 117 ° 17 km/h 1124 m -4.0 m/s 404.310 MHz Weilheim in Oberbayern (DE) 0.00 km NEED ATTENTION
R3320008 RS41 2021-03-31 06:05:31 47.7026 10.825 46 ° 30 km/h 951 m -4.4 m/s 402.50 MHz Kaufbeuren (DE) 0.00 km UNKNOWN
R3310138 RS41 2021-03-30 17:40:33 47.6517 10.7567 237 ° 24 km/h 1000 m -4.2 m/s 402.50 MHz Reutte (AT) 0.00 km UNKNOWN
R3321032 RS41 2021-03-30 11:31:07 47.6327 10.7175 198 ° 9 km/h 971 m -6.7 m/s 402.50 MHz Reutte (AT) 0.00 km UNKNOWN
D18050896 DFM 2021-03-30 08:23:49 47.5634 10.6559 16 ° 6 km/h 1565 m -3.2 m/s 402.009 MHz Reutte (AT) 0.00 km UNKNOWN
S3130254 RS41 2021-03-30 05:34:53 47.5233 10.8047 100 ° 2 km/h 1775 m -6.1 m/s 402.50 MHz Reutte (AT) 0.00 km UNKNOWN
S3130194 RS41 2021-03-29 17:41:21 47.3561 10.8249 62 ° 4 km/h 2508 m -4.1 m/s 402.50 MHz Ehrwald (AT) 0.00 km UNKNOWN
S3130691 RS41 2021-03-29 11:50:01 47.3292 11.0435 267 ° 7 km/h 1176 m -2.8 m/s 402.50 MHz Telfs (AT) 0.00 km UNKNOWN
S3130700 RS41 2021-03-29 08:55:18 47.1903 11.2174 69 ° 4 km/h 1551 m -1.7 m/s 402.50 MHz Axams (AT) 0.00 km FOUND
S3130659 RS41 2021-03-29 06:02:16 47.1773 11.1636 110 ° 9 km/h 2321 m -3.3 m/s 402.50 MHz Oberperfuss (AT) 0.00 km UNKNOWN
S3130248 RS41 2021-03-26 06:33:56 47.5311 11.5736 348 ° 7 km/h 2014 m -4.0 m/s 402.50 MHz Achenkirch (AT) 0.00 km UNKNOWN
S3120629 RS41 2021-03-25 19:00:44 47.8824 11.6314 72 ° 20 km/h 844 m -3.8 m/s 402.50 MHz Geretsried (DE) 0.00 km FOUND
S3130695 RS41 2021-03-25 12:37:55 47.8116 11.5332 62 ° 15 km/h 978 m -6.2 m/s 402.50 MHz Geretsried (DE) 0.00 km FOUND
S3130156 RS41 2021-03-25 06:24:10 47.5277 11.3742 92 ° 9 km/h 1611 m -6.8 m/s 402.50 MHz Garmisch-Partenkirchen (DE) 0.00 km UNKNOWN
S3130155 RS41 2021-03-24 18:15:02 47.4133 11.007 137 ° 2 km/h 2287 m -1.6 m/s 402.50 MHz Ehrwald (AT) 0.00 km UNKNOWN
D18050297 DFM 2021-03-24 15:10:57 47.509 10.8555 152 ° 7 km/h 2199 m -3.7 m/s 402.009 MHz Reutte (AT) 0.00 km UNKNOWN
S3130655 RS41 2021-03-24 12:30:29 47.446 10.9253 92 ° 2 km/h 2083 m -5.5 m/s 402.50 MHz Ehrwald (AT) 0.00 km UNKNOWN
S3130200 RS41 2021-03-24 06:39:08 47.4251 10.9055 128 ° 11 km/h 2117 m -9.2 m/s 402.50 MHz Ehrwald (AT) 0.00 km UNKNOWN
S3130692 RS41 2021-03-23 18:37:51 47.4739 10.8415 111 ° 26 km/h 2207 m -7.2 m/s 402.50 MHz Reutte (AT) 0.00 km UNKNOWN
S3130201 RS41 2021-03-23 11:48:58 47.5121 10.6978 161 ° 9 km/h 1273 m -3.3 m/s 402.50 MHz Reutte (AT) 0.00 km UNKNOWN
S3130193 RS41 2021-03-23 06:33:14 47.2805 10.7839 351 ° 6 km/h 2410 m -6.3 m/s 402.50 MHz Tarrenz (AT) 0.00 km UNKNOWN
R3321072 RS41 2021-03-22 18:59:34 46.8959 10.8431 207 ° 96 km/h 4179 m -4.1 m/s 402.50 MHz Sölden (AT) 0.00 km UNKNOWN
S3130198 RS41 2021-03-22 12:29:10 46.952 10.3974 207 ° 98 km/h 4120 m -5.3 m/s 402.50 MHz Pfunds (AT) 0.00 km UNKNOWN
S3130948 RS41 2021-03-22 06:34:54 46.798 10.2419 203 ° 78 km/h 3974 m -6.2 m/s 402.50 MHz Pfunds (AT) 0.00 km UNKNOWN
S3050583 RS41 2021-03-19 06:30:12 47.2842 10.7355 28 ° 4 km/h 2177 m -5.2 m/s 402.50 MHz Tarrenz (AT) 0.00 km UNKNOWN
R3320830 RS41 2021-03-18 18:38:43 47.1992 10.8851 176 ° 13 km/h 2955 m -3.5 m/s 402.50 MHz Oetz (AT) 0.00 km UNKNOWN
S3130195 RS41 2021-03-18 12:39:32 47.2063 10.6563 122 ° 7 km/h 2459 m -4.4 m/s 402.50 MHz Imst (AT) 0.00 km UNKNOWN
S3130945 RS41 2021-03-18 06:38:36 47.032 10.6679 172 ° 15 km/h 3459 m -3.8 m/s 402.50 MHz Fliess (AT) 0.00 km UNKNOWN
S3130944 RS41 2021-03-17 18:25:44 47.0614 11.1493 161 ° 41 km/h 3410 m -5.9 m/s 402.50 MHz Neustift im Stubaital (AT) 0.00 km UNKNOWN
D18050296 DFM 2021-03-17 15:26:56 46.9931 11.2274 141 ° 22 km/h 3422 m -2.2 m/s 402.509 MHz Neustift im Stubaital (AT) 0.00 km UNKNOWN
S3130197 RS41 2021-03-17 12:54:28 46.8872 11.2566 178 ° 46 km/h 4100 m -4.5 m/s 402.50 MHz Sölden (AT) 0.00 km UNKNOWN
S3130210 RS41 2021-03-17 06:44:46 46.6895 11.2297 170 ° 44 km/h 3529 m -4.3 m/s 402.50 MHz Merano (IT) 0.00 km UNKNOWN
S3130946 RS41 2021-03-16 18:37:22 46.6261 11.2263 161 ° 65 km/h 3417 m -9.0 m/s 402.50 MHz Lana (IT) 0.00 km UNKNOWN
S3130264 RS41 2021-03-16 12:14:52 47.0187 11.08 162 ° 57 km/h 4225 m -9.5 m/s 402.50 MHz Sölden (AT) 0.00 km UNKNOWN
S3130199 RS41 2021-03-16 06:27:36 46.9172 11.1979 172 ° 93 km/h 4509 m -6.3 m/s 402.50 MHz Sölden (AT) 0.00 km UNKNOWN
S3130202 RS41 2021-03-15 18:39:30 47.0446 11.7454 149 ° 6 km/h 2106 m -3.5 m/s 402.50 MHz Mayrhofen (AT) 0.00 km UNKNOWN
R3321073 RS41 2021-03-15 12:16:02 47.2421 11.7104 86 ° 22 km/h 2423 m -7.8 m/s 402.50 MHz Wattens (AT) 0.00 km UNKNOWN
R3310105 RS41 2021-03-15 06:22:46 47.1083 11.7487 139 ° 52 km/h 3445 m -4.9 m/s 402.50 MHz Mayrhofen (AT) 0.00 km UNKNOWN
R3310103 RS41 2021-03-12 06:44:19 47.6447 13.5842 113 ° 22 km/h 1403 m -4.2 m/s 402.50 MHz Bad Goisern (AT) 0.00 km UNKNOWN
R3320291 RS41 2021-03-11 18:52:49 47.8107 13.8833 98 ° 26 km/h 1411 m -5.3 m/s 402.50 MHz Ebensee (AT) 0.00 km UNKNOWN
R3310106 RS41 2021-03-11 12:39:21 47.5492 13.2044 6 ° 9 km/h 1698 m -5.1 m/s 402.50 MHz Golling an der Salzach (AT) 0.00 km UNKNOWN
D18050635 DFM 2021-03-11 10:27:10 47.4151 12.8837 116 ° 72 km/h 2697 m -3.8 m/s 402.509 MHz Saalfelden am Steinernen Meer (AT) 0.00 km UNKNOWN
R3321102 RS41 2021-03-11 06:36:22 46.923 12.3672 144 ° 91 km/h 4383 m -5.3 m/s 402.50 MHz Virgen (AT) 0.00 km UNKNOWN
R3310108 RS41 2021-03-10 18:23:44 46.8129 11.5491 168 ° 74 km/h 4357 m -9.5 m/s 402.50 MHz Bressanone (IT) 0.00 km UNKNOWN
R3310107 RS41 2021-03-10 12:29:06 46.7979 11.4701 174 ° 89 km/h 4687 m -13.6 m/s 402.50 MHz Bressanone (IT) 0.00 km UNKNOWN
R3320290 RS41 2021-03-10 06:26:50 46.9746 11.5254 166 ° 50 km/h 3730 m -11.2 m/s 402.50 MHz Steinach am Brenner (AT) 0.00 km UNKNOWN
R3320831 RS41 2021-03-09 18:29:13 47.5587 11.7627 120 ° 26 km/h 1866 m -4.7 m/s 402.50 MHz Achenkirch (AT) 0.00 km UNKNOWN
R3320829 RS41 2021-03-09 12:40:51 47.6435 12.0976 120 ° 20 km/h 1395 m -5.4 m/s 402.50 MHz Kufstein (AT) 0.00 km UNKNOWN
R3310123 RS41 2021-03-09 06:34:48 47.5482 11.9482 60 ° 6 km/h 1666 m -5.8 m/s 402.50 MHz Breitenbach am Inn (AT) 0.00 km UNKNOWN
R3321074 RS41 2021-03-08 18:38:21 47.4679 12.0269 250 ° 6 km/h 1589 m -4.6 m/s 402.50 MHz Kundl (AT) 0.00 km UNKNOWN
R3321071 RS41 2021-03-08 12:22:47 47.5219 11.8718 207 ° 7 km/h 1297 m -5.5 m/s 402.50 MHz Kramsach (AT) 0.00 km UNKNOWN
R3310125 RS41 2021-03-08 06:34:04 47.3368 12.0496 125 ° 17 km/h 2395 m -7.1 m/s 402.50 MHz Alpbach (AT) 0.00 km UNKNOWN
R3310126 RS41 2021-03-05 06:39:46 47.5685 12.288 103 ° 24 km/h 1891 m -3.3 m/s 402.50 MHz Ellmau (AT) 0.00 km UNKNOWN
R3310089 RS41 2021-03-04 18:45:39 47.9146 12.4202 93 ° 33 km/h 813 m -5.0 m/s 402.50 MHz Traunreut (DE) 0.00 km FOUND
R3320315 RS41 2021-03-04 12:38:05 47.9072 12.0056 344 ° 7 km/h 600 m -10.9 m/s 402.50 MHz Rosenheim (DE) 0.00 km UNKNOWN
R3320957 RS41 2021-03-04 06:27:58 47.9081 11.7556 63 ° 20 km/h 790 m -3.9 m/s 402.50 MHz Unterhaching (DE) 0.00 km FOUND
R3320007 RS41 2021-03-03 18:23:01 47.7846 11.4712 51 ° 7 km/h 917 m -3.8 m/s 402.50 MHz Geretsried (DE) 0.00 km FOUND
R3310137 RS41 2021-03-03 12:48:47 47.812 11.4116 73 ° 4 km/h 675 m -4.0 m/s 402.50 MHz Geretsried (DE) 0.00 km FOUND
R3320964 RS41 2021-03-03 06:55:40 47.7443 11.3154 45 ° 11 km/h 887 m -4.2 m/s 402.50 MHz Weilheim in Oberbayern (DE) 0.00 km UNKNOWN
R3330327 RS41 2021-03-02 18:50:35 47.9722 11.0914 200 ° 4 km/h 822 m -3.4 m/s 402.50 MHz Weilheim in Oberbayern (DE) 0.00 km UNKNOWN
R3330302 RS41 2021-03-02 12:53:16 47.9476 10.8841 134 ° 4 km/h 1026 m -6.9 m/s 404.30 MHz Landsberg am Lech (DE) 0.00 km NEED ATTENTION
R3330330 RS41 2021-03-02 06:50:20 47.8554 10.7934 47 ° 6 km/h 1006 m -4.3 m/s 402.50 MHz Kaufbeuren (DE) 0.00 km UNKNOWN
R3330243 RS41 2021-03-01 18:49:48 47.7547 10.6809 317 ° 6 km/h 779 m -8.0 m/s 402.50 MHz Kaufbeuren (DE) 0.00 km FOUND
R3330328 RS41 2021-03-01 12:43:49 47.6754 10.6137 254 ° 11 km/h 896 m -5.5 m/s 402.50 MHz Reutte (AT) 0.00 km UNKNOWN
R3330289 RS41 2021-03-01 06:40:28 47.6099 10.6984 31 ° 2 km/h 931 m -7.4 m/s 402.50 MHz Reutte (AT) 0.00 km LOST
R3330290 RS41 2021-02-26 06:56:18 48.0214 11.8934 74 ° 24 km/h 687 m -4.0 m/s 402.50 MHz Vaterstetten (DE) 0.00 km NEED ATTENTION
R3330281 RS41 2021-02-25 18:57:00 48.0604 11.4964 3 ° 20 km/h 663 m -4.1 m/s 402.50 MHz Unterhaching (DE) 0.00 km FOUND
R3330284 RS41 2021-02-25 12:39:00 48.007 11.1753 218 ° 13 km/h 843 m -4.2 m/s 402.50 MHz Starnberg (DE) 0.00 km FOUND
R3330894 RS41 2021-02-25 06:51:15 47.9228 11.0914 41 ° 6 km/h 842 m -4.0 m/s 402.50 MHz Weilheim in Oberbayern (DE) 0.00 km UNKNOWN
R3330272 RS41 2021-02-24 19:23:57 47.8006 10.7854 305 ° 13 km/h 985 m -3.1 m/s 402.50 MHz Kaufbeuren (DE) 0.00 km FOUND
R3330299 RS41 2021-02-24 12:56:01 47.704 10.6143 225 ° 7 km/h 859 m -6.6 m/s 402.50 MHz Kaufbeuren (DE) 0.00 km UNKNOWN
D18050813 DFM 2021-02-24 08:57:08 47.9008 10.837 220 ° 11 km/h 867 m -3.5 m/s 404.309 MHz Kaufbeuren (DE) 0.00 km UNKNOWN
R3330246 RS41 2021-02-24 06:52:01 47.4692 10.7346 306 ° 7 km/h 1180 m -4.2 m/s 402.50 MHz Reutte (AT) 0.00 km UNKNOWN
R3330346 RS41 2021-02-23 18:46:51 47.4668 11.2318 37 ° 17 km/h 2113 m -7.4 m/s 402.50 MHz Garmisch-Partenkirchen (DE) 0.00 km UNKNOWN
R3330186 RS41 2021-02-23 12:55:06 47.7189 11.3354 235 ° 6 km/h 1054 m -4.8 m/s 402.50 MHz Geretsried (DE) 0.00 km FOUND
R3330176 RS41 2021-02-23 07:06:29 47.8557 11.4265 257 ° 6 km/h 774 m -3.6 m/s 402.50 MHz Geretsried (DE) 0.00 km FOUND
R3330185 RS41 2021-02-22 18:52:29 48.0486 11.4571 321 ° 19 km/h 676 m -5.4 m/s 402.50 MHz Starnberg (DE) 0.00 km FOUND
D18050571 DFM 2021-02-22 16:24:51 48.4041 11.5323 233 ° 4 km/h 565 m -2.1 m/s 404.310 MHz Unterschleißheim (DE) 0.00 km FOUND
D18050558 DFM 2021-02-22 13:49:41 48.3981 11.2932 335 ° 6 km/h 621 m -3.7 m/s 402.010 MHz Aichach (DE) 0.00 km FOUND
R3320965 RS41 2021-02-22 12:47:43 48.335 11.3693 279 ° 13 km/h 584 m -4.2 m/s 402.50 MHz Dachau (DE) 0.00 km FOUND
R3330326 RS41 2021-02-22 06:38:27 48.2067 11.2811 317 ° 4 km/h 623 m -5.3 m/s 402.50 MHz Olching (DE) 0.00 km UNKNOWN
R3330178 RS41 2021-02-19 06:47:50 47.4007 12.1255 182 ° 20 km/h 1947 m -4.0 m/s 402.50 MHz Westendorf (AT) 0.00 km FOUND
R3320968 RS41 2021-02-18 18:39:09 47.8191 12.2154 360 ° 2 km/h 920 m -6.3 m/s 402.50 MHz Rosenheim (DE) 0.00 km FOUND
R3330271 RS41 2021-02-18 12:32:01 47.7146 12.01 282 ° 2 km/h 1347 m -10.5 m/s 402.50 MHz Niederndorf (AT) 0.00 km UNKNOWN
D18051407 DFM 2021-02-18 09:53:47 47.5217 12.1574 67 ° 6 km/h 1414 m -3.5 m/s 402.510 MHz Söll (AT) 0.00 km UNKNOWN
R3330319 RS41 2021-02-18 06:33:58 47.5328 11.9985 42 ° 13 km/h 1807 m -9.4 m/s 402.50 MHz Kirchbichl (AT) 0.00 km UNKNOWN
R3340999 RS41 2021-02-17 18:56:04 47.1112 12.3189 147 ° 48 km/h 3616 m -4.3 m/s 402.50 MHz Neukirchen am Großvenediger (AT) 0.00 km UNKNOWN
R3330325 RS41 2021-02-17 12:34:01 47.3907 12.2167 119 ° 22 km/h 2267 m -7.5 m/s 402.50 MHz Westendorf (AT) 0.00 km UNKNOWN
D18050607 DFM 2021-02-17 08:29:02 47.5947 11.5399 140 ° 50 km/h 1539 m -10.4 m/s 402.510 MHz Achenkirch (AT) 0.00 km UNKNOWN
R3330244 RS41 2021-02-17 06:28:52 47.8061 12.3557 96 ° 57 km/h 1105 m -10.0 m/s 404.30 MHz Kössen (AT) 0.00 km FOUND
R3330892 RS41 2021-02-16 19:03:32 47.4859 12.4778 81 ° 26 km/h 2005 m -4.1 m/s 402.50 MHz Sankt Johann in Tirol (AT) 0.00 km FOUND
R3320811 RS41 2021-02-16 12:26:25 47.3514 11.8296 339 ° 4 km/h 1373 m -8.1 m/s 402.50 MHz Fügen (AT) 0.00 km UNKNOWN
R3320817 RS41 2021-02-16 06:29:58 46.9473 11.9322 148 ° 72 km/h 3854 m -4.0 m/s 402.50 MHz Brunico (IT) 0.00 km FOUND
R3320822 RS41 2021-02-15 18:38:26 46.9498 12.0379 152 ° 80 km/h 4357 m -7.7 m/s 402.50 MHz Brunico (IT) 0.00 km UNKNOWN
R3251163 RS41 2021-02-15 12:43:30 46.839 11.749 153 ° 72 km/h 4187 m -2.7 m/s 402.50 MHz Brunico (IT) 0.00 km UNKNOWN
R3320820 RS41 2021-02-15 06:25:28 46.7755 11.3486 170 ° 69 km/h 3962 m -3.9 m/s 402.50 MHz Merano (IT) 0.00 km UNKNOWN
R3320814 RS41 2021-02-12 09:34:27 47.2124 12.8223 108 ° 46 km/h 2932 m -7.7 m/s 402.50 MHz Bruck an der Großglocknerstraße (AT) 0.00 km UNKNOWN
R3320349 RS41 2021-02-12 05:43:22 47.2024 12.2389 113 ° 33 km/h 3080 m -6.1 m/s 402.50 MHz Neukirchen am Großvenediger (AT) 0.00 km UNKNOWN
R3320819 RS41 2021-02-11 18:43:28 47.0993 12.886 139 ° 89 km/h 4178 m -8.9 m/s 402.50 MHz Rauris (AT) 0.00 km UNKNOWN
R3320955 RS41 2021-02-11 12:21:44 47.1855 12.4953 138 ° 59 km/h 3445 m -4.1 m/s 402.50 MHz Mittersill (AT) 0.00 km UNKNOWN
R3320322 RS41 2021-02-11 09:28:26 47.3118 12.5335 96 ° 48 km/h 3206 m -5.5 m/s 402.50 MHz Uttendorf (AT) 0.00 km UNKNOWN
R3320966 RS41 2021-02-11 06:43:20 47.3014 12.867 113 ° 78 km/h 3327 m -6.2 m/s 402.50 MHz Bruck an der Großglocknerstraße (AT) 0.00 km UNKNOWN
R3320958 RS41 2021-02-10 18:33:56 47.8243 12.0279 158 ° 19 km/h 849 m -7.2 m/s 402.50 MHz Rosenheim (DE) 0.00 km FOUND
R3310971 RS41 2021-02-10 12:50:30 48.0572 12.1246 201 ° 9 km/h 622 m -5.3 m/s 402.50 MHz Rosenheim (DE) 0.00 km FOUND
D18050647 DFM 2021-02-10 10:59:00 48.0101 11.2712 210 ° 17 km/h 851 m -2.2 m/s 402.008 MHz Starnberg (DE) 0.00 km FOUND
R3320821 RS41 2021-02-10 06:53:00 48.1733 12.2805 232 ° 7 km/h 595 m -5.1 m/s 402.50 MHz Waldkraiburg (DE) 0.00 km FOUND
R3251161 RS41 2021-02-09 18:25:24 47.7793 12.4523 69 ° 6 km/h 1073 m -5.4 m/s 402.50 MHz Kössen (AT) 0.00 km FOUND
R3251162 RS41 2021-02-09 12:56:04 48.0809 12.9942 205 ° 9 km/h 625 m -4.1 m/s 402.50 MHz Eggelsberg (AT) 0.00 km FOUND
R3320354 RS41 2021-02-09 06:43:45 48.1276 12.5889 19 ° 7 km/h 558 m -4.1 m/s 402.50 MHz Waldkraiburg (DE) 0.00 km FOUND
R3320352 RS41 2021-02-08 18:46:48 48.1052 12.7004 345 ° 19 km/h 575 m -3.6 m/s 402.50 MHz Ostermiething (AT) 0.00 km NEED ATTENTION
R3420611 RS41 2021-02-08 13:07:00 48.1545 12.3077 35 ° 17 km/h 591 m -4.7 m/s 402.50 MHz Waldkraiburg (DE) 0.00 km FOUND
R3420626 RS41 2021-02-08 06:35:45 48.2255 11.4749 65 ° 15 km/h 572 m -3.0 m/s 402.50 MHz Dachau (DE) 0.00 km NEED ATTENTION
R3420641 RS41 2021-02-05 06:26:57 47.9883 12.6618 316 ° 11 km/h 669 m -6.5 m/s 402.50 MHz Traunreut (DE) 0.00 km FOUND
R3320324 RS41 2021-02-04 19:08:24 47.817 13.3683 336 ° 19 km/h 1141 m -4.3 m/s 402.50 MHz Sankt Lorenz (AT) 0.00 km LOST
R3420610 RS41 2021-02-04 12:33:53 47.7226 13.3596 89 ° 13 km/h 1538 m -5.2 m/s 402.50 MHz Sankt Gilgen (AT) 0.00 km UNKNOWN
R3320956 RS41 2021-02-04 06:22:01 47.7071 13.0849 146 ° 43 km/h 598 m -10.9 m/s 402.50 MHz Puch bei Hallein (AT) 0.00 km FOUND
R3320812 RS41 2021-02-03 18:38:22 47.8901 13.833 81 ° 46 km/h 992 m -4.6 m/s 402.50 MHz Gmunden (AT) 0.00 km UNKNOWN
R3320813 RS41 2021-02-03 12:04:15 47.9058 12.8532 28 ° 9 km/h 638 m -5.8 m/s 402.50 MHz Oberndorf bei Salzburg (AT) 0.00 km FOUND
D18050624 DFM 2021-02-03 09:34:35 47.7518 13.2479 332 ° 9 km/h 1301 m -3.4 m/s 402.509 MHz Faistenau (AT) 0.00 km FOUND
R3320353 RS41 2021-02-03 06:47:23 47.5879 13.1979 277 ° 20 km/h 923 m -4.1 m/s 402.50 MHz Golling an der Salzach (AT) 0.00 km UNKNOWN
R3320351 RS41 2021-02-02 18:47:18 47.3071 12.9349 104 ° 83 km/h 3609 m -4.8 m/s 402.50 MHz Taxenbach (AT) 0.00 km UNKNOWN
R3320350 RS41 2021-02-02 12:20:02 47.2436 12.4029 118 ° 69 km/h 3824 m -5.9 m/s 402.50 MHz Bramberg am Wildkogel (AT) 0.00 km UNKNOWN
D18050380 DFM 2021-02-02 08:56:43 47.4928 11.609 73 ° 11 km/h 1898 m -12.7 m/s 402.009 MHz Achenkirch (AT) 0.00 km UNKNOWN
R3320815 RS41 2021-02-02 06:38:44 47.0242 12.1913 127 ° 50 km/h 4102 m -5.2 m/s 402.50 MHz Virgen (AT) 0.00 km UNKNOWN
R3330329 RS41 2021-02-01 18:48:31 47.3823 12.0842 64 ° 17 km/h 2119 m -4.9 m/s 402.50 MHz Westendorf (AT) 0.00 km UNKNOWN
R3420588 RS41 2021-02-01 12:39:52 47.6551 12.0009 47 ° 7 km/h 1609 m -7.3 m/s 402.50 MHz Kufstein (AT) 0.00 km UNKNOWN
R3320834 RS41 2021-02-01 07:04:32 47.482 12.174 344 ° 2 km/h 1126 m -4.4 m/s 402.50 MHz Söll (AT) 0.00 km FOUND
R3340793 RS41 2021-01-29 06:34:40 47.3992 12.7371 99 ° 78 km/h 2845 m -4.8 m/s 402.50 MHz Leogang (AT) 0.00 km UNKNOWN
R3340801 RS41 2021-01-28 18:27:03 46.7048 12.6567 124 ° 65 km/h 2783 m -6.3 m/s 402.50 MHz Lienz (AT) 0.00 km UNKNOWN
R3420612 RS41 2021-01-28 12:40:01 46.8804 12.6846 132 ° 6 km/h 1236 m -6.1 m/s 402.50 MHz Lienz (AT) 0.00 km FOUND
R3321055 RS41 2021-01-28 06:47:43 46.1368 12.3237 80 ° 9 km/h 1811 m -3.8 m/s 402.50 MHz Belluno (IT) 0.00 km UNKNOWN
R3340799 RS41 2021-01-27 18:40:37 46.0914 12.1794 127 ° 7 km/h 1361 m -3.7 m/s 402.50 MHz Belluno (IT) 0.00 km UNKNOWN
R3420586 RS41 2021-01-27 12:08:30 46.7832 11.8552 143 ° 57 km/h 3891 m -5.7 m/s 402.50 MHz Brunico (IT) 0.00 km FOUND
D18051352 DFM 2021-01-27 09:19:44 46.6164 11.9527 161 ° 72 km/h 4990 m -4.3 m/s 402.009 MHz Brunico (IT) 0.00 km UNKNOWN
R3340807 RS41 2021-01-27 06:16:52 46.492 11.6394 169 ° 56 km/h 3261 m -11.6 m/s 402.50 MHz Bolzano (IT) 0.00 km UNKNOWN
R3330479 RS41 2021-01-26 18:57:41 45.9527 12.0451 18 ° 4 km/h 1477 m -4.0 m/s 402.50 MHz Farra di Soligo (IT) 0.00 km UNKNOWN
R3320255 RS41 2021-01-26 12:14:48 46.7049 11.8319 152 ° 61 km/h 3677 m -7.4 m/s 402.50 MHz Brunico (IT) 0.00 km UNKNOWN
R3330616 RS41 2021-01-26 06:18:36 46.8281 11.9262 160 ° 76 km/h 4411 m -4.5 m/s 402.50 MHz Brunico (IT) 0.00 km FOUND
R3420512 RS41 2021-01-25 18:23:49 47.358 11.9069 100 ° 15 km/h 1931 m -3.9 m/s 402.50 MHz Alpbach (AT) 0.00 km UNKNOWN
R3330672 RS41 2021-01-25 12:21:15 47.6196 12.1623 94 ° 19 km/h 1651 m -9.3 m/s 402.50 MHz Kufstein (AT) 0.00 km UNKNOWN
R3420583 RS41 2021-01-25 06:57:07 47.4576 12.6484 106 ° 26 km/h 2467 m -3.5 m/s 402.50 MHz Fieberbrunn (AT) 0.00 km UNKNOWN
R3420585 RS41 2021-01-22 06:30:11 48.0772 12.5145 40 ° 24 km/h 648 m -8.2 m/s 402.50 MHz Traunreut (DE) 0.00 km FOUND
R3330687 RS41 2021-01-21 18:50:19 48.152 12.6035 295 ° 4 km/h 536 m -4.0 m/s 402.50 MHz Waldkraiburg (DE) 0.00 km FOUND
R3420600 RS41 2021-01-21 12:36:59 48.0334 12.503 19 ° 33 km/h 671 m -9.3 m/s 402.50 MHz Traunreut (DE) 0.00 km FOUND
R3420654 RS41 2021-01-21 06:43:30 48.2467 12.3202 38 ° 22 km/h 588 m -3.2 m/s 402.50 MHz Waldkraiburg (DE) 0.00 km FOUND
R3420608 RS41 2021-01-20 18:08:22 47.9938 11.8585 352 ° 22 km/h 745 m -8.1 m/s 402.50 MHz Vaterstetten (DE) 0.00 km FOUND
R3340795 RS41 2021-01-20 12:52:44 47.9586 12.6573 1 ° 4 km/h 699 m -3.6 m/s 402.50 MHz Traunreut (DE) 0.00 km FOUND
R3420625 RS41 2021-01-20 06:51:44 47.7051 13.0787 315 ° 31 km/h 545 m -3.3 m/s 402.50 MHz Oberalm (AT) 0.00 km UNKNOWN
R3340808 RS41 2021-01-19 18:56:12 47.2981 12.8003 116 ° 69 km/h 2909 m -1.8 m/s 402.50 MHz Zell am See (AT) 0.00 km UNKNOWN
R3330223 RS41 2021-01-19 12:27:54 46.8699 12.6492 128 ° 72 km/h 3658 m -5.2 m/s 402.50 MHz Lienz (AT) 0.00 km FOUND
R3330438 RS41 2021-01-19 06:06:46 46.9755 12.2295 141 ° 80 km/h 4546 m -9.5 m/s 402.50 MHz Virgen (AT) 0.00 km UNKNOWN
R3420604 RS41 2021-01-18 18:25:40 46.8902 12.2998 169 ° 67 km/h 4129 m -4.9 m/s 402.50 MHz Virgen (AT) 0.00 km UNKNOWN
R3340814 RS41 2021-01-18 13:22:18 47.0165 11.8981 168 ° 61 km/h 3960 m -6.5 m/s 404.30 MHz Mayrhofen (AT) 0.00 km UNKNOWN
R3340815 RS41 2021-01-18 12:36:36 47.0905 12.4979 163 ° 63 km/h 4218 m -6.8 m/s 402.50 MHz Virgen (AT) 0.00 km UNKNOWN
R2340115 RS41 2021-01-18 06:34:36 47.2286 12.1844 123 ° 46 km/h 2973 m -5.0 m/s 402.50 MHz Neukirchen am Großvenediger (AT) 0.00 km UNKNOWN
R2340117 RS41 2021-01-15 06:27:38 46.9609 12.2667 156 ° 65 km/h 4579 m -6.8 m/s 402.50 MHz Virgen (AT) 0.00 km UNKNOWN
R2340132 RS41 2021-01-14 19:00:18 46.3621 13.2109 168 ° 20 km/h 1983 m -3.43 m/s 402.50 MHz Gemona del Friuli (IT) 0.00 km UNKNOWN
R2340131 RS41 2021-01-14 12:32:45 46.433 13.238 165 ° 28 km/h 2067 m -5.6 m/s 402.50 MHz Tolmezzo (IT) 0.00 km UNKNOWN
R2340116 RS41 2021-01-14 06:40:31 46.185 13.4728 269 ° 9 km/h 1043 m -3.5 m/s 402.50 MHz Kobarid (SI) 0.00 km UNKNOWN
R2340137 RS41 2021-01-13 18:28:13 46.2748 12.9906 48 ° 13 km/h 1397 m -2.61 m/s 402.50 MHz Gemona del Friuli (IT) 0.00 km UNKNOWN
R2340130 RS41 2021-01-13 13:05:09 45.7593 13.2755 204 ° 7 km/h 126 m -3.2 m/s 402.50 MHz Cervignano del Friuli (IT) 0.00 km FOUND
R2340134 RS41 2021-01-13 06:55:12 46.3103 13.003 163 ° 35 km/h 1336 m -4.6 m/s 402.50 MHz Tolmezzo (IT) 0.00 km FOUND
R2340138 RS41 2021-01-12 18:27:48 47.3015 12.9589 133 ° 57 km/h 3390 m -9.9 m/s 402.50 MHz Taxenbach (AT) 0.00 km UNKNOWN
R2340129 RS41 2021-01-12 12:19:17 47.374 12.6871 95 ° 67 km/h 2865 m -11.0 m/s 402.50 MHz Leogang (AT) 0.00 km UNKNOWN
R2340128 RS41 2021-01-12 06:30:35 47.3594 12.4691 109 ° 46 km/h 2847 m -5.1 m/s 402.50 MHz Mittersill (AT) 0.00 km UNKNOWN
R2340135 RS41 2021-01-11 18:49:04 47.4127 11.8639 54 ° 7 km/h 903 m -3.7 m/s 402.50 MHz Reith im Alpbachtal (AT) 0.00 km UNKNOWN
R2340146 RS41 2021-01-11 12:29:41 47.5249 11.3198 58 ° 7 km/h 1637 m -4.1 m/s 402.50 MHz Garmisch-Partenkirchen (DE) 0.00 km UNKNOWN
R2340118 RS41 2021-01-11 06:34:15 47.4383 11.3556 118 ° 6 km/h 1927 m -3.7 m/s 402.50 MHz Leutasch (AT) 0.00 km UNKNOWN
R2340127 RS41 2020-12-23 13:05:27 47.6988 14.2683 76 ° 30 km/h 1548 m -3.9 m/s 402.50 MHz Windischgarsten (AT) 0.00 km UNKNOWN
R2340017 RS41 2020-12-23 06:51:04 47.4877 13.3543 94 ° 24 km/h 2204 m -3.8 m/s 402.50 MHz Abtenau (AT) 0.00 km UNKNOWN
R2340177 RS41 2020-12-22 18:28:00 47.4733 12.9239 101 ° 48 km/h 2581 m -8.6 m/s 402.50 MHz Saalfelden am Steinernen Meer (AT) 0.00 km UNKNOWN
R2340119 RS41 2020-12-22 12:20:12 47.4024 12.4358 97 ° 46 km/h 2608 m -4.3 m/s 402.50 MHz Kitzbühel (AT) 0.00 km UNKNOWN
R2340180 RS41 2020-12-22 07:04:42 47.1467 12.9471 124 ° 83 km/h 3337 m -2.3 m/s 402.50 MHz Rauris (AT) 0.00 km UNKNOWN
R3420605 RS41 2020-12-21 18:38:34 46.9866 12.4473 135 ° 44 km/h 4235 m -6.0 m/s 402.50 MHz Virgen (AT) 0.00 km UNKNOWN
R2340261 RS41 2020-12-21 12:43:36 47.2308 12.6241 115 ° 41 km/h 3536 m -8.3 m/s 402.50 MHz Uttendorf (AT) 0.00 km UNKNOWN
R2330342 RS41 2020-12-21 07:02:22 47.2536 12.7033 56 ° 24 km/h 3406 m -4.1 m/s 402.50 MHz Piesendorf (AT) 0.00 km UNKNOWN
R2340045 RS41 2020-12-18 06:24:09 47.8023 11.4805 61 ° 9 km/h 956 m -4.3 m/s 402.50 MHz Geretsried (DE) 0.00 km FOUND
R2330341 RS41 2020-12-17 18:50:39 47.9645 11.9923 79 ° 17 km/h 749 m -3.9 m/s 402.50 MHz Rosenheim (DE) 0.00 km UNKNOWN
R2340046 RS41 2020-12-17 12:49:02 48.0774 11.9976 76 ° 9 km/h 691 m -3.1 m/s 402.50 MHz Vaterstetten (DE) 0.00 km FOUND
R2340123 RS41 2020-12-17 06:53:45 47.7881 11.8923 63 ° 9 km/h 959 m -6.8 m/s 402.50 MHz Rosenheim (DE) 0.00 km FOUND
R2330340 RS41 2020-12-16 18:39:37 47.5974 11.7487 71 ° 7 km/h 1544 m -4.2 m/s 402.50 MHz Achenkirch (AT) 0.00 km UNKNOWN
R2330674 RS41 2020-12-16 12:51:43 47.9873 11.6553 100 ° 11 km/h 722 m -3.6 m/s 402.50 MHz Unterhaching (DE) 0.00 km FOUND
D18051235 DFM 2020-12-16 08:25:56 47.9395 10.9921 140 ° 13 km/h 1017 m -11.9 m/s 402.009 MHz Landsberg am Lech (DE) 0.00 km FOUND
R2330675 RS41 2020-12-16 06:33:27 48.2917 11.5486 258 ° 6 km/h 553 m -4.0 m/s 402.50 MHz Unterschleißheim (DE) 0.00 km FOUND
R2330305 RS41 2020-12-15 18:59:22 48.2393 11.9698 22 ° 13 km/h 612 m -4.5 m/s 402.50 MHz Erding (DE) 0.00 km FOUND
R2330335 RS41 2020-12-15 12:44:50 48.3102 11.814 240 ° 7 km/h 564 m -4.7 m/s 402.50 MHz Erding (DE) 0.00 km FOUND
R2330338 RS41 2020-12-15 06:32:12 48.1842 11.8404 5 ° 11 km/h 603 m -7.5 m/s 402.50 MHz Vaterstetten (DE) 0.00 km FOUND
R2330339 RS41 2020-12-14 18:27:25 47.7497 11.8931 132 ° 6 km/h 1045 m -4.4 m/s 402.50 MHz Rosenheim (DE) 0.00 km UNKNOWN
D17006868 DFM 2020-12-14 15:40:47 47.596 12.0697 52 ° 7 km/h 1902 m -6.1 m/s 402.008 MHz Schwoich (AT) 0.00 km UNKNOWN
R2340043 RS41 2020-12-14 12:07:04 47.6037 11.6955 65 ° 7 km/h 1616 m -7.1 m/s 402.50 MHz Achenkirch (AT) 0.00 km UNKNOWN
D18051396 DFM 2020-12-14 09:37:34 47.2274 11.864 142 ° 24 km/h 2761 m -4.5 m/s 402.509 MHz Mayrhofen (AT) 0.00 km UNKNOWN
R2330337 RS41 2020-12-14 06:17:46 47.1665 11.7528 171 ° 52 km/h 3441 m -8.6 m/s 402.50 MHz Mayrhofen (AT) 0.00 km UNKNOWN
R2340121 RS41 2020-12-11 06:29:29 47.3186 11.6114 27 ° 15 km/h 2667 m -3.9 m/s 402.50 MHz Terfens (AT) 0.00 km UNKNOWN
R2340125 RS41 2020-12-10 18:30:05 47.3892 11.0233 104 ° 19 km/h 2329 m -5.1 m/s 402.50 MHz Ehrwald (AT) 0.00 km UNKNOWN
R2340122 RS41 2020-12-10 12:20:53 47.6883 10.7593 226 ° 9 km/h 870 m -5.2 m/s 402.50 MHz Reutte (AT) 0.00 km UNKNOWN
R2340124 RS41 2020-12-10 06:30:03 47.906 11.0194 255 ° 11 km/h 952 m -7.1 m/s 402.50 MHz Weilheim in Oberbayern (DE) 0.00 km UNKNOWN
R2340109 RS41 2020-12-09 18:37:46 48.1092 10.8406 101 ° 28 km/h 817 m -4.1 m/s 402.50 MHz Landsberg am Lech (DE) 0.00 km FOUND
R2330646 RS41 2020-12-09 13:06:37 48.3915 10.9341 104 ° 13 km/h 564 m -3.4 m/s 402.50 MHz Augsburg (DE) 0.00 km FOUND
R2330648 RS41 2020-12-09 06:54:47 48.5854 11.2235 92 ° 22 km/h 621 m -5.4 m/s 402.50 MHz Aichach (DE) 0.00 km UNKNOWN
R2330142 RS41 2020-12-08 19:03:29 48.8104 11.273 271 ° 43 km/h 767 m -3.6 m/s 402.50 MHz Neuburg an der Donau (DE) 0.00 km UNKNOWN
R2330631 RS41 2020-12-08 12:25:44 48.6195 11.2632 269 ° 20 km/h 664 m -5.6 m/s 402.50 MHz Neuburg an der Donau (DE) 0.00 km UNKNOWN
R3340805 RS41 2020-12-08 09:53:23 48.7579 11.5364 302 ° 37 km/h 653 m -2.8 m/s 402.50 MHz Ingolstadt (DE) 0.00 km UNKNOWN
R3420603 RS41 2020-12-08 06:51:19 48.7558 11.8874 298 ° 22 km/h 619 m -4.0 m/s 402.50 MHz Landshut (DE) 0.00 km UNKNOWN
R3330224 RS41 2020-12-07 18:06:42 48.3008 11.0345 227 ° 19 km/h 688 m -5.2 m/s 402.50 MHz Königsbrunn (DE) 0.00 km FOUND
R3340813 RS41 2020-12-07 12:38:29 48.7267 10.9893 268 ° 4 km/h 828 m -3.2 m/s 402.50 MHz Neuburg an der Donau (DE) 0.00 km UNKNOWN
D18051234 DFM 2020-12-07 09:55:49 48.7735 10.8642 51 ° 19 km/h 726 m -3.4 m/s 402.509 MHz Neuburg an der Donau (DE) 0.00 km NEED ATTENTION
R3420653 RS41 2020-12-07 06:21:43 48.6351 10.9886 54 ° 19 km/h 550 m -7.4 m/s 402.50 MHz Neuburg an der Donau (DE) 0.00 km FOUND
D17002365 DFM 2020-12-04 09:45:00 48.9453 12.0533 285 ° 30 km/h 645 m -4.0 m/s 404.311 MHz Regensburg (DE) 0.00 km FOUND
R3330226 RS41 2020-12-04 06:37:36 48.6756 11.854 335 ° 28 km/h 675 m -3.0 m/s 402.50 MHz Landshut (DE) 0.00 km UNKNOWN
R3420606 RS41 2020-12-03 18:34:20 47.9886 11.533 287 ° 26 km/h 733 m -5.4 m/s 402.50 MHz Unterhaching (DE) 0.00 km FOUND
R3340806 RS41-SGP 2020-12-03 12:12:53 47.9885 11.2943 356 ° 7 km/h 801 m -7.6 m/s 402.50 MHz Starnberg (DE) 0.00 km FOUND
R2340160 RS41 2020-12-03 06:33:53 48.1459 11.3033 98 ° 28 km/h 903 m -6.9 m/s 402.50 MHz Germering (DE) 0.00 km UNKNOWN
R2330606 RS41 2020-12-02 18:18:48 47.9351 10.8595 109 ° 2 km/h 1003 m -5.1 m/s 402.50 MHz Landsberg am Lech (DE) 0.00 km UNKNOWN
R2330704 RS41 2020-12-02 12:41:57 48.0098 10.5 241 ° 9 km/h 813 m -4.2 m/s 402.50 MHz Kaufbeuren (DE) 0.00 km UNKNOWN
R2330624 RS41 2020-12-02 06:24:12 47.9256 10.2865 256 ° 20 km/h 844 m -5.2 m/s 402.50 MHz Memmingen (DE) 0.00 km UNKNOWN
R2330636 RS41 2020-12-01 19:15:13 47.8356 10.8062 105 ° 11 km/h 948 m -4.0 m/s 402.50 MHz Kaufbeuren (DE) 0.00 km UNKNOWN
R2330605 RS41 2020-12-01 12:32:47 48.0052 11.2273 50 ° 11 km/h 789 m -4.0 m/s 402.50 MHz Starnberg (DE) 0.00 km UNKNOWN
R2330620 RS41 2020-12-01 06:40:02 47.9203 11.6744 118 ° 19 km/h 765 m -3.9 m/s 402.50 MHz Geretsried (DE) 0.00 km FOUND
R2330621 RS41 2020-11-30 18:37:37 47.806 11.7565 52 ° 19 km/h 1001 m -3.9 m/s 402.50 MHz Geretsried (DE) 0.00 km FOUND
R2330622 RS41 2020-11-30 12:12:40 47.8056 11.3819 90 ° 7 km/h 926 m -7.4 m/s 402.50 MHz Geretsried (DE) 0.00 km FOUND
R2330602 RS41 2020-11-30 06:18:47 47.667 11.1649 286 ° 9 km/h 1463 m -8.4 m/s 402.50 MHz Weilheim in Oberbayern (DE) 0.00 km UNKNOWN
R2411260 RS41 2020-11-27 07:32:49 47.9037 11.1444 236 ° 9 km/h 875 m -4.2 m/s 404.30 MHz Weilheim in Oberbayern (DE) 0.00 km FOUND
R2411255 RS41 2020-11-27 06:09:33 47.8965 11.237 76 ° 4 km/h 953 m -6.2 m/s 402.50 MHz Weilheim in Oberbayern (DE) 0.00 km FOUND
R2330629 RS41 2020-11-26 18:26:32 47.8872 11.3031 245 ° 4 km/h 1207 m -4.6 m/s 402.50 MHz Starnberg (DE) 0.00 km UNKNOWN
R2411105 RS41 2020-11-26 12:33:29 47.9614 11.3655 122 ° 9 km/h 1058 m -6.5 m/s 402.50 MHz Starnberg (DE) 0.00 km LOST
R2411222 RS41 2020-11-26 06:30:45 47.9026 11.332 78 ° 17 km/h 906 m -4.4 m/s 402.50 MHz Starnberg (DE) 0.00 km UNKNOWN
R2411109 RS41 2020-11-25 18:35:52 47.9943 11.2008 312 ° 11 km/h 780 m -4.2 m/s 402.50 MHz Starnberg (DE) 0.00 km FOUND
R2330601 RS41 2020-11-25 12:57:26 48.1475 11.206 265 ° 4 km/h 692 m -4.0 m/s 402.50 MHz Fürstenfeldbruck (DE) 0.00 km FOUND
R2330628 RS41 2020-11-25 06:57:23 48.0904 11.0372 212 ° 2 km/h 760 m -3.6 m/s 402.50 MHz Landsberg am Lech (DE) 0.00 km FOUND
R2330603 RS41 2020-11-24 18:44:45 47.7975 10.9831 60 ° 7 km/h 1072 m -5.9 m/s 402.50 MHz Weilheim in Oberbayern (DE) 0.00 km UNKNOWN
R2330604 RS41 2020-11-24 12:26:38 47.7549 10.7499 268 ° 7 km/h 957 m -3.4 m/s 402.50 MHz Kaufbeuren (DE) 0.00 km FOUND
R2321730 RS41 2020-11-24 06:44:34 47.4548 11.1001 288 ° 6 km/h 1869 m -4.5 m/s 402.50 MHz Garmisch-Partenkirchen (DE) 0.00 km UNKNOWN
R2321732 RS41 2020-11-23 18:23:45 47.536 12.0845 52 ° 9 km/h 1975 m -3.9 m/s 402.50 MHz Kirchbichl (AT) 0.00 km UNKNOWN
R2330619 RS41 2020-11-23 12:35:04 47.5735 12.475 119 ° 26 km/h 2099 m -6.5 m/s 402.50 MHz Kirchdorf in Tirol (AT) 0.00 km UNKNOWN
R2320607 RS41 2020-11-23 06:59:01 47.451 12.7734 101 ° 44 km/h 2669 m -4.8 m/s 402.50 MHz Leogang (AT) 0.00 km UNKNOWN
R2330016 RS41 2020-11-20 06:34:56 47.3858 11.2776 171 ° 30 km/h 1496 m -5.8 m/s 402.50 MHz Seefeld in Tirol (AT) 0.00 km UNKNOWN
R2321731 RS41 2020-11-19 18:49:51 48.2582 12.8983 42 ° 13 km/h 477 m -4.4 m/s 402.50 MHz Braunau am Inn (AT) 0.00 km UNKNOWN
R2330015 RS41 2020-11-19 12:44:59 48.1109 12.5618 102 ° 30 km/h 632 m -3.8 m/s 402.50 MHz Waldkraiburg (DE) 0.00 km UNKNOWN
D18051331 DFM 2020-11-19 09:34:41 48.1386 12.5172 71 ° 24 km/h 578 m -3.8 m/s 402.510 MHz Waldkraiburg (DE) 0.00 km UNKNOWN
R2330130 RS41 2020-11-19 07:00:05 47.9258 12.2765 65 ° 17 km/h 801 m -3.7 m/s 402.50 MHz Rosenheim (DE) 0.00 km LOST
R2330143 RS41 2020-11-18 18:39:21 47.5294 11.289 15 ° 19 km/h 1079 m -4.3 m/s 402.50 MHz Garmisch-Partenkirchen (DE) 0.00 km UNKNOWN
R2330140 RS41 2020-11-18 12:59:30 47.3087 11.1931 302 ° 7 km/h 1249 m -1.6 m/s 402.50 MHz Seefeld in Tirol (AT) 0.00 km UNKNOWN
D17006821 DFM 2020-11-18 09:30:58 47.1834 10.9642 314 ° 11 km/h 3098 m -4.1 m/s 402.509 MHz Oetz (AT) 0.00 km UNKNOWN
R2330141 RS41 2020-11-18 06:27:28 47.1295 11.0915 248 ° 15 km/h 3118 m -9.4 m/s 402.50 MHz Umhausen (AT) 0.00 km UNKNOWN
R2330129 RS41 2020-11-17 18:25:28 46.9166 11.0056 169 ° 30 km/h 3469 m -4.4 m/s 402.50 MHz Sölden (AT) 0.00 km UNKNOWN
R2330017 RS41 2020-11-17 12:29:34 46.7713 11.1318 181 ° 48 km/h 5031 m -9.2 m/s 402.50 MHz Merano (IT) 0.00 km UNKNOWN
D17046823 DFM 2020-11-17 10:39:14 45.6808 10.9137 129 ° 6 km/h 1966 m -3.0 m/s 402.509 MHz Ala (IT) 0.00 km UNKNOWN
R2330127 RS41 2020-11-17 06:51:13 46.4644 11.1481 174 ° 24 km/h 2728 m -5.5 m/s 402.50 MHz Laives (IT) 0.00 km UNKNOWN
R2321729 RS41 2020-11-16 20:39:01 47.1883 11.535 198 ° 0 km/h 2636 m 0.0 m/s 402.50 MHz Sistrans (AT) 0.00 km UNKNOWN
R2330144 RS41 2020-11-16 12:34:36 47.9006 11.9356 86 ° 37 km/h 826 m -4.1 m/s 402.50 MHz Rosenheim (DE) 0.00 km FOUND
R3330648 RS41 2020-11-16 06:30:22 48.0176 11.9577 94 ° 63 km/h 1007 m -7.3 m/s 402.50 MHz Vaterstetten (DE) 0.00 km LOST
R3330647 RS41 2020-11-13 06:31:23 47.668 11.5599 18 ° 15 km/h 1094 m -7.1 m/s 402.50 MHz Achenkirch (AT) 0.00 km UNKNOWN
R3330652 RS41 2020-11-12 18:28:37 47.5713 11.6443 109 ° 19 km/h 1764 m -5.3 m/s 402.50 MHz Achenkirch (AT) 0.00 km UNKNOWN
D17047098 DFM 2020-11-12 16:08:12 47.3277 12.0559 94 ° 24 km/h 2658 m -4.8 m/s 402.508 MHz Alpbach (AT) 0.00 km UNKNOWN
R3420644 RS41 2020-11-12 12:38:44 47.7344 11.7733 126 ° 6 km/h 1107 m -8.5 m/s 402.50 MHz Achenkirch (AT) 0.00 km UNKNOWN
D17006125 DFM 2020-11-12 08:47:57 47.6823 11.4353 87 ° 33 km/h 16566 m 4.0 m/s 402.010 MHz Geretsried (DE) 0.00 km UNKNOWN
R3420643 RS41 2020-11-12 06:22:02 47.4326 11.6327 90 ° 9 km/h 2169 m -6.1 m/s 402.50 MHz Eben am Achensee (AT) 0.00 km UNKNOWN
R3420642 RS41 2020-11-11 18:29:15 47.9152 11.1986 300 ° 15 km/h 855 m -4.9 m/s 402.50 MHz Weilheim in Oberbayern (DE) 0.00 km FOUND
R3330920 RS41 2020-11-11 13:11:06 48.2377 11.356 242 ° 7 km/h 570 m -4.0 m/s 402.50 MHz Olching (DE) 0.00 km UNKNOWN
D17006516 DFM 2020-11-11 09:42:39 48.3255 11.3099 241 ° 13 km/h 581 m -2.9 m/s 404.290 MHz Dachau (DE) 0.00 km FOUND
R3330480 RS41 2020-11-11 06:53:48 48.2014 11.3397 343 ° 9 km/h 586 m -4.1 m/s 402.50 MHz Olching (DE) 0.00 km FOUND
R3420649 RS41 2020-11-10 18:31:41 48.0595 11.241 110 ° 2 km/h 707 m -5.8 m/s 402.50 MHz Starnberg (DE) 0.00 km FOUND
R3330638 RS41 2020-11-10 12:05:00 48.0729 11.1448 186 ° 4 km/h 723 m -7.5 m/s 402.50 MHz Fürstenfeldbruck (DE) 0.00 km FOUND
D17006521 DFM 2020-11-10 10:14:22 48.2225 11.3182 80 ° 9 km/h 866 m -4.0 m/s 402.508 MHz Olching (DE) 0.00 km UNKNOWN
R3330477 RS41 2020-11-10 06:46:55 47.9713 11.453 66 ° 7 km/h 982 m -4.0 m/s 402.50 MHz Starnberg (DE) 0.00 km FOUND
R3420650 RS41 2020-11-09 18:59:09 47.9315 11.6622 325 ° 7 km/h 756 m -3.9 m/s 402.50 MHz Geretsried (DE) 0.00 km FOUND
D17006075 DFM 2020-11-09 09:12:45 48.0238 11.3643 42 ° 4 km/h 745 m -12.2 m/s 402.010 MHz Starnberg (DE) 0.00 km UNKNOWN
R3330645 RS41 2020-11-09 06:24:16 47.9695 11.4427 51 ° 11 km/h 788 m -7.8 m/s 402.50 MHz Starnberg (DE) 0.00 km FOUND
R3330782 RS41 2020-11-06 06:22:04 48.139 10.1068 285 ° 37 km/h 1370 m -4.1 m/s 404.30 MHz Memmingen (DE) 0.00 km UNKNOWN
R3330781 RS41 2020-11-05 18:59:58 47.5201 10.9779 66 ° 4 km/h 2050 m -4.6 m/s 404.30 MHz Garmisch-Partenkirchen (DE) 0.00 km UNKNOWN
D17006754 DFM 2020-11-05 15:56:51 47.5762 11.1066 258 ° 4 km/h 1644 m -2.9 m/s 402.051 MHz Garmisch-Partenkirchen (DE) 0.00 km UNKNOWN
R2350295 RS41 2020-11-05 13:41:20 47.6814 11.0371 299 ° 17 km/h 1473 m -6.3 m/s 404.30 MHz Weilheim in Oberbayern (DE) 0.00 km UNKNOWN
R2350308 RS41 2020-11-05 12:22:28 47.697 11.0993 252 ° 9 km/h 1153 m -4.6 m/s 402.50 MHz Weilheim in Oberbayern (DE) 0.00 km UNKNOWN
R3330994 RS41 2020-11-05 06:54:44 47.7197 11.1081 256 ° 17 km/h 1212 m -4.1 m/s 402.50 MHz Weilheim in Oberbayern (DE) 0.00 km UNKNOWN
R3330992 RS41 2020-11-04 18:26:06 48.0811 11.3892 220 ° 20 km/h 652 m -4.4 m/s 402.50 MHz Germering (DE) 0.00 km UNKNOWN
R3330765 RS41 2020-11-04 12:31:28 48.4367 11.4554 190 ° 19 km/h 586 m -6.8 m/s 402.50 MHz Pfaffenhofen an der Ilm (DE) 0.00 km FOUND
D17006095 DFM 2020-11-04 10:06:48 48.6345 11.7068 259 ° 11 km/h 998 m -2.9 m/s 404.311 MHz Pfaffenhofen an der Ilm (DE) 0.00 km FOUND
R3330991 RS41 2020-11-04 06:34:29 48.5547 11.6635 169 ° 15 km/h 638 m -6.3 m/s 402.50 MHz Pfaffenhofen an der Ilm (DE) 0.00 km FOUND
R3330784 RS41 2020-11-03 19:02:19 48.6584 11.8286 128 ° 28 km/h 658 m -5.0 m/s 402.50 MHz Landshut (DE) 0.00 km UNKNOWN
R2340845 RS41 2020-11-03 12:43:35 48.6244 11.6956 34 ° 15 km/h 635 m -3.5 m/s 402.50 MHz Pfaffenhofen an der Ilm (DE) 0.00 km UNKNOWN
R2340842 RS41 2020-11-03 06:43:47 48.4985 11.6222 156 ° 31 km/h 604 m -4.7 m/s 402.50 MHz Pfaffenhofen an der Ilm (DE) 0.00 km FOUND
R2340836 RS41 2020-11-02 18:58:35 47.9983 11.3689 55 ° 15 km/h 747 m -5.1 m/s 402.50 MHz Starnberg (DE) 0.00 km FOUND
R2340844 RS41 2020-11-02 12:16:48 47.653 11.1989 130 ° 7 km/h 1180 m -5.0 m/s 402.50 MHz Garmisch-Partenkirchen (DE) 0.00 km LOST
R2340849 RS41 2020-11-02 06:55:19 47.1818 11.1728 46 ° 20 km/h 2365 m -6.1 m/s 402.50 MHz Oberperfuss (AT) 0.00 km UNKNOWN
R2340837 RS41 2020-10-30 06:38:25 46.6633 11.9716 145 ° 78 km/h 3753 m -5.3 m/s 402.50 MHz Brunico (IT) 0.00 km UNKNOWN
R2340835 RS41 2020-10-29 18:31:49 46.6689 12.2997 140 ° 61 km/h 3325 m -6.7 m/s 402.50 MHz Brunico (IT) 0.00 km UNKNOWN
R2340846 RS41 2020-10-29 12:09:11 46.9937 12.3755 118 ° 69 km/h 3625 m -6.3 m/s 402.50 MHz Virgen (AT) 0.00 km UNKNOWN
R2350404 RS41 2020-10-29 06:47:52 47.7237 12.8873 82 ° 20 km/h 1097 m -5.7 m/s 402.50 MHz Grossgmain (AT) 0.00 km FOUND
R2340838 RS41 2020-10-28 18:47:33 48.0996 12.6011 66 ° 22 km/h 615 m -4.4 m/s 402.50 MHz Traunreut (DE) 0.00 km UNKNOWN
R2350403 RS41 2020-10-28 12:24:38 48.179 12.06 60 ° 20 km/h 679 m -4.1 m/s 402.50 MHz Erding (DE) 0.00 km FOUND
D17006688 DFM 2020-10-28 09:42:16 48.1948 12.0202 69 ° 13 km/h 646 m -3.1 m/s 402.509 MHz Erding (DE) 0.00 km FOUND
R2340852 RS41 2020-10-28 06:42:46 48.07 11.9559 354 ° 26 km/h 703 m -10.4 m/s 402.50 MHz Vaterstetten (DE) 0.00 km UNKNOWN
R2340839 RS41 2020-10-27 18:40:00 47.5785 11.3595 14 ° 6 km/h 1439 m -3.6 m/s 402.50 MHz Garmisch-Partenkirchen (DE) 0.00 km UNKNOWN
R2350406 RS41 2020-10-27 12:58:10 48.5298 12.0007 64 ° 6 km/h 563 m -3.7 m/s 402.50 MHz Landshut (DE) 0.00 km UNKNOWN
R2340841 RS41 2020-10-27 06:32:12 48.7763 11.5406 57 ° 19 km/h 670 m -3.9 m/s 402.50 MHz Ingolstadt (DE) 0.00 km UNKNOWN
R2350479 RS41 2020-10-26 18:28:50 48.9574 11.8416 66 ° 20 km/h 633 m -5.2 m/s 402.50 MHz Regensburg (DE) 0.00 km FOUND
R2350305 RS41 2020-10-26 11:57:19 48.558 11.7518 110 ° 31 km/h 609 m -10.3 m/s 402.50 MHz Freising (DE) 0.00 km UNKNOWN
R2350407 RS41 2020-10-26 06:21:31 48.5933 12.06 307 ° 19 km/h 623 m -11.7 m/s 402.50 MHz Landshut (DE) 0.00 km UNKNOWN
R2350306 RS41 2020-10-23 05:45:57 48.4129 12.9094 70 ° 17 km/h 607 m -3.6 m/s 402.50 MHz Braunau am Inn (AT) 0.00 km UNKNOWN
R2350296 RS41 2020-10-22 17:41:29 48.4106 12.8026 344 ° 9 km/h 597 m -3.8 m/s 402.50 MHz Braunau am Inn (AT) 0.00 km UNKNOWN
R2350302 RS41 2020-10-22 11:46:54 48.5485 12.7176 304 ° 9 km/h 552 m -4.1 m/s 402.50 MHz Deggendorf (DE) 0.00 km UNKNOWN
R2350301 RS41 2020-10-22 06:02:49 48.4763 12.6155 18 ° 17 km/h 577 m -4.9 m/s 402.50 MHz Waldkraiburg (DE) 0.00 km UNKNOWN
R2350304 RS41 2020-10-21 17:30:42 48.4091 12.0011 22 ° 0 km/h 580 m -4.6 m/s 402.50 MHz Erding (DE) 0.00 km FOUND
R2350298 RS41 2020-10-21 11:35:00 48.2263 12.1631 135 ° 7 km/h 693 m -6.4 m/s 402.50 MHz Waldkraiburg (DE) 0.00 km FOUND
D17006899 DFM 2020-10-21 08:52:50 48.1149 12.5423 286 ° 9 km/h 613 m -2.3 m/s 402.010 MHz Waldkraiburg (DE) 0.00 km FOUND
R2350405 RS41 2020-10-21 05:32:24 48.0347 12.191 10 ° 17 km/h 698 m -4.7 m/s 402.50 MHz Rosenheim (DE) 0.00 km UNKNOWN
R2350303 RS41 2020-10-20 17:46:22 47.8058 12.3678 42 ° 30 km/h 1098 m -4.6 m/s 402.50 MHz Kössen (AT) 0.00 km UNKNOWN
R2350317 RS41 2020-10-20 11:26:23 47.7637 11.9269 343 ° 15 km/h 1191 m -6.9 m/s 402.50 MHz Rosenheim (DE) 0.00 km FOUND
D17006427 DFM 2020-10-20 08:34:24 47.4553 11.7989 14 ° 19 km/h 2308 m -4.3 m/s 402.508 MHz Eben am Achensee (AT) 0.00 km UNKNOWN
R2350318 RS41 2020-10-20 05:31:49 47.36 11.7309 50 ° 37 km/h 1164 m -5.3 m/s 402.50 MHz Schwaz (AT) 0.00 km LOST
R2350311 RS41 2020-10-19 17:22:17 47.1984 11.8388 110 ° 41 km/h 2921 m -4.7 m/s 402.50 MHz Mayrhofen (AT) 0.00 km UNKNOWN
R2350309 RS41 2020-10-19 11:07:31 47.4602 11.74 80 ° 17 km/h 2292 m -4.7 m/s 402.50 MHz Eben am Achensee (AT) 0.00 km UNKNOWN
D17007929 DFM 2020-10-19 08:29:08 47.506 11.9472 60 ° 20 km/h 2088 m -4.4 m/s 402.010 MHz Breitenbach am Inn (AT) 0.00 km UNKNOWN
R2331584 RS41 2020-10-19 05:31:00 47.6357 11.8293 87 ° 7 km/h 1595 m -4.2 m/s 402.50 MHz Achenkirch (AT) 0.00 km UNKNOWN
R2331058 RS41 2020-10-16 05:34:25 47.6626 10.4404 238 ° 2 km/h 1022 m -4.7 m/s 402.50 MHz Kempten (DE) 0.00 km UNKNOWN
R2350480 RS41 2020-10-15 18:26:30 47.765 10.3546 236 ° 17 km/h 970 m -4.7 m/s 404.30 MHz Kempten (DE) 0.00 km UNKNOWN
R2350310 RS41 2020-10-15 17:03:10 47.7748 10.3034 270 ° 15 km/h 1001 m -4.8 m/s 402.50 MHz Kempten (DE) 0.00 km UNKNOWN
R2331059 RS41 2020-10-15 11:18:03 48.0299 10.5026 239 ° 15 km/h 867 m -5.7 m/s 402.50 MHz Kaufbeuren (DE) 0.00 km UNKNOWN
R3330995 RS41 2020-10-15 05:44:22 47.9309 10.7154 276 ° 4 km/h 850 m -7.5 m/s 402.50 MHz Kaufbeuren (DE) 0.00 km UNKNOWN
R2331060 RS41 2020-10-14 18:02:09 47.9623 10.5015 192 ° 19 km/h 865 m -3.9 m/s 402.50 MHz Kaufbeuren (DE) 0.00 km UNKNOWN
R2350312 RS41 2020-10-14 11:09:18 47.9713 10.5611 181 ° 11 km/h 886 m -7.3 m/s 402.50 MHz Kaufbeuren (DE) 0.00 km UNKNOWN
R3330785 RS41 2020-10-14 05:12:06 47.987 10.6172 218 ° 9 km/h 805 m -5.3 m/s 402.50 MHz Kaufbeuren (DE) 0.00 km UNKNOWN
R3420792 RS41 2020-10-13 17:33:47 47.8477 10.9555 271 ° 11 km/h 896 m -4.5 m/s 402.50 MHz Weilheim in Oberbayern (DE) 0.00 km NEED ATTENTION
R3330716 RS41 2020-10-13 11:29:10 47.7553 10.9897 255 ° 11 km/h 983 m -8.7 m/s 402.50 MHz Weilheim in Oberbayern (DE) 0.00 km UNKNOWN
R3330715 RS41 2020-10-13 05:20:32 47.6265 11.0348 124 ° 11 km/h 1416 m -13.1 m/s 402.50 MHz Garmisch-Partenkirchen (DE) 0.00 km UNKNOWN
R3330766 RS41 2020-10-12 17:12:47 47.3503 10.9101 184 ° 26 km/h 2421 m -6.5 m/s 402.50 MHz Ehrwald (AT) 0.00 km UNKNOWN
R2350495 RS41 2020-10-12 11:14:57 47.4954 10.9167 176 ° 4 km/h 2036 m -5.6 m/s 402.50 MHz Ehrwald (AT) 0.00 km UNKNOWN
R3420768 RS41 2020-10-12 05:44:25 47.5496 10.9562 112 ° 6 km/h 1754 m -4.1 m/s 402.50 MHz Garmisch-Partenkirchen (DE) 0.00 km UNKNOWN
R2350581 RS41 2020-10-09 05:25:06 47.8548 12.1395 62 ° 7 km/h 1135 m -6.1 m/s 402.50 MHz Rosenheim (DE) 0.00 km UNKNOWN
R3320999 RS41 2020-10-08 17:35:21 47.4009 12.1519 87 ° 28 km/h 2287 m -8.2 m/s 402.50 MHz Westendorf (AT) 0.00 km UNKNOWN
R3321000 RS41 2020-10-08 11:48:14 47.2915 12.0634 137 ° 46 km/h 3082 m -4.6 m/s 402.50 MHz Alpbach (AT) 0.00 km UNKNOWN
R3321006 RS41 2020-10-08 05:15:44 47.0279 11.9153 150 ° 65 km/h 3575 m -4.4 m/s 402.50 MHz Mayrhofen (AT) 0.00 km UNKNOWN
R3321126 RS41 2020-10-07 17:08:54 46.826 11.9914 142 ° 59 km/h 3756 m -8.4 m/s 402.50 MHz Brunico (IT) 0.00 km FOUND
R3320997 RS41 2020-10-07 11:30:24 47.39 11.8112 77 ° 13 km/h 1580 m -4.9 m/s 402.50 MHz Jenbach (AT) 0.00 km UNKNOWN
R3320971 RS41 2020-10-07 05:36:54 47.6568 11.8244 85 ° 24 km/h 1592 m -7.6 m/s 402.50 MHz Achenkirch (AT) 0.00 km UNKNOWN
R2340601 RS41 2020-10-06 17:23:48 47.95 12.4641 292 ° 13 km/h 727 m -4.8 m/s 402.50 MHz Traunreut (DE) 0.00 km UNKNOWN
R2340843 RS41 2020-10-06 11:24:34 47.8678 12.2442 304 ° 28 km/h 1073 m -4.7 m/s 402.50 MHz Rosenheim (DE) 0.00 km UNKNOWN
D17007985 DFM 2020-10-06 07:20:52 47.8391 11.364 80 ° 33 km/h 991 m -10.6 m/s 402.011 MHz Geretsried (DE) 0.00 km UNKNOWN
R2340679 RS41 2020-10-05 17:44:35 48.171 12.0367 342 ° 19 km/h 707 m -3.7 m/s 402.50 MHz Erding (DE) 0.00 km FOUND
R3320972 RS41 2020-10-05 11:38:43 48.1965 11.7374 91 ° 19 km/h 572 m -4.6 m/s 402.50 MHz Vaterstetten (DE) 0.00 km FOUND
R3321048 RS41 2020-10-05 05:36:04 48.5967 11.369 97 ° 37 km/h 657 m -4.4 m/s 402.50 MHz Pfaffenhofen an der Ilm (DE) 0.00 km UNKNOWN
R3321114 RS41 2020-10-02 05:20:47 48.1124 11.4558 284 ° 41 km/h 739 m -7.2 m/s 402.50 MHz Germering (DE) 0.00 km FOUND
R3320149 RS41 2020-10-01 17:45:39 48.2097 11.5452 309 ° 9 km/h 594 m -4.5 m/s 402.50 MHz Unterschleißheim (DE) 0.00 km FOUND
R3320372 RS41 2020-10-01 11:35:21 48.0406 11.3434 129 ° 11 km/h 1014 m -9.6 m/s 402.50 MHz Starnberg (DE) 0.00 km FOUND
R3321001 RS41 2020-10-01 05:09:18 47.6917 11.3456 90 ° 15 km/h 1576 m -9.9 m/s 402.50 MHz Geretsried (DE) 0.00 km FOUND
R3321119 RS41 2020-09-30 17:15:01 47.6584 11.2812 360 ° 6 km/h 1465 m -12.3 m/s 402.50 MHz Weilheim in Oberbayern (DE) 0.00 km UNKNOWN
R3321121 RS41 2020-09-30 11:55:23 47.6321 11.3482 232 ° 7 km/h 1119 m -3.9 m/s 402.50 MHz Garmisch-Partenkirchen (DE) 0.00 km UNKNOWN
R3321002 RS41 2020-09-30 05:45:29 47.526 11.4341 9 ° 4 km/h 1732 m -7.3 m/s 402.50 MHz Achenkirch (AT) 0.00 km UNKNOWN
R3320970 RS41 2020-09-29 17:21:31 47.2834 11.7849 106 ° 30 km/h 2550 m -5.0 m/s 402.50 MHz Fügen (AT) 0.00 km UNKNOWN
R3321117 RS41 2020-09-29 11:31:05 47.3544 11.5653 107 ° 19 km/h 2614 m -11.5 m/s 402.50 MHz Terfens (AT) 0.00 km UNKNOWN
R3320773 RS41 2020-09-29 05:24:49 47.0089 11.641 149 ° 59 km/h 3659 m -6.5 m/s 402.50 MHz Steinach am Brenner (AT) 0.00 km UNKNOWN
R3320355 RS41 2020-09-28 18:00:16 47.2298 11.0026 115 ° 26 km/h 2848 m -4.6 m/s 402.50 MHz Rietz (AT) 0.00 km UNKNOWN
R3320357 RS41 2020-09-28 11:55:15 47.5125 10.5547 30 ° 4 km/h 1514 m -8.7 m/s 402.50 MHz Reutte (AT) 0.00 km UNKNOWN
R3320466 RS41 2020-09-28 05:46:50 47.76 10.2545 266 ° 6 km/h 820 m -4.1 m/s 402.50 MHz Kempten (DE) 0.00 km UNKNOWN
R3320146 RS41 2020-09-25 05:42:44 48.7985 11.8108 71 ° 24 km/h 779 m -5.4 m/s 402.50 MHz Ingolstadt (DE) 0.00 km UNKNOWN
R3320145 RS41 2020-09-24 17:33:26 48.2854 12.0925 281 ° 37 km/h 691 m -13.5 m/s 402.50 MHz Erding (DE) 0.00 km UNKNOWN
R3320138 RS41 2020-09-24 11:32:46 48.3352 12.075 29 ° 9 km/h 692 m -4.6 m/s 402.50 MHz Erding (DE) 0.00 km FOUND
D17006673 DFM 2020-09-24 08:56:15 48.1766 12.5318 61 ° 30 km/h 915 m -3.2 m/s 402.010 MHz Waldkraiburg (DE) 0.00 km UNKNOWN
R3320148 RS41 2020-09-24 05:52:54 48.0069 12.4059 36 ° 19 km/h 728 m -3.7 m/s 402.50 MHz Traunreut (DE) 0.00 km UNKNOWN
R3320465 RS41 2020-09-23 17:41:27 47.9435 11.5695 43 ° 22 km/h 780 m -5.9 m/s 402.50 MHz Geretsried (DE) 0.00 km FOUND
D17005302 DFM 2020-09-23 14:59:02 48.0315 11.5317 120 ° 19 km/h 668 m -3.6 m/s 402.009 MHz Unterhaching (DE) 0.00 km FOUND
R3320135 RS41 2020-09-23 11:47:08 48.0378 11.2785 60 ° 11 km/h 757 m -4.2 m/s 402.50 MHz Starnberg (DE) 0.00 km FOUND
D17008038 DFM 2020-09-23 08:44:14 47.9906 11.2147 110 ° 20 km/h 784 m -2.5 m/s 402.010 MHz Starnberg (DE) 0.00 km UNKNOWN
P3421082 RS41 2020-09-23 05:41:13 48.1127 11.2379 85 ° 35 km/h 779 m -8.9 m/s 402.50 MHz Fürstenfeldbruck (DE) 0.00 km FOUND
P3420342 RS41 2020-09-22 17:59:46 48.1855 11.0514 330 ° 19 km/h 667 m -7.3 m/s 402.50 MHz Fürstenfeldbruck (DE) 0.00 km UNKNOWN
P3420337 RS41 2020-09-22 11:49:53 48.1868 10.8691 130 ° 9 km/h 680 m -7.8 m/s 402.50 MHz Königsbrunn (DE) 0.00 km UNKNOWN
D17006924 DFM 2020-09-22 08:30:28 48.173 10.8236 123 ° 15 km/h 888 m -4.8 m/s 402.010 MHz Königsbrunn (DE) 0.00 km FOUND
P3420338 RS41 2020-09-22 05:40:29 48.084 10.8665 103 ° 9 km/h 801 m -4.8 m/s 402.50 MHz Landsberg am Lech (DE) 0.00 km UNKNOWN
P3420365 RS41 2020-09-21 17:34:27 47.957 10.6474 274 ° 9 km/h 860 m -9.6 m/s 402.50 MHz Kaufbeuren (DE) 0.00 km FOUND
R3320147 RS41 2020-09-21 11:51:48 47.9591 10.4815 188 ° 4 km/h 835 m -3.8 m/s 402.50 MHz Kaufbeuren (DE) 0.00 km UNKNOWN
D17051989 DFM 2020-09-21 08:41:30 47.9133 10.3954 284 ° 13 km/h 2717 m -4.3 m/s 402.048 MHz Kaufbeuren (DE) 0.00 km UNKNOWN
R3320136 RS41 2020-09-21 05:59:42 47.8876 10.454 28 ° 11 km/h 926 m -3.6 m/s 402.50 MHz Kaufbeuren (DE) 0.00 km UNKNOWN
D17002339 DFM 2020-09-18 08:49:43 47.9006 10.1807 311 ° 15 km/h 1039 m -2.5 m/s 402.010 MHz Memmingen (DE) 0.00 km FOUND
P3421062 RS41 2020-09-18 05:45:21 47.7805 10.4178 280 ° 15 km/h 972 m -5.0 m/s 402.50 MHz Kempten (DE) 0.00 km FOUND
P3420554 RS41 2020-09-17 17:59:45 47.6976 10.7158 243 ° 19 km/h 834 m -3.9 m/s 402.50 MHz Kaufbeuren (DE) 0.00 km FOUND
P3421064 RS41 2020-09-17 12:14:38 47.679 10.7554 247 ° 17 km/h 890 m -3.3 m/s 402.50 MHz Reutte (AT) 0.00 km UNKNOWN
D17006675 DFM 2020-09-17 08:36:26 47.6301 10.8971 224 ° 30 km/h 3051 m -3.0 m/s 404.291 MHz Reutte (AT) 0.00 km UNKNOWN
P3420893 RS41 2020-09-17 05:40:52 47.6209 10.9459 190 ° 6 km/h 1570 m -5.7 m/s 402.50 MHz Garmisch-Partenkirchen (DE) 0.00 km UNKNOWN
P3421083 RS41 2020-09-16 17:33:48 47.6563 10.905 13 ° 4 km/h 1033 m -10.7 m/s 402.50 MHz Garmisch-Partenkirchen (DE) 0.00 km UNKNOWN
D17005037 DFM 2020-09-16 14:03:37 47.7165 10.9086 138 ° 17 km/h 1298 m -3.7 m/s 402.010 MHz Weilheim in Oberbayern (DE) 0.00 km FOUND
P3410389 RS41 2020-09-16 11:49:54 47.7253 10.7997 109 ° 20 km/h 1005 m -1.5 m/s 402.50 MHz Kaufbeuren (DE) 0.00 km UNKNOWN
D17006847 DFM 2020-09-16 07:52:42 47.8053 10.7729 183 ° 19 km/h 19968 m -9.4 m/s 404.291 MHz Kaufbeuren (DE) 0.00 km UNKNOWN
P3410379 RS41 2020-09-16 05:56:51 47.7873 10.6395 59 ° 11 km/h 831 m -3.1 m/s 402.50 MHz Kaufbeuren (DE) 0.00 km FOUND
P3420894 RS41 2020-09-15 18:10:27 48.1039 10.4001 301 ° 7 km/h 668 m -3.8 m/s 402.50 MHz Memmingen (DE) 0.00 km UNKNOWN
P3410381 RS41 2020-09-15 11:51:32 48.212 10.5119 108 ° 7 km/h 678 m -4.7 m/s 402.50 MHz Königsbrunn (DE) 0.00 km FOUND
D17007089 DFM 2020-09-15 08:39:30 48.3216 10.4556 95 ° 26 km/h 1728 m -3.6 m/s 404.291 MHz Neusäß (DE) 0.00 km FOUND
P3421084 RS41 2020-09-15 05:34:42 48.1981 10.5743 83 ° 11 km/h 670 m -5.6 m/s 402.50 MHz Königsbrunn (DE) 0.00 km FOUND
P3420873 RS41 2020-09-14 18:02:18 48.2234 10.4477 268 ° 17 km/h 674 m -5.2 m/s 402.50 MHz Senden (DE) 0.00 km UNKNOWN
D17006640 DFM 2020-09-14 14:26:27 48.2836 10.2826 288 ° 2 km/h 1588 m -2.9 m/s 404.289 MHz Senden (DE) 0.00 km FOUND
P3420872 RS41 2020-09-14 11:56:05 48.2126 10.3009 212 ° 4 km/h 619 m -2.6 m/s 402.50 MHz Senden (DE) 0.00 km UNKNOWN
P3420874 RS41 2020-09-14 05:53:56 48.0498 10.311 271 ° 9 km/h 779 m -4.0 m/s 402.50 MHz Memmingen (DE) 0.00 km FOUND
D17006494 DFM 2020-09-11 07:45:47 47.9198 11.2238 60 ° 24 km/h 18651 m 5.9 m/s 402.010 MHz Weilheim in Oberbayern (DE) 0.00 km UNKNOWN
P3410384 RS41 2020-09-11 05:25:57 47.961 11.3318 262 ° 6 km/h 829 m -7.7 m/s 402.50 MHz Starnberg (DE) 0.00 km UNKNOWN
P3410382 RS41 2020-09-10 17:45:41 48.0428 11.6108 261 ° 19 km/h 677 m -9.6 m/s 402.50 MHz Unterhaching (DE) 0.00 km FOUND
P3410386 RS41 2020-09-10 11:33:27 48.0484 11.4477 180 ° 2 km/h 677 m -3.2 m/s 402.50 MHz Starnberg (DE) 0.00 km FOUND
DF638129 DFM06 2020-09-10 07:25:18 47.8665 10.9761 120 ° 6 km/h 1866 m -14.3 m/s MHz Weilheim in Oberbayern (DE) 0.00 km NEED ATTENTION
D17006889 DFM09 2020-09-10 07:25:07 47.8665 10.9758 106 ° 13 km/h 2082 m -14.2 m/s 404.308 MHz Weilheim in Oberbayern (DE) 0.00 km UNKNOWN
P3420875 RS41 2020-09-10 05:41:09 48.0053 11.4664 144 ° 0 km/h 741 m -4.1 m/s 402.50 MHz Starnberg (DE) 0.00 km FOUND
P3421059 RS41 2020-09-09 17:46:22 48.1297 11.6319 129 ° 19 km/h 629 m -3.9 m/s 402.50 MHz München (DE) 0.00 km FOUND
D17002383 DFM 2020-09-09 13:50:36 48.0693 11.1125 51 ° 41 km/h 17375 m 4.2 m/s 402.010 MHz Fürstenfeldbruck (DE) 0.00 km UNKNOWN
DF636F8F DFM06 2020-09-09 13:50:25 48.0689 11.1111 78 ° 39 km/h 17298 m 4.1 m/s MHz Fürstenfeldbruck (DE) 0.00 km LOST
P3410388 RS41 2020-09-09 11:53:28 48.1717 11.0983 118 ° 9 km/h 753 m -4.4 m/s 402.50 MHz Fürstenfeldbruck (DE) 0.00 km FOUND
D17051882 DFM 2020-09-09 09:03:37 48.3037 10.5381 284 ° 7 km/h 649 m -4.1 m/s 402.506 MHz Neusäß (DE) 0.00 km FOUND
DF6430EA DFM06 2020-09-09 09:02:54 48.3034 10.5383 27 ° 7 km/h 819 m -3.8 m/s MHz Neusäß (DE) 0.00 km UNKNOWN
P3420876 RS41 2020-09-09 05:58:27 48.0969 10.6776 249 ° 2 km/h 841 m -4.7 m/s 402.50 MHz Landsberg am Lech (DE) 0.00 km UNKNOWN
P3410383 RS41 2020-09-08 17:42:10 47.7673 10.4702 208 ° 15 km/h 944 m -8.2 m/s 402.50 MHz Kempten (DE) 0.00 km UNKNOWN
P3410380 RS41 2020-09-08 12:01:34 47.5606 10.1541 247 ° 9 km/h 1023 m -3.5 m/s 402.50 MHz Sonthofen (DE) 0.00 km UNKNOWN
DF638103 DFM06 2020-09-08 08:59:10 47.2945 9.88891 313 ° 15 km/h 2101 m -4.8 m/s MHz Ludesch (AT) 0.00 km UNKNOWN
D17006851 DFM 2020-09-08 08:57:54 47.2937 9.8889 18 ° 20 km/h 2303 m -4.6 m/s 404.292 MHz Ludesch (AT) 0.00 km UNKNOWN
P3410390 RS41 2020-09-08 05:25:28 47.4661 10.4862 334 ° 7 km/h 1938 m -5.3 m/s 402.50 MHz Sonthofen (DE) 0.00 km UNKNOWN
P3410387 RS41 2020-09-07 17:29:47 47.5864 10.9925 261 ° 7 km/h 1649 m -5.2 m/s 402.50 MHz Garmisch-Partenkirchen (DE) 0.00 km UNKNOWN
P3421061 RS41 2020-09-07 11:55:13 47.9812 11.6034 252 ° 6 km/h 717 m -5.0 m/s 402.50 MHz Unterhaching (DE) 0.00 km FOUND
P3421057 RS41 2020-09-07 05:36:05 48.0725 11.7602 176 ° 6 km/h 650 m -4.9 m/s 402.50 MHz Vaterstetten (DE) 0.00 km FOUND
P3421136 RS41 2020-09-04 05:53:02 47.49 11.7517 89 ° 13 km/h 2033 m -4.5 m/s 402.50 MHz Achenkirch (AT) 0.00 km UNKNOWN
P3420362 RS41 2020-09-03 17:56:48 47.0843 11.5118 118 ° 30 km/h 3007 m -8.5 m/s 402.50 MHz Steinach am Brenner (AT) 0.00 km UNKNOWN
R3321144 RS41 2020-09-03 11:48:06 46.9657 11.2726 150 ° 39 km/h 3814 m -4.1 m/s 402.50 MHz Neustift im Stubaital (AT) 0.00 km UNKNOWN
DF637F8C DFM06 2020-09-03 08:25:30 46.7206 11.3563 157 ° 31 km/h 4397 m -2.8 m/s MHz Merano (IT) 0.00 km UNKNOWN
D17006476 DFM 2020-09-03 08:23:27 46.7297 11.3476 147 ° 30 km/h 4775 m -3.4 m/s 402.010 MHz Merano (IT) 0.00 km UNKNOWN
R3320720 RS41 2020-09-03 05:46:11 46.9016 11.3724 137 ° 41 km/h 3943 m -4.1 m/s 402.50 MHz Steinach am Brenner (AT) 0.00 km UNKNOWN
R3320948 RS41 2020-09-02 17:47:52 47.5772 11.3611 109 ° 6 km/h 1521 m -10.7 m/s 402.50 MHz Garmisch-Partenkirchen (DE) 0.00 km UNKNOWN
D17002457 DFM 2020-09-02 14:36:45 47.5788 11.4551 117 ° 17 km/h 2083 m -5.0 m/s 404.292 MHz Achenkirch (AT) 0.00 km UNKNOWN
DF636FD9 DFM06 2020-09-02 14:34:00 47.5844 11.4479 128 ° 19 km/h 2803 m -3.6 m/s MHz Achenkirch (AT) 0.00 km NEED ATTENTION
R3321135 RS41 2020-09-02 11:34:47 47.6961 11.097 201 ° 6 km/h 1284 m -8.8 m/s 402.50 MHz Weilheim in Oberbayern (DE) 0.00 km UNKNOWN
R3321118 RS41 2020-09-02 05:49:54 47.7354 11.1646 163 ° 4 km/h 1137 m -4.9 m/s 402.50 MHz Weilheim in Oberbayern (DE) 0.00 km UNKNOWN
R3321120 RS41 2020-09-01 17:48:21 47.7698 11.2908 121 ° 4 km/h 1005 m -8.3 m/s 402.50 MHz Weilheim in Oberbayern (DE) 0.00 km NEED ATTENTION
R3321122 RS41 2020-09-01 11:52:58 47.7714 11.1775 190 ° 6 km/h 1195 m -4.6 m/s 402.50 MHz Weilheim in Oberbayern (DE) 0.00 km FOUND
R3321143 RS41 2020-09-01 05:45:38 47.7303 11.0481 128 ° 15 km/h 1236 m -5.3 m/s 402.50 MHz Weilheim in Oberbayern (DE) 0.00 km UNKNOWN
R3320134 RS41 2020-08-31 18:23:11 48.3424 11.0314 224 ° 11 km/h 674 m -3.7 m/s 402.50 MHz Augsburg (DE) 0.00 km UNKNOWN
D17006756 DFM 2020-08-31 14:24:58 48.4848 11.2252 208 ° 11 km/h 1062 m -4.2 m/s 404.293 MHz Aichach (DE) 0.00 km FOUND
DF6380A4 DFM06 2020-08-31 14:16:37 48.4844 11.2205 18 ° 9 km/h 3505 m -5.2 m/s MHz Aichach (DE) 0.00 km FOUND
R2350459 RS41 2020-08-31 11:49:59 48.5451 11.4695 247 ° 7 km/h 650 m -4.7 m/s 402.50 MHz Pfaffenhofen an der Ilm (DE) 0.00 km FOUND
R2350488 RS41 2020-08-31 05:57:05 48.3793 11.8358 57 ° 13 km/h 540 m -5.8 m/s 402.50 MHz Freising (DE) 0.00 km FOUND
R3420801 RS41 2020-08-27 17:45:10 47.6799 12.7656 90 ° 17 km/h 1914 m -7.3 m/s 402.50 MHz Grossgmain (AT) 0.00 km UNKNOWN
D17002381 DFM 2020-08-27 13:49:13 47.7652 12.4235 79 ° 44 km/h 2555 m -13.6 m/s 402.009 MHz Kössen (AT) 0.00 km UNKNOWN
DF636F8D DFM06 2020-08-27 13:44:44 47.7629 12.3493 95 ° 109 km/h 6585 m -18.2 m/s MHz Kössen (AT) 0.00 km NEED ATTENTION
R2350267 RS41 2020-08-27 11:38:42 47.6777 12.3908 216 ° 2 km/h 1487 m -4.8 m/s 402.50 MHz Kössen (AT) 0.00 km UNKNOWN
D17052637 DFM 2020-08-27 08:18:14 47.3805 12.8196 108 ° 28 km/h 2182 m -4.8 m/s 402.507 MHz Maishofen (AT) 0.00 km UNKNOWN
DF6433DD DFM06 2020-08-27 08:07:04 47.3747 12.6991 79 ° 65 km/h 5265 m -5.0 m/s MHz Leogang (AT) 0.00 km UNKNOWN
R2350539 RS41 2020-08-27 05:43:52 47.3592 12.4106 88 ° 35 km/h 2545 m -11.9 m/s 402.50 MHz Kitzbühel (AT) 0.00 km UNKNOWN
R2350537 RS41 2020-08-26 17:50:21 47.4153 13.0856 142 ° 33 km/h 3002 m -5.7 m/s 402.50 MHz Bischofshofen (AT) 0.00 km UNKNOWN
R2341182 RS41 2020-08-26 12:07:47 47.6109 13.4835 111 ° 31 km/h 1987 m -6.1 m/s 402.50 MHz Bad Goisern (AT) 0.00 km UNKNOWN
R2350554 RS41 2020-08-26 06:09:58 47.7081 13.2793 107 ° 13 km/h 1389 m -4.3 m/s 402.50 MHz Faistenau (AT) 0.00 km UNKNOWN
R2331431 RS41 2020-08-25 17:47:53 47.3742 12.6239 75 ° 19 km/h 2291 m -6.5 m/s 402.50 MHz Niedernsill (AT) 0.00 km UNKNOWN
D17006844 DFM 2020-08-25 13:35:38 47.4704 12.0522 77 ° 31 km/h 2760 m -14.0 m/s 402.009 MHz Wörgl (AT) 0.00 km UNKNOWN
DF6380FC DFM06 2020-08-25 13:28:18 47.4983 11.9476 117 ° 107 km/h 10028 m -20.1 m/s MHz Breitenbach am Inn (AT) 0.00 km UNKNOWN
R2340547 RS41 2020-08-25 12:41:18 47.41 12.3871 71 ° 7 km/h 2291 m -6.6 m/s 404.30 MHz Kitzbühel (AT) 0.00 km UNKNOWN
R2341162 RS41 2020-08-25 10:54:36 47.4286 12.0972 92 ° 41 km/h 2625 m -6.1 m/s 402.50 MHz Hopfgarten im Brixental (AT) 0.00 km UNKNOWN
D17007921 DFM 2020-08-25 08:16:33 47.2363 12.1114 86 ° 35 km/h 3061 m -14.3 m/s 402.507 MHz Neukirchen am Großvenediger (AT) 0.00 km UNKNOWN
DF638531 DFM06 2020-08-25 08:14:43 47.2379 12.0979 124 ° 48 km/h 4761 m -16.0 m/s MHz Neukirchen am Großvenediger (AT) 0.00 km UNKNOWN
R2350555 RS41 2020-08-25 05:29:14 47.1831 12.0818 108 ° 19 km/h 3156 m -7.0 m/s 402.50 MHz Neukirchen am Großvenediger (AT) 0.00 km UNKNOWN
R2350557 RS41 2020-08-24 17:34:56 48.039 11.953 100 ° 7 km/h 951 m -6.6 m/s 402.50 MHz Vaterstetten (DE) 0.00 km UNKNOWN
R2350580 RS41 2020-08-24 11:57:50 48.2201 11.9375 123 ° 2 km/h 628 m -9.0 m/s 402.50 MHz Erding (DE) 0.00 km FOUND
D17005947 DFM 2020-08-24 09:06:21 48.2751 12.2856 21 ° 7 km/h 788 m -3.9 m/s 402.508 MHz Waldkraiburg (DE) 0.00 km FOUND
DF637D7B DFM06 2020-08-24 08:49:54 48.2574 12.1962 68 ° 37 km/h 4597 m -4.2 m/s MHz Waldkraiburg (DE) 0.00 km FOUND
R2350579 RS41 2020-08-24 05:57:01 47.9944 12.027 184 ° 7 km/h 817 m -3.8 m/s 402.50 MHz Rosenheim (DE) 0.00 km FOUND
R2350535 RS41 2020-08-21 05:46:26 47.9692 11.4438 45 ° 13 km/h 802 m -6.7 m/s 402.50 MHz Starnberg (DE) 0.00 km FOUND
R2350102 RS41 2020-08-20 17:42:25 47.8545 11.4646 271 ° 20 km/h 861 m -6.1 m/s 402.50 MHz Geretsried (DE) 0.00 km NEED ATTENTION
R2350100 RS41 2020-08-20 11:49:43 47.753 11.3754 74 ° 9 km/h 1078 m -5.2 m/s 402.50 MHz Geretsried (DE) 0.00 km FOUND
R2350556 RS41 2020-08-20 05:55:53 47.4567 11.4681 48 ° 11 km/h 1861 m -4.3 m/s 402.50 MHz Thaur (AT) 0.00 km UNKNOWN
R2350360 RS41 2020-08-19 17:40:21 47.2714 11.9471 87 ° 17 km/h 2717 m -4.5 m/s 402.50 MHz Fügen (AT) 0.00 km UNKNOWN
R2350105 RS41 2020-08-19 11:43:57 47.1217 11.8539 74 ° 20 km/h 3314 m -8.3 m/s 402.50 MHz Mayrhofen (AT) 0.00 km UNKNOWN
R2350103 RS41 2020-08-19 06:07:14 46.9762 11.9959 127 ° 26 km/h 3843 m -4.3 m/s 402.50 MHz Brunico (IT) 0.00 km UNKNOWN
R2350099 RS41 2020-08-18 18:07:53 47.7633 11.9256 71 ° 19 km/h 1034 m -5.3 m/s 402.50 MHz Rosenheim (DE) 0.00 km FOUND
R2350097 RS41 2020-08-18 11:55:59 48.0573 11.5007 64 ° 19 km/h 685 m -3.2 m/s 402.50 MHz Unterhaching (DE) 0.00 km FOUND
R2350106 RS41 2020-08-18 05:45:59 48.0054 11.5489 53 ° 20 km/h 739 m -5.2 m/s 402.50 MHz Unterhaching (DE) 0.00 km FOUND
R2350101 RS41 2020-08-17 18:01:02 48.1865 11.5448 231 ° 4 km/h 550 m -1.8 m/s 402.50 MHz München (DE) 0.00 km FOUND
R2350426 RS41 2020-08-17 11:36:21 48.2545 11.2213 80 ° 9 km/h 641 m -4.4 m/s 402.50 MHz Fürstenfeldbruck (DE) 0.00 km FOUND
P3421002 RS41 2020-08-17 04:56:41 48.0066 11.1551 120 ° 33 km/h 1147 m -7.1 m/s 402.50 MHz Starnberg (DE) 0.00 km FOUND
P3421001 RS41 2020-08-14 05:46:52 47.8914 11.0802 80 ° 26 km/h 921 m -6.9 m/s 402.50 MHz Weilheim in Oberbayern (DE) 0.00 km UNKNOWN
P3420999 RS41 2020-08-13 17:43:51 48.0027 11.1335 77 ° 13 km/h 856 m -4.7 m/s 402.50 MHz Starnberg (DE) 0.00 km UNKNOWN
P3421010 RS41 2020-08-13 11:17:09 48.0612 10.9867 114 ° 33 km/h 834 m -10.6 m/s 402.50 MHz Landsberg am Lech (DE) 0.00 km UNKNOWN
D17051415 DFM 2020-08-13 08:54:09 48.1184 11.1113 32 ° 20 km/h 774 m -3.8 m/s 402.507 MHz Fürstenfeldbruck (DE) 0.00 km FOUND
DF642F17 DFM06 2020-08-13 08:51:00 48.1138 11.0951 67 ° 28 km/h 1397 m -3.5 m/s MHz Fürstenfeldbruck (DE) 0.00 km UNKNOWN
P3420998 RS41 2020-08-13 06:04:32 47.9609 11.1851 86 ° 6 km/h 840 m -3.9 m/s 402.50 MHz Starnberg (DE) 0.00 km UNKNOWN
P3421005 RS41 2020-08-12 17:51:39 47.6627 11.3926 48 ° 2 km/h 1187 m -4.7 m/s 402.50 MHz Geretsried (DE) 0.00 km FOUND
D18052891 DFM 2020-08-12 12:55:43 47.5127 11.0808 168 ° 2 km/h 2142 m -12.5 m/s 402.011 MHz Garmisch-Partenkirchen (DE) 0.00 km FOUND
P3410306 RS41 2020-08-12 11:46:07 47.6552 11.1564 92 ° 13 km/h 2314 m -7.3 m/s 404.30 MHz Garmisch-Partenkirchen (DE) 0.00 km NEED ATTENTION
DF637744 DFM06 2020-08-12 08:54:35 47.4408 11.2975 348 ° 6 km/h 2218 m -12.6 m/s MHz Leutasch (AT) 0.00 km UNKNOWN
D17047337 DFM 2020-08-12 08:53:41 47.5817 11.3617 53 ° 7 km/h 1520 m -3.3 m/s 402.506 MHz Garmisch-Partenkirchen (DE) 0.00 km UNKNOWN
D18052932 DFM 2020-08-12 08:52:47 47.4417 11.2945 132 ° 11 km/h 3647 m -13.1 m/s 402.012 MHz Leutasch (AT) 0.00 km UNKNOWN
DF641F29 DFM06 2020-08-12 08:50:55 47.5812 11.3568 82 ° 13 km/h 2123 m -3.4 m/s MHz Garmisch-Partenkirchen (DE) 0.00 km UNKNOWN
P3410301 RS41 2020-08-12 05:56:13 47.6238 11.2396 40 ° 7 km/h 1292 m -7.1 m/s 402.50 MHz Garmisch-Partenkirchen (DE) 0.00 km UNKNOWN
P3420997 RS41 2020-08-11 17:38:18 47.6483 11.405 169 ° 4 km/h 1539 m -5.1 m/s 402.50 MHz Geretsried (DE) 0.00 km UNKNOWN
DF67ABAC DFM06 2020-08-11 13:37:08 47.7065 11.1511 163 ° 11 km/h 1709 m -15.2 m/s MHz Weilheim in Oberbayern (DE) 0.00 km UNKNOWN
D502700 DFM 2020-08-11 13:35:57 47.7075 11.1477 98 ° 17 km/h 2754 m -14.9 m/s 402.011 MHz Weilheim in Oberbayern (DE) 0.00 km UNKNOWN
P3421013 RS41 2020-08-11 11:32:45 47.6773 11.1686 229 ° 6 km/h 1406 m -11.6 m/s 402.50 MHz Weilheim in Oberbayern (DE) 0.00 km UNKNOWN
DF67AC9A DFM06 2020-08-11 08:15:48 47.6649 11.0647 120 ° 6 km/h 1560 m -12.3 m/s MHz Garmisch-Partenkirchen (DE) 0.00 km UNKNOWN
D502938 DFM 2020-08-11 08:15:27 47.6649 11.0644 2 ° 6 km/h 1849 m -12.9 m/s 402.009 MHz Garmisch-Partenkirchen (DE) 0.00 km UNKNOWN
P3410170 RS41 2020-08-11 05:25:15 47.6626 11.1479 86 ° 7 km/h 1177 m -15.5 m/s 402.50 MHz Garmisch-Partenkirchen (DE) 0.00 km FOUND
P3410024 RS41 2020-08-10 17:41:44 47.7493 11.2075 203 ° 13 km/h 1116 m -5.2 m/s 402.50 MHz Weilheim in Oberbayern (DE) 0.00 km FOUND
D502597 DFM 2020-08-10 13:15:30 47.932 11.2188 140 ° 6 km/h 1602 m -13.6 m/s 402.009 MHz Weilheim in Oberbayern (DE) 0.00 km NEED ATTENTION
DF67AB45 DFM06 2020-08-10 13:14:47 47.9317 11.2174 80 ° 24 km/h 2115 m -12.9 m/s MHz Weilheim in Oberbayern (DE) 0.00 km NEED ATTENTION
P3421007 RS41 2020-08-10 11:23:53 47.8771 11.1122 239 ° 13 km/h 1039 m -7.0 m/s 402.50 MHz Weilheim in Oberbayern (DE) 0.00 km FOUND
D17006613 DFM 2020-08-10 08:43:07 47.894 11.2665 169 ° 6 km/h 975 m -3.6 m/s 402.507 MHz Weilheim in Oberbayern (DE) 0.00 km UNKNOWN
DF638015 DFM06 2020-08-10 08:42:38 47.8942 11.2665 51 ° 6 km/h 1113 m -3.7 m/s MHz Weilheim in Oberbayern (DE) 0.00 km UNKNOWN
D502630 DFM 2020-08-10 08:05:23 48.0659 11.0521 266 ° 6 km/h 941 m -10.9 m/s 402.009 MHz Landsberg am Lech (DE) 0.00 km FOUND
DF67AB66 DFM06 2020-08-10 08:04:30 48.064 11.055 22 ° 9 km/h 1947 m -11.2 m/s MHz Landsberg am Lech (DE) 0.00 km UNKNOWN
P3421003 RS41 2020-08-10 05:42:11 47.8347 11.043 91 ° 9 km/h 888 m -3.8 m/s 402.50 MHz Weilheim in Oberbayern (DE) 0.00 km FOUND
DF637F74 DFM06 2020-08-07 09:08:50 47.2772 10.5739 255 ° 6 km/h 2428 m -4.3 m/s MHz Imst (AT) 0.00 km UNKNOWN
D17006452 DFM 2020-08-07 09:08:42 47.2773 10.574 244 ° 6 km/h 2468 m -4.2 m/s 402.508 MHz Imst (AT) 0.00 km UNKNOWN
D502549 DFM 2020-08-07 07:21:28 47.5036 10.64 187 ° 57 km/h 5641 m -7.7 m/s 402.010 MHz Reutte (AT) 0.00 km UNKNOWN
DF67AB15 DFM06 2020-08-07 07:21:23 47.5041 10.6398 199 ° 13 km/h 5631 m -9.4 m/s MHz Reutte (AT) 0.00 km UNKNOWN
P3421014 RS41 2020-08-07 05:48:41 47.3758 10.4876 297 ° 17 km/h 2362 m -5.1 m/s 402.50 MHz Reutte (AT) 0.00 km UNKNOWN
P3421019 RS41 2020-08-06 17:48:02 47.6507 10.6416 231 ° 15 km/h 944 m -5.4 m/s 402.50 MHz Reutte (AT) 0.00 km UNKNOWN
DF67AB70 DFM06 2020-08-06 14:08:57 47.4937 10.763 54 ° 7 km/h 1407 m -12.5 m/s MHz Reutte (AT) 0.00 km UNKNOWN
D502640 DFM 2020-08-06 14:08:26 47.4938 10.7634 233 ° 7 km/h 1802 m -13.2 m/s 402.009 MHz Reutte (AT) 0.00 km UNKNOWN
P3421006 RS41 2020-08-06 11:09:50 47.6562 10.7984 210 ° 17 km/h 975 m -6.5 m/s 402.50 MHz Reutte (AT) 0.00 km UNKNOWN
D17052471 DFM09 2020-08-06 08:24:58 47.5864 10.8048 227 ° 24 km/h 4185 m -4.3 m/s 402.048 MHz Reutte (AT) 0.00 km UNKNOWN
P3421008 RS41 2020-08-06 05:25:48 47.5534 10.8319 233 ° 4 km/h 1836 m -3.9 m/s 402.50 MHz Reutte (AT) 0.00 km UNKNOWN
P3420896 RS41 2020-08-05 17:37:08 47.412 10.6865 56 ° 6 km/h 1638 m -5.2 m/s 402.50 MHz Reutte (AT) 0.00 km UNKNOWN
R3330640 RS41 2020-08-05 11:40:30 47.4339 10.3973 327 ° 11 km/h 2036 m -5.5 m/s 402.50 MHz Sonthofen (DE) 0.00 km UNKNOWN
DF67AB68 DFM06 2020-08-05 11:06:12 47.8725 10.7011 250 ° 26 km/h 888 m -11.4 m/s MHz Kaufbeuren (DE) 0.00 km UNKNOWN
D502632 DFM 2020-08-05 11:05:37 47.8732 10.7044 261 ° 26 km/h 1338 m -9.8 m/s 402.011 MHz Kaufbeuren (DE) 0.00 km UNKNOWN
D502343 DFM 2020-08-05 07:05:37 47.1772 10.2249 282 ° 11 km/h 2707 m -11.0 m/s 402.012 MHz Sankt Anton am Arlberg (AT) 0.00 km UNKNOWN
DF67AA47 DFM06 2020-08-05 07:05:03 47.1774 10.2285 260 ° 28 km/h 3090 m -11.6 m/s MHz Sankt Anton am Arlberg (AT) 0.00 km UNKNOWN
R3330634 RS41 2020-08-05 05:33:02 47.2477 10.3117 295 ° 31 km/h 2512 m -8.3 m/s 402.50 MHz Mittelberg (AT) 0.00 km UNKNOWN
R3330633 RS41 2020-08-04 17:45:35 47.2638 10.7445 195 ° 20 km/h 2594 m -5.8 m/s 402.50 MHz Tarrenz (AT) 0.00 km UNKNOWN
R3330642 RS41 2020-08-04 11:39:44 47.6686 10.6575 46 ° 2 km/h 901 m -8.7 m/s 402.50 MHz Reutte (AT) 0.00 km FOUND
R3330986 RS41 2020-08-04 06:04:56 47.9689 10.5527 184 ° 24 km/h 857 m -5.2 m/s 402.50 MHz Kaufbeuren (DE) 0.00 km FOUND
R3330985 RS41 2020-08-03 18:18:08 48.5696 11.324 139 ° 28 km/h 584 m -6.7 m/s 402.50 MHz Pfaffenhofen an der Ilm (DE) 0.00 km UNKNOWN
P3350708 RS41 2020-08-03 11:37:53 48.343 11.5328 159 ° 11 km/h 565 m -5.2 m/s 402.50 MHz Unterschleißheim (DE) 0.00 km FOUND
D502705 DFM 2020-08-03 07:21:18 48.3154 11.4881 132 ° 19 km/h 3037 m -14.8 m/s 402.010 MHz Unterschleißheim (DE) 0.00 km UNKNOWN
DF67ABB1 DFM06 2020-08-03 07:19:36 48.3159 11.4812 70 ° 17 km/h 4570 m -14.8 m/s MHz Dachau (DE) 0.00 km UNKNOWN
P3350707 RS41 2020-08-03 05:42:17 48.356 11.5591 124 ° 13 km/h 562 m -4.4 m/s 402.50 MHz Unterschleißheim (DE) 0.00 km UNKNOWN
P3350676 RS41 2020-07-31 05:38:00 47.6196 11.262 56 ° 2 km/h 1281 m -6.6 m/s 402.50 MHz Garmisch-Partenkirchen (DE) 0.00 km UNKNOWN
P3421009 RS41 2020-07-30 18:00:38 47.7609 11.9987 228 ° 9 km/h 1152 m -3.7 m/s 402.50 MHz Rosenheim (DE) 0.00 km UNKNOWN
P3421016 RS41 2020-07-30 12:10:14 47.797 12.0664 182 ° 15 km/h 1215 m -4.8 m/s 402.50 MHz Rosenheim (DE) 0.00 km UNKNOWN
D17007082 DFM 2020-07-30 08:30:44 47.7978 11.9731 241 ° 9 km/h 1032 m -3.6 m/s 402.507 MHz Rosenheim (DE) 0.00 km UNKNOWN
DF6381EA DFM06 2020-07-30 08:15:04 47.8 11.8781 103 ° 30 km/h 4567 m -5.6 m/s MHz Rosenheim (DE) 0.00 km UNKNOWN
P3421000 RS41 2020-07-30 05:38:58 47.749 12.1475 222 ° 2 km/h 1075 m -4.7 m/s 402.50 MHz Niederndorf (AT) 0.00 km UNKNOWN
R3330632 RS41 2020-07-29 17:47:50 47.7903 12.36 97 ° 6 km/h 1055 m -4.9 m/s 402.50 MHz Kössen (AT) 0.00 km UNKNOWN
D17002420 DFM 2020-07-29 13:46:46 47.828 11.8114 107 ° 28 km/h 1837 m -12.9 m/s 402.506 MHz Rosenheim (DE) 0.00 km UNKNOWN
DF636FB4 DFM06 2020-07-29 13:41:01 47.8203 11.7364 97 ° 81 km/h 6774 m -16.7 m/s MHz Geretsried (DE) 0.00 km UNKNOWN
R3330631 RS41 2020-07-29 12:10:20 47.8433 12.5702 355 ° 2 km/h 951 m -4.9 m/s 402.50 MHz Traunreut (DE) 0.00 km UNKNOWN
D17051754 DFM 2020-07-29 08:53:24 47.7976 12.845 156 ° 13 km/h 1109 m -4.3 m/s 402.506 MHz Grossgmain (AT) 0.00 km UNKNOWN
DF64306A DFM06 2020-07-29 08:38:12 47.7827 12.6768 86 ° 76 km/h 5784 m -4.9 m/s MHz Grossgmain (AT) 0.00 km UNKNOWN
R3330996 RS41 2020-07-29 05:41:43 47.7826 12.4505 95 ° 4 km/h 968 m -8.3 m/s 402.50 MHz Kössen (AT) 0.00 km UNKNOWN
R3330987 RS41 2020-07-28 17:49:24 48.0118 12.3692 72 ° 19 km/h 762 m -9.6 m/s 404.30 MHz Traunreut (DE) 0.00 km UNKNOWN
R3330990 RS41 2020-07-28 11:51:13 47.9565 12.2118 42 ° 4 km/h 999 m -10.7 m/s 402.50 MHz Rosenheim (DE) 0.00 km UNKNOWN
D17006588 DFM 2020-07-28 08:45:10 47.8419 12.4526 56 ° 22 km/h 786 m -4.8 m/s 402.506 MHz Traunreut (DE) 0.00 km UNKNOWN
DF637FFC DFM06 2020-07-28 08:35:56 47.8389 12.3568 83 ° 56 km/h 5186 m -8.9 m/s MHz Rosenheim (DE) 0.00 km UNKNOWN
R3330476 RS41 2020-07-28 05:48:34 47.7354 12.1209 83 ° 24 km/h 1026 m -5.5 m/s 402.50 MHz Niederndorf (AT) 0.00 km UNKNOWN
R3330644 RS41 2020-07-27 17:25:53 47.6322 11.9773 59 ° 6 km/h 1652 m -7.9 m/s 402.50 MHz Kirchbichl (AT) 0.00 km UNKNOWN
R3330989 RS41 2020-07-27 11:41:49 47.5228 12.2582 250 ° 4 km/h 1943 m -5.5 m/s 402.50 MHz Ellmau (AT) 0.00 km UNKNOWN
D17006029 DFM 2020-07-27 07:59:59 47.5621 11.7857 68 ° 19 km/h 2366 m -12.9 m/s 402.009 MHz Achenkirch (AT) 0.00 km UNKNOWN
DF637DCD DFM06 2020-07-27 07:56:18 47.5636 11.7563 113 ° 56 km/h 5526 m -15.7 m/s MHz Achenkirch (AT) 0.00 km UNKNOWN
P3421018 RS41 2020-07-27 05:52:12 47.268 12.2708 78 ° 33 km/h 2955 m -3.9 m/s 402.50 MHz Neukirchen am Großvenediger (AT) 0.00 km UNKNOWN
DF641C66 DFM06 2020-07-24 08:22:59 48.1875 12.2978 106 ° 13 km/h 4969 m -5.9 m/s MHz Waldkraiburg (DE) 0.00 km UNKNOWN
P3340762 RS41 2020-07-24 05:44:22 47.997 11.9828 81 ° 22 km/h 742 m -8.4 m/s 402.50 MHz Rosenheim (DE) 0.00 km UNKNOWN
P3340797 RS41 2020-07-23 17:30:06 47.8964 11.9585 81 ° 6 km/h 1191 m -5.3 m/s 402.50 MHz Rosenheim (DE) 0.00 km UNKNOWN
P3410174 RS41 2020-07-23 12:18:27 47.7605 12.444 76 ° 31 km/h 2467 m -3.8 m/s 402.50 MHz Kössen (AT) 0.00 km UNKNOWN
P3410623 RS41 2020-07-23 09:29:43 47.7336 12.4775 116 ° 13 km/h 1668 m -4.2 m/s 402.50 MHz Kössen (AT) 0.00 km UNKNOWN
D17006808 DFM 2020-07-23 08:57:09 47.7194 12.6558 107 ° 22 km/h 1516 m -3.9 m/s 402.010 MHz Grossgmain (AT) 0.00 km UNKNOWN
DF6380D8 DFM06 2020-07-23 08:38:03 47.7415 12.4812 100 ° 72 km/h 7547 m -5.3 m/s MHz Kössen (AT) 0.00 km UNKNOWN
P3421017 RS41 2020-07-23 06:17:17 47.6797 12.5997 77 ° 33 km/h 1574 m -2.9 m/s 402.50 MHz Kössen (AT) 0.00 km UNKNOWN
P3421015 RS41 2020-07-22 17:39:17 47.9429 12.3828 176 ° 9 km/h 861 m -2.1 m/s 402.50 MHz Traunreut (DE) 0.00 km UNKNOWN
P3340793 RS41 2020-07-22 11:53:07 47.9199 12.0056 9 ° 4 km/h 1095 m -5.7 m/s 402.50 MHz Rosenheim (DE) 0.00 km UNKNOWN
P3340738 RS41 2020-07-22 05:45:05 47.903 12.01 106 ° 7 km/h 854 m -5.3 m/s 402.50 MHz Rosenheim (DE) 0.00 km UNKNOWN
P3420521 RS41 2020-07-21 18:22:26 47.8695 12.6818 105 ° 13 km/h 761 m -4.7 m/s 402.50 MHz Traunreut (DE) 0.00 km UNKNOWN
P3410357 RS41 2020-07-21 14:58:18 47.8607 12.4375 116 ° 11 km/h 1002 m -5.4 m/s 402.50 MHz Traunreut (DE) 0.00 km UNKNOWN
D504142 DFM 2020-07-21 13:45:48 47.8205 11.7564 77 ° 20 km/h 1054 m -13.0 m/s 402.010 MHz Geretsried (DE) 0.00 km UNKNOWN
DF67B14E DFM06 2020-07-21 13:43:35 47.818 11.7432 75 ° 43 km/h 2568 m -10.1 m/s MHz Geretsried (DE) 0.00 km UNKNOWN
P3340798 RS41 2020-07-21 11:43:01 47.8243 12.2632 108 ° 17 km/h 1044 m -10.6 m/s 402.50 MHz Rosenheim (DE) 0.00 km UNKNOWN
P3350255 RS41 2020-07-21 05:52:50 47.757 12.6053 85 ° 6 km/h 1294 m -4.3 m/s 402.50 MHz Kössen (AT) 0.00 km UNKNOWN
P3340796 RS41 2020-07-20 17:33:50 47.7833 12.0043 129 ° 13 km/h 1074 m -5.0 m/s 402.50 MHz Rosenheim (DE) 0.00 km UNKNOWN
P3410349 RS41 2020-07-20 11:12:40 47.8404 11.9331 94 ° 13 km/h 1623 m -10.1 m/s 402.50 MHz Rosenheim (DE) 0.00 km UNKNOWN
DF63809E DFM06 2020-07-20 07:34:50 47.7714 11.3138 117 ° 22 km/h 4282 m -14.3 m/s MHz Weilheim in Oberbayern (DE) 0.00 km UNKNOWN
D17006750 DFM 2020-07-20 07:34:20 47.7734 11.3092 116 ° 31 km/h 5177 m -14.8 m/s 402.009 MHz Weilheim in Oberbayern (DE) 0.00 km UNKNOWN
P3350351 RS41 2020-07-20 05:59:29 47.6804 11.6528 86 ° 11 km/h 1608 m -3.4 m/s 402.50 MHz Achenkirch (AT) 0.00 km UNKNOWN
P3350313 RS41 2020-07-17 05:49:45 46.9381 11.0436 144 ° 69 km/h 3737 m -4.5 m/s 402.50 MHz Sölden (AT) 0.00 km UNKNOWN
P3350354 RS41 2020-07-16 17:28:50 47.3734 12.0413 104 ° 26 km/h 2213 m -5.1 m/s 402.50 MHz Alpbach (AT) 0.00 km UNKNOWN
P3350295 RS41 2020-07-16 12:56:31 47.2818 12.0064 103 ° 39 km/h 3224 m -5.5 m/s 404.30 MHz Alpbach (AT) 0.00 km UNKNOWN
P3350094 RS41 2020-07-16 11:47:04 47.3684 11.6139 120 ° 9 km/h 2546 m -6.1 m/s 402.50 MHz Terfens (AT) 0.00 km UNKNOWN
D17002371 DFM 2020-07-16 08:40:21 47.272 11.8465 99 ° 28 km/h 2633 m -5.0 m/s 402.506 MHz Fügen (AT) 0.00 km UNKNOWN
DF636F83 DFM06 2020-07-16 08:40:02 47.2723 11.8451 104 ° 19 km/h 2716 m -5.4 m/s MHz Fügen (AT) 0.00 km UNKNOWN
P3350050 RS41 2020-07-16 05:21:57 47.2878 11.6382 350 ° 13 km/h 1104 m -4.3 m/s 402.50 MHz Wattens (AT) 0.00 km UNKNOWN
P3350194 RS41 2020-07-15 16:04:04 47.7182 11.6171 89 ° 33 km/h 1752 m -5.1 m/s 402.50 MHz Geretsried (DE) 0.00 km UNKNOWN
R2341221 RS41 2020-07-15 11:49:49 47.8411 11.4547 190 ° 9 km/h 1475 m -4.4 m/s 402.50 MHz Geretsried (DE) 0.00 km UNKNOWN
D17047340 DFM 2020-07-15 08:16:36 47.7899 11.4996 75 ° 22 km/h 1677 m -1.7 m/s 402.505 MHz Geretsried (DE) 0.00 km UNKNOWN
DF641F2C DFM06 2020-07-15 08:10:56 47.7846 11.4609 90 ° 35 km/h 2983 m -0.5 m/s MHz Geretsried (DE) 0.00 km UNKNOWN
P3421066 RS41 2020-07-15 05:50:32 47.8323 11.3967 99 ° 28 km/h 1254 m -4.1 m/s 402.50 MHz Geretsried (DE) 0.00 km UNKNOWN
P3421053 RS41 2020-07-14 17:59:02 47.9095 11.3967 113 ° 7 km/h 1237 m -4.2 m/s 402.50 MHz Geretsried (DE) 0.00 km UNKNOWN
P3420355 RS41 2020-07-14 14:28:00 47.9216 11.318 187 ° 11 km/h 1023 m -6.1 m/s 402.50 MHz Starnberg (DE) 0.00 km LOST
P3420354 RS41 2020-07-14 11:27:53 47.8867 11.3647 168 ° 13 km/h 1141 m -6.6 m/s 402.50 MHz Geretsried (DE) 0.00 km UNKNOWN
D17046776 DFM 2020-07-14 10:25:53 47.7076 11.065 181 ° 4 km/h 1452 m -11.6 m/s 403.506 MHz Weilheim in Oberbayern (DE) 0.00 km UNKNOWN
DF641CF8 DFM06 2020-07-14 10:25:23 47.7079 11.0649 128 ° 13 km/h 1811 m -12.0 m/s MHz Weilheim in Oberbayern (DE) 0.00 km UNKNOWN
DF641D28 DFM06 2020-07-14 08:51:05 47.8713 11.4474 98 ° 4 km/h 678 m -1.9 m/s MHz Geretsried (DE) 0.00 km UNKNOWN
D17046824 DFM 2020-07-14 08:48:35 47.8713 11.449 23 ° 6 km/h 1185 m -3.2 m/s 402.507 MHz Geretsried (DE) 0.00 km UNKNOWN
D17046582 DFM 2020-07-14 07:05:23 48.0156 11.2722 268 ° 15 km/h 1205 m -13.5 m/s 404.110 MHz Starnberg (DE) 0.00 km FOUND
P3420409 RS41 2020-07-14 05:47:10 47.8254 11.3399 65 ° 7 km/h 852 m -3.6 m/s 402.50 MHz Geretsried (DE) 0.00 km UNKNOWN
P3350660 RS41 2020-07-13 17:49:23 47.7589 11.2671 228 ° 11 km/h 1213 m -5.3 m/s 402.50 MHz Weilheim in Oberbayern (DE) 0.00 km FOUND
P3420410 RS41 2020-07-13 12:06:55 47.7144 11.3326 191 ° 4 km/h 1425 m -3.8 m/s 402.50 MHz Geretsried (DE) 0.00 km NEED ATTENTION
D17047475 DFM 2020-07-13 11:41:39 47.63 11.1643 89 ° 24 km/h 2822 m -12.7 m/s 402.249 MHz Garmisch-Partenkirchen (DE) 0.00 km LOST
D502188 DFM 2020-07-13 08:34:54 47.6527 11.5359 0 ° 0 km/h 16312 m 0.0 m/s 402.249 MHz Achenkirch (AT) 0.00 km UNKNOWN
DF67A9AC DFM06 2020-07-13 08:34:16 47.6527 11.5359 1 ° 69 km/h 16312 m 0.0 m/s MHz Achenkirch (AT) 0.00 km UNKNOWN
P3350658 RS41 2020-07-13 05:42:00 47.6205 11.4666 245 ° 7 km/h 1529 m -6.7 m/s 402.50 MHz Achenkirch (AT) 0.00 km UNKNOWN
P3420414 RS41 2020-07-10 08:45:31 48.0835 11.8624 288 ° 6 km/h 854 m -1.8 m/s 402.50 MHz Vaterstetten (DE) 0.00 km FOUND
P3420434 RS41 2020-07-10 05:35:31 47.9879 11.8799 61 ° 22 km/h 879 m -6.9 m/s 402.50 MHz Vaterstetten (DE) 0.00 km FOUND
P3350659 RS41 2020-07-09 17:51:40 47.7534 12.1429 124 ° 7 km/h 1193 m -3.8 m/s 402.50 MHz Rosenheim (DE) 0.00 km UNKNOWN
D503753 DFM09 2020-07-09 12:49:42 47.8623 11.3569 97 ° 52 km/h 4095 m -14.1 m/s 404.051 MHz Geretsried (DE) 0.00 km FOUND
P3420413 RS41 2020-07-09 12:28:22 47.8538 12.4028 164 ° 6 km/h 913 m -5.4 m/s 402.50 MHz Traunreut (DE) 0.00 km UNKNOWN
P3420412 RS41 2020-07-09 06:13:58 47.6961 12.0666 63 ° 13 km/h 1308 m -4.3 m/s 402.50 MHz Niederndorf (AT) 0.00 km UNKNOWN
P3420411 RS41 2020-07-08 17:36:22 47.6086 12.3791 124 ° 22 km/h 1967 m -5.3 m/s 402.50 MHz Kössen (AT) 0.00 km UNKNOWN
P3421158 RS41 2020-07-08 11:35:41 47.6789 12.0977 167 ° 7 km/h 1430 m -7.4 m/s 402.50 MHz Niederndorf (AT) 0.00 km UNKNOWN
DF641E11 DFM06 2020-07-08 08:29:55 47.5299 12.5339 186 ° 6 km/h 2023 m -3.3 m/s MHz Fieberbrunn (AT) 0.00 km UNKNOWN
D17047057 DFM 2020-07-08 08:29:25 47.5302 12.5329 98 ° 19 km/h 2142 m -4.8 m/s 402.506 MHz Kirchdorf in Tirol (AT) 0.00 km UNKNOWN
P3421157 RS41 2020-07-08 05:48:10 47.5784 12.3824 124 ° 35 km/h 2110 m -4.9 m/s 402.50 MHz Kirchdorf in Tirol (AT) 0.00 km UNKNOWN
P3421131 RS41 2020-07-07 17:55:46 47.3727 12.1567 34 ° 11 km/h 2550 m -4.1 m/s 402.50 MHz Westendorf (AT) 0.00 km UNKNOWN
P3421129 RS41 2020-07-07 13:59:26 47.4369 11.6937 88 ° 15 km/h 2707 m -11.1 m/s 404.30 MHz Eben am Achensee (AT) 0.00 km UNKNOWN
DF642C85 DFM 2020-07-07 13:57:04 47.44 11.6791 118 ° 35 km/h 4027 m -10.2 m/s MHz Eben am Achensee (AT) 0.00 km UNKNOWN
D19014023 DFM 2020-07-07 13:47:32 47.4805 11.5981 17 ° 4 km/h 2350 m -15.0 m/s 402.508 MHz Achenkirch (AT) 0.00 km UNKNOWN
P3350657 RS41 2020-07-07 11:35:24 47.3536 11.9438 2 ° 6 km/h 2243 m -8.0 m/s 402.50 MHz Alpbach (AT) 0.00 km UNKNOWN
D17006914 DFM 2020-07-07 08:15:08 47.1279 12.259 155 ° 39 km/h 3509 m -3.3 m/s 404.309 MHz Neukirchen am Großvenediger (AT) 0.00 km UNKNOWN
DF638142 DFM06 2020-07-07 08:12:24 47.1432 12.2482 147 ° 50 km/h 4298 m -6.9 m/s MHz Neukirchen am Großvenediger (AT) 0.00 km UNKNOWN
P3421134 RS41 2020-07-07 05:44:48 47.1321 12.2076 153 ° 43 km/h 3410 m -5.3 m/s 402.50 MHz Neukirchen am Großvenediger (AT) 0.00 km UNKNOWN
P3421133 RS41 2020-07-06 17:52:54 48.0375 12.992 67 ° 30 km/h 681 m -5.4 m/s 402.50 MHz Eggelsberg (AT) 0.00 km UNKNOWN
P3421140 RS41 2020-07-06 11:59:12 48.1999 12.5467 109 ° 31 km/h 622 m -9.8 m/s 402.50 MHz Waldkraiburg (DE) 0.00 km FOUND
P3420359 RS41 2020-07-06 05:52:34 48.0897 12.1297 77 ° 44 km/h 854 m -5.3 m/s 402.50 MHz Waldkraiburg (DE) 0.00 km FOUND
P3420357 RS41 2020-07-03 05:48:23 48.2382 12.228 126 ° 30 km/h 749 m -4.0 m/s 402.50 MHz Waldkraiburg (DE) 0.00 km FOUND
P3420356 RS41 2020-07-02 17:18:51 48.0836 12.1296 299 ° 9 km/h 870 m -4.5 m/s 402.50 MHz Waldkraiburg (DE) 0.00 km FOUND
DF641D7B DFM06 2020-07-02 14:06:01 48.084 12.1949 51 ° 41 km/h 6387 m -3.2 m/s MHz Waldkraiburg (DE) 0.00 km UNKNOWN
P3410648 RS41 2020-07-02 11:51:06 48.1061 12.3419 61 ° 17 km/h 705 m -3.7 m/s 402.50 MHz Waldkraiburg (DE) 0.00 km UNKNOWN
P3420358 RS41 2020-07-02 05:55:32 48.0789 11.9491 95 ° 41 km/h 971 m -5.6 m/s 402.50 MHz Vaterstetten (DE) 0.00 km UNKNOWN
P3421153 RS41 2020-07-01 17:42:16 48.1339 11.8741 337 ° 30 km/h 671 m -7.1 m/s 402.50 MHz Vaterstetten (DE) 0.00 km FOUND
P3420360 RS41 2020-07-01 14:53:23 48.1572 11.8916 152 ° 6 km/h 659 m -3.0 m/s 402.50 MHz Vaterstetten (DE) 0.00 km FOUND
P3421154 RS41 2020-07-01 11:37:48 48.0768 11.7161 112 ° 15 km/h 1404 m -10.1 m/s 404.30 MHz Vaterstetten (DE) 0.00 km UNKNOWN
P3421067 RS41 2020-07-01 05:59:34 48.1346 12.083 77 ° 7 km/h 714 m -3.5 m/s 402.50 MHz Vaterstetten (DE) 0.00 km LOST
P3421155 RS41 2020-06-30 17:40:49 47.9695 12.1485 99 ° 24 km/h 1040 m -7.8 m/s 402.50 MHz Rosenheim (DE) 0.00 km FOUND
P3420398 RS41 2020-06-30 11:46:58 47.9505 12.4568 323 ° 4 km/h 789 m -6.6 m/s 402.50 MHz Traunreut (DE) 0.00 km UNKNOWN
P3420353 RS41 2020-06-30 08:27:07 47.9071 12.8021 99 ° 6 km/h 753 m -3.4 m/s 402.50 MHz Sankt Georgen bei Salzburg (AT) 0.00 km FOUND
P3421081 RS41 2020-06-30 05:53:12 47.9024 12.3652 69 ° 17 km/h 865 m -6.5 m/s 402.50 MHz Traunreut (DE) 0.00 km UNKNOWN
P3421063 RS41 2020-06-29 17:53:37 47.5513 12.8351 103 ° 39 km/h 2405 m -4.4 m/s 402.50 MHz Saalfelden am Steinernen Meer (AT) 0.00 km UNKNOWN
R2340448 RS41 2020-06-29 14:46:17 47.6111 12.3965 105 ° 39 km/h 1976 m -14.2 m/s 402.50 MHz Kössen (AT) 0.00 km UNKNOWN
R2331384 RS41 2020-06-29 11:49:22 47.9328 12.5214 69 ° 24 km/h 740 m -5.0 m/s 402.50 MHz Traunreut (DE) 0.00 km UNKNOWN
P3340510 RS41 2020-06-29 05:56:06 48.1786 12.286 107 ° 6 km/h 863 m -10.3 m/s 402.50 MHz Waldkraiburg (DE) 0.00 km UNKNOWN
P3350256 RS41 2020-06-26 08:43:22 47.5964 11.5687 79 ° 30 km/h 1819 m -3.5 m/s 402.50 MHz Achenkirch (AT) 0.00 km UNKNOWN
R2331540 RS41 2020-06-26 05:38:34 47.4734 11.5821 91 ° 33 km/h 2233 m -4.8 m/s 402.50 MHz Achenkirch (AT) 0.00 km UNKNOWN
P3350253 RS41 2020-06-25 17:40:06 47.3223 11.4211 114 ° 17 km/h 2495 m -7.1 m/s 402.50 MHz Rum (AT) 0.00 km UNKNOWN
R2341222 RS41 2020-06-25 14:42:00 47.2449 11.4677 255 ° 31 km/h 985 m -3.2 m/s 402.50 MHz Sistrans (AT) 0.00 km UNKNOWN
R2331569 RS41 2020-06-25 11:38:12 47.2658 11.0903 133 ° 6 km/h 2076 m 0.4 m/s 402.50 MHz Telfs (AT) 0.00 km UNKNOWN
R2331378 RS41 2020-06-25 08:49:37 47.2758 10.9939 232 ° 13 km/h 1042 m -4.7 m/s 402.50 MHz Mieming (AT) 0.00 km UNKNOWN
R2331570 RS41 2020-06-25 05:39:47 47.2705 11.0459 87 ° 7 km/h 1684 m -3.9 m/s 402.50 MHz Rietz (AT) 0.00 km UNKNOWN
R2331377 RS41 2020-06-24 17:51:43 47.2076 11.3531 162 ° 9 km/h 1619 m -4.7 m/s 402.50 MHz Mutters (AT) 0.00 km UNKNOWN
R2331542 RS41 2020-06-24 15:01:13 47.2745 11.2198 289 ° 19 km/h 668 m -1.8 m/s 402.50 MHz Inzing (AT) 0.00 km UNKNOWN
R2331571 RS41 2020-06-24 14:51:58 47.2132 11.4172 114 ° 35 km/h 3066 m -4.8 m/s 402.50 MHz Sistrans (AT) 0.00 km UNKNOWN
R2331534 RS41 2020-06-24 11:40:22 47.3699 11.0285 91 ° 19 km/h 1760 m -9.6 m/s 402.50 MHz Telfs (AT) 0.00 km UNKNOWN
R2331538 RS41 2020-06-24 08:48:41 47.3156 11.0563 328 ° 7 km/h 782 m -5.4 m/s 402.50 MHz Telfs (AT) 0.00 km FOUND
R2331561 RS41 2020-06-24 06:08:19 47.2856 10.9245 65 ° 7 km/h 1398 m -3.4 m/s 402.50 MHz Silz (AT) 0.00 km UNKNOWN
R2331379 RS41 2020-06-23 17:45:34 47.4996 10.838 64 ° 6 km/h 2054 m -7.3 m/s 402.50 MHz Reutte (AT) 0.00 km UNKNOWN
P3350257 RS41 2020-06-23 14:48:30 47.5472 10.8238 235 ° 9 km/h 1967 m -8.9 m/s 402.50 MHz Reutte (AT) 0.00 km UNKNOWN
R2331386 RS41 2020-06-23 11:37:03 47.5451 10.805 176 ° 11 km/h 1747 m -7.7 m/s 402.50 MHz Reutte (AT) 0.00 km UNKNOWN
R2331531 RS41 2020-06-23 05:34:04 47.4019 10.8747 253 ° 13 km/h 2348 m -4.4 m/s 402.50 MHz Ehrwald (AT) 0.00 km FOUND
R2341179 RS41 2020-06-22 18:08:09 47.2409 10.7904 196 ° 17 km/h 2446 m -5.4 m/s 402.50 MHz Tarrenz (AT) 0.00 km UNKNOWN
R2331562 RS41 2020-06-22 15:07:12 47.2948 10.9591 243 ° 7 km/h 1252 m -3.1 m/s 402.50 MHz Mieming (AT) 0.00 km UNKNOWN
R2341180 RS41 2020-06-22 11:29:19 47.4644 10.8853 154 ° 20 km/h 2285 m -7.8 m/s 402.50 MHz Ehrwald (AT) 0.00 km UNKNOWN
R2341204 RS41 2020-06-22 08:43:07 47.4176 10.8499 183 ° 9 km/h 2259 m -7.6 m/s 402.50 MHz Ehrwald (AT) 0.00 km UNKNOWN
R2340449 RS41 2020-06-22 05:44:56 47.3442 10.88 165 ° 13 km/h 2246 m -5.9 m/s 402.50 MHz Ehrwald (AT) 0.00 km UNKNOWN
R2331566 RS41 2020-06-19 05:53:55 48.0738 10.9517 58 ° 28 km/h 797 m -13.5 m/s 402.50 MHz Landsberg am Lech (DE) 0.00 km FOUND
R2340450 RS41 2020-06-18 18:27:31 48.2463 11.0523 182 ° 19 km/h 669 m -3.2 m/s 402.50 MHz Königsbrunn (DE) 0.00 km FOUND
R2340456 RS41 2020-06-18 14:18:37 48.1125 11.0549 162 ° 11 km/h 773 m -8.2 m/s 402.50 MHz Landsberg am Lech (DE) 0.00 km UNKNOWN
R2340455 RS41 2020-06-18 11:49:09 48.1938 10.7549 97 ° 9 km/h 780 m -5.9 m/s 402.50 MHz Königsbrunn (DE) 0.00 km UNKNOWN
R2340454 RS41 2020-06-18 08:46:58 48.252 10.751 113 ° 15 km/h 704 m -3.6 m/s 402.50 MHz Königsbrunn (DE) 0.00 km UNKNOWN
R2331541 RS41 2020-06-18 05:59:16 48.1674 10.6329 77 ° 22 km/h 739 m -5.9 m/s 402.50 MHz Landsberg am Lech (DE) 0.00 km UNKNOWN
R2331563 RS41 2020-06-17 17:30:47 48.1859 10.6167 67 ° 39 km/h 725 m -4.4 m/s 402.50 MHz Königsbrunn (DE) 0.00 km UNKNOWN
R2331385 RS41 2020-06-17 11:52:59 48.2517 10.3206 255 ° 9 km/h 613 m -4.7 m/s 402.50 MHz Senden (DE) 0.00 km FOUND
R2331567 RS41 2020-06-17 08:49:09 48.1867 10.2878 198 ° 15 km/h 681 m -5.0 m/s 402.50 MHz Senden (DE) 0.00 km FOUND
R2331572 RS41 2020-06-17 05:36:51 48.1635 10.4417 231 ° 11 km/h 696 m -7.1 m/s 402.50 MHz Memmingen (DE) 0.00 km FOUND
R2331564 RS41 2020-06-16 17:38:14 48.1804 10.6459 165 ° 7 km/h 745 m -7.9 m/s 402.50 MHz Königsbrunn (DE) 0.00 km UNKNOWN
R2331376 RS41 2020-06-16 12:04:05 48.1901 10.5067 173 ° 9 km/h 706 m -5.0 m/s 402.50 MHz Königsbrunn (DE) 0.00 km FOUND
R2341220 RS41 2020-06-16 05:49:29 47.9541 10.6978 92 ° 24 km/h 960 m -4.5 m/s 402.50 MHz Kaufbeuren (DE) 0.00 km UNKNOWN
R2331537 RS41 2020-06-15 17:47:47 47.8191 10.6066 74 ° 20 km/h 969 m -7.7 m/s 402.50 MHz Kaufbeuren (DE) 0.00 km UNKNOWN
R2340447 RS41 2020-06-15 11:51:10 47.9306 10.492 61 ° 19 km/h 865 m -4.7 m/s 402.50 MHz Kaufbeuren (DE) 0.00 km FOUND
R2340445 RS41 2020-06-15 06:03:27 47.9453 10.6509 89 ° 41 km/h 960 m -2.5 m/s 404.30 MHz Kaufbeuren (DE) 0.00 km NEED ATTENTION
R2340446 RS41 2020-06-15 05:53:26 47.9217 10.5438 86 ° 31 km/h 885 m -5.1 m/s 402.50 MHz Kaufbeuren (DE) 0.00 km NEED ATTENTION
P3340541 RS41 2020-06-10 17:45:37 47.9219 10.2834 164 ° 19 km/h 821 m -5.4 m/s 402.50 MHz Memmingen (DE) 0.00 km UNKNOWN
R2341219 RS41 2020-06-10 11:59:27 48.0774 10.1338 155 ° 13 km/h 633 m -3.1 m/s 402.50 MHz Memmingen (DE) 0.00 km FOUND
P3350062 RS41 2020-06-10 05:47:50 48.0381 10.1896 184 ° 15 km/h 684 m -13.0 m/s 402.50 MHz Memmingen (DE) 0.00 km FOUND
P3340507 RS41 2020-06-09 17:39:58 48.1753 10.3789 205 ° 11 km/h 683 m -6.7 m/s 402.50 MHz Memmingen (DE) 0.00 km FOUND
P3340554 RS41 2020-06-09 11:39:21 48.3087 10.3642 204 ° 19 km/h 609 m -4.4 m/s 402.50 MHz Senden (DE) 0.00 km FOUND
P3340546 RS41 2020-06-09 05:55:45 48.4053 10.3403 199 ° 13 km/h 597 m -7.9 m/s 402.50 MHz Dillingen (DE) 0.00 km FOUND
P3340509 RS41 2020-06-08 17:43:50 48.3757 10.8879 273 ° 19 km/h 594 m -11.9 m/s 402.50 MHz Augsburg (DE) 0.00 km LOST
P3340506 RS41 2020-06-08 11:50:26 48.4947 11.011 233 ° 9 km/h 593 m -4.6 m/s 402.50 MHz Aichach (DE) 0.00 km LOST
P3350296 RS41 2020-06-08 08:42:01 48.4596 11.0771 285 ° 13 km/h 683 m -8.9 m/s 402.50 MHz Aichach (DE) 0.00 km UNKNOWN
P3350342 RS41 2020-06-08 05:42:47 48.3289 11.1031 296 ° 17 km/h 673 m -11.3 m/s 402.50 MHz Aichach (DE) 0.00 km FOUND
P3340514 RS41 2020-06-05 05:53:23 48.324 11.6491 92 ° 22 km/h 684 m -4.1 m/s 402.50 MHz Unterschleißheim (DE) 0.00 km FOUND
P3350312 RS41 2020-06-04 18:02:07 48.2848 11.7128 78 ° 37 km/h 718 m -4.2 m/s 402.50 MHz Unterschleißheim (DE) 0.00 km FOUND
P3340512 RS41 2020-06-04 12:13:01 48.2985 11.7009 57 ° 20 km/h 680 m -3.7 m/s 402.50 MHz Unterschleißheim (DE) 0.00 km FOUND
P3340544 RS41 2020-06-04 05:51:20 47.9544 11.563 103 ° 33 km/h 1135 m -5.7 m/s 402.50 MHz Geretsried (DE) 0.00 km FOUND
P3340508 RS41 2020-06-03 18:08:33 47.5528 11.4137 130 ° 11 km/h 1852 m -5.5 m/s 402.50 MHz Achenkirch (AT) 0.00 km UNKNOWN
P3340511 RS41 2020-06-03 11:48:27 47.5317 11.3469 59 ° 11 km/h 1993 m -2.2 m/s 402.50 MHz Garmisch-Partenkirchen (DE) 0.00 km UNKNOWN
P3340505 RS41 2020-06-03 08:48:13 47.4916 11.1921 86 ° 19 km/h 2094 m -4.7 m/s 402.50 MHz Garmisch-Partenkirchen (DE) 0.00 km UNKNOWN
P3340516 RS41 2020-06-03 06:02:49 47.3467 11.1114 198 ° 2 km/h 1452 m -5.2 m/s 402.50 MHz Leutasch (AT) 0.00 km UNKNOWN
P3340528 RS41 2020-06-02 17:50:44 47.1862 10.7704 171 ° 11 km/h 2765 m -3.8 m/s 402.50 MHz Arzl im Pitztal (AT) 0.00 km UNKNOWN
P3340527 RS41 2020-06-02 11:51:24 47.2294 10.7077 222 ° 15 km/h 2608 m -4.8 m/s 402.50 MHz Imst (AT) 0.00 km UNKNOWN
P3340526 RS41 2020-06-02 08:45:24 47.2684 10.5925 141 ° 11 km/h 2717 m -4.3 m/s 404.30 MHz Imst (AT) 0.00 km UNKNOWN
P3340523 RS41 2020-06-02 05:44:51 47.2788 10.8643 109 ° 20 km/h 2234 m -5.3 m/s 402.50 MHz Haiming (AT) 0.00 km UNKNOWN
P3340540 RS41 2020-05-29 08:41:30 47.4836 10.0562 223 ° 15 km/h 1657 m -5.1 m/s 404.30 MHz Egg (AT) 0.00 km UNKNOWN
P3340525 RS41 2020-05-29 05:41:46 47.3909 9.93504 293 ° 13 km/h 1674 m -10.1 m/s 402.50 MHz Egg (AT) 0.00 km UNKNOWN
P3340538 RS41 2020-05-28 17:34:04 47.2148 10.8626 181 ° 17 km/h 2516 m -9.3 m/s 402.50 MHz Oetz (AT) 0.00 km UNKNOWN
P3350340 RS41 2020-05-28 12:14:44 47.0842 11.0058 169 ° 20 km/h 3026 m -6.1 m/s 402.50 MHz Umhausen (AT) 0.00 km UNKNOWN
P3350341 RS41 2020-05-28 08:39:56 47.1816 11.0198 228 ° 4 km/h 3018 m -5.0 m/s 402.50 MHz Oetz (AT) 0.00 km UNKNOWN
P3350610 RS41 2020-05-28 05:35:08 47.2574 11.1291 96 ° 20 km/h 2256 m -8.6 m/s 402.50 MHz Inzing (AT) 0.00 km UNKNOWN
P3350336 RS41 2020-05-27 17:28:55 47.2461 10.6236 198 ° 20 km/h 2664 m -7.1 m/s 402.50 MHz Imst (AT) 0.00 km UNKNOWN
P3340720 RS41 2020-05-27 11:19:47 47.1687 10.4745 147 ° 6 km/h 2858 m -8.5 m/s 402.50 MHz Landeck (AT) 0.00 km UNKNOWN
P3350339 RS41 2020-05-27 08:46:29 46.9915 10.334 243 ° 20 km/h 3144 m -6.2 m/s 402.50 MHz Kappl (AT) 0.00 km UNKNOWN
P3340715 RS41 2020-05-27 05:51:26 46.986 10.428 236 ° 22 km/h 3326 m -11.1 m/s 402.50 MHz Kappl (AT) 0.00 km UNKNOWN
P3350608 RS41 2020-05-26 17:48:36 46.6046 10.6602 185 ° 69 km/h 4785 m -3.2 m/s 402.50 MHz Lana (IT) 0.00 km UNKNOWN
P3350322 RS41 2020-05-26 11:49:33 46.6229 10.7914 181 ° 76 km/h 4709 m -12.3 m/s 402.50 MHz Lana (IT) 0.00 km UNKNOWN
P3350305 RS41 2020-05-26 08:32:51 46.6571 10.7901 184 ° 85 km/h 4661 m -9.7 m/s 402.50 MHz Merano (IT) 0.00 km UNKNOWN
P3350306 RS41 2020-05-26 05:40:31 46.383 10.9818 179 ° 50 km/h 3445 m -3.9 m/s 402.50 MHz Laives (IT) 0.00 km FOUND
P3350301 RS41 2020-05-25 17:46:32 46.7105 11.0165 168 ° 89 km/h 4591 m -8.8 m/s 402.50 MHz Merano (IT) 0.00 km UNKNOWN
P3350303 RS41 2020-05-25 14:39:28 46.6651 11.1428 165 ° 83 km/h 4632 m -7.3 m/s 402.50 MHz Merano (IT) 0.00 km UNKNOWN
P3350695 RS41 2020-05-25 11:18:11 46.8413 11.165 169 ° 81 km/h 4295 m -8.8 m/s 402.50 MHz Sölden (AT) 0.00 km UNKNOWN
P3420854 RS41 2020-05-25 08:36:03 46.8346 11.2791 161 ° 87 km/h 4412 m -14.8 m/s 402.50 MHz Merano (IT) 0.00 km UNKNOWN
P3420906 RS41 2020-05-25 05:10:40 46.7558 11.6482 157 ° 85 km/h 4519 m -8.4 m/s 402.50 MHz Bressanone (IT) 0.00 km UNKNOWN
P3420864 RS41 2020-05-20 17:31:02 47.3102 11.0245 276 ° 19 km/h 1210 m -12.7 m/s 402.50 MHz Rietz (AT) 0.00 km UNKNOWN
P3420856 RS41 2020-05-20 11:50:24 47.1693 10.8149 186 ° 22 km/h 2877 m -6.5 m/s 402.50 MHz Arzl im Pitztal (AT) 0.00 km UNKNOWN
DF641C28 DFM06 2020-05-20 08:26:51 47.2 10.7845 213 ° 17 km/h 2722 m -4.1 m/s MHz Arzl im Pitztal (AT) 0.00 km FOUND
D17046568 DFM09 2020-05-20 08:21:48 47.2147 10.7966 200 ° 43 km/h 4002 m -4.8 m/s 404.307 MHz Arzl im Pitztal (AT) 0.00 km FOUND
P3420863 RS41 2020-05-20 05:28:00 47.3787 10.8621 222 ° 22 km/h 2295 m -6.4 m/s 402.50 MHz Ehrwald (AT) 0.00 km UNKNOWN
P3340634 RS41 2020-05-19 17:32:17 47.4882 10.8041 197 ° 13 km/h 1709 m -6.1 m/s 402.50 MHz Reutte (AT) 0.00 km UNKNOWN
DF641C5C DFM06 2020-05-19 14:03:19 47.5289 10.6315 277 ° 7 km/h 1355 m -3.2 m/s MHz Reutte (AT) 0.00 km UNKNOWN
D17046620 DFM 2020-05-19 13:53:43 47.5448 10.6539 226 ° 33 km/h 3765 m -6.3 m/s 404.308 MHz Reutte (AT) 0.00 km UNKNOWN
P3420869 RS41 2020-05-19 11:44:03 47.5989 10.6868 212 ° 17 km/h 1025 m -10.2 m/s 402.50 MHz Reutte (AT) 0.00 km UNKNOWN
P3420860 RS41 2020-05-19 05:45:29 47.592 10.7424 19 ° 6 km/h 987 m -6.1 m/s 402.50 MHz Reutte (AT) 0.00 km UNKNOWN
P3420868 RS41 2020-05-18 17:48:04 47.7077 11.1997 193 ° 11 km/h 1274 m -8.2 m/s 402.50 MHz Weilheim in Oberbayern (DE) 0.00 km FOUND
P3420862 RS41 2020-05-18 11:40:04 47.8112 11.1334 168 ° 17 km/h 1164 m -5.3 m/s 402.50 MHz Weilheim in Oberbayern (DE) 0.00 km UNKNOWN
D17046618 DFM 2020-05-18 08:07:42 47.8032 10.9996 353 ° 6 km/h 2094 m -3.6 m/s 404.309 MHz Weilheim in Oberbayern (DE) 0.00 km FOUND
P3340631 RS41 2020-05-18 05:27:35 47.7439 11.073 247 ° 11 km/h 968 m -9.6 m/s 402.50 MHz Weilheim in Oberbayern (DE) 0.00 km UNKNOWN
P3421037 RS41 2020-05-15 05:37:27 48.0764 11.4303 240 ° 39 km/h 782 m -8.2 m/s 402.50 MHz Germering (DE) 0.00 km FOUND
P3410632 RS41 2020-05-14 17:30:32 48.3022 11.8164 248 ° 24 km/h 625 m -9.4 m/s 402.50 MHz Erding (DE) 0.00 km FOUND
P3420495 RS41 2020-05-14 12:12:10 48.3843 12.4621 239 ° 13 km/h 765 m -6.9 m/s 402.50 MHz Waldkraiburg (DE) 0.00 km LOST
P3340780 RS41 2020-05-14 05:25:32 48.1787 12.2755 219 ° 9 km/h 899 m -5.3 m/s 402.50 MHz Waldkraiburg (DE) 0.00 km FOUND
P3420517 RS41 2020-05-13 17:32:01 48.3251 12.0981 202 ° 22 km/h 732 m -8.1 m/s 402.50 MHz Erding (DE) 0.00 km FOUND
R2350498 RS41 2020-05-13 11:54:38 48.5025 12.5732 243 ° 15 km/h 880 m -4.1 m/s 402.50 MHz Landshut (DE) 0.00 km LOST
R2350458 RS41 2020-05-13 05:52:25 48.1452 12.2443 316 ° 6 km/h 729 m -9.3 m/s 402.50 MHz Waldkraiburg (DE) 0.00 km FOUND
P3421012 RS41 2020-05-12 17:55:59 48.0365 12.3793 246 ° 13 km/h 784 m -3.4 m/s 402.50 MHz Traunreut (DE) 0.00 km FOUND
D17003803 DFM 2020-05-12 14:52:57 47.9345 12.5663 249 ° 15 km/h 772 m -5.0 m/s 404.309 MHz Traunreut (DE) 0.00 km UNKNOWN
DF63751B DFM06 2020-05-12 14:51:07 47.935 12.5707 207 ° 7 km/h 1244 m -3.9 m/s MHz Traunreut (DE) 0.00 km UNKNOWN
R2350538 RS41 2020-05-12 11:33:44 47.8242 11.9709 273 ° 9 km/h 1287 m -6.1 m/s 402.50 MHz Rosenheim (DE) 0.00 km FOUND
P3350705 RS41 2020-05-12 05:33:08 47.8025 11.9618 163 ° 6 km/h 1296 m -7.2 m/s 402.50 MHz Rosenheim (DE) 0.00 km UNKNOWN
R2350432 RS41 2020-05-11 17:36:23 47.9836 11.7108 126 ° 39 km/h 1111 m -9.7 m/s 402.50 MHz Unterhaching (DE) 0.00 km FOUND
P3350675 RS41 2020-05-11 11:27:41 48.1543 11.066 115 ° 17 km/h 728 m -6.3 m/s 402.50 MHz Fürstenfeldbruck (DE) 0.00 km UNKNOWN
P3350117 RS41 2020-05-11 05:27:52 48.2224 11.4233 265 ° 17 km/h 599 m -9.3 m/s 402.50 MHz Dachau (DE) 0.00 km FOUND
D17006598 DFM 2020-05-08 08:27:09 47.5244 12.1179 90 ° 28 km/h 2199 m -4.0 m/s 404.310 MHz Schwoich (AT) 0.00 km UNKNOWN
DF638006 DFM06 2020-05-08 08:26:52 47.5245 12.1163 70 ° 20 km/h 2271 m -4.0 m/s MHz Schwoich (AT) 0.00 km UNKNOWN
P3340795 RS41 2020-05-08 05:38:38 47.5796 11.7875 96 ° 22 km/h 1878 m -4.6 m/s 402.50 MHz Achenkirch (AT) 0.00 km UNKNOWN
P3350701 RS41 2020-05-07 11:37:29 47.267 11.1122 178 ° 7 km/h 1486 m -12.9 m/s 402.50 MHz Telfs (AT) 0.00 km UNKNOWN
P3350685 RS41 2020-05-07 05:53:17 46.9054 10.8245 219 ° 41 km/h 3644 m -4.2 m/s 402.50 MHz Sölden (AT) 0.00 km UNKNOWN
P3350110 RS41 2020-05-06 11:45:07 47.2848 11.5463 255 ° 22 km/h 646 m -6.2 m/s 402.50 MHz Volders (AT) 0.00 km FOUND
DF637796 DFM06 2020-05-06 08:36:43 47.1595 11.8831 140 ° 41 km/h 3096 m -3.1 m/s MHz Mayrhofen (AT) 0.00 km UNKNOWN
D17004438 DFM 2020-05-06 08:34:32 47.1711 11.8712 164 ° 56 km/h 3499 m -3.1 m/s 404.309 MHz Mayrhofen (AT) 0.00 km UNKNOWN
R2350431 RS41 2020-05-06 05:26:59 47.3817 11.7441 79 ° 9 km/h 1988 m -5.2 m/s 402.50 MHz Jenbach (AT) 0.00 km UNKNOWN
R2350494 RS41 2020-05-05 11:15:56 47.4622 12.8258 112 ° 44 km/h 2955 m -4.3 m/s 402.50 MHz Saalfelden am Steinernen Meer (AT) 0.00 km UNKNOWN
P3340794 RS41 2020-05-05 05:26:34 47.3565 12.7693 104 ° 80 km/h 3088 m -5.5 m/s 402.50 MHz Maishofen (AT) 0.00 km UNKNOWN
P3350207 RS41 2020-05-04 11:21:31 46.9733 12.738 103 ° 24 km/h 3571 m -10.5 m/s 402.50 MHz Matrei in Osttirol (AT) 0.00 km UNKNOWN
D17006845 DFM 2020-05-04 07:46:51 47.1943 12.0974 121 ° 50 km/h 3367 m -14.0 m/s 404.310 MHz Neukirchen am Großvenediger (AT) 0.00 km UNKNOWN
DF6380FD DFM06 2020-05-04 07:46:23 47.1964 12.093 137 ° 59 km/h 3776 m -14.5 m/s MHz Neukirchen am Großvenediger (AT) 0.00 km UNKNOWN
P3350280 RS41 2020-05-04 05:25:50 46.9998 12.3113 139 ° 59 km/h 3699 m -1.4 m/s 402.50 MHz Virgen (AT) 0.00 km UNKNOWN
P3340760 RS41 2020-04-30 11:14:11 48.0857 11.817 146 ° 19 km/h 919 m -7.8 m/s 402.50 MHz Vaterstetten (DE) 0.00 km FOUND
P3350696 RS41 2020-04-30 05:19:41 47.9345 11.6666 83 ° 24 km/h 1219 m -7.1 m/s 402.50 MHz Unterhaching (DE) 0.00 km FOUND
P3350692 RS41 2020-04-29 11:24:40 47.9844 11.3535 83 ° 33 km/h 1021 m -3.0 m/s 402.50 MHz Starnberg (DE) 0.00 km UNKNOWN
P3420454 RS41 2020-04-29 05:32:38 48.0066 11.4154 62 ° 41 km/h 955 m -4.5 m/s 402.50 MHz Starnberg (DE) 0.00 km FOUND
P3340778 RS41 2020-04-28 11:49:57 48.0989 11.1949 151 ° 13 km/h 868 m -6.1 m/s 402.50 MHz Fürstenfeldbruck (DE) 0.00 km UNKNOWN
DF63815A DFM06 2020-04-28 08:37:23 48.1101 11.297 81 ° 19 km/h 886 m -3.4 m/s MHz Germering (DE) 0.00 km FOUND
D17006938 DFM 2020-04-28 08:33:32 48.1114 11.2857 7 ° 15 km/h 1931 m -5.4 m/s 404.310 MHz Germering (DE) 0.00 km FOUND
P3350279 RS41 2020-04-28 05:39:56 47.9298 11.3229 103 ° 28 km/h 1087 m -5.8 m/s 402.50 MHz Starnberg (DE) 0.00 km UNKNOWN
P3340744 RS41 2020-04-27 11:45:43 47.8787 11.5559 11 ° 15 km/h 1197 m -4.6 m/s 402.50 MHz Geretsried (DE) 0.00 km LOST
P3350694 RS41 2020-04-27 05:37:46 47.7844 11.4225 97 ° 26 km/h 1378 m -11.5 m/s 402.50 MHz Geretsried (DE) 0.00 km FOUND
P3350697 RS41 2020-03-20 06:42:16 48.0806 11.3592 259 ° 13 km/h 1098 m -3.6 m/s 402.50 MHz Germering (DE) 0.00 km FOUND
P3350706 RS41 2020-03-19 18:26:19 48.0696 11.0733 260 ° 24 km/h 1102 m -6.8 m/s 402.50 MHz Landsberg am Lech (DE) 0.00 km FOUND
P3340777 RS41 2020-03-19 12:45:18 48.0853 10.9491 200 ° 4 km/h 951 m -5.6 m/s 402.50 MHz Landsberg am Lech (DE) 0.00 km FOUND
P3340779 RS41 2020-03-19 06:57:41 47.918 10.8471 219 ° 2 km/h 910 m -4.5 m/s 402.50 MHz Landsberg am Lech (DE) 0.00 km UNKNOWN
P3350278 RS41 2020-03-18 18:23:55 47.7004 10.6959 116 ° 7 km/h 829 m -1.6 m/s 402.50 MHz Kaufbeuren (DE) 0.00 km FOUND
P3350703 RS41 2020-03-18 12:43:57 47.5585 10.6111 311 ° 11 km/h 914 m -3.3 m/s 402.50 MHz Reutte (AT) 0.00 km UNKNOWN
DF6379FB DFM 2020-03-18 09:45:06 47.4277 10.6346 7 ° 6 km/h 2165 m -4.6 m/s MHz Reutte (AT) 0.00 km UNKNOWN
D17005051 DFM09 2020-03-18 09:40:23 47.4336 10.6408 237 ° 44 km/h 3549 m -5.0 m/s 404.310 MHz Reutte (AT) 0.00 km UNKNOWN
DF9379FB DFM09 2020-03-18 09:16:38 47.5438 10.7308 217 ° 37 km/h 11092 m -6.6 m/s 404.311 MHz Reutte (AT) 0.00 km UNKNOWN
P3350698 RS41 2020-03-18 06:47:05 47.4093 10.7645 351 ° 4 km/h 1784 m -4.6 m/s 402.50 MHz Reutte (AT) 0.00 km UNKNOWN
P3350700 RS41 2020-03-17 18:53:12 47.2381 11.0104 86 ° 15 km/h 2718 m -5.5 m/s 402.50 MHz Rietz (AT) 0.00 km UNKNOWN
P3350702 RS41 2020-03-17 12:37:07 47.5922 11.4204 104 ° 11 km/h 1908 m -7.8 m/s 402.50 MHz Achenkirch (AT) 0.00 km UNKNOWN
P3350709 RS41 2020-03-17 06:37:00 47.6858 11.6024 99 ° 26 km/h 1773 m -2.6 m/s 402.50 MHz Achenkirch (AT) 0.00 km UNKNOWN
P3420522 RS41 2020-03-16 18:45:28 47.7322 11.4378 59 ° 13 km/h 1645 m -4.3 m/s 402.50 MHz Geretsried (DE) 0.00 km UNKNOWN
P3340761 RS41 2020-03-16 12:58:25 47.9138 11.499 251 ° 2 km/h 1545 m -1.6 m/s 402.50 MHz Geretsried (DE) 0.00 km UNKNOWN
P3420261 RS41 2020-03-16 06:49:02 47.9587 11.529 43 ° 15 km/h 936 m -12.0 m/s 402.50 MHz Geretsried (DE) 0.00 km FOUND
P3421011 RS41 2020-03-13 07:02:11 48.0498 13.998 71 ° 28 km/h 505 m -4.6 m/s 402.50 MHz Eberstallzell (AT) 0.00 km FOUND
P3421020 RS41 2020-03-12 18:56:04 48.0019 13.8013 91 ° 37 km/h 580 m -3.8 m/s 402.50 MHz Laakirchen (AT) 0.00 km UNKNOWN
P3410621 RS41 2020-03-12 12:58:57 48.011 13.6374 71 ° 37 km/h 615 m -6.5 m/s 402.50 MHz Vöcklabruck (AT) 0.00 km UNKNOWN
P3410362 RS41 2020-03-12 06:55:54 47.7582 13.0181 265 ° 4 km/h 1195 m -7.9 m/s 402.50 MHz Grödig (AT) 0.00 km UNKNOWN
P3410619 RS41 2020-03-11 18:56:57 47.2472 12.5584 116 ° 69 km/h 3517 m -6.9 m/s 402.50 MHz Uttendorf (AT) 0.00 km UNKNOWN
P3410019 RS41 2020-03-11 13:08:04 46.9457 12.8285 133 ° 74 km/h 4022 m -6.9 m/s 402.50 MHz Dölsach (AT) 0.00 km UNKNOWN
P3410144 RS41 2020-03-11 06:48:56 46.9341 12.3639 146 ° 113 km/h 3774 m -5.8 m/s 402.50 MHz Virgen (AT) 0.00 km UNKNOWN
P3410020 RS41 2020-03-10 18:53:29 46.1821 11.9436 131 ° 20 km/h 2381 m -5.6 m/s 402.50 MHz Sedico (IT) 0.00 km UNKNOWN
P3410582 RS41 2020-03-10 13:03:46 46.4385 11.6138 159 ° 85 km/h 4357 m -5.2 m/s 402.50 MHz Laives (IT) 0.00 km UNKNOWN
P3410578 RS41 2020-03-10 06:57:10 46.5861 11.4915 152 ° 81 km/h 4257 m -5.2 m/s 402.50 MHz Bolzano (IT) 0.00 km UNKNOWN
P3410596 RS41 2020-03-09 18:48:11 47.734 11.3946 95 ° 31 km/h 1149 m -8.4 m/s 402.50 MHz Geretsried (DE) 0.00 km FOUND
P3410595 RS41 2020-03-09 12:31:10 48.0456 11.3242 106 ° 30 km/h 1107 m -8.7 m/s 402.50 MHz Starnberg (DE) 0.00 km FOUND
P3410140 RS41 2020-03-09 07:11:27 48.1487 11.6481 71 ° 26 km/h 669 m -4.7 m/s 402.50 MHz München (DE) 0.00 km FOUND
P3410581 RS41 2020-03-06 06:37:03 48.1554 12.0843 80 ° 59 km/h 831 m -6.9 m/s 402.50 MHz Erding (DE) 0.00 km FOUND
P3410600 RS41 2020-03-05 18:35:00 47.8888 12.592 340 ° 15 km/h 777 m -4.9 m/s 402.50 MHz Traunreut (DE) 0.00 km UNKNOWN
P3410584 RS41 2020-03-05 13:03:09 47.4749 12.4781 44 ° 43 km/h 2553 m -9.5 m/s 404.30 MHz Fieberbrunn (AT) 0.00 km UNKNOWN
P3420493 RS41 2020-03-05 12:44:02 47.4565 12.4488 45 ° 39 km/h 2551 m -11.3 m/s 402.50 MHz Kitzbühel (AT) 0.00 km UNKNOWN
P3420534 RS41 2020-03-05 06:33:34 46.8162 12.5522 113 ° 33 km/h 3578 m -3.7 m/s 402.50 MHz Lienz (AT) 0.00 km UNKNOWN
P3420494 RS41 2020-03-04 18:27:56 46.9263 11.9129 134 ° 33 km/h 3946 m -4.6 m/s 402.50 MHz Brunico (IT) 0.00 km UNKNOWN
P3420556 RS41 2020-03-04 12:31:56 47.1922 11.6069 128 ° 17 km/h 2884 m -8.2 m/s 402.50 MHz Volders (AT) 0.00 km UNKNOWN
P3421055 RS41 2020-03-04 06:52:30 47.2763 11.8158 131 ° 19 km/h 2841 m -4.3 m/s 402.50 MHz Fügen (AT) 0.00 km UNKNOWN
P3420564 RS41 2020-03-03 18:41:14 47.7895 11.5582 92 ° 17 km/h 1585 m -6.1 m/s 402.50 MHz Geretsried (DE) 0.00 km UNKNOWN
P3421056 RS41 2020-03-03 12:36:33 48.0013 11.512 108 ° 35 km/h 1069 m -9.0 m/s 402.50 MHz Unterhaching (DE) 0.00 km FOUND
P3410580 RS41 2020-03-03 06:46:06 48.0032 11.6943 84 ° 59 km/h 923 m -5.1 m/s 402.50 MHz Unterhaching (DE) 0.00 km FOUND
P3410579 RS41 2020-03-02 18:56:07 48.4733 12.1739 339 ° 41 km/h 927 m -3.8 m/s 402.50 MHz Landshut (DE) 0.00 km NEED ATTENTION
P3420555 RS41 2020-03-02 12:26:52 48.2559 12.2204 289 ° 33 km/h 869 m -5.9 m/s 402.50 MHz Waldkraiburg (DE) 0.00 km FOUND
P3420561 RS41 2020-03-02 06:30:09 47.7415 12.6348 239 ° 4 km/h 1229 m -4.4 m/s 402.50 MHz Kössen (AT) 0.00 km UNKNOWN
P3420560 RS41 2020-02-28 07:08:55 46.2728 13.2154 265 ° 2 km/h 869 m -4.1 m/s 402.50 MHz Tarcento (IT) 0.00 km FOUND
P3410599 RS41 2020-02-27 18:34:44 47.3018 13.4318 88 ° 87 km/h 3016 m -3.9 m/s 402.50 MHz Flachau (AT) 0.00 km UNKNOWN
P3421058 RS41 2020-02-27 12:51:20 47.1756 13.5031 50 ° 31 km/h 3462 m -4.3 m/s 402.50 MHz Sankt Michael im Lungau (AT) 0.00 km UNKNOWN
DF636FC2 DFM 2020-02-27 09:25:57 46.9758 12.7425 139 ° 96 km/h 5590 m -4.5 m/s MHz Matrei in Osttirol (AT) 0.00 km UNKNOWN
D17002434 DFM 2020-02-27 09:25:47 46.9774 12.7399 129 ° 100 km/h 5633 m -4.5 m/s 404.309 MHz Matrei in Osttirol (AT) 0.00 km UNKNOWN
P3421150 RS41 2020-02-27 06:47:32 46.8527 12.9094 157 ° 35 km/h 3446 m -6.4 m/s 402.50 MHz Dölsach (AT) 0.00 km UNKNOWN
P3420562 RS41 2020-02-26 18:52:14 47.6459 12.8668 103 ° 26 km/h 1783 m -7.5 m/s 402.50 MHz Grossgmain (AT) 0.00 km UNKNOWN
P3420496 RS41 2020-02-26 12:48:12 48.0754 12.9241 119 ° 28 km/h 608 m -4.1 m/s 402.50 MHz Eggelsberg (AT) 0.00 km UNKNOWN
DF637E07 DFM06 2020-02-26 08:42:49 47.8728 11.2819 77 ° 59 km/h 1610 m -12.5 m/s MHz Weilheim in Oberbayern (DE) 0.00 km UNKNOWN
P3421054 RS41 2020-02-26 06:52:51 48.2424 13.2884 89 ° 30 km/h 521 m -2.1 m/s 402.50 MHz Altheim (AT) 0.00 km UNKNOWN
P3421149 RS41 2020-02-25 18:45:21 48.2728 13.2908 73 ° 28 km/h 451 m -5.6 m/s 402.50 MHz Altheim (AT) 0.00 km FOUND
P3420264 RS41 2020-02-25 12:35:20 48.1688 13.1397 40 ° 20 km/h 484 m -7.8 m/s 402.50 MHz Mauerkirchen (AT) 0.00 km UNKNOWN
P3421052 RS41 2020-02-25 06:42:04 47.8862 13.1577 76 ° 26 km/h 874 m -5.2 m/s 402.50 MHz Henndorf am Wallersee (AT) 0.00 km FOUND
P3420262 RS41 2020-02-24 18:37:23 47.4544 13.2001 112 ° 50 km/h 2021 m -3.8 m/s 402.50 MHz Werfen (AT) 0.00 km UNKNOWN
DF63853C DFM 2020-02-24 15:26:29 47.2575 13.2019 85 ° 44 km/h 2960 m -3.6 m/s MHz Grossarl (AT) 0.00 km UNKNOWN
P3340885 RS41 2020-02-24 12:25:13 47.1248 13.0009 126 ° 78 km/h 3806 m -3.4 m/s 402.50 MHz Bad Hofgastein (AT) 0.00 km UNKNOWN
P3340888 RS41 2020-02-24 06:39:54 46.8309 13.3375 131 ° 107 km/h 3433 m -3.5 m/s 402.50 MHz Spittal an der Drau (AT) 0.00 km UNKNOWN
DF638093 DFM06 2020-02-21 08:19:46 47.4424 11.3537 104 ° 22 km/h 2514 m -13.1 m/s MHz Leutasch (AT) 0.00 km UNKNOWN
P3420553 RS41 2020-02-21 06:18:37 47.2391 12.1669 114 ° 57 km/h 2900 m -8.0 m/s 402.50 MHz Neukirchen am Großvenediger (AT) 0.00 km FOUND
P3350343 RS41 2020-02-20 18:37:30 47.2746 12.2086 97 ° 57 km/h 2722 m -6.9 m/s 402.50 MHz Neukirchen am Großvenediger (AT) 0.00 km UNKNOWN
D17006347 DFM 2020-02-20 15:28:58 46.9824 12.0323 147 ° 72 km/h 3993 m -4.3 m/s 404.309 MHz Brunico (IT) 0.00 km UNKNOWN
DF637F0B DFM 2020-02-20 15:28:45 46.9843 12.0306 144 ° 72 km/h 4049 m -4.2 m/s MHz Brunico (IT) 0.00 km UNKNOWN
P3420563 RS41 2020-02-20 12:37:37 46.869 11.8352 165 ° 70 km/h 4350 m -9.2 m/s 402.50 MHz Brunico (IT) 0.00 km UNKNOWN
P3340887 RS41 2020-02-20 06:34:40 46.6238 11.6585 162 ° 89 km/h 4576 m -4.5 m/s 402.50 MHz Bressanone (IT) 0.00 km UNKNOWN
P3420260 RS41 2020-02-19 18:28:34 46.6892 11.9798 167 ° 70 km/h 3830 m -5.5 m/s 402.50 MHz Brunico (IT) 0.00 km UNKNOWN
P3420263 RS41 2020-02-19 12:36:30 47.3845 12.4905 120 ° 59 km/h 2463 m -4.7 m/s 402.50 MHz Kitzbühel (AT) 0.00 km UNKNOWN
P3340886 RS41 2020-02-19 06:36:46 47.7378 12.511 45 ° 24 km/h 1595 m -3.9 m/s 402.50 MHz Kössen (AT) 0.00 km UNKNOWN
P3350204 RS41 2020-02-18 19:02:47 47.7348 12.8924 86 ° 24 km/h 1355 m -4.0 m/s 402.50 MHz Grossgmain (AT) 0.00 km FOUND
P3350348 RS41 2020-02-18 12:36:32 47.9169 12.8904 105 ° 48 km/h 824 m -8.8 m/s 402.50 MHz Oberndorf bei Salzburg (AT) 0.00 km FOUND
P3350345 RS41 2020-02-18 06:52:29 48.0349 13.6446 68 ° 37 km/h 627 m -3.7 m/s 402.50 MHz Vöcklabruck (AT) 0.00 km UNKNOWN
P3350346 RS41 2020-02-17 19:04:57 48.6151 14.2628 114 ° 35 km/h 941 m -7.1 m/s 402.50 MHz Vorderweissenbach (AT) 0.00 km LOST
P3350201 RS41 2020-02-17 12:43:34 48.4125 13.5782 102 ° 9 km/h 476 m -3.2 m/s 402.50 MHz Sankt Florian am Inn (AT) 0.00 km FOUND
P3340722 RS41 2020-02-17 08:36:32 48.2518 13.573 124 ° 20 km/h 604 m -4.5 m/s 402.50 MHz Taiskirchen im Innkreis (AT) 0.00 km UNKNOWN
P3350347 RS41 2020-02-17 05:41:25 48.0308 11.744 81 ° 33 km/h 937 m -3.5 m/s 402.50 MHz Vaterstetten (DE) 0.00 km NEED ATTENTION
P3350200 RS41 2020-02-14 06:42:11 46.2595 12.3037 152 ° 72 km/h 2454 m -5.3 m/s 402.50 MHz Belluno (IT) 0.00 km UNKNOWN
P3340850 RS41 2020-02-13 18:41:57 47.9156 13.6808 55 ° 22 km/h 965 m -3.4 m/s 402.50 MHz Pinsdorf (AT) 0.00 km UNKNOWN
D17006920 DFM 2020-02-13 15:44:48 47.8624 13.5897 283 ° 9 km/h 911 m -2.7 m/s 404.309 MHz Sankt Georgen im Attergau (AT) 0.00 km UNKNOWN
DF638148 DFM 2020-02-13 15:44:05 47.8618 13.5889 72 ° 6 km/h 1052 m -3.2 m/s 404.310 MHz Sankt Georgen im Attergau (AT) 0.00 km UNKNOWN
P3340883 RS41 2020-02-13 12:47:38 47.6653 13.9225 358 ° 24 km/h 2170 m -2.9 m/s 402.50 MHz Bad Aussee (AT) 0.00 km UNKNOWN
D17005210 DFM 2020-02-13 10:14:27 47.5056 13.4373 45 ° 28 km/h 2188 m -7.2 m/s 404.310 MHz Abtenau (AT) 0.00 km UNKNOWN
DF637A9A DFM 2020-02-13 10:13:47 47.5037 13.4343 63 ° 33 km/h 2446 m -6.8 m/s MHz Abtenau (AT) 0.00 km UNKNOWN
P3350203 RS41 2020-02-13 06:51:57 47.2463 14.1055 51 ° 43 km/h 2633 m -2.6 m/s 402.50 MHz Oberwölz Stadt (AT) 0.00 km UNKNOWN
P3340884 RS41 2020-02-12 18:48:26 46.9499 14.3707 116 ° 39 km/h 1542 m -6.9 m/s 402.50 MHz Friesach (AT) 0.00 km UNKNOWN
P3340849 RS41 2020-02-12 12:30:21 47.3885 13.8757 96 ° 69 km/h 2579 m -4.3 m/s 404.30 MHz Gröbming (AT) 0.00 km UNKNOWN
P3340873 RS41 2020-02-12 06:31:27 47.3655 14.1569 112 ° 65 km/h 2813 m -4.8 m/s 402.50 MHz Irdning (AT) 0.00 km UNKNOWN
P3420552 RS41 2020-02-11 18:30:56 47.3797 14.6216 109 ° 59 km/h 2712 m -8.9 m/s 402.50 MHz Trieben (AT) 0.00 km UNKNOWN
P3410218 RS41 2020-02-11 13:38:17 47.255 15.0972 133 ° 6 km/h 1739 m -7.2 m/s 404.30 MHz Sankt Michael in Obersteiermark (AT) 0.00 km FOUND
P3350344 RS41 2020-02-11 12:08:10 47.3077 14.3434 119 ° 96 km/h 2348 m -12.7 m/s 402.50 MHz Oberwölz Stadt (AT) 0.00 km UNKNOWN
P3340872 RS41 2020-02-11 06:57:59 46.9707 15.6356 148 ° 9 km/h 484 m -1.7 m/s 402.50 MHz Pirching am Traubenberg (AT) 0.00 km FOUND
P3350334 RS41 2020-02-10 18:43:08 47.0537 14.7893 114 ° 44 km/h 2084 m -5.5 m/s 404.30 MHz Obdach (AT) 0.00 km UNKNOWN
P3340716 RS41 2020-02-10 12:43:17 47.2081 14.554 62 ° 24 km/h 1576 m -8.9 m/s 404.30 MHz Pöls (AT) 0.00 km FOUND
P3350629 RS41 2020-02-10 06:29:08 47.5894 13.7301 66 ° 69 km/h 2192 m -8.1 m/s 404.30 MHz Bad Aussee (AT) 0.00 km UNKNOWN
P3350621 RS41 2020-02-07 07:03:46 47.1856 10.9696 206 ° 28 km/h 2954 m -3.9 m/s 402.50 MHz Oetz (AT) 0.00 km UNKNOWN
P3350620 RS41 2020-02-06 18:37:49 47.2812 10.3726 219 ° 11 km/h 2513 m -4.8 m/s 402.50 MHz Mittelberg (AT) 0.00 km UNKNOWN
P3350622 RS41 2020-02-06 12:29:08 47.2337 10.6346 261 ° 17 km/h 2677 m -6.9 m/s 402.50 MHz Imst (AT) 0.00 km UNKNOWN
P3340719 RS41 2020-02-06 06:26:35 46.8903 10.8902 192 ° 69 km/h 3894 m -4.0 m/s 402.50 MHz Sölden (AT) 0.00 km UNKNOWN
P3340717 RS41 2020-02-05 18:36:18 46.444 10.4498 210 ° 126 km/h 4624 m -10.0 m/s 402.50 MHz Tirano (IT) 0.00 km UNKNOWN
P3410670 RS41 2020-02-05 12:44:09 46.0132 10.3411 199 ° 72 km/h 2788 m -4.1 m/s 402.50 MHz Tirano (IT) 0.00 km UNKNOWN
P3350607 RS41 2020-02-05 06:49:18 46.0706 11.1886 204 ° 69 km/h 1611 m -5.9 m/s 402.50 MHz Pergine Valsugana (IT) 0.00 km FOUND
P3350331 RS41 2020-02-04 18:27:11 46.9697 11.7319 174 ° 94 km/h 3953 m -7.5 m/s 402.50 MHz Steinach am Brenner (AT) 0.00 km UNKNOWN
P3350332 RS41 2020-02-04 12:30:02 47.3141 12.4151 125 ° 83 km/h 3271 m -8.1 m/s 402.50 MHz Mittersill (AT) 0.00 km UNKNOWN
P3340410 RS41 2020-02-04 07:15:42 47.6035 12.8714 102 ° 67 km/h 1783 m -15.4 m/s 402.50 MHz Grossgmain (AT) 0.00 km UNKNOWN
P3340871 RS41 2020-02-03 18:40:40 46.786 13.5565 95 ° 37 km/h 2760 m -5.3 m/s 402.50 MHz Millstatt (AT) 0.00 km UNKNOWN
P3340852 RS41 2020-02-03 12:33:15 46.7514 13.3621 124 ° 78 km/h 3185 m -4.7 m/s 402.50 MHz Spittal an der Drau (AT) 0.00 km UNKNOWN
P3410108 RS41 2020-02-03 08:21:20 46.8619 13.2667 123 ° 104 km/h 3550 m -4.0 m/s 404.30 MHz Obervellach (AT) 0.00 km UNKNOWN
P3420497 RS41 2020-02-03 06:42:04 46.8233 13.3377 130 ° 87 km/h 3068 m -4.4 m/s 402.50 MHz Spittal an der Drau (AT) 0.00 km UNKNOWN
P3420533 RS41 2020-02-03 06:23:04 46.8787 12.9864 135 ° 109 km/h 3692 m -2.0 m/s 404.30 MHz Dölsach (AT) 0.00 km UNKNOWN
P3340475 RS41 2020-01-31 06:27:01 47.0556 11.9973 141 ° 63 km/h 3613 m -6.7 m/s 402.50 MHz Mayrhofen (AT) 0.00 km UNKNOWN
P3340513 RS41 2020-01-30 18:42:06 46.814 12.8735 75 ° 35 km/h 2603 m -4.0 m/s 402.50 MHz Dölsach (AT) 0.00 km UNKNOWN
P3340522 RS41 2020-01-30 12:56:27 46.5406 13.1659 83 ° 37 km/h 2510 m -5.5 m/s 402.50 MHz Kirchbach (AT) 0.00 km UNKNOWN
DF638086 DFM 2020-01-30 09:23:49 46.6525 12.3759 136 ° 83 km/h 5685 m -5.6 m/s 404.310 MHz Lienz (AT) 0.00 km UNKNOWN
P3340414 RS41 2020-01-30 07:37:56 46.5627 12.9076 133 ° 0 km/h 2056 m -0.0 m/s 402.50 MHz Tolmezzo (IT) 0.00 km UNKNOWN
P3340411 RS41 2020-01-29 18:48:09 46.6157 13.641 86 ° 26 km/h 1694 m -2.5 m/s 402.50 MHz Bleiberg ob Villach (AT) 0.00 km FOUND
P3340515 RS41 2020-01-29 12:37:30 46.9137 13.4797 119 ° 35 km/h 2922 m -1.0 m/s 402.50 MHz Gmünd (AT) 0.00 km UNKNOWN
P3340537 RS41 2020-01-29 06:18:16 47.0991 13.3147 125 ° 94 km/h 4028 m -8.7 m/s 402.50 MHz Badgastein (AT) 0.00 km UNKNOWN
P3340373 RS41 2020-01-28 18:34:41 47.6325 13.7337 111 ° 65 km/h 1894 m -7.6 m/s 402.50 MHz Bad Aussee (AT) 0.00 km LOST
P3340409 RS41 2020-01-28 12:53:07 47.918 13.8687 106 ° 69 km/h 850 m -8.2 m/s 402.50 MHz Gschwandt (AT) 0.00 km UNKNOWN
P3340264 RS41 2020-01-28 06:33:20 47.8466 13.5828 60 ° 22 km/h 1141 m -5.6 m/s 402.50 MHz Sankt Georgen im Attergau (AT) 0.00 km UNKNOWN
P3340263 RS41 2020-01-27 19:00:28 47.6497 13.381 341 ° 22 km/h 1760 m -3.3 m/s 402.50 MHz Strobl (AT) 0.00 km UNKNOWN
DF638519 DFM 2020-01-27 14:42:33 47.677 11.9397 96 ° 89 km/h 15647 m -8.8 m/s 404.310 MHz Kufstein (AT) 0.00 km UNKNOWN
P3340407 RS41 2020-01-27 12:28:57 47.3994 12.5802 76 ° 31 km/h 2916 m -7.4 m/s 402.50 MHz Fieberbrunn (AT) 0.00 km UNKNOWN
DFM42C47 DFM 2020-01-27 09:42:47 47.4712 12.168 31 ° 15 km/h 1539 m -3.1 m/s 404.309 MHz Hopfgarten im Brixental (AT) 0.00 km UNKNOWN
P3340406 RS41 2020-01-27 06:34:03 47.431 12.5203 105 ° 30 km/h 2801 m -6.7 m/s 402.50 MHz Fieberbrunn (AT) 0.00 km UNKNOWN
DFM38641 DFM 2020-01-24 09:33:27 48.2066 11.8288 97 ° 56 km/h 1138 m -3.4 m/s 404.310 MHz Vaterstetten (DE) 0.00 km FOUND
P3350141 RS41 2020-01-24 06:44:34 48.1311 12.1069 84 ° 26 km/h 743 m -4.1 m/s 402.50 MHz Waldkraiburg (DE) 0.00 km FOUND
P3340405 RS41 2020-01-23 18:34:09 47.9522 11.7693 32 ° 13 km/h 1315 m -5.2 m/s 402.50 MHz Unterhaching (DE) 0.00 km FOUND
P3340408 RS41 2020-01-23 12:40:57 47.9534 11.5304 275 ° 20 km/h 974 m -7.5 m/s 402.50 MHz Geretsried (DE) 0.00 km UNKNOWN
P3350289 RS41 2020-01-23 10:04:57 47.8495 11.2628 276 ° 35 km/h 1261 m -4.4 m/s 402.50 MHz Weilheim in Oberbayern (DE) 0.00 km UNKNOWN
DFM37DEB DFM 2020-01-23 09:51:52 47.9162 10.9605 258 ° 20 km/h 937 m -4.5 m/s 404.310 MHz Weilheim in Oberbayern (DE) 0.00 km UNKNOWN
P3350683 RS41 2020-01-23 06:56:35 47.7043 11.2325 279 ° 17 km/h 1309 m -9.9 m/s 402.50 MHz Weilheim in Oberbayern (DE) 0.00 km FOUND
P3340654 RS41 2020-01-22 18:46:26 47.5709 11.1493 22 ° 7 km/h 1565 m -3.4 m/s 402.50 MHz Garmisch-Partenkirchen (DE) 0.00 km UNKNOWN
P3350164 RS41 2020-01-22 12:51:13 47.7067 11.2209 160 ° 15 km/h 1306 m -3.8 m/s 402.50 MHz Weilheim in Oberbayern (DE) 0.00 km UNKNOWN
P3350290 RS41 2020-01-22 06:36:40 47.7195 11.2167 45 ° 15 km/h 1121 m -3.5 m/s 402.50 MHz Weilheim in Oberbayern (DE) 0.00 km FOUND
P3420547 RS41 2020-01-21 19:22:34 48.016 10.6562 282 ° 15 km/h 793 m -3.2 m/s 402.50 MHz Kaufbeuren (DE) 0.00 km UNKNOWN
P3350680 RS41 2020-01-21 12:34:52 48.0971 10.2532 270 ° 4 km/h 687 m -3.9 m/s 402.50 MHz Memmingen (DE) 0.00 km FOUND
P3410605 RS41 2020-01-21 06:46:24 47.9425 10.0502 282 ° 7 km/h 762 m -4.3 m/s 402.50 MHz Memmingen (DE) 0.00 km FOUND
P3350310 RS41 2020-01-20 18:47:36 47.7893 9.94866 262 ° 44 km/h 888 m -7.6 m/s 402.50 MHz Leutkirch (DE) 0.00 km FOUND
P3420532 RS41 2020-01-20 12:47:17 47.5077 9.82052 262 ° 9 km/h 1189 m -2.8 m/s 402.50 MHz Bregenz (AT) 0.00 km FOUND
P3420531 RS41 2020-01-20 06:32:04 47.4285 9.92848 233 ° 4 km/h 1210 m -7.4 m/s 402.50 MHz Egg (AT) 0.00 km UNKNOWN
P3420498 RS41 2020-01-17 07:01:27 48.1608 11.7466 60 ° 44 km/h 678 m -3.8 m/s 402.50 MHz Vaterstetten (DE) 0.00 km FOUND
P3340875 RS41 2020-01-16 18:28:46 47.9698 11.4744 281 ° 39 km/h 948 m -8.0 m/s 402.50 MHz Starnberg (DE) 0.00 km FOUND
P3410217 RS41 2020-01-16 12:28:15 48.1664 11.883 231 ° 22 km/h 654 m -8.5 m/s 402.50 MHz Vaterstetten (DE) 0.00 km FOUND
P3340876 RS41 2020-01-16 06:39:47 48.371 12.4082 103 ° 30 km/h 831 m -4.1 m/s 402.50 MHz Waldkraiburg (DE) 0.00 km FOUND
P3340874 RS41 2020-01-15 18:28:36 48.3225 12.1678 66 ° 33 km/h 674 m -7.4 m/s 402.50 MHz Erding (DE) 0.00 km FOUND
P3410603 RS41 2020-01-15 12:37:36 48.3112 12.0621 124 ° 13 km/h 671 m -3.8 m/s 402.50 MHz Erding (DE) 0.00 km FOUND
P3350308 RS41 2020-01-15 06:53:26 48.1636 12.1654 80 ° 4 km/h 891 m -5.2 m/s 402.50 MHz Waldkraiburg (DE) 0.00 km FOUND
P3410486 RS41 2020-01-14 18:51:58 47.5433 12.4538 13 ° 11 km/h 2103 m -4.6 m/s 402.50 MHz Kirchdorf in Tirol (AT) 0.00 km UNKNOWN
P3410636 RS41 2020-01-14 12:56:26 47.5149 12.4692 293 ° 17 km/h 2029 m -3.9 m/s 402.50 MHz Sankt Johann in Tirol (AT) 0.00 km UNKNOWN
P3340851 RS41 2020-01-14 06:47:52 47.7583 12.5322 343 ° 4 km/h 1201 m -4.3 m/s 402.50 MHz Kössen (AT) 0.00 km UNKNOWN
P3350307 RS41 2020-01-13 18:45:14 48.0314 12.7219 336 ° 15 km/h 531 m -5.6 m/s 402.50 MHz Ostermiething (AT) 0.00 km UNKNOWN
P3350316 RS41 2020-01-13 12:39:05 48.2179 12.6746 297 ° 7 km/h 549 m -4.2 m/s 402.50 MHz Hochburg-Ach (AT) 0.00 km FOUND
P3350318 RS41 2020-01-13 06:43:10 47.9961 12.5608 309 ° 13 km/h 673 m -8.1 m/s 402.50 MHz Traunreut (DE) 0.00 km UNKNOWN
P3350311 RS41 2020-01-10 06:57:41 48.6062 12.2793 55 ° 15 km/h 427 m -4.1 m/s 402.50 MHz Landshut (DE) 0.00 km UNKNOWN
P3410141 RS41 2020-01-09 19:00:16 48.1274 12.3012 12 ° 13 km/h 670 m -3.6 m/s 402.50 MHz Waldkraiburg (DE) 0.00 km UNKNOWN
P3350317 RS41 2020-01-09 12:39:01 47.9184 11.9298 78 ° 17 km/h 1495 m -4.4 m/s 402.50 MHz Rosenheim (DE) 0.00 km FOUND
P3410142 RS41 2020-01-09 06:43:37 47.6797 11.7125 108 ° 7 km/h 1494 m -5.9 m/s 402.50 MHz Achenkirch (AT) 0.00 km UNKNOWN
P3350352 RS41 2020-01-08 18:23:34 47.3687 10.9901 83 ° 2 km/h 2504 m -14.2 m/s 402.50 MHz Ehrwald (AT) 0.00 km UNKNOWN
P3420528 RS41 2020-01-08 12:52:08 47.0412 10.7163 183 ° 22 km/h 2972 m -4.4 m/s 402.50 MHz Fliess (AT) 0.00 km UNKNOWN
P3410385 RS41 2020-01-08 06:54:19 46.7814 10.4909 206 ° 46 km/h 3903 m -4.2 m/s 402.50 MHz Pfunds (AT) 0.00 km UNKNOWN
P3350166 RS41 2020-01-07 18:46:27 46.425 10.472 194 ° 81 km/h 4772 m -3.7 m/s 402.50 MHz Tirano (IT) 0.00 km UNKNOWN
P3410634 RS41 2020-01-07 12:48:18 46.7868 11.3654 180 ° 50 km/h 4444 m -4.8 m/s 402.50 MHz Merano (IT) 0.00 km UNKNOWN
P3410139 RS41 2020-01-07 06:36:47 47.6104 11.8944 111 ° 59 km/h 1925 m -3.6 m/s 402.50 MHz Breitenbach am Inn (AT) 0.00 km UNKNOWN
P3410143 RS41 2019-12-20 06:34:45 47.8895 11.7206 6 ° 46 km/h 1178 m -4.3 m/s 402.50 MHz Geretsried (DE) 0.00 km UNKNOWN
P3410485 RS41 2019-12-19 18:33:06 48.3798 11.1917 1 ° 28 km/h 703 m -8.1 m/s 402.50 MHz Aichach (DE) 0.00 km UNKNOWN
P3340674 RS41 2019-12-19 12:40:21 48.5432 11.1872 312 ° 6 km/h 582 m -4.0 m/s 402.50 MHz Aichach (DE) 0.00 km UNKNOWN
P3350297 RS41 2019-12-19 06:49:09 48.3184 11.3824 15 ° 19 km/h 749 m -4.9 m/s 402.50 MHz Dachau (DE) 0.00 km UNKNOWN
P3350302 RS41 2019-12-18 18:55:04 48.3592 12.0908 273 ° 22 km/h 693 m -3.9 m/s 402.50 MHz Erding (DE) 0.00 km FOUND
P3350681 RS41 2019-12-18 12:42:00 48.5094 12.1959 124 ° 28 km/h 1078 m -5.0 m/s 402.50 MHz Landshut (DE) 0.00 km UNKNOWN
DFM377B3 DFM 2019-12-18 08:54:28 48.2704 11.5614 117 ° 31 km/h 1143 m -12.6 m/s 404.309 MHz Unterschleißheim (DE) 0.00 km FOUND
P3350304 RS41 2019-12-18 06:49:20 48.5445 12.2134 85 ° 22 km/h 819 m -5.1 m/s 402.50 MHz Landshut (DE) 0.00 km FOUND
P3350205 RS41 2019-12-17 18:29:34 48.705 12.1339 45 ° 46 km/h 1339 m -7.0 m/s 402.50 MHz Landshut (DE) 0.00 km UNKNOWN
P3350298 RS41 2019-12-17 12:38:02 48.6511 12.1969 20 ° 35 km/h 843 m -4.8 m/s 402.50 MHz Landshut (DE) 0.00 km UNKNOWN
DFM36FBD DFM 2019-12-17 09:14:41 48.7525 12.3081 56 ° 35 km/h 1643 m -4.6 m/s 404.310 MHz Straubing (DE) 0.00 km UNKNOWN
P3350356 RS41 2019-12-17 06:33:26 48.5219 12.2001 11 ° 30 km/h 626 m -4.6 m/s 402.50 MHz Landshut (DE) 0.00 km UNKNOWN
P3350365 RS41 2019-12-16 18:56:31 48.3609 13.0875 290 ° 22 km/h 594 m -4.4 m/s 402.50 MHz Sankt Peter (AT) 0.00 km FOUND
P3420897 RS41 2019-12-16 12:48:34 48.125 12.969 328 ° 9 km/h 599 m -6.5 m/s 402.50 MHz Eggelsberg (AT) 0.00 km FOUND
P3340629 RS41 2019-12-16 09:18:03 48.0684 12.7837 78 ° 109 km/h 8208 m -6.1 m/s 402.50 MHz Ostermiething (AT) 0.00 km UNKNOWN
P3340630 RS41 2019-12-16 06:45:24 48.0933 12.5874 317 ° 22 km/h 630 m -8.0 m/s 402.50 MHz Traunreut (DE) 0.00 km FOUND
DFM37EA9 DFM 2019-12-13 09:16:49 47.8952 12.0218 27 ° 13 km/h 849 m -3.0 m/s 404.308 MHz Rosenheim (DE) 0.00 km FOUND
P3420550 RS41 2019-12-13 06:38:26 47.6776 12.3263 358 ° 7 km/h 1553 m -4.2 m/s 402.50 MHz Kössen (AT) 0.00 km UNKNOWN
P3340279 RS41 2019-12-12 18:50:23 48.0297 11.624 58 ° 17 km/h 776 m -5.2 m/s 402.50 MHz Unterhaching (DE) 0.00 km FOUND
DFM37FB0 DFM 2019-12-12 15:46:00 48.3364 11.3875 63 ° 41 km/h 828 m -2.7 m/s 404.310 MHz Dachau (DE) 0.00 km UNKNOWN
P3340531 RS41 2019-12-12 12:32:53 48.4611 11.3605 67 ° 24 km/h 767 m -6.4 m/s 402.50 MHz Pfaffenhofen an der Ilm (DE) 0.00 km UNKNOWN
P3340667 RS41 2019-12-12 09:54:00 48.6149 11.1794 55 ° 31 km/h 728 m -3.8 m/s 402.50 MHz Neuburg an der Donau (DE) 0.00 km UNKNOWN
P3340668 RS41 2019-12-12 06:42:22 48.5832 11.5681 84 ° 26 km/h 835 m -3.7 m/s 402.50 MHz Pfaffenhofen an der Ilm (DE) 0.00 km UNKNOWN
P3340822 RS41 2019-12-11 18:50:47 48.3347 11.9035 49 ° 11 km/h 604 m -4.6 m/s 402.50 MHz Erding (DE) 0.00 km FOUND
DFM377EA DFM 2019-12-11 15:32:38 48.1226 11.5733 73 ° 46 km/h 12379 m -5.9 m/s 404.310 MHz München (DE) 0.00 km UNKNOWN
P3340821 RS41 2019-12-11 12:32:58 47.9518 11.7051 45 ° 15 km/h 1162 m -9.2 m/s 402.50 MHz Unterhaching (DE) 0.00 km UNKNOWN
DFM3800E DFM 2019-12-11 09:37:47 47.7172 11.3531 117 ° 17 km/h 1506 m -3.5 m/s 404.310 MHz Geretsried (DE) 0.00 km UNKNOWN
P3340819 RS41 2019-12-11 06:32:06 47.4831 11.4113 86 ° 4 km/h 1952 m -7.0 m/s 402.50 MHz Thaur (AT) 0.00 km UNKNOWN
P3340533 RS41 2019-12-10 18:30:58 46.8256 10.8148 213 ° 80 km/h 3983 m -6.2 m/s 402.50 MHz Sölden (AT) 0.00 km UNKNOWN
P3420853 RS41 2019-12-10 12:57:12 46.489 10.911 216 ° 109 km/h 4693 m -5.3 m/s 402.50 MHz Lana (IT) 0.00 km UNKNOWN
P3420905 RS41 2019-12-10 06:41:04 46.9572 11.3262 168 ° 74 km/h 4129 m -4.8 m/s 402.50 MHz Neustift im Stubaital (AT) 0.00 km UNKNOWN
P3420857 RS41 2019-12-09 18:28:53 47.5447 11.8246 92 ° 35 km/h 2048 m -5.6 m/s 402.50 MHz Achenkirch (AT) 0.00 km UNKNOWN
P3420855 RS41 2019-12-09 13:47:39 48.1267 12.3078 88 ° 43 km/h 850 m -4.5 m/s 404.30 MHz Waldkraiburg (DE) 0.00 km UNKNOWN
P3420865 RS41 2019-12-09 12:36:20 48.1688 12.1969 71 ° 52 km/h 891 m -4.9 m/s 402.50 MHz Waldkraiburg (DE) 0.00 km LOST
P3420866 RS41 2019-12-09 06:46:26 48.3238 12.872 77 ° 33 km/h 660 m -3.3 m/s 402.50 MHz Braunau am Inn (AT) 0.00 km UNKNOWN
P3420859 RS41 2019-12-06 07:11:55 47.8994 11.9517 93 ° 46 km/h 1077 m -3.9 m/s 402.50 MHz Rosenheim (DE) 0.00 km FOUND
P3420870 RS41 2019-12-05 12:47:43 48.1236 11.7387 86 ° 2 km/h 620 m -7.2 m/s 402.50 MHz Vaterstetten (DE) 0.00 km FOUND
P3340669 RS41 2019-12-05 06:48:23 48.1861 11.437 78 ° 15 km/h 736 m -4.1 m/s 402.50 MHz Germering (DE) 0.00 km FOUND
P3420867 RS41 2019-12-04 19:09:31 48.1834 11.091 296 ° 20 km/h 861 m -3.5 m/s 402.50 MHz Fürstenfeldbruck (DE) 0.00 km UNKNOWN
P3340671 RS41 2019-12-04 12:59:34 47.9617 10.8593 244 ° 9 km/h 841 m -3.0 m/s 402.50 MHz Landsberg am Lech (DE) 0.00 km UNKNOWN
P3340636 RS41 2019-12-04 06:39:37 47.604 10.8555 268 ° 20 km/h 1483 m -5.7 m/s 402.50 MHz Reutte (AT) 0.00 km UNKNOWN
P3340635 RS41 2019-12-03 18:43:35 46.9925 10.8394 183 ° 19 km/h 3457 m -4.2 m/s 402.50 MHz Sölden (AT) 0.00 km UNKNOWN
P3340625 RS41 2019-12-03 12:31:41 46.8972 10.5612 198 ° 37 km/h 3697 m -5.1 m/s 402.50 MHz Pfunds (AT) 0.00 km UNKNOWN
P3340626 RS41 2019-12-03 06:25:32 46.89 11.202 200 ° 61 km/h 4054 m -5.2 m/s 402.50 MHz Sölden (AT) 0.00 km UNKNOWN
P3340824 RS41 2019-12-02 18:36:08 47.3633 11.8019 115 ° 6 km/h 1818 m -4.9 m/s 402.50 MHz Fügen (AT) 0.00 km UNKNOWN
P3340611 RS41 2019-12-02 12:45:52 47.4262 12.4422 136 ° 39 km/h 2662 m -4.4 m/s 402.50 MHz Kitzbühel (AT) 0.00 km UNKNOWN
P3420861 RS41 2019-12-02 06:40:31 47.8225 13.1153 107 ° 33 km/h 1011 m -3.9 m/s 402.50 MHz Koppl (AT) 0.00 km FOUND
P3340791 RS41 2019-11-29 06:54:51 47.6198 13.1002 88 ° 22 km/h 1547 m -3.8 m/s 402.50 MHz Kuchl (AT) 0.00 km UNKNOWN
P3340789 RS41 2019-11-28 19:06:40 47.8587 13.2881 84 ° 28 km/h 1068 m -3.2 m/s 402.50 MHz Thalgau (AT) 0.00 km UNKNOWN
P3340790 RS41 2019-11-28 18:56:14 47.8062 12.7002 27 ° 26 km/h 919 m -9.1 m/s 404.30 MHz Grossgmain (AT) 0.00 km UNKNOWN
P3350157 RS41 2019-11-28 12:48:25 48.0577 12.9166 45 ° 17 km/h 647 m -3.8 m/s 402.50 MHz Eggelsberg (AT) 0.00 km FOUND
P3340788 RS41 2019-11-28 09:34:02 48.1841 12.4751 45 ° 24 km/h 614 m -5.9 m/s 402.50 MHz Waldkraiburg (DE) 0.00 km UNKNOWN
P3340787 RS41 2019-11-28 06:40:47 48.1532 12.6813 71 ° 26 km/h 572 m -5.1 m/s 402.50 MHz Hochburg-Ach (AT) 0.00 km UNKNOWN
P3350139 RS41 2019-11-27 19:08:02 48.0324 13.0809 18 ° 13 km/h 742 m -3.8 m/s 402.50 MHz Mattsee (AT) 0.00 km UNKNOWN
P3350165 RS41 2019-11-27 13:00:23 48.4789 12.8425 109 ° 11 km/h 677 m -4.2 m/s 402.50 MHz Braunau am Inn (AT) 0.00 km UNKNOWN
P3350167 RS41 2019-11-27 06:29:52 48.0962 12.2838 324 ° 15 km/h 724 m -3.5 m/s 402.50 MHz Waldkraiburg (DE) 0.00 km UNKNOWN
P3350143 RS41 2019-11-26 18:30:59 47.4399 12.3131 62 ° 19 km/h 2164 m -8.6 m/s 402.50 MHz Kirchberg in Tirol (AT) 0.00 km UNKNOWN
P3350153 RS41 2019-11-26 12:33:31 47.4085 12.2859 329 ° 11 km/h 2215 m -9.1 m/s 402.50 MHz Kirchberg in Tirol (AT) 0.00 km UNKNOWN
P3350162 RS41 2019-11-26 06:36:58 47.4346 12.1373 166 ° 7 km/h 1835 m -4.2 m/s 402.50 MHz Hopfgarten im Brixental (AT) 0.00 km FOUND
P3350154 RS41 2019-11-25 18:38:41 47.8002 11.8182 52 ° 13 km/h 1874 m -5.8 m/s 404.30 MHz Rosenheim (DE) 0.00 km UNKNOWN
P3420548 RS41 2019-11-25 12:48:38 47.774 11.6522 266 ° 2 km/h 1479 m -4.5 m/s 402.50 MHz Geretsried (DE) 0.00 km UNKNOWN
P3340656 RS41 2019-11-25 06:51:55 47.7211 11.6614 347 ° 6 km/h 1775 m -4.0 m/s 402.50 MHz Geretsried (DE) 0.00 km UNKNOWN
P3350291 RS41 2019-11-22 10:22:23 48.2982 11.9335 324 ° 6 km/h 604 m -3.8 m/s 402.50 MHz Erding (DE) 0.00 km FOUND
P3350299 RS41 2019-11-22 06:51:30 48.2321 12.1326 353 ° 13 km/h 813 m -4.2 m/s 402.50 MHz Erding (DE) 0.00 km FOUND
P3350292 RS41 2019-11-21 18:37:02 48.305 11.4875 17 ° 9 km/h 902 m -5.6 m/s 402.50 MHz Dachau (DE) 0.00 km UNKNOWN
DFM36F7A DFM 2019-11-21 15:30:27 48.334 11.4572 65 ° 24 km/h 2566 m -3.5 m/s 404.310 MHz Dachau (DE) 0.00 km UNKNOWN
P3350293 RS41 2019-11-21 12:39:32 48.3025 11.5857 113 ° 7 km/h 701 m -7.1 m/s 402.50 MHz Unterschleißheim (DE) 0.00 km LOST
DFM37F38 DFM 2019-11-21 09:16:33 48.1183 11.054 350 ° 9 km/h 15663 m -8.8 m/s 404.309 MHz Fürstenfeldbruck (DE) 0.00 km UNKNOWN
P3350163 RS41 2019-11-21 06:57:16 48.1826 11.0686 62 ° 9 km/h 810 m -9.7 m/s 402.50 MHz Fürstenfeldbruck (DE) 0.00 km UNKNOWN
P3350294 RS41 2019-11-20 18:33:51 48.1091 10.9488 273 ° 9 km/h 861 m -7.5 m/s 402.50 MHz Landsberg am Lech (DE) 0.00 km FOUND
DFM3815F DFM 2019-11-20 15:50:25 48.1597 10.9369 226 ° 11 km/h 875 m -4.4 m/s 404.310 MHz Landsberg am Lech (DE) 0.00 km UNKNOWN
P3350168 RS41 2019-11-20 12:31:50 48.0683 11.2583 296 ° 17 km/h 1046 m -6.9 m/s 402.50 MHz Starnberg (DE) 0.00 km UNKNOWN
DFM3854E DFM 2019-11-20 10:17:14 48.1046 11.024 289 ° 20 km/h 1113 m -2.9 m/s 404.311 MHz Landsberg am Lech (DE) 0.00 km UNKNOWN
P3350160 RS41 2019-11-20 06:48:48 48.0849 11.327 248 ° 11 km/h 1022 m -6.5 m/s 402.50 MHz Germering (DE) 0.00 km FOUND
P3350158 RS41 2019-11-19 18:52:14 48.2204 11.7152 111 ° 9 km/h 550 m -4.3 m/s 402.50 MHz Unterschleißheim (DE) 0.00 km FOUND
P3340792 RS41 2019-11-19 12:40:51 48.3731 11.5654 118 ° 4 km/h 774 m -3.9 m/s 402.50 MHz Unterschleißheim (DE) 0.00 km UNKNOWN
DFM38126 DFM 2019-11-19 08:29:56 48.1762 11.187 74 ° 35 km/h 15861 m 5.1 m/s 404.310 MHz Fürstenfeldbruck (DE) 0.00 km UNKNOWN
P3350144 RS41 2019-11-19 06:38:11 48.3651 11.5613 84 ° 9 km/h 809 m -4.4 m/s 402.50 MHz Unterschleißheim (DE) 0.00 km UNKNOWN
P3350159 RS41 2019-11-18 18:54:53 48.4501 12.1396 81 ° 31 km/h 783 m -3.7 m/s 402.50 MHz Landshut (DE) 0.00 km UNKNOWN
P3350142 RS41 2019-11-18 12:40:41 48.2867 11.5947 83 ° 33 km/h 677 m -5.3 m/s 402.50 MHz Unterschleißheim (DE) 0.00 km LOST
P3350612 RS41 2019-11-18 06:38:57 48.3938 10.8925 54 ° 31 km/h 660 m -6.9 m/s 402.50 MHz Augsburg (DE) 0.00 km LOST
P3340404 RS41 2019-11-15 06:31:21 48.8465 11.3294 312 ° 63 km/h 862 m -6.7 m/s 402.50 MHz Ingolstadt (DE) 0.00 km UNKNOWN
P3340282 RS41 2019-11-14 18:36:39 48.7088 11.7163 321 ° 52 km/h 1064 m -6.5 m/s 402.50 MHz Ingolstadt (DE) 0.00 km UNKNOWN
P3340261 RS41 2019-11-14 12:30:43 48.4762 11.819 320 ° 30 km/h 1016 m -7.9 m/s 402.50 MHz Freising (DE) 0.00 km FOUND
P3340412 RS41 2019-11-14 06:54:31 48.4182 12.0807 297 ° 41 km/h 734 m -6.9 m/s 402.50 MHz Landshut (DE) 0.00 km FOUND
P3350611 RS41 2019-11-13 19:13:07 48.1177 12.0089 41 ° 20 km/h 693 m -3.1 m/s 402.50 MHz Vaterstetten (DE) 0.00 km UNKNOWN
P3340259 RS41 2019-11-13 13:24:23 48.4062 11.8706 100 ° 15 km/h 728 m -9.1 m/s 402.50 MHz Freising (DE) 0.00 km FOUND
P3340403 RS41 2019-11-13 06:46:24 48.3757 11.5171 47 ° 13 km/h 726 m -7.3 m/s 402.50 MHz Unterschleißheim (DE) 0.00 km UNKNOWN
P3340262 RS41 2019-11-12 18:55:30 49.0038 11.5592 25 ° 19 km/h 675 m -4.4 m/s 402.50 MHz Ingolstadt (DE) 0.00 km UNKNOWN
P0650263 RS41 2019-11-12 13:42:16 50.2414 14.2332 31 ° 94 km/h 4497 m -1.5 m/s 402.50 MHz Kralupy nad Vltavou (CZ) 0.00 km UNKNOWN
P3320788 RS41 2019-11-12 12:31:00 48.7663 11.9262 12 ° 11 km/h 869 m -4.6 m/s 404.30 MHz Landshut (DE) 0.00 km UNKNOWN
P3320742 RS41 2019-11-12 06:36:23 48.8139 12.1208 93 ° 19 km/h 1195 m -4.1 m/s 402.50 MHz Regensburg (DE) 0.00 km UNKNOWN
P3320747 RS41 2019-11-11 18:36:58 48.1823 11.6051 10 ° 9 km/h 536 m -2.4 m/s 402.50 MHz München (DE) 0.00 km FOUND
DFM7B587 DFM 2019-11-11 14:40:34 48.4939 11.6775 328 ° 9 km/h 924 m -12.3 m/s 405.111 MHz Freising (DE) 0.00 km UNKNOWN
P3320740 RS41 2019-11-11 13:04:30 48.1172 11.7519 256 ° 11 km/h 735 m -5.7 m/s 402.50 MHz Vaterstetten (DE) 0.00 km FOUND
P3340179 RS41 2019-11-11 06:22:49 47.8927 11.4089 347 ° 11 km/h 1366 m -6.8 m/s 402.50 MHz Geretsried (DE) 0.00 km UNKNOWN
P3330666 RS41 2019-11-08 06:57:48 48.6972 12.0783 286 ° 22 km/h 823 m -6.2 m/s 402.50 MHz Landshut (DE) 0.00 km UNKNOWN
P3340539 RS41 2019-11-07 18:21:15 48.3595 11.936 5 ° 11 km/h 681 m -6.9 m/s 402.50 MHz Erding (DE) 0.00 km FOUND
P3340180 RS41 2019-11-07 12:36:15 48.1936 12.1518 330 ° 17 km/h 970 m -5.9 m/s 402.50 MHz Waldkraiburg (DE) 0.00 km FOUND
DFM37F72 DFM 2019-11-07 09:39:47 48.0086 11.9837 84 ° 22 km/h 2781 m -4.6 m/s 404.311 MHz Vaterstetten (DE) 0.00 km FOUND
P3340165 RS41 2019-11-07 06:33:23 47.9203 11.9614 261 ° 7 km/h 1159 m -5.9 m/s 402.50 MHz Rosenheim (DE) 0.00 km UNKNOWN
P3340624 RS41 2019-11-06 18:43:40 47.9596 11.8594 94 ° 41 km/h 1196 m -4.9 m/s 402.50 MHz Vaterstetten (DE) 0.00 km UNKNOWN
P3340164 RS41 2019-11-06 13:12:33 48.1696 12.3955 89 ° 15 km/h 739 m -4.3 m/s 402.50 MHz Waldkraiburg (DE) 0.00 km UNKNOWN
P3340177 RS41 2019-11-06 06:52:18 48.137 12.0812 72 ° 11 km/h 766 m -4.4 m/s 402.50 MHz Erding (DE) 0.00 km UNKNOWN
P3340176 RS41 2019-11-05 18:54:12 48.4039 12.3633 20 ° 13 km/h 988 m -3.4 m/s 402.50 MHz Waldkraiburg (DE) 0.00 km UNKNOWN
P3340175 RS41 2019-11-05 12:40:18 48.5264 12.5596 74 ° 24 km/h 1199 m -7.2 m/s 402.50 MHz Landshut (DE) 0.00 km UNKNOWN
P3330350 RS41 2019-11-05 06:45:48 48.4867 12.7458 30 ° 17 km/h 1034 m -3.9 m/s 402.50 MHz Braunau am Inn (AT) 0.00 km UNKNOWN
P3340178 RS41 2019-11-04 19:00:44 47.8543 13.5632 187 ° 7 km/h 1066 m -4.6 m/s 402.50 MHz Sankt Georgen im Attergau (AT) 0.00 km UNKNOWN
P3340458 RS41 2019-11-04 12:55:12 47.9554 13.1951 223 ° 17 km/h 862 m -4.7 m/s 402.50 MHz Köstendorf (AT) 0.00 km FOUND
P3340150 RS41 2019-11-04 06:30:38 47.7918 12.2036 23 ° 11 km/h 1046 m -7.2 m/s 402.50 MHz Rosenheim (DE) 0.00 km FOUND
P3340362 RS41 2019-10-31 18:28:58 47.5074 11.4726 94 ° 15 km/h 2054 m -10.8 m/s 402.50 MHz Achenkirch (AT) 0.00 km UNKNOWN
P3340366 RS41 2019-10-31 12:40:45 47.3951 11.455 125 ° 11 km/h 2760 m -5.8 m/s 402.50 MHz Thaur (AT) 0.00 km UNKNOWN
P3340168 RS41 2019-10-31 06:50:42 47.2133 11.8448 108 ° 35 km/h 2866 m -5.1 m/s 402.50 MHz Mayrhofen (AT) 0.00 km UNKNOWN
P3340148 RS41 2019-10-30 20:01:30 47.4786 11.9972 86 ° 30 km/h 2704 m -8.4 m/s 404.30 MHz Kundl (AT) 0.00 km FOUND
P3340363 RS41 2019-10-30 18:46:11 47.4398 12.2838 99 ° 13 km/h 2177 m -3.4 m/s 402.50 MHz Kirchberg in Tirol (AT) 0.00 km UNKNOWN
P3311187 RS41 2019-10-30 12:57:49 47.4282 12.282 78 ° 22 km/h 2418 m -3.8 m/s 402.50 MHz Brixen im Thale (AT) 0.00 km UNKNOWN
DFM37797 DFM 2019-10-30 09:53:37 47.3443 12.4639 121 ° 26 km/h 2533 m -3.3 m/s 404.309 MHz Mittersill (AT) 0.00 km UNKNOWN
P3320743 RS41 2019-10-30 07:12:10 47.4115 12.8841 136 ° 43 km/h 2792 m -5.0 m/s 402.50 MHz Saalfelden am Steinernen Meer (AT) 0.00 km UNKNOWN
P3330664 RS41 2019-10-29 19:01:59 47.6649 12.4227 264 ° 20 km/h 1869 m -3.0 m/s 402.50 MHz Kössen (AT) 0.00 km UNKNOWN
DFM36F9A DFM 2019-10-29 14:34:16 47.7592 11.5641 96 ° 43 km/h 3023 m -13.8 m/s MHz Geretsried (DE) 0.00 km UNKNOWN
P3320790 RS41 2019-10-29 13:05:18 47.7281 12.3831 231 ° 11 km/h 1518 m -3.6 m/s 402.50 MHz Kössen (AT) 0.00 km UNKNOWN
DFM377E3 DFM 2019-10-29 09:54:26 47.8665 12.3793 232 ° 13 km/h 908 m -4.3 m/s 404.309 MHz Traunreut (DE) 0.00 km UNKNOWN
P3340146 RS41 2019-10-29 06:38:15 47.7791 12.2226 136 ° 4 km/h 1230 m -8.3 m/s 402.50 MHz Rosenheim (DE) 0.00 km UNKNOWN
P3331014 RS41 2019-10-28 19:12:37 47.6325 12.7398 42 ° 7 km/h 1440 m -3.0 m/s 402.50 MHz Grossgmain (AT) 0.00 km UNKNOWN
P3340141 RS41 2019-10-28 12:43:09 47.7021 12.2636 18 ° 4 km/h 1382 m -7.9 m/s 402.50 MHz Niederndorf (AT) 0.00 km UNKNOWN
P3340134 RS41 2019-10-28 07:11:38 47.6882 12.7662 94 ° 19 km/h 1643 m -5.6 m/s 402.50 MHz Grossgmain (AT) 0.00 km UNKNOWN
P3340149 RS41 2019-10-25 05:47:43 48.3831 11.7456 122 ° 20 km/h 821 m -3.7 m/s 402.50 MHz Freising (DE) 0.00 km UNKNOWN
P3320789 RS41 2019-10-24 17:40:26 48.5496 11.3762 106 ° 20 km/h 700 m -6.3 m/s 402.50 MHz Pfaffenhofen an der Ilm (DE) 0.00 km UNKNOWN
DFM37034 DFM 2019-10-24 13:28:29 48.2843 10.9284 6 ° 74 km/h 5318 m -14.8 m/s 404.309 MHz Königsbrunn (DE) 0.00 km UNKNOWN
P3320791 RS41 2019-10-24 11:48:46 48.5427 11.6663 109 ° 20 km/h 798 m -9.0 m/s 402.50 MHz Pfaffenhofen an der Ilm (DE) 0.00 km UNKNOWN
P3340133 RS41 2019-10-24 06:09:45 48.5012 11.7258 98 ° 13 km/h 610 m -4.9 m/s 402.50 MHz Freising (DE) 0.00 km UNKNOWN
P3340364 RS41 2019-10-23 17:54:23 48.3512 11.9415 267 ° 9 km/h 539 m -6.7 m/s 402.50 MHz Erding (DE) 0.00 km FOUND
P3340144 RS41 2019-10-23 11:58:54 48.4609 11.8644 266 ° 13 km/h 775 m -10.0 m/s 402.50 MHz Freising (DE) 0.00 km UNKNOWN
P3320754 RS41 2019-10-23 06:04:38 48.3302 11.687 284 ° 17 km/h 814 m -3.7 m/s 402.50 MHz Freising (DE) 0.00 km FOUND
P3340365 RS41 2019-10-22 17:53:38 48.2524 11.9685 259 ° 19 km/h 975 m -9.5 m/s 402.50 MHz Erding (DE) 0.00 km FOUND
P3340147 RS41 2019-10-22 12:08:21 48.453 11.8593 120 ° 4 km/h 815 m -4.2 m/s 402.50 MHz Freising (DE) 0.00 km LOST
DFM377D4 DFM 2019-10-22 07:30:39 48.0453 11.0497 15 ° 19 km/h 2686 m -13.9 m/s 404.310 MHz Landsberg am Lech (DE) 0.00 km UNKNOWN
P3340455 RS41 2019-10-22 06:05:27 48.3085 11.9585 310 ° 6 km/h 689 m -4.0 m/s 402.50 MHz Erding (DE) 0.00 km FOUND
P3340454 RS41 2019-10-21 17:38:47 48.4501 11.8559 189 ° 19 km/h 706 m -6.1 m/s 402.50 MHz Freising (DE) 0.00 km FOUND
DFM37FA3 DFM 2019-10-21 13:27:49 48.2332 11.2312 34 ° 81 km/h 7543 m -17.7 m/s 404.309 MHz Fürstenfeldbruck (DE) 0.00 km UNKNOWN
P3340453 RS41 2019-10-21 11:26:53 48.4967 11.6711 186 ° 6 km/h 930 m -8.0 m/s 402.50 MHz Freising (DE) 0.00 km UNKNOWN
P3340457 RS41 2019-10-21 06:09:10 48.5691 12.1069 105 ° 11 km/h 687 m -3.9 m/s 402.50 MHz Landshut (DE) 0.00 km UNKNOWN
P3340451 RS41 2019-10-18 05:46:08 48.4418 12.0791 29 ° 13 km/h 1030 m -3.6 m/s 402.50 MHz Landshut (DE) 0.00 km FOUND
P3340462 RS41 2019-10-17 17:56:35 48.2151 12.071 289 ° 24 km/h 1022 m -4.0 m/s 402.50 MHz Erding (DE) 0.00 km UNKNOWN
P3340143 RS41 2019-10-17 11:34:07 48.0303 11.81 245 ° 6 km/h 1107 m -6.2 m/s 402.50 MHz Vaterstetten (DE) 0.00 km LOST
P3340139 RS41 2019-10-17 05:41:03 48.1129 11.7568 53 ° 19 km/h 748 m -7.0 m/s 402.50 MHz Vaterstetten (DE) 0.00 km LOST
P3340140 RS41 2019-10-16 17:33:30 47.8661 11.7739 42 ° 9 km/h 1478 m -5.3 m/s 402.50 MHz Geretsried (DE) 0.00 km UNKNOWN
P3340142 RS41 2019-10-16 11:48:08 47.9 12.0827 69 ° 33 km/h 1387 m -3.3 m/s 402.50 MHz Rosenheim (DE) 0.00 km LOST
P3340456 RS41 2019-10-16 05:43:51 48.0101 11.9818 98 ° 54 km/h 1053 m -5.3 m/s 402.50 MHz Vaterstetten (DE) 0.00 km UNKNOWN
P3320751 RS41 2019-10-15 17:41:45 48.487 11.4727 95 ° 44 km/h 824 m -5.7 m/s 402.50 MHz Pfaffenhofen an der Ilm (DE) 0.00 km UNKNOWN
P0320363 RS41 2019-10-15 11:43:29 48.4612 11.4117 283 ° 11 km/h 708 m -5.8 m/s 402.50 MHz Pfaffenhofen an der Ilm (DE) 0.00 km UNKNOWN
P0320365 RS41 2019-10-15 05:57:40 48.4008 11.5702 285 ° 6 km/h 611 m -8.7 m/s 402.50 MHz Freising (DE) 0.00 km UNKNOWN
P0650181 RS41 2019-10-14 18:07:17 48.3073 11.8186 324 ° 2 km/h 643 m -13.6 m/s 402.50 MHz Erding (DE) 0.00 km FOUND
DFM38558 DFM 2019-10-14 13:36:19 48.4301 11.4959 275 ° 24 km/h 923 m -3.4 m/s 404.310 MHz Pfaffenhofen an der Ilm (DE) 0.00 km FOUND
P0650182 RS41 2019-10-14 10:42:03 48.2526 11.651 268 ° 11 km/h 557 m -9.0 m/s 402.50 MHz Unterschleißheim (DE) 0.00 km FOUND
P0320358 RS41 2019-10-14 06:06:15 48.2294 11.8208 311 ° 17 km/h 644 m -4.8 m/s 402.50 MHz Erding (DE) 0.00 km FOUND
P3320749 RS41 2019-10-11 05:42:08 47.397 12.7797 79 ° 44 km/h 2776 m -4.2 m/s 402.50 MHz Leogang (AT) 0.00 km UNKNOWN
P0650347 RS41 2019-10-10 17:32:52 47.207 12.8556 126 ° 81 km/h 4150 m -6.0 m/s 402.50 MHz Bruck an der Großglocknerstraße (AT) 0.00 km UNKNOWN
P0320380 RS41 2019-10-10 11:36:47 47.5068 12.9245 90 ° 46 km/h 2516 m -6.4 m/s 402.50 MHz Saalfelden am Steinernen Meer (AT) 0.00 km UNKNOWN
DFM38638 DFM 2019-10-10 07:46:24 47.7911 12.3176 68 ° 43 km/h 1309 m -10.8 m/s 404.310 MHz Kössen (AT) 0.00 km UNKNOWN
P0320371 RS41 2019-10-10 05:34:39 48.0153 13.0378 54 ° 33 km/h 726 m -10.3 m/s 402.50 MHz Mattsee (AT) 0.00 km UNKNOWN
P0710769 RS41 2019-10-09 18:44:55 48.5066 13.3431 69 ° 63 km/h 941 m -5.5 m/s 404.30 MHz Schärding (AT) 0.00 km UNKNOWN
P2140526 RS41 2019-10-09 16:49:06 48.2842 12.1129 69 ° 57 km/h 956 m -3.2 m/s 402.50 MHz Erding (DE) 0.00 km FOUND
P0320339 RS41 2019-10-09 12:11:44 48.7282 13.4562 53 ° 13 km/h 536 m -6.3 m/s 402.50 MHz Passau (DE) 0.00 km UNKNOWN
P3320745 RS41 2019-10-09 05:38:18 48.3839 13.7331 95 ° 26 km/h 652 m -6.9 m/s 402.50 MHz Natternbach (AT) 0.00 km UNKNOWN
P3320752 RS41 2019-10-08 17:41:56 47.6763 12.7158 98 ° 13 km/h 1689 m -7.8 m/s 402.50 MHz Grossgmain (AT) 0.00 km UNKNOWN
P3320787 RS41 2019-10-08 11:34:40 47.3513 12.0936 116 ° 46 km/h 2658 m -10.4 m/s 402.50 MHz Westendorf (AT) 0.00 km UNKNOWN
DFM42D88 DFM 2019-10-08 08:29:13 46.9758 12.0089 150 ° 52 km/h 4093 m -4.5 m/s 402.490 MHz Brunico (IT) 0.00 km UNKNOWN
DFM37FBA DFM 2019-10-08 06:52:51 46.9121 11.811 156 ° 61 km/h 4763 m -4.5 m/s 404.310 MHz Brunico (IT) 0.00 km UNKNOWN
P3320756 RS41 2019-10-08 05:42:16 46.859 11.7457 162 ° 57 km/h 4142 m -8.0 m/s 402.50 MHz Brunico (IT) 0.00 km UNKNOWN
P3320748 RS41 2019-10-07 18:08:23 46.005 11.0672 218 ° 20 km/h 2026 m -2.9 m/s 402.50 MHz Trento (IT) 0.00 km UNKNOWN
P3320746 RS41 2019-10-07 11:32:57 46.7374 10.9362 165 ° 26 km/h 4182 m -11.5 m/s 402.50 MHz Merano (IT) 0.00 km UNKNOWN
DFM431C4 DFM 2019-10-07 08:08:41 47.1609 11.1224 164 ° 26 km/h 3247 m -12.5 m/s 404.309 MHz Inzing (AT) 0.00 km UNKNOWN
P3320741 RS41 2019-10-07 05:25:45 47.1409 11.3652 140 ° 41 km/h 2673 m -7.6 m/s 402.50 MHz Fulpmes (AT) 0.00 km UNKNOWN
P3320739 RS41 2019-10-02 17:28:03 48.0157 12.137 154 ° 50 km/h 916 m -4.7 m/s 402.50 MHz Rosenheim (DE) 0.00 km UNKNOWN
P3311197 RS41 2019-10-02 11:55:03 48.5853 12.5014 81 ° 31 km/h 696 m -6.2 m/s 402.50 MHz Landshut (DE) 0.00 km UNKNOWN
P3311196 RS41 2019-10-02 05:35:09 48.4313 12.3811 85 ° 56 km/h 1002 m -8.7 m/s 402.50 MHz Landshut (DE) 0.00 km UNKNOWN
P3311185 RS41 2019-10-01 17:23:07 48.197 12.3719 82 ° 6 km/h 792 m -3.6 m/s 402.50 MHz Waldkraiburg (DE) 0.00 km UNKNOWN
P3311192 RS41 2019-10-01 12:20:54 48.3694 13.2145 62 ° 11 km/h 565 m -10.6 m/s 402.50 MHz Altheim (AT) 0.00 km UNKNOWN
P3311191 RS41 2019-10-01 06:07:46 48.0763 12.6765 345 ° 15 km/h 628 m -10.7 m/s 402.50 MHz Ostermiething (AT) 0.00 km UNKNOWN
P3311199 RS41 2019-09-30 17:43:24 47.3832 12.8316 81 ° 39 km/h 2798 m -8.7 m/s 402.50 MHz Maishofen (AT) 0.00 km UNKNOWN
P3311190 RS41 2019-09-30 12:02:14 47.4761 13.2108 98 ° 48 km/h 2644 m -8.3 m/s 402.50 MHz Werfen (AT) 0.00 km UNKNOWN
P3311193 RS41 2019-09-30 05:45:45 47.1535 13.2417 116 ° 52 km/h 3196 m -7.5 m/s 402.50 MHz Grossarl (AT) 0.00 km UNKNOWN
DFM38563 DFM 2019-09-27 08:43:54 47.8058 12.9146 313 ° 9 km/h 915 m -5.0 m/s 404.290 MHz Viehausen (AT) 0.00 km UNKNOWN
P3311194 RS41 2019-09-27 06:04:35 47.5345 12.903 359 ° 9 km/h 2355 m -6.3 m/s 402.50 MHz Saalfelden am Steinernen Meer (AT) 0.00 km UNKNOWN
P3320753 RS41 2019-09-26 17:40:51 47.089 12.2856 129 ° 57 km/h 4051 m -6.7 m/s 402.50 MHz Virgen (AT) 0.00 km UNKNOWN
DFM38561 DFM 2019-09-26 15:38:42 47.022 12.4079 110 ° 56 km/h 3961 m -5.3 m/s 404.290 MHz Virgen (AT) 0.00 km UNKNOWN
P3320755 RS41 2019-09-26 11:34:19 47.2353 12.0859 111 ° 37 km/h 2954 m -7.3 m/s 402.50 MHz Neukirchen am Großvenediger (AT) 0.00 km UNKNOWN
DFM37FAA DFM 2019-09-26 08:02:33 47.3035 11.8631 115 ° 50 km/h 3562 m -12.6 m/s 404.290 MHz Fügen (AT) 0.00 km UNKNOWN
P3311184 RS41 2019-09-26 05:41:11 47.0233 12.2877 137 ° 65 km/h 4049 m -6.7 m/s 402.50 MHz Virgen (AT) 0.00 km UNKNOWN
P3311183 RS41 2019-09-25 18:04:07 47.8361 12.4845 94 ° 33 km/h 910 m -4.2 m/s 402.50 MHz Traunreut (DE) 0.00 km UNKNOWN
DFM37F9F DFM 2019-09-25 14:28:08 47.9734 12.2869 69 ° 28 km/h 978 m -5.4 m/s 404.290 MHz Rosenheim (DE) 0.00 km UNKNOWN
P3311195 RS41 2019-09-25 11:52:47 47.9746 12.2593 82 ° 26 km/h 1025 m -4.7 m/s 402.50 MHz Rosenheim (DE) 0.00 km UNKNOWN
DFM37A89 DFM 2019-09-25 07:40:48 47.9934 11.745 80 ° 43 km/h 17624 m 5.4 m/s MHz Unterhaching (DE) 0.00 km LOST
P3311186 RS41 2019-09-25 05:19:52 47.9526 12.2306 93 ° 52 km/h 1055 m -3.0 m/s 402.50 MHz Rosenheim (DE) 0.00 km UNKNOWN
P3311188 RS41 2019-09-24 17:45:52 47.5846 12.5543 97 ° 13 km/h 1910 m -9.1 m/s 402.50 MHz Kirchdorf in Tirol (AT) 0.00 km UNKNOWN
DFM38011 DFM 2019-09-24 13:30:10 47.8468 11.4713 90 ° 109 km/h 13214 m 4.2 m/s MHz Geretsried (DE) 0.00 km UNKNOWN
P3311198 RS41 2019-09-24 11:33:56 47.5854 12.1871 28 ° 24 km/h 2053 m -6.7 m/s 402.50 MHz Kufstein (AT) 0.00 km UNKNOWN
P3311200 RS41 2019-09-24 05:33:43 47.1971 12.1574 46 ° 20 km/h 3444 m -4.7 m/s 402.50 MHz Neukirchen am Großvenediger (AT) 0.00 km UNKNOWN
P3320758 RS41 2019-09-23 17:49:27 47.6945 11.3888 74 ° 28 km/h 1339 m -5.7 m/s 402.50 MHz Geretsried (DE) 0.00 km FOUND
P3320800 RS41 2019-09-23 11:41:18 47.9997 11.2935 79 ° 35 km/h 1152 m -4.7 m/s 402.50 MHz Starnberg (DE) 0.00 km UNKNOWN
P0330115 RS41 2019-09-23 05:57:34 48.0308 11.6714 104 ° 61 km/h 1122 m -9.0 m/s 402.50 MHz Unterhaching (DE) 0.00 km UNKNOWN
DFM4308D DFM 2019-09-20 08:59:59 47.1155 11.0512 167 ° 44 km/h 4029 m -5.2 m/s 404.290 MHz Umhausen (AT) 0.00 km UNKNOWN
P0330185 RS41 2019-09-20 05:37:43 47.2139 11.0691 120 ° 20 km/h 2755 m -9.5 m/s 402.50 MHz Rietz (AT) 0.00 km UNKNOWN
P0330116 RS41 2019-09-19 17:58:31 47.1749 11.4402 156 ° 17 km/h 1870 m -3.9 m/s 402.50 MHz Sistrans (AT) 0.00 km UNKNOWN
P0320360 RS41 2019-09-19 11:26:53 47.3619 11.4927 125 ° 11 km/h 2751 m -7.5 m/s 402.50 MHz Thaur (AT) 0.00 km UNKNOWN
DFM42D8E DFM 2019-09-19 08:41:31 47.3736 11.8253 222 ° 13 km/h 1641 m -2.8 m/s 404.290 MHz Fügen (AT) 0.00 km UNKNOWN
P0320362 RS41 2019-09-19 05:43:32 47.3614 11.8686 219 ° 9 km/h 1782 m -5.8 m/s 402.50 MHz Fügen (AT) 0.00 km UNKNOWN
P0320379 RS41 2019-09-18 17:50:26 47.4082 12.142 78 ° 9 km/h 2025 m -3.7 m/s 402.50 MHz Westendorf (AT) 0.00 km UNKNOWN
DFM38534 DFM 2019-09-18 14:46:59 47.4948 12.1842 67 ° 15 km/h 2304 m -3.4 m/s 404.290 MHz Söll (AT) 0.00 km UNKNOWN
P0320361 RS41 2019-09-18 11:49:49 47.4487 12.2344 166 ° 11 km/h 1871 m -6.1 m/s 402.50 MHz Brixen im Thale (AT) 0.00 km UNKNOWN
DFM430FB DFM 2019-09-18 07:40:54 47.6334 11.4905 127 ° 65 km/h 3452 m -14.0 m/s 404.290 MHz Achenkirch (AT) 0.00 km UNKNOWN
P0650262 RS41 2019-09-18 05:40:19 47.3734 12.208 73 ° 28 km/h 2624 m -5.0 m/s 402.50 MHz Westendorf (AT) 0.00 km UNKNOWN
P0320336 RS41 2019-09-17 17:37:41 47.3222 12.5863 94 ° 61 km/h 2931 m -4.3 m/s 402.50 MHz Uttendorf (AT) 0.00 km UNKNOWN
DFM38143 DFM 2019-09-17 14:00:18 47.4969 12.032 68 ° 65 km/h 2768 m -13.1 m/s 404.290 MHz Wörgl (AT) 0.00 km UNKNOWN
P0650345 RS41 2019-09-17 11:40:23 47.4306 12.2365 108 ° 26 km/h 2116 m -7.1 m/s 402.50 MHz Brixen im Thale (AT) 0.00 km UNKNOWN
DFM380BA DFM 2019-09-17 08:26:51 47.3764 12.1858 91 ° 31 km/h 2577 m -3.7 m/s 404.290 MHz Westendorf (AT) 0.00 km UNKNOWN
P2310004 RS41 2019-09-17 05:44:00 47.3243 12.127 92 ° 48 km/h 2937 m -8.2 m/s 402.50 MHz Westendorf (AT) 0.00 km UNKNOWN
P2140523 RS41 2019-09-16 17:56:19 47.3519 11.9187 105 ° 11 km/h 2237 m -3.9 m/s 402.50 MHz Alpbach (AT) 0.00 km UNKNOWN
P0320335 RS41 2019-09-16 12:03:04 47.5441 11.8221 73 ° 19 km/h 2072 m -5.4 m/s 402.50 MHz Achenkirch (AT) 0.00 km UNKNOWN
DFM37FF8 DFM 2019-09-16 08:42:53 47.568 11.7151 104 ° 33 km/h 2108 m -5.3 m/s 404.290 MHz Achenkirch (AT) 0.00 km UNKNOWN
P0320340 RS41 2019-09-16 05:46:59 47.6238 11.503 95 ° 28 km/h 1672 m -7.2 m/s 402.50 MHz Achenkirch (AT) 0.00 km UNKNOWN
DFM36F9B DFM 2019-09-13 07:52:27 47.5653 11.3203 145 ° 46 km/h 16116 m 3.5 m/s 404.290 MHz Garmisch-Partenkirchen (DE) 0.00 km UNKNOWN
P0650183 RS41 2019-09-13 05:57:22 47.3539 11.4989 134 ° 28 km/h 2783 m -7.5 m/s 402.50 MHz Thaur (AT) 0.00 km UNKNOWN
P0650361 RS41 2019-09-12 17:44:03 47.2559 11.2371 305 ° 15 km/h 921 m -4.5 m/s 402.50 MHz Oberperfuss (AT) 0.00 km UNKNOWN
P2050440 RS41 2019-09-12 11:37:01 47.2345 11.0433 100 ° 19 km/h 2826 m -7.6 m/s 402.50 MHz Rietz (AT) 0.00 km UNKNOWN
P0330173 RS41 2019-09-12 06:42:36 46.9651 10.9509 154 ° 54 km/h 4375 m -5.9 m/s 404.30 MHz Sölden (AT) 0.00 km UNKNOWN
P2250852 RS41 2019-09-12 05:20:16 46.7652 10.9102 163 ° 56 km/h 4169 m -5.7 m/s 402.50 MHz Merano (IT) 0.00 km UNKNOWN
P2310123 RS41 2019-09-11 17:46:52 47.0903 11.2681 123 ° 19 km/h 2980 m -3.5 m/s 402.50 MHz Neustift im Stubaital (AT) 0.00 km UNKNOWN
P2310066 RS41 2019-09-11 12:07:52 47.5989 11.3216 33 ° 2 km/h 968 m -3.6 m/s 402.50 MHz Garmisch-Partenkirchen (DE) 0.00 km UNKNOWN
P2250849 RS41 2019-09-11 05:55:09 47.9664 11.3628 275 ° 7 km/h 938 m -8.0 m/s 402.50 MHz Starnberg (DE) 0.00 km UNKNOWN
P2140525 RS41 2019-09-10 18:06:01 48.1325 11.7036 224 ° 20 km/h 658 m -6.3 m/s 402.50 MHz Vaterstetten (DE) 0.00 km FOUND
DFM430F5 DFM 2019-09-10 14:53:52 48.3069 12.198 199 ° 13 km/h 1266 m -3.1 m/s MHz Waldkraiburg (DE) 0.00 km FOUND
P2310003 RS41 2019-09-10 11:56:45 48.2472 11.9507 244 ° 17 km/h 649 m -7.1 m/s 402.50 MHz Erding (DE) 0.00 km FOUND
P2250859 RS41 2019-09-10 05:27:57 48.1066 11.7034 293 ° 13 km/h 670 m -12.9 m/s 402.50 MHz Vaterstetten (DE) 0.00 km FOUND
P2240113 RS41 2019-09-09 17:46:10 47.8834 11.9561 95 ° 17 km/h 1115 m -5.2 m/s 402.50 MHz Rosenheim (DE) 0.00 km UNKNOWN
P2310002 RS41 2019-09-09 11:37:14 47.695 11.7762 87 ° 44 km/h 1705 m -2.9 m/s 402.50 MHz Achenkirch (AT) 0.00 km UNKNOWN
P2250860 RS41 2019-09-09 05:22:55 47.9495 11.2096 111 ° 41 km/h 1140 m -5.3 m/s 402.50 MHz Starnberg (DE) 0.00 km UNKNOWN
DFM7AA1C DFM 2019-09-06 07:28:50 47.9549 10.8001 279 ° 28 km/h 1212 m -10.3 m/s 404.290 MHz Landsberg am Lech (DE) 0.00 km UNKNOWN
P2310006 RS41 2019-09-06 05:35:25 48.3037 11.2175 256 ° 24 km/h 815 m -7.0 m/s 402.50 MHz Olching (DE) 0.00 km UNKNOWN
P2240010 RS41 2019-09-05 17:18:01 48.4198 11.6409 97 ° 20 km/h 658 m -8.0 m/s 402.50 MHz Freising (DE) 0.00 km FOUND
P2250864 RS41 2019-09-05 11:19:00 48.4727 11.7689 121 ° 19 km/h 1059 m -4.6 m/s 402.50 MHz Freising (DE) 0.00 km UNKNOWN
DFM7AB8B DFM 2019-09-05 07:57:08 48.218 11.4521 42 ° 89 km/h 8060 m -17.5 m/s MHz Dachau (DE) 0.00 km UNKNOWN
P2250862 RS41 2019-09-05 05:58:00 48.3468 11.8977 103 ° 11 km/h 1010 m -7.4 m/s 402.50 MHz Erding (DE) 0.00 km FOUND
P2250861 RS41 2019-09-04 17:55:00 47.9539 11.618 90 ° 20 km/h 1451 m -8.2 m/s 402.50 MHz Unterhaching (DE) 0.00 km UNKNOWN
P2250863 RS41 2019-09-04 11:40:45 47.7829 11.3316 69 ° 4 km/h 1468 m -7.8 m/s 402.50 MHz Geretsried (DE) 0.00 km UNKNOWN
P2140491 RS41 2019-09-04 05:42:50 47.7038 11.3212 12 ° 6 km/h 1164 m -8.9 m/s 402.50 MHz Weilheim in Oberbayern (DE) 0.00 km UNKNOWN
P2240089 RS41 2019-09-03 17:41:31 47.403 11.283 168 ° 9 km/h 1938 m -5.8 m/s 402.50 MHz Leutasch (AT) 0.00 km UNKNOWN
P2140490 RS41 2019-09-03 12:04:04 47.0692 11.2802 147 ° 33 km/h 3115 m -4.0 m/s 402.50 MHz Neustift im Stubaital (AT) 0.00 km UNKNOWN
P2140492 RS41 2019-09-03 05:53:57 47.0317 11.2519 166 ° 28 km/h 3466 m -9.7 m/s 402.50 MHz Neustift im Stubaital (AT) 0.00 km UNKNOWN
P2140524 RS41 2019-09-02 17:54:24 47.9727 11.8753 21 ° 2 km/h 1144 m -8.3 m/s 402.50 MHz Vaterstetten (DE) 0.00 km UNKNOWN
P2310110 RS41 2019-09-02 11:44:17 48.1009 11.6194 205 ° 28 km/h 1303 m -7.1 m/s 402.50 MHz Unterhaching (DE) 0.00 km UNKNOWN
P2140487 RS41 2019-09-02 05:45:44 48.1107 11.6274 180 ° 20 km/h 1197 m -4.7 m/s 402.50 MHz München (DE) 0.00 km UNKNOWN
P2140489 RS41 2019-08-30 06:16:37 47.8358 11.1174 197 ° 6 km/h 1207 m -11.2 m/s 402.50 MHz Weilheim in Oberbayern (DE) 0.00 km UNKNOWN
P2150276 RS41 2019-08-29 17:48:45 47.8308 11.1724 147 ° 13 km/h 1238 m -3.3 m/s 402.50 MHz Weilheim in Oberbayern (DE) 0.00 km UNKNOWN
P2250858 RS41 2019-08-29 11:33:46 47.9693 11.1231 78 ° 17 km/h 1010 m -8.5 m/s 402.50 MHz Weilheim in Oberbayern (DE) 0.00 km UNKNOWN
DFM430D8 DFM 2019-08-29 08:38:14 48.0451 11.2732 183 ° 9 km/h 1288 m -3.1 m/s 404.290 MHz Starnberg (DE) 0.00 km UNKNOWN
P2250851 RS41 2019-08-29 05:41:56 48.019 11.1826 94 ° 26 km/h 902 m -5.0 m/s 402.50 MHz Starnberg (DE) 0.00 km UNKNOWN
P2250857 RS41 2019-08-28 11:20:37 48.1118 11.2759 66 ° 67 km/h 12304 m -7.9 m/s 402.50 MHz Fürstenfeldbruck (DE) 0.00 km UNKNOWN
P2140396 RS41 2019-08-27 11:32:53 47.9596 11.1937 76 ° 15 km/h 2833 m -9.8 m/s 404.30 MHz Starnberg (DE) 0.00 km UNKNOWN
P2250855 RS41 2019-08-27 05:55:08 47.8906 11.136 32 ° 4 km/h 1074 m -6.1 m/s 402.50 MHz Weilheim in Oberbayern (DE) 0.00 km UNKNOWN
P2250856 RS41 2019-08-26 17:48:26 47.7916 11.0902 54 ° 4 km/h 1277 m -5.4 m/s 402.50 MHz Weilheim in Oberbayern (DE) 0.00 km UNKNOWN
P2250854 RS41 2019-08-26 11:41:41 47.8077 10.797 185 ° 9 km/h 1018 m -9.2 m/s 402.50 MHz Kaufbeuren (DE) 0.00 km UNKNOWN
P2310124 RS41 2019-08-26 05:41:34 47.7199 10.786 31 ° 4 km/h 1052 m -6.5 m/s 402.50 MHz Kaufbeuren (DE) 0.00 km FOUND
P2310120 RS41 2019-08-23 05:37:38 47.9305 10.8629 263 ° 28 km/h 867 m -6.9 m/s 402.50 MHz Landsberg am Lech (DE) 0.00 km UNKNOWN
P2310129 RS41 2019-08-22 17:44:49 47.906 11.2982 248 ° 15 km/h 1272 m -6.5 m/s 402.50 MHz Starnberg (DE) 0.00 km UNKNOWN
P2310125 RS41 2019-08-22 11:44:33 48.2075 11.6893 251 ° 26 km/h 1272 m -7.3 m/s 402.50 MHz München (DE) 0.00 km FOUND
P2310122 RS41 2019-08-22 05:57:36 48.1846 11.7091 278 ° 46 km/h 1205 m -6.9 m/s 402.50 MHz Vaterstetten (DE) 0.00 km UNKNOWN
P2240037 RS41 2019-08-21 17:43:37 48.2124 11.9586 261 ° 31 km/h 1448 m -3.7 m/s 402.50 MHz Erding (DE) 0.00 km FOUND
P0330172 RS41 2019-08-21 11:29:11 48.2664 11.5749 239 ° 17 km/h 1114 m -8.5 m/s 402.50 MHz Unterschleißheim (DE) 0.00 km UNKNOWN
P0330117 RS41 2019-08-21 05:45:56 48.5385 11.7427 115 ° 6 km/h 632 m -9.0 m/s 402.50 MHz Freising (DE) 0.00 km UNKNOWN
P2231264 RS41 2019-08-20 17:47:10 48.8085 12.4292 159 ° 46 km/h 826 m -8.2 m/s 402.50 MHz Straubing (DE) 0.00 km UNKNOWN
P2310132 RS41 2019-08-20 12:16:31 48.7651 12.4752 211 ° 9 km/h 745 m -4.2 m/s 402.50 MHz Straubing (DE) 0.00 km FOUND
DFM36F5C DFM 2019-08-20 07:58:57 48.2474 11.7989 73 ° 94 km/h 15202 m 4.9 m/s 404.290 MHz Erding (DE) 0.00 km UNKNOWN
P2240117 RS41 2019-08-20 06:22:36 48.4675 12.5578 157 ° 9 km/h 1079 m -4.4 m/s 402.50 MHz Waldkraiburg (DE) 0.00 km UNKNOWN
P2240119 RS41 2019-08-19 17:32:56 48.286 12.3113 91 ° 2 km/h 1094 m -8.1 m/s 402.50 MHz Waldkraiburg (DE) 0.00 km FOUND
P0650366 RS41 2019-08-19 11:47:47 48.459 12.2997 60 ° 13 km/h 1044 m -3.9 m/s 402.50 MHz Landshut (DE) 0.00 km UNKNOWN
P0650365 RS41 2019-08-19 05:55:07 48.635 12.4355 22 ° 24 km/h 481 m -7.2 m/s 402.50 MHz Landshut (DE) 0.00 km FOUND
P0650341 RS41 2019-08-14 17:25:27 47.7344 11.7837 132 ° 4 km/h 1536 m -3.9 m/s 402.50 MHz Achenkirch (AT) 0.00 km UNKNOWN
P2240109 RS41 2019-08-14 12:02:45 47.9101 11.7918 100 ° 13 km/h 1376 m -5.2 m/s 402.50 MHz Unterhaching (DE) 0.00 km UNKNOWN
P2231274 RS41 2019-08-14 05:45:27 47.8609 11.813 118 ° 17 km/h 1091 m -12.0 m/s 402.50 MHz Rosenheim (DE) 0.00 km UNKNOWN
P0650363 RS41 2019-08-13 17:58:12 48.7681 12.1927 131 ° 20 km/h 847 m -4.6 m/s 402.50 MHz Landshut (DE) 0.00 km UNKNOWN
P0650185 RS41 2019-08-13 12:00:39 48.6773 12.1117 93 ° 20 km/h 642 m -3.2 m/s 402.50 MHz Landshut (DE) 0.00 km UNKNOWN
P0650264 RS41 2019-08-13 06:00:34 48.662 12.1338 110 ° 22 km/h 689 m -5.1 m/s 402.50 MHz Landshut (DE) 0.00 km UNKNOWN
P0650339 RS41 2019-08-12 17:54:28 48.8612 12.0727 65 ° 26 km/h 1509 m -3.6 m/s 402.50 MHz Regensburg (DE) 0.00 km UNKNOWN
P0330186 RS41 2019-08-12 11:51:45 48.9691 12.1825 42 ° 26 km/h 1639 m -8.9 m/s 402.50 MHz Regensburg (DE) 0.00 km UNKNOWN
P0710612 RS41 2019-08-12 05:56:23 48.7449 12.1276 118 ° 13 km/h 1245 m -3.3 m/s 402.50 MHz Landshut (DE) 0.00 km UNKNOWN
P0710613 RS41 2019-08-09 05:41:37 47.4855 12.1516 80 ° 31 km/h 2281 m -5.2 m/s 402.50 MHz Söll (AT) 0.00 km FOUND
P0320355 RS41 2019-08-08 17:46:49 47.7133 12.0956 146 ° 11 km/h 1452 m -8.7 m/s 402.50 MHz Niederndorf (AT) 0.00 km FOUND
P0320356 RS41 2019-08-08 11:45:48 48.0096 12.0904 92 ° 6 km/h 1049 m -9.9 m/s 402.50 MHz Rosenheim (DE) 0.00 km FOUND
DFM7AB8D DFM 2019-08-08 09:01:09 48.0583 12.7184 110 ° 19 km/h 584 m -2.2 m/s MHz Ostermiething (AT) 0.00 km UNKNOWN
P0320372 RS41 2019-08-08 05:41:50 47.8975 12.2045 93 ° 19 km/h 1014 m -8.9 m/s 402.50 MHz Rosenheim (DE) 0.00 km UNKNOWN
P0710657 RS41 2019-08-07 17:42:10 48.3163 12.5755 103 ° 44 km/h 807 m -6.8 m/s 402.50 MHz Waldkraiburg (DE) 0.00 km UNKNOWN
P0320398 RS41 2019-08-07 11:49:06 48.2698 12.1987 91 ° 6 km/h 854 m -6.9 m/s 402.50 MHz Waldkraiburg (DE) 0.00 km FOUND
DFM38510 DFM 2019-08-07 07:20:22 48.1325 12.7095 61 ° 6 km/h 566 m -3.0 m/s 404.290 MHz Hochburg-Ach (AT) 0.00 km UNKNOWN
P0710803 RS41 2019-08-07 05:57:24 48.0898 12.3453 2 ° 13 km/h 737 m -5.4 m/s 402.50 MHz Waldkraiburg (DE) 0.00 km UNKNOWN
P2240112 RS41 2019-08-06 17:48:16 47.9661 12.5033 34 ° 24 km/h 732 m -4.7 m/s 402.50 MHz Traunreut (DE) 0.00 km UNKNOWN
P2240057 RS41 2019-08-06 11:20:24 47.8619 12.2072 61 ° 24 km/h 1246 m -4.6 m/s 402.50 MHz Rosenheim (DE) 0.00 km UNKNOWN
DFM3811E DFM 2019-08-06 08:28:52 47.7611 12.3952 35 ° 37 km/h 1287 m -6.6 m/s 404.290 MHz Kössen (AT) 0.00 km UNKNOWN
P2050562 RS41 2019-08-06 05:42:53 47.7472 12.7121 57 ° 63 km/h 1255 m -7.2 m/s 402.50 MHz Grossgmain (AT) 0.00 km UNKNOWN
P2040772 RS41 2019-08-05 17:43:03 47.514 12.1893 111 ° 30 km/h 2353 m -5.5 m/s 402.50 MHz Söll (AT) 0.00 km FOUND
DFM7AB65 DFM 2019-08-05 14:05:34 47.522 11.919 100 ° 20 km/h 2254 m -11.3 m/s 404.290 MHz Breitenbach am Inn (AT) 0.00 km UNKNOWN
P2220524 RS41 2019-08-05 11:40:27 47.4425 11.9472 98 ° 41 km/h 2773 m -10.3 m/s 402.50 MHz Radfeld (AT) 0.00 km UNKNOWN
DFM37FD5 DFM 2019-08-05 08:34:58 47.2366 12.115 106 ° 22 km/h 2927 m -2.6 m/s 404.290 MHz Neukirchen am Großvenediger (AT) 0.00 km UNKNOWN
P2220525 RS41 2019-08-05 05:59:14 47.482 11.9768 101 ° 33 km/h 2143 m -4.5 m/s 402.50 MHz Breitenbach am Inn (AT) 0.00 km FOUND
P2040690 RS41 2019-08-02 07:07:36 48.124 12.0047 152 ° 4 km/h 920 m -12.7 m/s 402.50 MHz Vaterstetten (DE) 0.00 km UNKNOWN
P2040689 RS41 2019-08-02 05:44:01 48.0153 11.7673 246 ° 11 km/h 1184 m -5.3 m/s 402.50 MHz Vaterstetten (DE) 0.00 km FOUND
P2040687 RS41 2019-08-01 17:45:36 47.8429 12.1708 254 ° 6 km/h 1297 m -5.9 m/s 402.50 MHz Rosenheim (DE) 0.00 km FOUND
P2040686 RS41 2019-08-01 11:57:40 47.9325 12.1662 220 ° 7 km/h 1227 m -4.8 m/s 402.50 MHz Rosenheim (DE) 0.00 km UNKNOWN
P2040688 RS41 2019-08-01 06:01:34 47.8051 12.121 217 ° 2 km/h 1203 m -7.4 m/s 402.50 MHz Rosenheim (DE) 0.00 km FOUND
P2220526 RS41 2019-07-31 17:25:17 48.0167 11.8555 52 ° 11 km/h 819 m -10.0 m/s 402.50 MHz Vaterstetten (DE) 0.00 km FOUND
DFM4317F DFM 2019-07-31 13:59:37 47.9883 11.2325 47 ° 98 km/h 11735 m 4.6 m/s MHz Starnberg (DE) 0.00 km UNKNOWN
P2040704 RS41 2019-07-31 12:07:15 48.4009 11.6998 88 ° 11 km/h 607 m -6.5 m/s 402.50 MHz Freising (DE) 0.00 km FOUND
DFM430F9 DFM 2019-07-31 09:07:53 48.4891 11.91 8 ° 26 km/h 3046 m -4.7 m/s 404.290 MHz Freising (DE) 0.00 km FOUND
P2040705 RS41 2019-07-31 06:52:05 48.4467 11.7388 117 ° 17 km/h 737 m -3.7 m/s 404.30 MHz Freising (DE) 0.00 km FOUND
P2240088 RS41 2019-07-31 06:16:38 48.3594 11.6022 98 ° 20 km/h 702 m -6.2 m/s 403.00 MHz Unterschleißheim (DE) 0.00 km UNKNOWN
P2050339 RS41 2019-07-30 17:54:51 48.422 11.4587 124 ° 7 km/h 967 m -7.9 m/s 402.50 MHz Pfaffenhofen an der Ilm (DE) 0.00 km FOUND
P2040714 RS41 2019-07-30 11:54:18 48.1731 11.2263 127 ° 7 km/h 991 m -5.9 m/s 402.50 MHz Fürstenfeldbruck (DE) 0.00 km UNKNOWN
DFM7AB8A DFM 2019-07-30 08:36:05 47.9949 11.3349 136 ° 13 km/h 967 m -2.3 m/s 404.290 MHz Starnberg (DE) 0.00 km UNKNOWN
P2040739 RS41 2019-07-30 05:37:30 47.8767 11.1043 84 ° 9 km/h 1103 m -8.7 m/s 402.50 MHz Weilheim in Oberbayern (DE) 0.00 km UNKNOWN
P2040709 RS41 2019-07-29 18:07:12 47.6111 11.0174 80 ° 2 km/h 1543 m -4.4 m/s 402.50 MHz Garmisch-Partenkirchen (DE) 0.00 km UNKNOWN
P2040743 RS41 2019-07-29 11:19:39 47.681 11.0062 104 ° 15 km/h 1251 m -8.1 m/s 402.50 MHz Weilheim in Oberbayern (DE) 0.00 km UNKNOWN
DFM7AB99 DFM 2019-07-29 08:32:54 47.6626 10.9363 78 ° 24 km/h 1095 m -5.5 m/s 404.290 MHz Garmisch-Partenkirchen (DE) 0.00 km UNKNOWN
P2040679 RS41 2019-07-29 05:21:43 47.7508 10.9 79 ° 41 km/h 1214 m -8.2 m/s 402.50 MHz Weilheim in Oberbayern (DE) 0.00 km UNKNOWN
P2040685 RS41 2019-07-26 05:16:29 47.6854 11.19 124 ° 11 km/h 1351 m -9.4 m/s 402.50 MHz Weilheim in Oberbayern (DE) 0.00 km UNKNOWN
P2040707 RS41 2019-07-25 17:52:14 47.7863 11.1044 280 ° 17 km/h 1275 m -6.2 m/s 402.50 MHz Weilheim in Oberbayern (DE) 0.00 km UNKNOWN
DFM38537 DFM 2019-07-25 13:24:02 47.8098 11.2288 192 ° 19 km/h 1112 m -4.7 m/s 404.290 MHz Weilheim in Oberbayern (DE) 0.00 km FOUND
P2040680 RS41 2019-07-25 11:45:19 47.8024 11.0407 251 ° 15 km/h 1279 m -9.8 m/s 402.50 MHz Weilheim in Oberbayern (DE) 0.00 km UNKNOWN
P2040744 RS41 2019-07-25 05:52:17 47.7515 10.9838 281 ° 11 km/h 1049 m -5.9 m/s 402.50 MHz Weilheim in Oberbayern (DE) 0.00 km UNKNOWN
P2040681 RS41 2019-07-24 17:32:04 47.8061 11.1126 32 ° 2 km/h 1605 m -11.8 m/s 402.50 MHz Weilheim in Oberbayern (DE) 0.00 km UNKNOWN
P2040682 RS41 2019-07-24 11:57:48 47.8457 10.9803 121 ° 13 km/h 1115 m -7.1 m/s 402.50 MHz Weilheim in Oberbayern (DE) 0.00 km FOUND
DFM7ABBB DFM 2019-07-24 07:10:52 47.8076 11.1743 85 ° 31 km/h 2007 m -4.2 m/s 404.290 MHz Weilheim in Oberbayern (DE) 0.00 km FOUND
P2040708 RS41 2019-07-24 06:03:54 47.7874 10.9496 93 ° 17 km/h 992 m -11.2 m/s 402.50 MHz Weilheim in Oberbayern (DE) 0.00 km FOUND
P2040683 RS41 2019-07-23 17:57:07 47.7384 10.8185 257 ° 19 km/h 1089 m -7.0 m/s 402.50 MHz Kaufbeuren (DE) 0.00 km UNKNOWN
P2050342 RS41 2019-07-23 11:54:07 47.6828 10.6326 214 ° 13 km/h 908 m -9.2 m/s 402.50 MHz Kaufbeuren (DE) 0.00 km UNKNOWN
P2040684 RS41 2019-07-23 05:51:39 47.5295 10.6636 304 ° 2 km/h 973 m -6.3 m/s 402.50 MHz Reutte (AT) 0.00 km UNKNOWN
P2050338 RS41 2019-07-22 17:50:14 47.3343 10.9303 174 ° 13 km/h 2003 m -11.2 m/s 402.50 MHz Mieming (AT) 0.00 km UNKNOWN
P2040742 RS41 2019-07-22 11:50:27 47.2946 10.8939 80 ° 19 km/h 2586 m -5.6 m/s 402.50 MHz Silz (AT) 0.00 km NEED ATTENTION
P2050341 RS41 2019-07-22 05:56:31 47.1728 11.1287 108 ° 24 km/h 3030 m -6.1 m/s 402.50 MHz Inzing (AT) 0.00 km UNKNOWN
P2040608 RS41 2019-07-19 06:27:58 47.4094 11.5454 56 ° 15 km/h 2529 m -4.9 m/s 402.50 MHz Terfens (AT) 0.00 km UNKNOWN
P2040711 RS41 2019-07-18 17:59:21 47.5414 11.2103 130 ° 19 km/h 2039 m -2.6 m/s 402.50 MHz Garmisch-Partenkirchen (DE) 0.00 km UNKNOWN
P2220523 RS41 2019-07-18 11:42:47 47.807 11.2244 89 ° 13 km/h 1455 m -5.9 m/s 402.50 MHz Weilheim in Oberbayern (DE) 0.00 km UNKNOWN
P2040703 RS41 2019-07-18 05:36:17 47.6838 11.3125 90 ° 11 km/h 1434 m -7.6 m/s 402.50 MHz Weilheim in Oberbayern (DE) 0.00 km UNKNOWN
P2040712 RS41 2019-07-17 17:48:10 47.716 11.5109 77 ° 54 km/h 4308 m -4.4 m/s 402.50 MHz Geretsried (DE) 0.00 km UNKNOWN
P2040713 RS41 2019-07-17 11:48:19 47.7532 11.4777 82 ° 11 km/h 1287 m -5.9 m/s 402.50 MHz Geretsried (DE) 0.00 km UNKNOWN
P2040710 RS41 2019-07-17 05:43:58 47.7682 11.3953 46 ° 15 km/h 988 m -6.4 m/s 402.50 MHz Geretsried (DE) 0.00 km UNKNOWN
P2220535 RS41 2019-07-16 17:43:46 47.3835 10.9985 112 ° 17 km/h 2405 m -9.3 m/s 402.50 MHz Ehrwald (AT) 0.00 km UNKNOWN
P0710660 RS41 2019-07-16 11:48:20 47.2517 11.0743 222 ° 6 km/h 2747 m -4.4 m/s 402.50 MHz Rietz (AT) 0.00 km UNKNOWN
DFM7AC2C DFM 2019-07-16 08:36:50 47.0966 11.0904 201 ° 28 km/h 3889 m -4.0 m/s MHz Umhausen (AT) 0.00 km UNKNOWN
P2130619 RS41 2019-07-16 06:09:43 47.1414 10.7824 184 ° 13 km/h 2968 m -4.7 m/s 402.50 MHz Arzl im Pitztal (AT) 0.00 km UNKNOWN
P2130608 RS41 2019-07-15 17:25:48 47.3572 10.6107 215 ° 20 km/h 2266 m -7.1 m/s 402.50 MHz Tarrenz (AT) 0.00 km UNKNOWN
DFM7AC17 DFM 2019-07-15 14:25:53 47.4787 10.9812 259 ° 15 km/h 2412 m -4.6 m/s MHz Garmisch-Partenkirchen (DE) 0.00 km NEED ATTENTION
P2240110 RS41 2019-07-15 11:34:48 47.5746 11.0404 236 ° 15 km/h 1661 m -8.7 m/s 402.50 MHz Garmisch-Partenkirchen (DE) 0.00 km UNKNOWN
P2240111 RS41 2019-07-15 05:37:38 47.6299 11.0867 242 ° 13 km/h 1327 m -7.7 m/s 402.50 MHz Garmisch-Partenkirchen (DE) 0.00 km UNKNOWN
DFM7AC23 DFM 2019-07-12 07:10:52 47.2765 12.3261 132 ° 31 km/h 2860 m -3.7 m/s MHz Bramberg am Wildkogel (AT) 0.00 km UNKNOWN
P2130607 RS41 2019-07-12 05:39:36 47.2874 12.2067 126 ° 35 km/h 2758 m -10.6 m/s 402.50 MHz Neukirchen am Großvenediger (AT) 0.00 km UNKNOWN
P2130609 RS41 2019-07-11 17:21:44 47.4175 12.0031 93 ° 15 km/h 1883 m -7.4 m/s 402.50 MHz Alpbach (AT) 0.00 km UNKNOWN
DFM7AB52 DFM 2019-07-11 13:39:20 47.5356 11.6933 77 ° 35 km/h 2549 m -11.6 m/s MHz Achenkirch (AT) 0.00 km UNKNOWN
P2130611 RS41 2019-07-11 11:28:27 47.3389 11.929 119 ° 19 km/h 2546 m -5.3 m/s 402.50 MHz Alpbach (AT) 0.00 km UNKNOWN
DFM7AB4F DFM 2019-07-11 08:51:38 47.1154 12.0693 143 ° 37 km/h 3377 m -5.5 m/s MHz Mayrhofen (AT) 0.00 km UNKNOWN
P0710737 RS41 2019-07-11 06:01:59 46.9647 12.0933 145 ° 57 km/h 3925 m -3.4 m/s 402.50 MHz Brunico (IT) 0.00 km UNKNOWN
P0330467 RS41 2019-07-10 17:45:01 47.1027 11.7649 112 ° 28 km/h 3307 m -4.9 m/s 402.50 MHz Mayrhofen (AT) 0.00 km UNKNOWN
DFM7B10D DFM 2019-07-10 13:16:39 46.9431 11.4908 183 ° 19 km/h 4041 m -3.5 m/s MHz Steinach am Brenner (AT) 0.00 km UNKNOWN
DFM7BADA DFM 2019-07-10 12:18:08 47.0266 11.3955 154 ° 41 km/h 4776 m -3.0 m/s MHz Steinach am Brenner (AT) 0.00 km UNKNOWN
P0320364 RS41 2019-07-10 11:41:02 47.2203 11.6608 167 ° 7 km/h 2645 m -4.9 m/s 402.50 MHz Wattens (AT) 0.00 km UNKNOWN
DFM7BB2A DFM 2019-07-10 08:09:49 47.3312 11.6654 225 ° 26 km/h 799 m -11.7 m/s MHz Terfens (AT) 0.00 km UNKNOWN
DFM7AC9C DFM 2019-07-10 06:15:25 47.4787 11.3798 141 ° 22 km/h 2785 m -14.9 m/s MHz Leutasch (AT) 0.00 km UNKNOWN
P2050423 RS41 2019-07-10 05:52:38 47.1948 11.9757 145 ° 31 km/h 3039 m -5.6 m/s 402.50 MHz Mayrhofen (AT) 0.00 km UNKNOWN
P2231263 RS41 2019-07-09 17:43:05 47.4773 12.2255 135 ° 19 km/h 2114 m -5.2 m/s 402.50 MHz Brixen im Thale (AT) 0.00 km UNKNOWN
DFM7AC4C DFM 2019-07-09 13:38:28 47.6532 11.7244 106 ° 56 km/h 15452 m 5.4 m/s MHz Achenkirch (AT) 0.00 km UNKNOWN
DFM7B58D DFM 2019-07-09 13:27:26 47.4944 11.6456 96 ° 31 km/h 2501 m -12.1 m/s MHz Achenkirch (AT) 0.00 km UNKNOWN
DFM7BB81 DFM 2019-07-09 13:04:07 47.3659 12.1711 98 ° 67 km/h 3691 m -1.7 m/s MHz Westendorf (AT) 0.00 km UNKNOWN
P2240042 RS41 2019-07-09 11:44:59 47.5303 12.0611 95 ° 57 km/h 2459 m -7.0 m/s 402.50 MHz Kirchbichl (AT) 0.00 km UNKNOWN
DFM7BA06 DFM 2019-07-09 09:13:59 47.5457 12.8518 31 ° 13 km/h 2179 m -2.2 m/s MHz Saalfelden am Steinernen Meer (AT) 0.00 km UNKNOWN
DFM7BB74 DFM 2019-07-09 06:40:33 47.5243 11.4651 84 ° 17 km/h 1920 m -15.7 m/s MHz Achenkirch (AT) 0.00 km UNKNOWN
P2240040 RS41 2019-07-09 06:19:31 47.4818 12.7999 103 ° 35 km/h 2410 m -8.0 m/s 402.50 MHz Saalfelden am Steinernen Meer (AT) 0.00 km UNKNOWN
DFM7AC04 DFM 2019-07-09 06:18:51 47.6375 11.8003 105 ° 22 km/h 1999 m -12.5 m/s MHz Achenkirch (AT) 0.00 km UNKNOWN
P0710607 RS41 2019-07-08 17:38:48 47.7139 12.2702 43 ° 13 km/h 1253 m -6.9 m/s 402.50 MHz Niederndorf (AT) 0.00 km UNKNOWN
DFM7AC62 DFM 2019-07-08 14:20:06 47.7316 12.7195 83 ° 35 km/h 1608 m -6.0 m/s MHz Grossgmain (AT) 0.00 km UNKNOWN
P0710659 RS41 2019-07-08 11:42:15 47.7086 12.4353 113 ° 20 km/h 1458 m -5.7 m/s 402.50 MHz Kössen (AT) 0.00 km UNKNOWN
DFM7B144 DFM 2019-07-08 06:47:34 47.5533 12.1544 90 ° 54 km/h 2375 m -13.4 m/s MHz Schwoich (AT) 0.00 km FOUND
P2240032 RS41 2019-07-08 05:46:11 47.5542 12.3214 118 ° 39 km/h 2275 m -12.0 m/s 402.50 MHz Ellmau (AT) 0.00 km UNKNOWN
DFM7BA26 DFM 2019-07-05 05:46:49 47.711 11.2459 92 ° 15 km/h 1046 m -13.7 m/s MHz Weilheim in Oberbayern (DE) 0.00 km UNKNOWN
P2240034 RS41 2019-07-05 05:40:59 47.4457 11.6411 100 ° 22 km/h 2108 m -11.7 m/s 402.50 MHz Eben am Achensee (AT) 0.00 km UNKNOWN
P2240036 RS41 2019-07-04 17:45:45 47.6428 11.8706 122 ° 15 km/h 1794 m -8.1 m/s 402.50 MHz Achenkirch (AT) 0.00 km UNKNOWN
DFM42D40 DFM 2019-07-04 14:43:39 47.6749 12.0565 171 ° 15 km/h 1489 m -2.0 m/s MHz Niederndorf (AT) 0.00 km UNKNOWN
DFM7BB7D DFM 2019-07-04 12:41:01 47.9682 11.3387 223 ° 11 km/h 1390 m -14.3 m/s MHz Starnberg (DE) 0.00 km UNKNOWN
P2240115 RS41 2019-07-04 11:57:44 47.7474 11.7334 104 ° 7 km/h 1842 m -5.2 m/s 402.50 MHz Geretsried (DE) 0.00 km UNKNOWN
DFM7AFA5 DFM 2019-07-04 06:51:50 47.9356 11.5983 335 ° 2 km/h 1320 m -15.2 m/s MHz Geretsried (DE) 0.00 km FOUND
DFM431A1 DFM 2019-07-04 06:41:20 47.7773 11.1695 94 ° 83 km/h 11854 m 4.4 m/s MHz Weilheim in Oberbayern (DE) 0.00 km UNKNOWN
P2240031 RS41 2019-07-04 06:31:25 47.7673 12.1818 349 ° 2 km/h 1147 m -5.6 m/s 402.50 MHz Rosenheim (DE) 0.00 km FOUND
P2240039 RS41 2019-07-03 17:51:13 47.8215 11.8745 332 ° 9 km/h 1643 m -4.5 m/s 402.50 MHz Rosenheim (DE) 0.00 km UNKNOWN
DFM7BB6B DFM 2019-07-03 11:54:48 47.9059 11.6194 165 ° 6 km/h 1515 m -11.6 m/s MHz Geretsried (DE) 0.00 km UNKNOWN
P2050439 RS41 2019-07-03 11:44:33 47.913 11.7702 209 ° 9 km/h 1104 m -7.2 m/s 402.50 MHz Unterhaching (DE) 0.00 km UNKNOWN
DFM7BA80 DFM 2019-07-03 06:45:49 47.9834 11.5014 235 ° 17 km/h 1124 m -8.2 m/s MHz Starnberg (DE) 0.00 km FOUND
DFM3814D DFM 2019-07-03 06:34:50 47.8368 11.6578 163 ° 15 km/h 1915 m -13.4 m/s MHz Geretsried (DE) 0.00 km FOUND
P2240116 RS41 2019-07-03 06:19:24 47.8664 12.2819 157 ° 9 km/h 2045 m -10.7 m/s 402.50 MHz Rosenheim (DE) 0.00 km UNKNOWN
P2050441 RS41 2019-07-02 17:54:40 47.9998 11.9432 159 ° 9 km/h 1076 m -10.1 m/s 402.50 MHz Vaterstetten (DE) 0.00 km UNKNOWN
DFM7BB22 DFM 2019-07-02 14:35:20 48.0886 12.2267 149 ° 17 km/h 764 m -2.2 m/s MHz Waldkraiburg (DE) 0.00 km UNKNOWN
P0710608 RS41 2019-07-02 11:43:49 47.9713 11.5974 155 ° 11 km/h 842 m -10.6 m/s 402.50 MHz Unterhaching (DE) 0.00 km UNKNOWN
DFM7BAE9 DFM 2019-07-02 09:15:47 48.248 12.7213 113 ° 15 km/h 511 m -1.6 m/s MHz Hochburg-Ach (AT) 0.00 km UNKNOWN
DFM380E1 DFM 2019-07-02 07:39:01 47.914 11.5628 73 ° 33 km/h 1734 m -12.8 m/s MHz Geretsried (DE) 0.00 km UNKNOWN
P2050421 RS41 2019-07-02 05:34:31 47.9478 11.6881 85 ° 17 km/h 945 m -8.8 m/s 402.50 MHz Unterhaching (DE) 0.00 km UNKNOWN
P2050422 RS41 2019-07-01 11:56:57 47.8947 11.3933 169 ° 41 km/h 1081 m -5.9 m/s 402.50 MHz Geretsried (DE) 0.00 km UNKNOWN
DFM7BBB5 DFM 2019-07-01 11:22:22 48.0065 11.3122 49 ° 59 km/h 1187 m -13.6 m/s MHz Starnberg (DE) 0.00 km FOUND
DFM431EF DFM 2019-07-01 08:36:45 47.8855 11.7786 127 ° 26 km/h 1433 m -3.7 m/s MHz Geretsried (DE) 0.00 km UNKNOWN
DFM43173 DFM 2019-07-01 06:21:53 47.8739 11.3197 114 ° 74 km/h 14636 m 6.5 m/s MHz Geretsried (DE) 0.00 km UNKNOWN
P2240035 RS41 2019-07-01 06:12:52 47.8139 11.4275 75 ° 39 km/h 890 m -11.8 m/s 402.50 MHz Geretsried (DE) 0.00 km UNKNOWN
P2240041 RS41 2019-06-28 05:32:26 47.2402 11.1811 149 ° 11 km/h 1966 m -8.8 m/s 402.50 MHz Inzing (AT) 0.00 km UNKNOWN
DFM4304F DFM 2019-06-27 18:03:04 47.6048 11.135 147 ° 46 km/h 10967 m 4.2 m/s MHz Garmisch-Partenkirchen (DE) 0.00 km UNKNOWN
P2240033 RS41 2019-06-27 17:40:21 47.3759 11.173 146 ° 11 km/h 1318 m -7.8 m/s 402.50 MHz Leutasch (AT) 0.00 km UNKNOWN
DFM42CC6 DFM 2019-06-27 13:03:24 47.535 11.1767 192 ° 19 km/h 19050 m 6.0 m/s MHz Garmisch-Partenkirchen (DE) 0.00 km UNKNOWN
P2050430 RS41 2019-06-27 11:39:16 47.4507 11.017 67 ° 13 km/h 2221 m -8.1 m/s 402.50 MHz Garmisch-Partenkirchen (DE) 0.00 km UNKNOWN
DFM42CA4 DFM 2019-06-27 10:24:55 47.6693 11.1041 135 ° 17 km/h 1222 m -11.6 m/s MHz Weilheim in Oberbayern (DE) 0.00 km UNKNOWN
P2050431 RS41 2019-06-27 05:49:55 47.473 11.0635 95 ° 19 km/h 2138 m -5.6 m/s 402.50 MHz Garmisch-Partenkirchen (DE) 0.00 km UNKNOWN
DFM430FF DFM 2019-06-26 21:02:51 47.4647 10.9525 151 ° 6 km/h 3133 m -3.3 m/s MHz Ehrwald (AT) 0.00 km FOUND
P2050442 RS41 2019-06-26 18:35:17 47.438 10.7261 196 ° 2 km/h 1633 m -4.5 m/s 402.50 MHz Reutte (AT) 0.00 km UNKNOWN
DFM4302E DFM 2019-06-26 14:15:16 47.6411 10.8899 130 ° 24 km/h 11562 m -6.9 m/s MHz Reutte (AT) 0.00 km UNKNOWN
DFM431A3 DFM 2019-06-26 13:51:03 47.5841 10.9545 166 ° 17 km/h 1772 m -3.7 m/s MHz Garmisch-Partenkirchen (DE) 0.00 km UNKNOWN
P2050432 RS41 2019-06-26 11:37:08 47.6647 10.7759 242 ° 9 km/h 1238 m -9.5 m/s 402.50 MHz Reutte (AT) 0.00 km UNKNOWN
P2050425 RS41 2019-06-26 05:27:18 47.6326 10.7515 16 ° 11 km/h 1025 m -7.6 m/s 402.50 MHz Reutte (AT) 0.00 km UNKNOWN
P2050424 RS41 2019-06-25 17:36:01 47.6339 10.8114 239 ° 9 km/h 1188 m -6.8 m/s 402.50 MHz Reutte (AT) 0.00 km UNKNOWN
DFM4315C DFM 2019-06-25 14:10:54 47.6382 10.991 214 ° 13 km/h 282 m -4.7 m/s MHz Garmisch-Partenkirchen (DE) 0.00 km UNKNOWN
P2120829 RS41 2019-06-25 11:43:52 47.6497 10.797 118 ° 4 km/h 1057 m -11.4 m/s 402.50 MHz Reutte (AT) 0.00 km UNKNOWN
DFM42B35 DFM 2019-06-25 08:22:14 47.5563 11.0043 136 ° 13 km/h 2021 m -4.1 m/s MHz Garmisch-Partenkirchen (DE) 0.00 km UNKNOWN
DFM42B92 DFM 2019-06-25 06:30:53 47.6704 10.9749 154 ° 39 km/h 3442 m -15.0 m/s MHz Garmisch-Partenkirchen (DE) 0.00 km UNKNOWN
P2130612 RS41 2019-06-25 05:49:24 47.5748 10.8065 157 ° 2 km/h 1551 m -2.1 m/s 402.50 MHz Reutte (AT) 0.00 km UNKNOWN
DFM43089 DFM 2019-06-24 17:57:58 47.4683 11.17 107 ° 13 km/h 2536 m -4.6 m/s MHz Garmisch-Partenkirchen (DE) 0.00 km UNKNOWN
DFM4320F DFM 2019-06-24 13:30:11 47.6519 11.037 242 ° 22 km/h 14349 m 3.7 m/s MHz Garmisch-Partenkirchen (DE) 0.00 km UNKNOWN
P0710628 RS41 2019-06-24 11:38:23 47.6117 10.8516 286 ° 9 km/h 1291 m -8.2 m/s 402.50 MHz Reutte (AT) 0.00 km UNKNOWN
DFM42D04 DFM 2019-06-24 08:26:44 47.3662 11.1501 353 ° 7 km/h 1244 m -2.9 m/s MHz Leutasch (AT) 0.00 km UNKNOWN
P0710627 RS41 2019-06-24 05:44:13 47.5111 10.9023 71 ° 6 km/h 1957 m -9.5 m/s 402.50 MHz Ehrwald (AT) 0.00 km UNKNOWN
P2130620 RS41 2019-06-19 17:55:23 48.1139 11.5144 330 ° 11 km/h 624 m -2.9 m/s 402.50 MHz München (DE) 0.00 km UNKNOWN
P0650364 RS41 2019-06-19 11:43:09 48.1107 11.1614 8 ° 11 km/h 896 m -10.6 m/s 402.50 MHz Fürstenfeldbruck (DE) 0.00 km UNKNOWN
P0650404 RS41 2019-06-19 05:46:15 48.2388 11.1587 68 ° 20 km/h 771 m -11.4 m/s 402.50 MHz Fürstenfeldbruck (DE) 0.00 km UNKNOWN
P0320357 RS41 2019-06-18 17:32:31 47.98 11.2318 209 ° 11 km/h 1052 m -7.7 m/s 402.50 MHz Starnberg (DE) 0.00 km LOST
P0720565 RS41 2019-06-18 11:47:13 47.9948 11.1247 116 ° 15 km/h 1018 m -12.4 m/s 402.50 MHz Starnberg (DE) 0.00 km UNKNOWN
DFM42007 DFM 2019-06-18 06:58:55 47.8584 11.0162 101 ° 19 km/h 1178 m -12.7 m/s MHz Weilheim in Oberbayern (DE) 0.00 km UNKNOWN
P0710764 RS41 2019-06-18 06:33:33 47.978 11.284 65 ° 4 km/h 917 m -4.7 m/s 402.50 MHz Starnberg (DE) 0.00 km FOUND
P2130614 RS41 2019-06-17 17:35:39 48.0421 11.0799 264 ° 24 km/h 935 m -8.4 m/s 402.50 MHz Landsberg am Lech (DE) 0.00 km UNKNOWN
DFM42B8C DFM 2019-06-17 14:34:48 48.0802 11.0813 256 ° 28 km/h 955 m -5.6 m/s MHz Fürstenfeldbruck (DE) 0.00 km UNKNOWN
P2120812 RS41 2019-06-17 11:55:30 48.0809 10.9324 262 ° 13 km/h 817 m -6.8 m/s 402.50 MHz Landsberg am Lech (DE) 0.00 km UNKNOWN
DFM42B0E DFM 2019-06-17 08:45:24 48.0149 10.9611 272 ° 19 km/h 911 m -3.8 m/s MHz Landsberg am Lech (DE) 0.00 km UNKNOWN
P2130618 RS41 2019-06-17 05:35:31 47.9741 10.9742 282 ° 20 km/h 867 m -10.2 m/s 402.50 MHz Landsberg am Lech (DE) 0.00 km UNKNOWN
DFM43158 DFM 2019-06-14 06:12:26 48.0057 11.2291 52 ° 94 km/h 9187 m 4.1 m/s MHz Starnberg (DE) 0.00 km UNKNOWN
P2120811 RS41 2019-06-14 05:47:02 48.301 11.6764 287 ° 15 km/h 532 m -5.1 m/s 402.50 MHz Unterschleißheim (DE) 0.00 km FOUND
P2130613 RS41 2019-06-13 17:26:39 48.5676 11.8854 113 ° 15 km/h 770 m -8.2 m/s 402.50 MHz Landshut (DE) 0.00 km FOUND
DFM43195 DFM 2019-06-13 14:14:46 48.7844 12.2034 120 ° 7 km/h 1569 m -4.6 m/s MHz Regensburg (DE) 0.00 km FOUND
P2130617 RS41 2019-06-13 11:47:39 48.9124 11.8082 33 ° 20 km/h 1992 m -9.9 m/s 402.50 MHz Regensburg (DE) 0.00 km UNKNOWN
P2130616 RS41 2019-06-13 05:45:43 48.918 11.4367 260 ° 7 km/h 2100 m -8.7 m/s 402.50 MHz Ingolstadt (DE) 0.00 km UNKNOWN
DFM36FCA DFM 2019-06-12 17:49:35 49.114 11.3498 121 ° 37 km/h 2012 m -0.2 m/s MHz Neumarkt in der Oberpfalz (DE) 0.00 km UNKNOWN
P2120823 RS41 2019-06-12 11:43:59 48.8783 10.9749 63 ° 19 km/h 1732 m -8.2 m/s 402.50 MHz Neuburg an der Donau (DE) 0.00 km UNKNOWN
DFM42D74 DFM 2019-06-12 07:53:37 48.5301 10.9288 164 ° 19 km/h 651 m -12.0 m/s MHz Neusäß (DE) 0.00 km UNKNOWN
P2120825 RS41 2019-06-12 05:32:15 48.7297 10.7651 252 ° 26 km/h 1098 m -7.5 m/s 402.50 MHz Dillingen (DE) 0.00 km UNKNOWN
P0710625 RS41 2019-06-11 17:33:49 48.6858 11.117 137 ° 28 km/h 869 m -7.9 m/s 402.50 MHz Neuburg an der Donau (DE) 0.00 km FOUND
P0710626 RS41 2019-06-11 11:48:11 48.9136 10.6134 337 ° 48 km/h 1997 m -6.7 m/s 402.50 MHz Ellwangen (DE) 0.00 km UNKNOWN
DFM43152 DFM 2019-06-11 07:43:22 48.3946 10.983 238 ° 20 km/h 608 m -2.2 m/s MHz Augsburg (DE) 0.00 km UNKNOWN
P2130615 RS41 2019-06-11 06:09:04 48.875 10.5648 17 ° 20 km/h 1486 m -6.4 m/s 402.50 MHz Ellwangen (DE) 0.00 km UNKNOWN
DFM42D4E DFM 2019-06-07 08:49:22 48.2988 11.7434 305 ° 20 km/h 1612 m -2.9 m/s MHz Freising (DE) 0.00 km UNKNOWN
P2120832 RS41 2019-06-07 05:32:31 48.2172 11.2832 249 ° 11 km/h 606 m -7.6 m/s 402.50 MHz Olching (DE) 0.00 km UNKNOWN
P2120833 RS41 2019-06-06 17:33:27 48.3905 11.2682 142 ° 30 km/h 894 m -7.6 m/s 402.50 MHz Aichach (DE) 0.00 km UNKNOWN
DF9050955 DFM09 2019-06-06 14:38:30 48.5035 11.1479 32 ° 17 km/h 2878 m -3.9 m/s 404.310 MHz Aichach (DE) 0.00 km UNKNOWN
DFM42D4B DFM 2019-06-06 14:36:49 48.4969 11.1455 3 ° 24 km/h 3261 m -3.7 m/s MHz Aichach (DE) 0.00 km UNKNOWN
P2120830 RS41 2019-06-06 11:55:46 48.5926 10.8186 133 ° 22 km/h 615 m -6.8 m/s 402.50 MHz Neusäß (DE) 0.00 km UNKNOWN
P2130623 RS41 2019-06-06 05:29:56 48.2413 10.8749 111 ° 24 km/h 726 m -8.2 m/s 402.50 MHz Königsbrunn (DE) 0.00 km UNKNOWN
DFM7BA84 DFM 2019-06-05 20:11:23 47.9909 10.9559 284 ° 20 km/h 939 m -13.1 m/s MHz Landsberg am Lech (DE) 0.00 km FOUND
DFM7AFC3 DFM 2019-06-05 19:38:06 48.0627 10.9691 283 ° 43 km/h 1306 m -10.8 m/s MHz Landsberg am Lech (DE) 0.00 km UNKNOWN
P2120834 RS41 2019-06-05 17:34:54 48.054 10.7502 255 ° 39 km/h 864 m -8.1 m/s 402.50 MHz Landsberg am Lech (DE) 0.00 km UNKNOWN
DFM4310B DFM 2019-06-05 14:36:57 48.0049 10.7785 350 ° 19 km/h 2764 m -4.5 m/s MHz Landsberg am Lech (DE) 0.00 km UNKNOWN
P2120824 RS41 2019-06-05 11:38:06 47.9664 10.6577 223 ° 11 km/h 900 m -4.7 m/s 402.50 MHz Kaufbeuren (DE) 0.00 km UNKNOWN
P2120837 RS41 2019-06-05 05:40:19 47.829 10.7642 45 ° 22 km/h 967 m -4.1 m/s 402.50 MHz Kaufbeuren (DE) 0.00 km UNKNOWN
DFM42B89 DFM 2019-06-04 17:37:31 47.7696 11.124 42 ° 9 km/h 2350 m -3.3 m/s MHz Weilheim in Oberbayern (DE) 0.00 km UNKNOWN
DFM43116 DFM 2019-06-04 14:48:28 47.8076 11.0921 62 ° 13 km/h 2366 m -5.0 m/s MHz Weilheim in Oberbayern (DE) 0.00 km UNKNOWN
P0710617 RS41 2019-06-04 11:34:44 47.8618 10.9011 261 ° 15 km/h 985 m -6.4 m/s 402.50 MHz Weilheim in Oberbayern (DE) 0.00 km UNKNOWN
DFM42F24 DFM 2019-06-04 08:27:52 47.8611 11.1107 21 ° 13 km/h 2246 m -5.2 m/s MHz Weilheim in Oberbayern (DE) 0.00 km UNKNOWN
P0720479 RS41 2019-06-04 05:53:51 47.9227 11.0502 328 ° 19 km/h 818 m -6.5 m/s 402.50 MHz Weilheim in Oberbayern (DE) 0.00 km UNKNOWN
P0710609 RS41 2019-06-03 17:37:16 47.8511 11.0391 134 ° 48 km/h 891 m -8.5 m/s 402.50 MHz Weilheim in Oberbayern (DE) 0.00 km UNKNOWN
P0710610 RS41 2019-06-03 11:41:23 47.9061 10.8985 123 ° 7 km/h 904 m -9.9 m/s 402.50 MHz Landsberg am Lech (DE) 0.00 km UNKNOWN
DFM43115 DFM 2019-06-03 08:38:40 47.839 10.9129 154 ° 9 km/h 2854 m -3.9 m/s MHz Weilheim in Oberbayern (DE) 0.00 km FOUND
DFM42C81 DFM 2019-06-03 05:40:28 47.8383 10.8644 119 ° 11 km/h 2565 m -5.6 m/s MHz Kaufbeuren (DE) 0.00 km FOUND
DFM42C88 DFM 2019-05-29 17:28:22 47.9832 11.0143 167 ° 17 km/h 2498 m -3.1 m/s MHz Landsberg am Lech (DE) 0.00 km UNKNOWN
P2130621 RS41 2019-05-29 12:06:03 48.2168 11.0671 159 ° 20 km/h 833 m -7.5 m/s 402.50 MHz Fürstenfeldbruck (DE) 0.00 km UNKNOWN
P2130622 RS41 2019-05-29 05:24:40 48.0754 11.0812 144 ° 26 km/h 953 m -4.8 m/s 402.50 MHz Landsberg am Lech (DE) 0.00 km UNKNOWN
P2120815 RS41 2019-05-28 17:22:56 48.1836 11.314 46 ° 26 km/h 584 m -10.6 m/s 402.50 MHz Olching (DE) 0.00 km FOUND
P2130610 RS41 2019-05-28 11:35:27 48.2063 11.3593 118 ° 13 km/h 588 m -3.8 m/s 402.50 MHz Olching (DE) 0.00 km UNKNOWN
P2130624 RS41 2019-05-28 05:24:53 47.9787 11.1727 104 ° 20 km/h 1023 m -3.7 m/s 402.50 MHz Starnberg (DE) 0.00 km UNKNOWN
P2120839 RS41 2019-05-27 17:28:07 48.1135 10.8401 27 ° 17 km/h 846 m -4.9 m/s 402.50 MHz Landsberg am Lech (DE) 0.00 km FOUND
P2120840 RS41 2019-05-27 12:38:51 48.3164 11.1133 338 ° 9 km/h 863 m -8.6 m/s 402.50 MHz Aichach (DE) 0.00 km FOUND
DFM42D85 DFM 2019-05-27 08:31:13 48.2333 11.1843 110 ° 7 km/h 2493 m -5.1 m/s MHz Fürstenfeldbruck (DE) 0.00 km UNKNOWN
P2120850 RS41 2019-05-27 06:14:29 48.2389 11.4596 138 ° 7 km/h 608 m -4.7 m/s 402.50 MHz Dachau (DE) 0.00 km UNKNOWN
P2120849 RS41 2019-05-24 05:32:30 47.6249 11.03 79 ° 4 km/h 1446 m -9.2 m/s 402.50 MHz Garmisch-Partenkirchen (DE) 0.00 km UNKNOWN
DFM43161 DFM 2019-05-23 17:45:22 47.4616 11.0642 59 ° 9 km/h 2650 m -4.6 m/s MHz Garmisch-Partenkirchen (DE) 0.00 km UNKNOWN
DFM4315E DFM 2019-05-23 15:07:19 47.4673 10.9618 73 ° 11 km/h 3360 m -4.4 m/s MHz Ehrwald (AT) 0.00 km UNKNOWN
P0330879 RS41 2019-05-23 11:52:07 47.4874 10.8172 13 ° 4 km/h 1824 m -8.6 m/s 402.50 MHz Reutte (AT) 0.00 km UNKNOWN
DFM42EF3 DFM 2019-05-23 07:48:20 47.6268 10.8197 170 ° 26 km/h 5823 m -16.1 m/s MHz Reutte (AT) 0.00 km UNKNOWN
P2120847 RS41 2019-05-23 05:37:46 47.4545 10.7809 89 ° 6 km/h 1942 m -5.7 m/s 402.50 MHz Reutte (AT) 0.00 km UNKNOWN
P2120848 RS41 2019-05-22 18:00:53 47.6827 10.6024 86 ° 19 km/h 1167 m -6.9 m/s 402.50 MHz Kempten (DE) 0.00 km LOST
P0330179 RS41 2019-05-22 11:36:20 47.8132 10.7438 77 ° 26 km/h 1175 m -4.6 m/s 402.50 MHz Kaufbeuren (DE) 0.00 km FOUND
P2120838 RS41 2019-05-22 05:39:21 47.6972 10.9983 111 ° 41 km/h 1535 m -8.1 m/s 402.50 MHz Weilheim in Oberbayern (DE) 0.00 km UNKNOWN
P0330180 RS41 2019-05-21 11:36:13 47.5724 11.3731 92 ° 44 km/h 1923 m -6.9 m/s 402.50 MHz Garmisch-Partenkirchen (DE) 0.00 km UNKNOWN
P2120814 RS41 2019-05-21 05:15:04 47.4748 11.2919 91 ° 43 km/h 1820 m -10.5 m/s 402.50 MHz Garmisch-Partenkirchen (DE) 0.00 km UNKNOWN
P2120813 RS41 2019-05-20 17:25:10 47.5447 10.7394 75 ° 13 km/h 1441 m -2.6 m/s 402.50 MHz Reutte (AT) 0.00 km UNKNOWN
P0710800 RS41 2019-05-20 11:32:48 47.725 10.5252 69 ° 46 km/h 1131 m -9.4 m/s 402.50 MHz Kempten (DE) 0.00 km UNKNOWN
P0710658 RS41 2019-05-20 05:46:48 47.8277 10.2589 109 ° 26 km/h 954 m -9.2 m/s 402.50 MHz Kempten (DE) 0.00 km UNKNOWN
P0720569 RS41 2019-05-20 05:32:06 47.8756 10.435 217 ° 20 km/h 4308 m -9.8 m/s 404.30 MHz Kaufbeuren (DE) 0.00 km UNKNOWN
P0720568 RS41 2019-05-17 06:01:19 47.7661 11.0274 321 ° 17 km/h 1102 m -8.1 m/s 402.50 MHz Weilheim in Oberbayern (DE) 0.00 km UNKNOWN
P0710614 RS41 2019-05-16 17:54:52 47.7662 10.6886 256 ° 15 km/h 1078 m -5.5 m/s 402.50 MHz Kaufbeuren (DE) 0.00 km FOUND
P0720570 RS41 2019-05-16 11:53:46 47.7973 10.4347 270 ° 7 km/h 1034 m -7.6 m/s 402.50 MHz Kempten (DE) 0.00 km FOUND
DFM42B87 DFM 2019-05-16 08:49:07 47.7281 10.6227 260 ° 24 km/h 3537 m -3.9 m/s MHz Kaufbeuren (DE) 0.00 km UNKNOWN
DF9050503 DFM09 2019-05-16 08:33:00 47.7329 10.652 212 ° 17 km/h 7977 m -4.7 m/s 404.310 MHz Kaufbeuren (DE) 0.00 km UNKNOWN
P0710616 RS41 2019-05-16 06:35:05 47.6722 10.4042 267 ° 17 km/h 1151 m -5.9 m/s 402.50 MHz Kempten (DE) 0.00 km FOUND
P0710804 RS41 2019-05-15 17:27:29 47.6549 10.4823 277 ° 13 km/h 1203 m -9.0 m/s 402.50 MHz Kempten (DE) 0.00 km UNKNOWN
DFM4301E DFM 2019-05-15 14:32:04 47.632 10.3012 226 ° 37 km/h 1772 m -4.1 m/s MHz Kempten (DE) 0.00 km UNKNOWN
P0710801 RS41 2019-05-15 11:38:59 47.6595 10.0333 249 ° 35 km/h 1128 m -7.2 m/s 402.50 MHz Wangen im Allgäu (DE) 0.00 km UNKNOWN
P0710805 RS41 2019-05-15 05:26:57 47.5513 9.93223 254 ° 39 km/h 1286 m -10.7 m/s 402.50 MHz Hörbranz (AT) 0.00 km UNKNOWN
DFM42F3C DFM 2019-05-14 17:17:32 46.8794 10.6993 178 ° 144 km/h 6899 m -4.7 m/s MHz Pfunds (AT) 0.00 km UNKNOWN
DFM42D34 DFM 2019-05-14 14:21:43 46.916 10.7076 174 ° 120 km/h 7540 m -5.3 m/s MHz Pfunds (AT) 0.00 km UNKNOWN
P0710615 RS41 2019-05-14 11:44:36 46.8864 10.3461 193 ° 52 km/h 3646 m -7.7 m/s 402.50 MHz Pfunds (AT) 0.00 km LOST
DFM42E0B DFM 2019-05-14 07:44:08 47.1801 10.7256 187 ° 122 km/h 7110 m -16.7 m/s MHz Arzl im Pitztal (AT) 0.00 km UNKNOWN
P0710802 RS41 2019-05-14 05:28:51 46.823 10.3051 199 ° 59 km/h 4096 m -8.0 m/s 402.50 MHz Pfunds (AT) 0.00 km LOST
P0710655 RS41 2019-05-13 17:29:05 47.067 9.97991 243 ° 20 km/h 2932 m -7.3 m/s 402.50 MHz Schruns (AT) 0.00 km UNKNOWN
DFM42FE5 DFM 2019-05-13 14:44:16 47.0392 10.1083 270 ° 30 km/h 2990 m -5.2 m/s MHz Sankt Gallenkirch (AT) 0.00 km UNKNOWN
P0620315 RS41 2019-05-13 11:34:53 47.4018 10.195 255 ° 28 km/h 1934 m -7.3 m/s 402.50 MHz Mittelberg (AT) 0.00 km UNKNOWN
DFM42DE7 DFM 2019-05-13 08:45:08 47.5169 10.4177 249 ° 48 km/h 1593 m -2.9 m/s MHz Sonthofen (DE) 0.00 km UNKNOWN
DF9051111 DFM09 2019-05-13 08:21:30 47.5416 10.568 199 ° 11 km/h 6457 m -4.2 m/s 402.510 MHz Reutte (AT) 0.00 km UNKNOWN
P0710799 RS41 2019-05-13 05:49:02 47.6426 10.483 257 ° 41 km/h 1123 m -4.5 m/s 402.50 MHz Kempten (DE) 0.00 km UNKNOWN
P0710632 RS41 2019-05-10 05:24:22 47.7214 12.0252 74 ° 17 km/h 1470 m -5.9 m/s 402.50 MHz Niederndorf (AT) 0.00 km UNKNOWN
DFM42FAF DFM 2019-05-09 17:39:50 47.6443 12.2395 86 ° 57 km/h 1981 m -4.3 m/s MHz Niederndorf (AT) 0.00 km UNKNOWN
DFM42DA7 DFM 2019-05-09 14:36:20 47.8341 12.0908 24 ° 17 km/h 1198 m -4.5 m/s MHz Rosenheim (DE) 0.00 km UNKNOWN
P0710767 RS41 2019-05-09 11:25:34 47.8999 11.6333 107 ° 26 km/h 1778 m -5.8 m/s 402.50 MHz Geretsried (DE) 0.00 km UNKNOWN
DFM42E52 DFM 2019-05-09 08:28:00 47.9823 11.9694 100 ° 9 km/h 1099 m -4.3 m/s MHz Rosenheim (DE) 0.00 km UNKNOWN
P0710782 RS41 2019-05-09 05:28:04 48.2836 11.8412 51 ° 15 km/h 559 m -6.0 m/s 402.50 MHz Erding (DE) 0.00 km FOUND
P0710786 RS41 2019-05-08 17:38:27 48.2012 12.2121 323 ° 35 km/h 912 m -5.4 m/s 402.50 MHz Waldkraiburg (DE) 0.00 km UNKNOWN
DFM42ECD DFM 2019-05-08 14:28:11 48.0724 12.5121 218 ° 13 km/h 637 m -4.3 m/s MHz Traunreut (DE) 0.00 km UNKNOWN
P0710781 RS41 2019-05-08 11:49:13 47.9098 12.5445 257 ° 15 km/h 864 m -5.7 m/s 402.50 MHz Traunreut (DE) 0.00 km UNKNOWN
DFM42EA1 DFM 2019-05-08 08:45:03 47.6588 12.5992 245 ° 11 km/h 1836 m -3.6 m/s MHz Kössen (AT) 0.00 km UNKNOWN
P0710808 RS41 2019-05-08 06:02:54 47.7316 12.3479 66 ° 13 km/h 1598 m -10.1 m/s 402.50 MHz Kössen (AT) 0.00 km UNKNOWN
P0710784 RS41 2019-05-07 17:37:33 47.545 12.2711 83 ° 19 km/h 2287 m -7.1 m/s 402.50 MHz Ellmau (AT) 0.00 km UNKNOWN
P0710734 RS41 2019-05-07 12:09:25 47.878 12.2953 301 ° 15 km/h 972 m -6.2 m/s 402.50 MHz Rosenheim (DE) 0.00 km UNKNOWN
P0710770 RS41 2019-05-07 05:21:48 47.6612 11.7094 146 ° 2 km/h 1707 m -7.4 m/s 402.50 MHz Achenkirch (AT) 0.00 km UNKNOWN
DFM42E09 DFM 2019-05-06 17:39:01 47.3079 11.4457 157 ° 13 km/h 2675 m -3.0 m/s MHz Thaur (AT) 0.00 km UNKNOWN
P0710747 RS41 2019-05-06 11:38:54 47.7382 11.2836 100 ° 15 km/h 1306 m -4.4 m/s 402.50 MHz Weilheim in Oberbayern (DE) 0.00 km UNKNOWN
P0710733 RS41 2019-05-06 05:25:12 47.7837 11.1757 138 ° 7 km/h 1130 m -8.1 m/s 402.50 MHz Weilheim in Oberbayern (DE) 0.00 km FOUND
P0710732 RS41 2019-05-03 05:33:43 47.8149 11.9788 103 ° 37 km/h 1339 m -7.0 m/s 402.50 MHz Rosenheim (DE) 0.00 km UNKNOWN
P0330683 RS41 2019-05-02 17:41:19 48.0179 12.0246 105 ° 30 km/h 812 m -7.5 m/s 402.50 MHz Rosenheim (DE) 0.00 km UNKNOWN
DFM42D64 DFM 2019-05-02 13:06:04 47.9852 11.8231 69 ° 17 km/h 1562 m -3.8 m/s MHz Vaterstetten (DE) 0.00 km FOUND
P0710771 RS41 2019-05-02 11:41:15 47.8562 11.7115 136 ° 11 km/h 1179 m -5.6 m/s 402.50 MHz Geretsried (DE) 0.00 km UNKNOWN
DFM42DFA DFM 2019-05-02 11:39:19 47.9316 11.4359 52 ° 44 km/h 7330 m -10.0 m/s MHz Geretsried (DE) 0.00 km UNKNOWN
P0710738 RS41 2019-05-02 05:17:42 47.6106 11.4734 82 ° 39 km/h 2166 m -8.0 m/s 402.50 MHz Achenkirch (AT) 0.00 km UNKNOWN
P0340031 RS41 2019-04-30 17:30:16 47.2485 11.0186 221 ° 31 km/h 3463 m -6.7 m/s 404.30 MHz Rietz (AT) 0.00 km UNKNOWN
P0340032 RS41 2019-04-30 11:53:10 47.2382 10.8485 178 ° 30 km/h 2586 m -8.3 m/s 402.50 MHz Haiming (AT) 0.00 km UNKNOWN
P0320338 RS41 2019-04-30 05:14:52 47.2786 10.5227 149 ° 17 km/h 2636 m -3.2 m/s 402.50 MHz Zams (AT) 0.00 km UNKNOWN
N3140953 RS41 2019-04-29 17:26:13 47.4045 10.1778 185 ° 11 km/h 1971 m -4.7 m/s 402.50 MHz Mittelberg (AT) 0.00 km UNKNOWN
N3210308 RS41 2019-04-29 11:25:30 47.5324 10.2198 164 ° 15 km/h 1483 m -10.0 m/s 402.50 MHz Sonthofen (DE) 0.00 km UNKNOWN
N3330808 RS41 2019-04-29 05:27:47 47.6339 10.4272 233 ° 15 km/h 1229 m -8.1 m/s 402.50 MHz Kempten (DE) 0.00 km UNKNOWN
P0340033 RS41 2019-04-26 05:43:05 48.461 11.4606 113 ° 35 km/h 753 m -7.8 m/s 402.50 MHz Pfaffenhofen an der Ilm (DE) 0.00 km UNKNOWN
N3210440 RS41 2019-04-25 17:16:33 48.1968 11.3916 341 ° 35 km/h 655 m -10.8 m/s 402.50 MHz Olching (DE) 0.00 km FOUND
N3330816 RS41 2019-04-25 11:32:04 48.3526 11.5365 305 ° 22 km/h 825 m -9.2 m/s 402.50 MHz Unterschleißheim (DE) 0.00 km UNKNOWN
N3330814 RS41 2019-04-25 06:15:33 48.2636 11.9382 276 ° 19 km/h 596 m -6.1 m/s 402.50 MHz Erding (DE) 0.00 km FOUND
DFM42E0A DFM 2019-04-24 17:52:38 48.6983 11.4085 14 ° 46 km/h 790 m -3.4 m/s MHz Ingolstadt (DE) 0.00 km FOUND
DF9051146 DFM09 2019-04-24 17:34:03 48.6163 11.3172 13 ° 57 km/h 4856 m -4.0 m/s 402.510 MHz Neuburg an der Donau (DE) 0.00 km UNKNOWN
P0330786 RS41 2019-04-24 11:32:09 48.2837 11.4791 29 ° 19 km/h 1189 m -6.3 m/s 402.50 MHz Dachau (DE) 0.00 km FOUND
N3330809 RS41 2019-04-24 06:21:42 48.2731 11.5427 354 ° 20 km/h 630 m -5.9 m/s 402.50 MHz Unterschleißheim (DE) 0.00 km FOUND
P0330134 RS41 2019-04-23 17:37:40 48.0531 10.8966 316 ° 30 km/h 861 m -7.6 m/s 402.50 MHz Landsberg am Lech (DE) 0.00 km UNKNOWN
N3210302 RS41 2019-04-23 11:25:52 47.9946 10.732 277 ° 13 km/h 834 m -8.9 m/s 402.50 MHz Landsberg am Lech (DE) 0.00 km UNKNOWN
P0340672 RS41 2019-04-23 05:28:55 47.9905 10.7484 9 ° 9 km/h 833 m -8.0 m/s 402.50 MHz Landsberg am Lech (DE) 0.00 km UNKNOWN
N3140954 RS41 2019-04-18 17:20:54 47.4678 10.9821 325 ° 9 km/h 2391 m -13.0 m/s 402.50 MHz Garmisch-Partenkirchen (DE) 0.00 km FOUND
P0330788 RS41 2019-04-18 11:30:24 47.3479 11.296 308 ° 17 km/h 2429 m -11.4 m/s 402.50 MHz Seefeld in Tirol (AT) 0.00 km UNKNOWN
P0330789 RS41 2019-04-18 05:35:48 47.0906 11.4346 211 ° 4 km/h 3110 m -9.3 m/s 402.50 MHz Steinach am Brenner (AT) 0.00 km UNKNOWN
P2150867 RS41 2019-04-17 17:37:52 47.2881 11.2041 8 ° 35 km/h 909 m -7.9 m/s 402.50 MHz Inzing (AT) 0.00 km UNKNOWN
P2310225 RS41 2019-04-17 11:40:13 47.3801 11.2233 311 ° 4 km/h 1395 m -7.8 m/s 402.50 MHz Leutasch (AT) 0.00 km UNKNOWN
DFM42F71 DFM 2019-04-17 08:22:45 47.4683 11.1755 247 ° 6 km/h 1899 m -5.6 m/s MHz Garmisch-Partenkirchen (DE) 0.00 km UNKNOWN
P2150861 RS41 2019-04-17 05:30:19 47.3754 11.3112 266 ° 6 km/h 2071 m -8.9 m/s 402.50 MHz Seefeld in Tirol (AT) 0.00 km UNKNOWN
P2150870 RS41 2019-04-16 17:34:54 47.3175 11.5559 195 ° 9 km/h 952 m -5.3 m/s 402.50 MHz Volders (AT) 0.00 km UNKNOWN
P2150862 RS41 2019-04-16 11:32:15 47.2898 11.6569 289 ° 4 km/h 1074 m -8.7 m/s 402.50 MHz Terfens (AT) 0.00 km UNKNOWN
P2150864 RS41 2019-04-16 05:35:44 47.1125 11.7046 114 ° 13 km/h 3135 m -9.9 m/s 402.50 MHz Mayrhofen (AT) 0.00 km UNKNOWN
P2150841 RS41 2019-04-15 17:36:37 47.1404 11.4033 5 ° 9 km/h 2413 m -9.0 m/s 402.50 MHz Fulpmes (AT) 0.00 km UNKNOWN
P2150843 RS41 2019-04-15 11:30:11 47.2786 11.0392 254 ° 4 km/h 1584 m -8.5 m/s 402.50 MHz Rietz (AT) 0.00 km FOUND
DFM42EA9 DFM 2019-04-15 08:16:09 47.3828 10.7026 328 ° 26 km/h 2353 m -2.4 m/s MHz Reutte (AT) 0.00 km UNKNOWN
P2150845 RS41 2019-04-15 05:34:53 47.3703 10.8318 303 ° 15 km/h 2275 m -4.6 m/s 402.50 MHz Ehrwald (AT) 0.00 km UNKNOWN
P0710750 RS41 2019-04-12 05:48:01 47.9123 11.1648 281 ° 28 km/h 1149 m -6.5 m/s 402.50 MHz Weilheim in Oberbayern (DE) 0.00 km FOUND
P2150842 RS41 2019-04-11 17:42:33 47.8619 10.9651 262 ° 26 km/h 1099 m -11.6 m/s 402.50 MHz Weilheim in Oberbayern (DE) 0.00 km UNKNOWN
P0710774 RS41 2019-04-11 11:40:35 47.9813 10.9084 215 ° 19 km/h 982 m -8.2 m/s 402.50 MHz Landsberg am Lech (DE) 0.00 km UNKNOWN
DFM42D67 DFM 2019-04-11 08:56:12 47.9176 10.7404 250 ° 13 km/h 915 m -2.9 m/s MHz Kaufbeuren (DE) 0.00 km FOUND
P2310227 RS41 2019-04-11 05:47:13 47.9353 10.8812 256 ° 26 km/h 964 m -4.4 m/s 402.50 MHz Landsberg am Lech (DE) 0.00 km UNKNOWN
P2150869 RS41 2019-04-10 11:38:09 48.0352 10.7557 196 ° 11 km/h 842 m -6.5 m/s 402.50 MHz Landsberg am Lech (DE) 0.00 km FOUND
DFM42D52 DFM 2019-04-10 09:01:13 48.0189 10.6291 157 ° 6 km/h 791 m -3.0 m/s MHz Kaufbeuren (DE) 0.00 km FOUND
DF9050962 DFM09 2019-04-10 08:25:14 47.9832 10.7995 310 ° 33 km/h 7483 m -3.9 m/s 402.510 MHz Landsberg am Lech (DE) 0.00 km UNKNOWN
P2150865 RS41 2019-04-10 05:36:54 47.9806 10.7909 144 ° 6 km/h 898 m -6.8 m/s 402.50 MHz Landsberg am Lech (DE) 0.00 km UNKNOWN
DFM42D42 DFM 2019-04-09 17:58:35 48.1058 10.9104 119 ° 24 km/h 804 m -2.3 m/s MHz Landsberg am Lech (DE) 0.00 km FOUND
DF9050946 DFM09 2019-04-09 17:12:44 48.0027 10.9868 44 ° 30 km/h 10341 m -4.6 m/s 402.510 MHz Landsberg am Lech (DE) 0.00 km UNKNOWN
P2150876 RS41 2019-04-09 11:28:27 48.0881 10.9133 206 ° 13 km/h 852 m -7.5 m/s 402.50 MHz Landsberg am Lech (DE) 0.00 km UNKNOWN
DFM42D45 DFM 2019-04-09 08:42:59 48.1065 10.7804 196 ° 11 km/h 783 m -4.6 m/s MHz Landsberg am Lech (DE) 0.00 km FOUND
P2150860 RS41 2019-04-09 05:32:53 47.9909 10.9275 319 ° 2 km/h 962 m -5.5 m/s 402.50 MHz Landsberg am Lech (DE) 0.00 km UNKNOWN
P2150859 RS41 2019-04-08 17:12:28 47.9368 10.859 99 ° 2 km/h 985 m -12.8 m/s 402.50 MHz Landsberg am Lech (DE) 0.00 km UNKNOWN
P2150863 RS41 2019-04-08 11:21:34 48.0378 10.6246 72 ° 17 km/h 755 m -6.4 m/s 402.50 MHz Kaufbeuren (DE) 0.00 km FOUND
P2150866 RS41 2019-04-08 05:21:19 48.1095 10.6196 73 ° 28 km/h 769 m -8.0 m/s 402.50 MHz Landsberg am Lech (DE) 0.00 km FOUND
P2150868 RS41 2019-04-05 05:28:51 48.0688 11.1203 131 ° 9 km/h 1005 m -10.0 m/s 402.50 MHz Fürstenfeldbruck (DE) 0.00 km UNKNOWN
P2310085 RS41 2019-04-04 17:34:25 48.458 11.3328 102 ° 35 km/h 803 m -7.8 m/s 402.50 MHz Aichach (DE) 0.00 km UNKNOWN
P2310087 RS41 2019-04-04 11:54:59 48.6406 11.3313 84 ° 6 km/h 866 m -3.7 m/s 402.50 MHz Neuburg an der Donau (DE) 0.00 km UNKNOWN
P2310224 RS41 2019-04-04 05:30:15 48.3454 11.4358 266 ° 24 km/h 770 m -5.8 m/s 402.50 MHz Dachau (DE) 0.00 km UNKNOWN
P2310009 RS41 2019-04-03 17:39:13 48.2564 11.7406 348 ° 35 km/h 543 m -9.4 m/s 402.50 MHz Unterschleißheim (DE) 0.00 km FOUND
P2310226 RS41 2019-04-03 11:41:52 48.3506 11.7201 273 ° 13 km/h 768 m -8.5 m/s 402.50 MHz Freising (DE) 0.00 km UNKNOWN
P2130159 RS41 2019-04-03 05:35:57 48.1661 11.4215 201 ° 7 km/h 780 m -5.9 m/s 402.50 MHz Germering (DE) 0.00 km UNKNOWN
P2310223 RS41 2019-04-02 17:57:29 48.1374 11.6623 298 ° 39 km/h 769 m -6.3 m/s 402.50 MHz München (DE) 0.00 km FOUND
DFM96D2A DFM 2019-04-02 15:44:22 48.0433 11.0954 329 ° 15 km/h 1267 m -11.2 m/s MHz Landsberg am Lech (DE) 0.00 km UNKNOWN
P0710795 RS41 2019-04-02 11:48:52 48.146 11.6312 343 ° 7 km/h 630 m -12.4 m/s 402.50 MHz München (DE) 0.00 km UNKNOWN
P0710746 RS41 2019-04-02 05:34:57 47.9011 11.7003 61 ° 24 km/h 1394 m -8.3 m/s 402.50 MHz Geretsried (DE) 0.00 km UNKNOWN
P0330133 RS41 2019-04-01 17:44:17 47.7328 11.753 227 ° 6 km/h 1705 m -7.7 m/s 404.30 MHz Achenkirch (AT) 0.00 km UNKNOWN
DFM430F7 DFM 2019-04-01 16:29:51 47.7644 11.7422 2 ° 9 km/h 1995 m -5.2 m/s MHz Geretsried (DE) 0.00 km UNKNOWN
P0340640 RS41 2019-04-01 11:42:34 47.843 11.518 278 ° 20 km/h 1071 m -6.5 m/s 402.50 MHz Geretsried (DE) 0.00 km UNKNOWN
P0340648 RS41 2019-04-01 05:33:00 47.8169 11.3931 276 ° 15 km/h 1430 m -8.0 m/s 402.50 MHz Geretsried (DE) 0.00 km LOST
P0330776 RS41 2019-03-29 07:14:33 47.6676 10.1508 284 ° 31 km/h 1127 m -8.5 m/s 402.50 MHz Kempten (DE) 0.00 km UNKNOWN
P0340638 RS41 2019-03-28 18:21:37 47.5512 10.5563 287 ° 20 km/h 1579 m -1.8 m/s 402.50 MHz Reutte (AT) 0.00 km UNKNOWN
P0330684 RS41 2019-03-28 12:37:40 47.4779 10.6109 267 ° 20 km/h 2014 m -9.1 m/s 402.50 MHz Reutte (AT) 0.00 km UNKNOWN
P0330143 RS41 2019-03-28 06:41:19 47.4501 10.4329 284 ° 13 km/h 1840 m -8.3 m/s 402.50 MHz Sonthofen (DE) 0.00 km UNKNOWN
P0330144 RS41 2019-03-27 18:32:22 47.2094 10.478 243 ° 11 km/h 2879 m -4.7 m/s 402.50 MHz Zams (AT) 0.00 km UNKNOWN
P0330142 RS41 2019-03-27 12:24:49 47.1322 10.7431 312 ° 15 km/h 3073 m -7.4 m/s 402.50 MHz Arzl im Pitztal (AT) 0.00 km UNKNOWN
P0340644 RS41 2019-03-27 06:19:22 46.8966 10.7617 192 ° 33 km/h 3792 m -8.5 m/s 402.50 MHz Pfunds (AT) 0.00 km UNKNOWN
DFM42D7C DFM 2019-03-26 18:20:03 46.928 10.2164 216 ° 19 km/h 3011 m -3.9 m/s MHz Kappl (AT) 0.00 km UNKNOWN
P0340643 RS41 2019-03-26 12:01:47 47.1067 10.0782 231 ° 48 km/h 2970 m -7.4 m/s 402.50 MHz Schruns (AT) 0.00 km UNKNOWN
P0340645 RS41 2019-03-26 06:26:19 47.0444 10.5098 221 ° 63 km/h 3429 m -6.8 m/s 402.50 MHz Pfunds (AT) 0.00 km UNKNOWN
P0330790 RS41 2019-03-25 18:22:57 47.5183 12.1617 130 ° 50 km/h 2280 m -9.7 m/s 402.50 MHz Söll (AT) 0.00 km UNKNOWN
P0710749 RS41 2019-03-25 12:55:09 47.5376 13.2109 178 ° 33 km/h 1929 m -7.2 m/s 402.50 MHz Werfen (AT) 0.00 km UNKNOWN
P0710773 RS41 2019-03-25 06:37:26 47.4776 12.6765 111 ° 35 km/h 2420 m -7.1 m/s 402.50 MHz Leogang (AT) 0.00 km UNKNOWN
P0330152 RS41 2019-03-22 06:38:27 47.5636 10.3848 59 ° 11 km/h 1276 m -5.4 m/s 402.50 MHz Sonthofen (DE) 0.00 km UNKNOWN
P0330150 RS41 2019-03-21 18:51:31 47.5025 10.222 289 ° 6 km/h 1537 m -8.0 m/s 402.50 MHz Sonthofen (DE) 0.00 km UNKNOWN
P0330156 RS41 2019-03-21 12:33:21 47.5559 10.0621 247 ° 19 km/h 1270 m -7.6 m/s 402.50 MHz Sonthofen (DE) 0.00 km UNKNOWN
P0320367 RS41 2019-03-21 06:50:55 47.391 9.77411 226 ° 4 km/h 1342 m -10.1 m/s 402.50 MHz Dornbirn (AT) 0.00 km UNKNOWN
P0320397 RS41 2019-03-20 18:50:18 47.1107 10.006 263 ° 30 km/h 2656 m -6.9 m/s 402.50 MHz Schruns (AT) 0.00 km UNKNOWN
P0320370 RS41 2019-03-20 12:39:37 47.0417 9.91379 266 ° 13 km/h 2508 m -5.9 m/s 402.50 MHz Tschagguns (AT) 0.00 km UNKNOWN
P0320369 RS41 2019-03-20 06:36:44 46.9187 9.96922 241 ° 22 km/h 2879 m -3.8 m/s 402.50 MHz Sankt Gallenkirch (AT) 0.00 km UNKNOWN
P0710748 RS41 2019-03-19 18:32:22 47.0694 10.6771 203 ° 11 km/h 3135 m -5.3 m/s 402.50 MHz Fliess (AT) 0.00 km UNKNOWN
DFM43012 DFM 2019-03-19 11:32:13 47.5946 10.721 248 ° 7 km/h 1269 m -11.7 m/s MHz Reutte (AT) 0.00 km UNKNOWN
DFM42E28 DFM 2019-03-19 08:18:29 47.7209 10.831 156 ° 7 km/h 1126 m -11.9 m/s MHz Kaufbeuren (DE) 0.00 km UNKNOWN
DFM42D5A DFM 2019-03-19 05:19:50 47.7435 10.8805 164 ° 13 km/h 1280 m -12.0 m/s 402.50 MHz Weilheim in Oberbayern (DE) 0.00 km FOUND
DFM42E54 DFM 2019-03-18 18:30:34 47.7258 11.8599 99 ° 41 km/h 1527 m -4.8 m/s MHz Rosenheim (DE) 0.00 km UNKNOWN
P0330119 RS41 2019-03-18 12:46:43 47.8896 12.3749 83 ° 48 km/h 917 m -8.2 m/s 402.50 MHz Traunreut (DE) 0.00 km UNKNOWN
P0710778 RS41 2019-03-18 06:32:39 48.1633 12.4794 79 ° 26 km/h 604 m -5.8 m/s 402.50 MHz Waldkraiburg (DE) 0.00 km UNKNOWN
P0650337 RS41 2019-03-15 06:52:17 46.3439 12.5667 135 ° 91 km/h 2992 m -8.5 m/s 402.50 MHz Maniago (IT) 0.00 km UNKNOWN
P0650403 RS41 2019-03-14 18:13:25 46.9378 12.6457 134 ° 119 km/h 4777 m -8.7 m/s 402.50 MHz Matrei in Osttirol (AT) 0.00 km UNKNOWN
P0710745 RS41 2019-03-14 12:28:11 46.8927 12.6578 122 ° 56 km/h 4734 m -4.0 m/s 402.50 MHz Lienz (AT) 0.00 km UNKNOWN
P0320337 RS41 2019-03-14 05:59:17 46.8694 11.716 144 ° 63 km/h 4143 m -6.6 m/s 402.50 MHz Bressanone (IT) 0.00 km UNKNOWN
P0330120 RS41 2019-03-13 18:38:29 47.7386 12.6902 90 ° 30 km/h 1568 m -9.4 m/s 402.50 MHz Grossgmain (AT) 0.00 km UNKNOWN
P0330118 RS41 2019-03-13 12:37:28 48.1595 12.8257 84 ° 50 km/h 525 m -7.2 m/s 402.50 MHz Hochburg-Ach (AT) 0.00 km UNKNOWN
P0330178 RS41 2019-03-13 06:41:06 48.1668 13.1618 102 ° 30 km/h 528 m -3.0 m/s 402.50 MHz Mauerkirchen (AT) 0.00 km UNKNOWN
P0650342 RS41 2019-03-12 18:22:02 47.3477 12.276 116 ° 44 km/h 2844 m -5.1 m/s 402.50 MHz Westendorf (AT) 0.00 km UNKNOWN
P0330177 RS41 2019-03-12 12:21:16 46.9031 11.8975 163 ° 69 km/h 4227 m -8.6 m/s 402.50 MHz Brunico (IT) 0.00 km UNKNOWN
P0330176 RS41 2019-03-12 06:23:32 46.5702 11.8705 172 ° 174 km/h 5599 m -9.3 m/s 402.50 MHz Bressanone (IT) 0.00 km UNKNOWN
P0330182 RS41 2019-03-11 18:18:38 47.1161 12.0604 144 ° 70 km/h 3253 m -11.0 m/s 402.50 MHz Mayrhofen (AT) 0.00 km UNKNOWN
P0330184 RS41 2019-03-11 12:38:05 47.6402 12.9883 90 ° 52 km/h 1911 m -7.4 m/s 402.50 MHz Hallein (AT) 0.00 km UNKNOWN
P0320328 RS41 2019-03-11 06:35:45 47.6693 13.3892 84 ° 37 km/h 1717 m -9.4 m/s 402.50 MHz Sankt Wolfgang im Salzkammergut (AT) 0.00 km UNKNOWN
P0330181 RS41 2019-03-08 06:20:42 47.9967 12.2105 85 ° 54 km/h 1002 m -8.7 m/s 402.50 MHz Rosenheim (DE) 0.00 km UNKNOWN
P0330183 RS41 2019-03-07 18:02:39 48.1274 12.127 79 ° 50 km/h 932 m -9.3 m/s 402.50 MHz Waldkraiburg (DE) 0.00 km UNKNOWN
P0330791 RS41 2019-03-07 12:22:07 48.6369 12.5738 66 ° 52 km/h 584 m -9.1 m/s 402.50 MHz Straubing (DE) 0.00 km FOUND
P0340647 RS41 2019-03-07 06:52:51 48.4666 12.906 342 ° 28 km/h 598 m -4.0 m/s 402.50 MHz Braunau am Inn (AT) 0.00 km UNKNOWN
P0330682 RS41 2019-03-06 18:19:39 48.0402 12.3115 11 ° 41 km/h 888 m -8.1 m/s 402.50 MHz Waldkraiburg (DE) 0.00 km UNKNOWN
N3210305 RS41 2019-03-06 12:35:55 47.8723 12.3747 346 ° 17 km/h 985 m -4.4 m/s 402.50 MHz Rosenheim (DE) 0.00 km UNKNOWN
N3330815 RS41 2019-03-06 06:28:49 47.4327 12.4885 70 ° 46 km/h 2767 m -5.0 m/s 402.50 MHz Fieberbrunn (AT) 0.00 km UNKNOWN
N3330449 RS41 2019-03-05 18:29:44 47.145 13.0727 115 ° 91 km/h 4227 m -4.9 m/s 402.50 MHz Bad Hofgastein (AT) 0.00 km UNKNOWN
N3330450 RS41 2019-03-05 12:22:27 47.7126 12.8669 58 ° 31 km/h 1216 m -2.8 m/s 402.50 MHz Grossgmain (AT) 0.00 km UNKNOWN
N3330810 RS41 2019-03-05 06:23:10 47.7841 12.972 71 ° 11 km/h 1114 m -6.4 m/s 402.50 MHz Viehausen (AT) 0.00 km FOUND
N3330807 RS41 2019-03-04 19:23:48 48.2903 13.1144 6 ° 6 km/h 389 m -2.7 m/s 402.50 MHz Sankt Peter (AT) 0.00 km UNKNOWN
N3210035 RS41 2019-03-04 12:35:08 48.453 12.9083 124 ° 67 km/h 642 m -6.9 m/s 402.50 MHz Braunau am Inn (AT) 0.00 km UNKNOWN
N3210036 RS41 2019-03-04 06:38:26 47.9995 12.8418 23 ° 26 km/h 710 m -5.0 m/s 402.50 MHz Sankt Georgen bei Salzburg (AT) 0.00 km UNKNOWN
N3410108 RS41 2019-03-01 06:31:51 47.3445 12.1691 88 ° 41 km/h 2861 m -7.5 m/s 402.50 MHz Westendorf (AT) 0.00 km UNKNOWN
N3330805 RS41 2019-02-28 18:55:40 47.5051 12.3396 107 ° 41 km/h 2011 m -6.8 m/s 402.50 MHz Ellmau (AT) 0.00 km UNKNOWN
N3330812 RS41 2019-02-28 12:38:41 47.5942 11.9904 104 ° 56 km/h 1815 m -4.3 m/s 402.50 MHz Kirchbichl (AT) 0.00 km UNKNOWN
P0650305 RS41 2019-02-28 06:51:40 47.2393 11.5998 100 ° 24 km/h 2309 m -5.2 m/s 402.50 MHz Wattens (AT) 0.00 km UNKNOWN
P0650346 RS41 2019-02-27 18:55:26 47.1119 10.9946 149 ° 17 km/h 3107 m -2.8 m/s 402.50 MHz Umhausen (AT) 0.00 km UNKNOWN
N3140950 RS41 2019-02-27 12:24:07 47.3306 10.5688 293 ° 15 km/h 2503 m -11.7 m/s 402.50 MHz Imst (AT) 0.00 km UNKNOWN
P0720977 RS41 2019-02-27 06:32:25 47.0812 10.2762 219 ° 33 km/h 3076 m -5.0 m/s 402.50 MHz Sankt Anton am Arlberg (AT) 0.00 km UNKNOWN
P0720973 RS41 2019-02-26 18:14:45 47.0948 10.4273 199 ° 48 km/h 3225 m -6.2 m/s 402.50 MHz Kappl (AT) 0.00 km UNKNOWN
P0650259 RS41 2019-02-26 12:47:05 46.9618 10.0598 214 ° 37 km/h 3157 m -4.1 m/s 402.50 MHz Sankt Gallenkirch (AT) 0.00 km UNKNOWN
P0650228 RS41 2019-02-26 06:23:00 47.1255 10.1499 237 ° 17 km/h 2659 m -6.4 m/s 402.50 MHz Sankt Anton am Arlberg (AT) 0.00 km UNKNOWN
P0720975 RS41 2019-02-25 18:49:07 47.0122 9.72391 281 ° 30 km/h 2620 m -8.0 m/s 402.50 MHz Valüna (LI) 0.00 km UNKNOWN
P0720976 RS41 2019-02-25 12:43:10 47.1725 9.79249 267 ° 11 km/h 2083 m -7.3 m/s 402.50 MHz Nüziders (AT) 0.00 km LOST
P0720961 RS41 2019-02-25 06:36:18 47.103 9.94619 266 ° 26 km/h 2561 m -10.3 m/s 402.50 MHz Bartholomäberg (AT) 0.00 km UNKNOWN
P0720979 RS41 2019-02-22 06:08:17 46.6384 10.6507 177 ° 133 km/h 4638 m -11.3 m/s 402.50 MHz Pfunds (AT) 0.00 km UNKNOWN
N3140437 RS41 2019-02-21 18:34:58 47.3169 11.6275 242 ° 19 km/h 875 m -3.0 m/s 402.50 MHz Terfens (AT) 0.00 km UNKNOWN
P0720963 RS41 2019-02-21 12:40:07 47.4315 11.5214 94 ° 17 km/h 2494 m -7.3 m/s 402.50 MHz Terfens (AT) 0.00 km UNKNOWN
N3410130 RS41 2019-02-21 06:27:11 47.347 11.0054 326 ° 2 km/h 1747 m -7.6 m/s 402.50 MHz Mieming (AT) 0.00 km UNKNOWN
N3410105 RS41 2019-02-20 18:28:25 47.2269 11.0301 89 ° 30 km/h 2749 m -3.4 m/s 402.50 MHz Rietz (AT) 0.00 km UNKNOWN
P0720962 RS41 2019-02-20 12:28:42 47.3514 11.1571 28 ° 4 km/h 1448 m -5.6 m/s 402.50 MHz Leutasch (AT) 0.00 km FOUND
P0720935 RS41 2019-02-20 06:35:10 47.3297 11.4915 51 ° 4 km/h 1901 m -9.2 m/s 402.50 MHz Thaur (AT) 0.00 km UNKNOWN
P0720936 RS41 2019-02-19 18:14:56 47.8572 12.0178 98 ° 33 km/h 1422 m -9.2 m/s 402.50 MHz Rosenheim (DE) 0.00 km UNKNOWN
P0720965 RS41 2019-02-19 12:33:04 48.0013 12.0105 99 ° 35 km/h 963 m -9.2 m/s 402.50 MHz Rosenheim (DE) 0.00 km FOUND
P0720954 RS41 2019-02-19 06:49:47 48.0106 11.8569 99 ° 28 km/h 1106 m -7.5 m/s 402.50 MHz Vaterstetten (DE) 0.00 km FOUND
P0330137 RS41 2019-02-18 18:18:46 47.9822 11.4189 320 ° 7 km/h 1181 m -10.7 m/s 402.50 MHz Starnberg (DE) 0.00 km FOUND
P0720631 RS41 2019-02-18 12:14:05 48.0566 11.2985 301 ° 7 km/h 1082 m -14.2 m/s 402.50 MHz Starnberg (DE) 0.00 km FOUND
N3140424 RS41 2019-02-18 06:42:40 48.1518 11.1631 328 ° 4 km/h 831 m -3.4 m/s 402.50 MHz Fürstenfeldbruck (DE) 0.00 km UNKNOWN
P0720983 RS41 2019-02-15 06:28:43 47.3935 10.559 269 ° 17 km/h 2118 m -4.6 m/s 402.50 MHz Reutte (AT) 0.00 km UNKNOWN
P0720635 RS41 2019-02-14 18:13:59 47.136 10.8489 212 ° 26 km/h 2947 m -8.8 m/s 402.50 MHz Umhausen (AT) 0.00 km UNKNOWN
P0720633 RS41 2019-02-14 12:35:03 46.85 11.136 184 ° 43 km/h 4149 m -8.3 m/s 402.50 MHz Sölden (AT) 0.00 km UNKNOWN
N3210032 RS41 2019-02-14 06:30:49 46.8123 11.1992 190 ° 35 km/h 4050 m -5.8 m/s 402.50 MHz Merano (IT) 0.00 km UNKNOWN
P0720927 RS41 2019-02-13 18:20:33 47.0123 11.2627 348 ° 9 km/h 3656 m -10.7 m/s 402.50 MHz Neustift im Stubaital (AT) 0.00 km UNKNOWN
N3210031 RS41 2019-02-13 12:26:03 46.7902 11.0471 217 ° 43 km/h 3790 m -3.3 m/s 402.50 MHz Merano (IT) 0.00 km UNKNOWN
N3210449 RS41 2019-02-13 06:50:16 46.4488 11.2825 203 ° 63 km/h 4380 m -9.5 m/s 402.50 MHz Laives (IT) 0.00 km UNKNOWN
P0720974 RS41 2019-02-12 18:24:26 46.5727 11.1053 183 ° 89 km/h 4736 m -6.9 m/s 402.50 MHz Lana (IT) 0.00 km UNKNOWN
P0720982 RS41 2019-02-12 12:40:26 46.1381 11.2696 178 ° 72 km/h 2477 m -7.6 m/s 402.50 MHz Pergine Valsugana (IT) 0.00 km UNKNOWN
P0710600 RS41 2019-02-12 06:37:53 46.1339 11.067 189 ° 106 km/h 3267 m -5.2 m/s 402.50 MHz Lavis (IT) 0.00 km UNKNOWN
P0720930 RS41 2019-02-11 18:31:24 46.9273 11.5489 170 ° 81 km/h 3713 m -9.0 m/s 402.50 MHz Steinach am Brenner (AT) 0.00 km UNKNOWN
P0720980 RS41 2019-02-11 12:20:09 47.3877 11.5202 354 ° 11 km/h 2474 m -2.1 m/s 402.50 MHz Thaur (AT) 0.00 km UNKNOWN
N3130303 RS41 2019-02-11 06:23:38 47.5024 12.0766 112 ° 70 km/h 2348 m -7.5 m/s 402.50 MHz Kirchbichl (AT) 0.00 km UNKNOWN
N3210446 RS41 2019-02-08 06:33:49 47.7445 11.8805 77 ° 31 km/h 1491 m -6.0 m/s 402.50 MHz Rosenheim (DE) 0.00 km UNKNOWN
N3210448 RS41 2019-02-07 18:29:08 48.4284 12.1321 92 ° 50 km/h 992 m -6.2 m/s 402.50 MHz Landshut (DE) 0.00 km UNKNOWN
P0720984 RS41 2019-02-07 12:16:27 48.2305 11.9332 54 ° 22 km/h 685 m -10.0 m/s 402.50 MHz Erding (DE) 0.00 km UNKNOWN
P0720945 RS41 2019-02-07 06:49:47 47.9923 12.1473 56 ° 24 km/h 905 m -4.2 m/s 402.50 MHz Rosenheim (DE) 0.00 km FOUND
P0720981 RS41 2019-02-06 18:15:51 47.6579 11.4619 294 ° 9 km/h 1469 m -9.8 m/s 402.50 MHz Geretsried (DE) 0.00 km UNKNOWN
DFM7B563 DFM 2019-02-06 16:12:15 47.5297 11.2818 24 ° 4 km/h 1638 m -11.7 m/s MHz Garmisch-Partenkirchen (DE) 0.00 km UNKNOWN
P0710702 RS41 2019-02-06 12:54:48 47.5159 11.4992 322 ° 15 km/h 1827 m -4.4 m/s 402.50 MHz Achenkirch (AT) 0.00 km UNKNOWN
P0720944 RS41 2019-02-06 06:51:37 47.2663 11.3702 54 ° 6 km/h 799 m -3.5 m/s 402.50 MHz Innsbruck (AT) 0.00 km UNKNOWN
P0720947 RS41 2019-02-05 19:33:56 47.1339 11.3228 177 ° 28 km/h 2790 m -7.2 m/s 404.30 MHz Neustift im Stubaital (AT) 0.00 km UNKNOWN
N3210311 RS41 2019-02-05 18:02:49 47.3628 11.1786 58 ° 15 km/h 1248 m -5.1 m/s 402.50 MHz Leutasch (AT) 0.00 km FOUND
N3140952 RS41 2019-02-05 12:25:20 47.3042 11.1938 12 ° 4 km/h 1168 m -11.7 m/s 402.50 MHz Seefeld in Tirol (AT) 0.00 km FOUND
DFM42E46 DFM 2019-02-05 09:37:03 47.3562 11.1287 5 ° 4 km/h 1225 m -3.4 m/s MHz Leutasch (AT) 0.00 km FOUND
P0720978 RS41 2019-02-05 06:34:03 47.5331 11.4083 95 ° 15 km/h 1838 m -8.1 m/s 402.50 MHz Achenkirch (AT) 0.00 km UNKNOWN
P0720926 RS41 2019-02-04 18:38:00 47.4422 11.2143 107 ° 9 km/h 1977 m -9.9 m/s 402.50 MHz Leutasch (AT) 0.00 km UNKNOWN
DFM42DF2 DFM 2019-02-04 15:48:03 47.2656 10.9783 118 ° 9 km/h 3302 m -3.3 m/s MHz Silz (AT) 0.00 km UNKNOWN
DFM7B53B DFM 2019-02-04 12:50:30 47.2901 10.6702 14 ° 7 km/h 2527 m -12.8 m/s MHz Tarrenz (AT) 0.00 km UNKNOWN
N3210304 RS41 2019-02-04 12:43:13 47.445 11.0668 347 ° 7 km/h 2108 m -8.5 m/s 402.50 MHz Garmisch-Partenkirchen (DE) 0.00 km UNKNOWN
P0720634 RS41 2019-02-04 06:33:07 47.7153 11.2984 150 ° 2 km/h 1237 m -9.1 m/s 402.50 MHz Weilheim in Oberbayern (DE) 0.00 km UNKNOWN
P0720946 RS41 2019-02-01 06:41:55 48.116 12.536 295 ° 24 km/h 604 m -4.4 m/s 402.50 MHz Waldkraiburg (DE) 0.00 km UNKNOWN
N3210244 RS41 2019-01-31 18:22:32 47.6946 12.1359 13 ° 48 km/h 1522 m -9.6 m/s 402.50 MHz Niederndorf (AT) 0.00 km UNKNOWN
N3210441 RS41 2019-01-31 12:40:04 47.8305 12.0277 74 ° 7 km/h 1431 m -7.4 m/s 402.50 MHz Rosenheim (DE) 0.00 km FOUND
N3210444 RS41 2019-01-31 06:36:28 48.1189 11.4282 301 ° 26 km/h 760 m -5.2 m/s 402.50 MHz Germering (DE) 0.00 km UNKNOWN
P0720632 RS41 2019-01-30 18:27:10 48.3262 11.2788 77 ° 46 km/h 890 m -10.0 m/s 402.50 MHz Dachau (DE) 0.00 km UNKNOWN
P0710753 RS41 2019-01-30 12:27:20 48.3012 11.2751 64 ° 44 km/h 866 m -9.4 m/s 402.50 MHz Olching (DE) 0.00 km UNKNOWN
P0710752 RS41 2019-01-30 08:16:08 48.8268 11.763 51 ° 15 km/h 1336 m -3.0 m/s 402.50 MHz Ingolstadt (DE) 0.00 km UNKNOWN
P0710751 RS41 2019-01-29 18:23:01 47.6138 11.6051 359 ° 30 km/h 1779 m -5.0 m/s 402.50 MHz Achenkirch (AT) 0.00 km UNKNOWN
N3330583 RS41 2019-01-29 12:31:10 47.6252 11.5142 68 ° 7 km/h 1860 m -7.6 m/s 402.50 MHz Achenkirch (AT) 0.00 km UNKNOWN
N3330587 RS41 2019-01-29 06:35:09 47.5069 11.5548 79 ° 11 km/h 1833 m -3.1 m/s 402.50 MHz Achenkirch (AT) 0.00 km UNKNOWN
N3330526 RS41 2019-01-28 18:24:59 47.6258 11.628 92 ° 46 km/h 1587 m -4.8 m/s 402.50 MHz Achenkirch (AT) 0.00 km UNKNOWN
N3330806 RS41 2019-01-28 12:44:41 47.8296 11.698 80 ° 63 km/h 1432 m -8.5 m/s 402.50 MHz Geretsried (DE) 0.00 km UNKNOWN
N3410291 RS41 2019-01-28 06:13:36 47.8855 11.5526 89 ° 57 km/h 1225 m -8.5 m/s 402.50 MHz Geretsried (DE) 0.00 km UNKNOWN
N3330588 RS41 2019-01-25 06:26:01 47.2058 10.8163 75 ° 15 km/h 2652 m -6.9 m/s 402.50 MHz Arzl im Pitztal (AT) 0.00 km UNKNOWN
N3330581 RS41 2019-01-24 18:24:54 47.4773 10.893 84 ° 15 km/h 2156 m -3.7 m/s 402.50 MHz Ehrwald (AT) 0.00 km UNKNOWN
N3330811 RS41 2019-01-24 12:39:41 47.5946 10.8436 77 ° 11 km/h 1303 m -5.8 m/s 402.50 MHz Reutte (AT) 0.00 km UNKNOWN
N3330448 RS41 2019-01-24 06:20:14 47.616 10.7971 76 ° 7 km/h 3741 m -6.3 m/s 404.30 MHz Reutte (AT) 0.00 km UNKNOWN
N3410103 RS41 2019-01-23 18:50:17 47.7386 10.7287 108 ° 6 km/h 1166 m -6.4 m/s 402.50 MHz Kaufbeuren (DE) 0.00 km UNKNOWN
N3130285 RS41 2019-01-23 06:38:54 48.0085 11.0579 288 ° 17 km/h 1027 m -4.3 m/s 402.50 MHz Landsberg am Lech (DE) 0.00 km UNKNOWN
N3330813 RS41 2019-01-22 18:32:34 47.929 11.2321 279 ° 22 km/h 1133 m -3.5 m/s 402.50 MHz Starnberg (DE) 0.00 km UNKNOWN
N3410106 RS41 2019-01-22 12:47:48 47.7889 11.0813 318 ° 9 km/h 1221 m -4.0 m/s 402.50 MHz Weilheim in Oberbayern (DE) 0.00 km UNKNOWN
N3130293 RS41 2019-01-22 06:31:15 47.5912 11.105 239 ° 4 km/h 1475 m -3.8 m/s 402.50 MHz Garmisch-Partenkirchen (DE) 0.00 km UNKNOWN
N3130287 RS41 2019-01-21 18:31:59 47.6094 11.2624 118 ° 9 km/h 1595 m -4.6 m/s 402.50 MHz Garmisch-Partenkirchen (DE) 0.00 km UNKNOWN
DFM42D43 DFM 2019-01-21 15:30:39 47.6995 11.1491 47 ° 13 km/h 2725 m -2.8 m/s MHz Weilheim in Oberbayern (DE) 0.00 km UNKNOWN
DF9050947 DFM 2019-01-21 14:57:30 47.7352 19.5112 94 ° 20 km/h 11150 m -6.9 m/s 404.310 MHz Kartal (HU) 0.00 km UNKNOWN
N3130238 RS41 2019-01-21 06:28:04 47.6671 11.191 5 ° 7 km/h 1283 m -4.3 m/s 402.50 MHz Weilheim in Oberbayern (DE) 0.00 km UNKNOWN
N3330584 RS41 2019-01-18 06:39:05 47.5902 12.0026 120 ° 26 km/h 2013 m -6.1 m/s 402.50 MHz Kirchbichl (AT) 0.00 km UNKNOWN
N3410131 RS41 2019-01-17 18:20:06 48.313 12.4218 75 ° 63 km/h 1018 m -8.9 m/s 402.50 MHz Waldkraiburg (DE) 0.00 km UNKNOWN
N3210466 RS41 2019-01-17 12:32:43 48.3627 12.5768 68 ° 39 km/h 728 m -5.0 m/s 402.50 MHz Waldkraiburg (DE) 0.00 km FOUND
N3140938 RS41 2019-01-17 06:45:24 48.2221 12.6345 58 ° 33 km/h 557 m -9.9 m/s 402.50 MHz Waldkraiburg (DE) 0.00 km UNKNOWN
N3330580 RS41 2019-01-16 18:35:00 47.6657 12.0063 218 ° 2 km/h 1396 m -3.8 m/s 402.50 MHz Kufstein (AT) 0.00 km UNKNOWN
N3330579 RS41 2019-01-16 12:48:44 47.42 11.9922 59 ° 24 km/h 1905 m -3.9 m/s 404.30 MHz Alpbach (AT) 0.00 km UNKNOWN
N3410267 RS41 2019-01-16 06:27:21 47.184 11.6816 120 ° 48 km/h 3043 m -6.3 m/s 402.50 MHz Wattens (AT) 0.00 km UNKNOWN
N3330585 RS41 2019-01-15 18:18:36 46.9934 11.5138 165 ° 78 km/h 3816 m -4.4 m/s 402.50 MHz Steinach am Brenner (AT) 0.00 km UNKNOWN
N3410271 RS41 2019-01-15 12:17:42 46.9611 11.3824 159 ° 87 km/h 3756 m -16.6 m/s 402.50 MHz Steinach am Brenner (AT) 0.00 km UNKNOWN
N3330586 RS41 2019-01-15 06:13:34 46.6311 11.3614 167 ° 130 km/h 5066 m -4.8 m/s 402.50 MHz Bolzano (IT) 0.00 km UNKNOWN
N3210030 RS41 2019-01-14 18:11:05 46.6938 11.7203 154 ° 126 km/h 5026 m -11.3 m/s 402.50 MHz Bressanone (IT) 0.00 km UNKNOWN
N3140937 RS41 2019-01-14 12:14:41 46.598 11.9376 153 ° 83 km/h 5414 m -5.4 m/s 402.50 MHz Brunico (IT) 0.00 km UNKNOWN
N3210463 RS41 2019-01-14 06:26:07 46.6848 11.8837 153 ° 102 km/h 5136 m -5.5 m/s 402.50 MHz Brunico (IT) 0.00 km UNKNOWN
N3410276 RS41 2019-01-11 06:27:27 46.7272 9.67555 206 ° 46 km/h 3252 m -6.1 m/s 402.50 MHz Davos (CH) 0.00 km UNKNOWN
N3210029 RS41 2019-01-10 18:17:31 47.1363 10.138 208 ° 15 km/h 2716 m -4.3 m/s 402.50 MHz Sankt Anton am Arlberg (AT) 0.00 km UNKNOWN
N3210464 RS41 2019-01-10 12:11:38 47.2197 10.1954 145 ° 19 km/h 2546 m -7.0 m/s 402.50 MHz Mittelberg (AT) 0.00 km UNKNOWN
N3330582 RS41 2019-01-10 06:46:13 47.2567 10.3112 231 ° 111 km/h 7835 m -8.1 m/s 404.30 MHz Mittelberg (AT) 0.00 km UNKNOWN
N3330577 RS41 2019-01-10 05:34:55 47.522 10.5942 151 ° 22 km/h 1955 m -5.6 m/s 402.50 MHz Reutte (AT) 0.00 km UNKNOWN
N3210447 RS41 2019-01-09 18:02:49 47.3184 10.8244 143 ° 20 km/h 2141 m -7.7 m/s 402.50 MHz Tarrenz (AT) 0.00 km UNKNOWN
N3210306 RS41 2019-01-09 12:06:13 47.1688 11.0601 92 ° 15 km/h 3091 m -7.3 m/s 402.50 MHz Umhausen (AT) 0.00 km UNKNOWN
N3210023 RS41 2019-01-09 06:05:11 47.1001 11.5769 150 ° 48 km/h 3167 m -10.8 m/s 402.50 MHz Steinach am Brenner (AT) 0.00 km UNKNOWN
N3410132 RS41 2019-01-08 18:16:13 46.6938 11.9716 143 ° 85 km/h 5235 m -10.4 m/s 402.50 MHz Brunico (IT) 0.00 km UNKNOWN
P0330138 RS41 2019-01-07 18:41:12 46.7695 10.6549 178 ° 70 km/h 4062 m -7.6 m/s 402.50 MHz Pfunds (AT) 0.00 km UNKNOWN
P0340036 RS41 2019-01-07 12:20:58 46.9288 10.864 181 ° 44 km/h 3476 m -5.1 m/s 402.50 MHz Sölden (AT) 0.00 km UNKNOWN
P0330121 RS41 2019-01-07 06:06:33 46.9181 10.7197 197 ° 69 km/h 3609 m -11.0 m/s 402.50 MHz Pfunds (AT) 0.00 km UNKNOWN
P0330136 RS41 2018-12-21 06:08:49 46.9511 12.4704 115 ° 85 km/h 4634 m -8.7 m/s 402.50 MHz Virgen (AT) 0.00 km UNKNOWN
P0330135 RS41 2018-12-20 18:15:43 47.746 12.5835 76 ° 19 km/h 1367 m -9.9 m/s 402.50 MHz Kössen (AT) 0.00 km UNKNOWN
P0330122 RS41 2018-12-20 12:24:24 48.0032 12.72 94 ° 19 km/h 661 m -9.9 m/s 402.50 MHz Ostermiething (AT) 0.00 km UNKNOWN
P0330123 RS41 2018-12-20 06:19:39 48.0239 12.2135 85 ° 50 km/h 851 m -6.2 m/s 402.50 MHz Rosenheim (DE) 0.00 km UNKNOWN
P0330125 RS41 2018-12-19 18:28:09 48.6096 12.1803 36 ° 17 km/h 1519 m -9.1 m/s 402.50 MHz Landshut (DE) 0.00 km UNKNOWN
P0330141 RS41 2018-12-19 12:35:09 48.4149 12.1347 128 ° 22 km/h 931 m -4.8 m/s 402.50 MHz Landshut (DE) 0.00 km FOUND
DFM42E49 DFM 2018-12-19 08:44:47 48.1252 11.5936 88 ° 26 km/h 2062 m -12.5 m/s MHz München (DE) 0.00 km UNKNOWN
P0340670 RS41 2018-12-19 05:53:33 47.9476 11.7052 93 ° 35 km/h 1259 m -7.5 m/s 402.50 MHz Unterhaching (DE) 0.00 km UNKNOWN
P0340669 RS41 2018-12-18 18:36:13 47.0892 11.9306 150 ° 33 km/h 3529 m -8.3 m/s 402.50 MHz Mayrhofen (AT) 0.00 km UNKNOWN
P0330140 RS41 2018-12-18 12:34:28 47.0952 11.9387 136 ° 28 km/h 3326 m -11.2 m/s 402.50 MHz Mayrhofen (AT) 0.00 km UNKNOWN
P0330127 RS41 2018-12-18 06:28:01 47.0825 12.0386 133 ° 22 km/h 3492 m -9.2 m/s 402.50 MHz Mayrhofen (AT) 0.00 km UNKNOWN
P0330145 RS41 2018-12-17 18:16:20 47.7346 11.8278 89 ° 35 km/h 1524 m -7.3 m/s 402.50 MHz Achenkirch (AT) 0.00 km UNKNOWN
N3130306 RS41 2018-12-17 12:54:42 47.9467 12.1776 75 ° 26 km/h 928 m -4.1 m/s 402.50 MHz Rosenheim (DE) 0.00 km UNKNOWN
DFM42E7E DFM 2018-12-17 09:38:17 47.8283 11.691 83 ° 22 km/h 1798 m -3.3 m/s MHz Geretsried (DE) 0.00 km UNKNOWN
N3130276 RS41 2018-12-17 06:20:36 47.8934 11.8562 320 ° 6 km/h 1441 m -8.6 m/s 402.50 MHz Rosenheim (DE) 0.00 km FOUND
N3130262 RS41 2018-12-14 06:29:23 47.578 11.4606 242 ° 4 km/h 1740 m -5.1 m/s 402.50 MHz Achenkirch (AT) 0.00 km UNKNOWN
N3130267 RS41 2018-12-13 18:48:42 47.6754 11.6157 308 ° 4 km/h 1496 m -4.7 m/s 402.50 MHz Achenkirch (AT) 0.00 km UNKNOWN
N3130410 RS41 2018-12-13 12:30:52 47.7523 11.4396 350 ° 7 km/h 1590 m -4.7 m/s 402.50 MHz Geretsried (DE) 0.00 km UNKNOWN
DFM42F37 DFM 2018-12-13 09:44:23 47.6086 11.5218 351 ° 20 km/h 2106 m -2.8 m/s MHz Achenkirch (AT) 0.00 km UNKNOWN
N3130413 RS41 2018-12-13 06:24:07 47.5377 11.3818 269 ° 6 km/h 1729 m -4.8 m/s 402.50 MHz Garmisch-Partenkirchen (DE) 0.00 km UNKNOWN
N3130414 RS41 2018-12-12 18:32:43 47.4182 11.4999 307 ° 11 km/h 2266 m -10.5 m/s 402.50 MHz Thaur (AT) 0.00 km UNKNOWN
DFM42E68 DFM 2018-12-12 16:00:02 47.2132 11.6923 163 ° 11 km/h 3769 m -3.3 m/s MHz Wattens (AT) 0.00 km UNKNOWN
N3130261 RS41 2018-12-12 12:32:38 47.2437 11.5355 195 ° 2 km/h 1526 m -6.8 m/s 402.50 MHz Absam (AT) 0.00 km UNKNOWN
N3130403 RS41 2018-12-12 06:42:06 46.7905 11.7588 171 ° 54 km/h 4614 m -4.7 m/s 402.50 MHz Bressanone (IT) 0.00 km UNKNOWN
N3130305 RS41 2018-12-11 18:25:03 46.8666 11.5867 162 ° 50 km/h 4278 m -3.2 m/s 402.50 MHz Bressanone (IT) 0.00 km UNKNOWN
N3130265 RS41 2018-12-11 12:19:17 46.8582 11.4591 166 ° 57 km/h 4222 m -13.2 m/s 402.50 MHz Bressanone (IT) 0.00 km UNKNOWN
N3130269 RS41 2018-12-11 06:24:51 46.8736 11.4604 163 ° 83 km/h 4430 m -3.9 m/s 402.50 MHz Bressanone (IT) 0.00 km UNKNOWN
N3130411 RS41 2018-12-10 18:36:52 46.7707 11.9441 134 ° 98 km/h 4732 m -6.0 m/s 402.50 MHz Brunico (IT) 0.00 km UNKNOWN
N3130334 RS41 2018-12-10 12:25:13 47.1142 11.7007 137 ° 50 km/h 3112 m -6.1 m/s 402.50 MHz Mayrhofen (AT) 0.00 km UNKNOWN
N3130333 RS41 2018-12-10 06:15:21 47.3099 11.719 83 ° 24 km/h 1778 m -14.0 m/s 402.50 MHz Vomp (AT) 0.00 km UNKNOWN
N3130332 RS41 2018-12-07 06:33:38 46.9017 11.8454 146 ° 52 km/h 4063 m -4.7 m/s 402.50 MHz Brunico (IT) 0.00 km UNKNOWN
N3130273 RS41 2018-12-06 18:22:26 46.7367 11.2673 151 ° 28 km/h 4579 m -8.1 m/s 402.50 MHz Merano (IT) 0.00 km UNKNOWN
N3130272 RS41 2018-12-06 12:31:23 47.0773 11.3306 121 ° 33 km/h 3090 m -7.2 m/s 402.50 MHz Neustift im Stubaital (AT) 0.00 km UNKNOWN
N3130271 RS41 2018-12-06 06:17:41 47.5629 11.7505 107 ° 39 km/h 1937 m -10.1 m/s 402.50 MHz Achenkirch (AT) 0.00 km UNKNOWN
N3130266 RS41 2018-12-05 18:19:07 47.1109 12.4111 126 ° 63 km/h 3649 m -8.2 m/s 402.50 MHz Virgen (AT) 0.00 km UNKNOWN
N3130404 RS41 2018-12-05 13:29:38 46.9559 12.5785 145 ° 91 km/h 4747 m -9.7 m/s 404.30 MHz Matrei in Osttirol (AT) 0.00 km UNKNOWN
N3130274 RS41 2018-12-05 12:21:02 46.941 12.6246 145 ° 87 km/h 4509 m -7.6 m/s 402.50 MHz Matrei in Osttirol (AT) 0.00 km UNKNOWN
N3130268 RS41 2018-12-05 06:18:37 46.9023 12.6043 145 ° 106 km/h 4478 m -9.3 m/s 402.50 MHz Matrei in Osttirol (AT) 0.00 km UNKNOWN
N3130264 RS41 2018-12-04 18:00:02 46.8807 12.1842 148 ° 89 km/h 4421 m -11.9 m/s 402.50 MHz Brunico (IT) 0.00 km UNKNOWN
N3130263 RS41 2018-12-04 12:28:33 46.8909 12.6877 99 ° 46 km/h 4887 m -4.1 m/s 402.50 MHz Lienz (AT) 0.00 km UNKNOWN
N3130275 RS41 2018-12-04 06:43:37 47.3255 12.7621 116 ° 80 km/h 3224 m -6.5 m/s 402.50 MHz Zell am See (AT) 0.00 km UNKNOWN
N3130254 RS41 2018-12-03 18:30:08 47.6741 12.7241 76 ° 33 km/h 1998 m -6.9 m/s 402.50 MHz Grossgmain (AT) 0.00 km UNKNOWN
N3130260 RS41 2018-12-03 12:13:44 47.4027 12.7099 106 ° 63 km/h 3044 m -5.4 m/s 402.50 MHz Leogang (AT) 0.00 km UNKNOWN
N3120316 RS41 2018-12-03 06:17:28 47.4942 12.5052 112 ° 57 km/h 2594 m -8.7 m/s 402.50 MHz Fieberbrunn (AT) 0.00 km UNKNOWN
N3120317 RS41 2018-11-30 06:31:17 48.0015 11.8621 100 ° 13 km/h 981 m -8.3 m/s 402.50 MHz Vaterstetten (DE) 0.00 km UNKNOWN
N3120318 RS41 2018-11-29 18:32:54 47.5186 11.9477 113 ° 13 km/h 2095 m -9.6 m/s 402.50 MHz Breitenbach am Inn (AT) 0.00 km UNKNOWN
N3130258 RS41 2018-11-29 12:23:10 47.3945 11.6608 56 ° 7 km/h 2412 m -6.9 m/s 402.50 MHz Schwaz (AT) 0.00 km UNKNOWN
N3130259 RS41 2018-11-29 06:39:03 47.0617 11.6381 242 ° 4 km/h 2960 m -4.7 m/s 402.50 MHz Steinach am Brenner (AT) 0.00 km UNKNOWN
N3130256 RS41 2018-11-28 18:26:55 46.9424 11.4813 200 ° 19 km/h 4107 m -5.1 m/s 402.50 MHz Steinach am Brenner (AT) 0.00 km UNKNOWN
N3130257 RS41 2018-11-28 12:29:21 46.9569 11.474 205 ° 15 km/h 3962 m -4.8 m/s 402.50 MHz Steinach am Brenner (AT) 0.00 km UNKNOWN
N3130336 RS41 2018-11-28 06:35:17 47.0211 11.5099 212 ° 33 km/h 3658 m -9.4 m/s 402.50 MHz Steinach am Brenner (AT) 0.00 km UNKNOWN
N3130270 RS41 2018-11-27 18:41:35 47.5884 11.3184 97 ° 7 km/h 1040 m -5.4 m/s 402.50 MHz Garmisch-Partenkirchen (DE) 0.00 km UNKNOWN
N3130253 RS41 2018-11-27 12:35:17 47.7805 11.3294 123 ° 17 km/h 1458 m -5.6 m/s 402.50 MHz Geretsried (DE) 0.00 km UNKNOWN
N3130335 RS41 2018-11-27 06:27:39 47.7627 11.2048 140 ° 13 km/h 1342 m -4.4 m/s 402.50 MHz Weilheim in Oberbayern (DE) 0.00 km UNKNOWN
N3410081 RS41 2018-11-26 18:45:37 47.8747 11.4194 160 ° 6 km/h 1310 m -3.5 m/s 402.50 MHz Geretsried (DE) 0.00 km UNKNOWN
N3410055 RS41 2018-11-26 12:25:11 48.0243 11.2015 229 ° 9 km/h 955 m -10.8 m/s 402.50 MHz Starnberg (DE) 0.00 km FOUND
DFM42EDE DFM 2018-11-26 09:05:25 48.0116 11.1062 345 ° 87 km/h 9133 m -4.9 m/s MHz Starnberg (DE) 0.00 km UNKNOWN
N3410058 RS41 2018-11-26 06:28:51 48.0123 11.103 264 ° 6 km/h 990 m -8.5 m/s 402.50 MHz Starnberg (DE) 0.00 km UNKNOWN
N3410057 RS41 2018-11-23 06:15:35 47.844 11.8434 19 ° 4 km/h 1611 m -7.8 m/s 402.50 MHz Rosenheim (DE) 0.00 km UNKNOWN
N3220175 RS41 2018-11-22 18:12:21 47.842 11.415 41 ° 6 km/h 1326 m -9.0 m/s 402.50 MHz Geretsried (DE) 0.00 km FOUND
N3220317 RS41 2018-11-22 12:47:28 47.9412 11.3565 103 ° 20 km/h 1149 m -11.2 m/s 402.50 MHz Starnberg (DE) 0.00 km FOUND
N3210270 RS41 2018-11-22 07:00:53 48.0193 11.0421 100 ° 15 km/h 992 m -4.0 m/s 402.50 MHz Landsberg am Lech (DE) 0.00 km UNKNOWN
N3210267 RS41 2018-11-21 18:41:09 48.0892 11.123 346 ° 4 km/h 955 m -4.8 m/s 402.50 MHz Fürstenfeldbruck (DE) 0.00 km FOUND
N3210325 RS41 2018-11-21 12:38:01 48.1862 11.1965 254 ° 20 km/h 864 m -5.3 m/s 402.50 MHz Fürstenfeldbruck (DE) 0.00 km UNKNOWN
N3210265 RS41 2018-11-21 06:37:03 48.1725 11.0545 263 ° 20 km/h 780 m -4.1 m/s 402.50 MHz Fürstenfeldbruck (DE) 0.00 km UNKNOWN
N3210266 RS41 2018-11-20 18:46:47 48.3524 11.2178 271 ° 22 km/h 817 m -8.5 m/s 402.50 MHz Aichach (DE) 0.00 km UNKNOWN
N3330535 RS41 2018-11-20 12:58:21 48.6217 11.5906 293 ° 26 km/h 1042 m -4.1 m/s 402.50 MHz Pfaffenhofen an der Ilm (DE) 0.00 km UNKNOWN
N3330527 RS41 2018-11-20 06:46:08 48.6306 10.8271 254 ° 22 km/h 558 m -5.3 m/s 402.50 MHz Dillingen (DE) 0.00 km UNKNOWN
N3330519 RS41 2018-11-19 18:43:03 48.2012 10.695 268 ° 33 km/h 714 m -6.4 m/s 402.50 MHz Königsbrunn (DE) 0.00 km UNKNOWN
N3330394 RS41 2018-11-19 12:39:10 48.0808 10.4898 266 ° 41 km/h 774 m -8.5 m/s 402.50 MHz Kaufbeuren (DE) 0.00 km UNKNOWN
DFM387BD DFM 2018-11-19 12:22:59 48.0958 10.6862 331 ° 26 km/h 3574 m -4.4 m/s MHz Landsberg am Lech (DE) 0.00 km UNKNOWN
N3330392 RS41 2018-11-19 06:28:20 47.6869 10.3653 236 ° 20 km/h 943 m -5.6 m/s 402.50 MHz Kempten (DE) 0.00 km UNKNOWN
DFM96DC8 DFM 2018-11-16 09:22:51 47.342 10.1488 245 ° 17 km/h 1930 m -11.6 m/s MHz Mittelberg (AT) 0.00 km UNKNOWN
N3330396 RS41 2018-11-16 06:27:22 47.1745 9.99679 278 ° 17 km/h 2602 m -6.1 m/s 402.50 MHz Bartholomäberg (AT) 0.00 km UNKNOWN
N3330400 RS41 2018-11-15 18:15:09 47.4808 10.5372 74 ° 4 km/h 1672 m -5.9 m/s 402.50 MHz Reutte (AT) 0.00 km UNKNOWN
DFM7B5DF DFM 2018-11-15 14:01:15 47.6727 10.7009 199 ° 2 km/h 1100 m -12.5 m/s MHz Reutte (AT) 0.00 km UNKNOWN
N3220180 RS41 2018-11-15 13:03:27 47.4515 10.5235 290 ° 6 km/h 2124 m -6.3 m/s 402.50 MHz Reutte (AT) 0.00 km UNKNOWN
N3120442 RS41 2018-11-15 06:31:22 47.5258 10.6682 320 ° 7 km/h 1321 m -13.8 m/s 402.50 MHz Reutte (AT) 0.00 km UNKNOWN
N3240582 RS41 2018-11-14 18:25:49 47.4244 10.8771 60 ° 11 km/h 2329 m -5.9 m/s 402.50 MHz Ehrwald (AT) 0.00 km UNKNOWN
N3410090 RS41 2018-11-14 12:36:40 47.314 11.2687 311 ° 6 km/h 2238 m -6.9 m/s 402.50 MHz Zirl (AT) 0.00 km UNKNOWN
N3410079 RS41 2018-11-14 06:21:26 47.3989 11.6597 96 ° 19 km/h 2434 m -10.9 m/s 402.50 MHz Schwaz (AT) 0.00 km UNKNOWN
N3410080 RS41 2018-11-13 18:29:12 47.8433 12.6349 84 ° 26 km/h 1119 m -8.1 m/s 402.50 MHz Traunreut (DE) 0.00 km UNKNOWN
N3410056 RS41 2018-11-13 12:45:49 48.3191 12.8975 115 ° 39 km/h 792 m -10.2 m/s 402.50 MHz Braunau am Inn (AT) 0.00 km UNKNOWN
N3330539 RS41 2018-11-13 06:47:42 48.3589 12.592 312 ° 6 km/h 1301 m -6.8 m/s 402.50 MHz Waldkraiburg (DE) 0.00 km UNKNOWN
N3330528 RS41 2018-11-12 18:39:11 48.3535 12.2396 171 ° 24 km/h 1547 m -9.1 m/s 402.50 MHz Waldkraiburg (DE) 0.00 km UNKNOWN
N3330393 RS41 2018-11-12 12:34:50 48.3015 12.0798 291 ° 26 km/h 763 m -10.0 m/s 402.50 MHz Erding (DE) 0.00 km UNKNOWN
N3330520 RS41 2018-11-12 07:00:25 48.2687 12.2773 16 ° 15 km/h 1260 m -4.6 m/s 402.50 MHz Waldkraiburg (DE) 0.00 km UNKNOWN
N3330391 RS41 2018-11-09 06:27:57 48.343 11.9847 46 ° 13 km/h 1198 m -8.4 m/s 402.50 MHz Erding (DE) 0.00 km FOUND
N3330395 RS41 2018-11-08 18:28:04 48.1686 11.793 252 ° 30 km/h 728 m -8.7 m/s 402.50 MHz Vaterstetten (DE) 0.00 km FOUND
N3330401 RS41 2018-11-08 12:32:04 48.4225 11.4014 266 ° 19 km/h 892 m -7.1 m/s 402.50 MHz Pfaffenhofen an der Ilm (DE) 0.00 km UNKNOWN
N3220316 RS41 2018-11-08 06:30:34 48.4258 11.2768 182 ° 13 km/h 688 m -6.8 m/s 402.50 MHz Aichach (DE) 0.00 km UNKNOWN
N3410084 RS41 2018-11-07 18:42:54 48.3731 11.2862 104 ° 20 km/h 958 m -5.8 m/s 402.50 MHz Aichach (DE) 0.00 km FOUND
N3410033 RS41 2018-11-07 12:45:41 48.5265 11.2608 292 ° 11 km/h 746 m -4.9 m/s 402.50 MHz Aichach (DE) 0.00 km FOUND
N3130758 RS41 2018-11-07 06:37:28 48.5571 11.0665 192 ° 2 km/h 681 m -3.9 m/s 402.50 MHz Aichach (DE) 0.00 km UNKNOWN
N3130769 RS41 2018-11-06 18:38:47 48.51 11.0616 10 ° 9 km/h 574 m -5.3 m/s 402.50 MHz Aichach (DE) 0.00 km UNKNOWN
N3130761 RS41 2018-11-06 12:52:40 48.5485 11.1575 300 ° 24 km/h 707 m -3.2 m/s 402.50 MHz Aichach (DE) 0.00 km UNKNOWN
N3240606 RS41 2018-11-06 06:38:42 48.2941 11.2129 338 ° 26 km/h 736 m -5.2 m/s 402.50 MHz Olching (DE) 0.00 km UNKNOWN
N3240595 RS41 2018-11-05 19:04:20 48.5426 11.0689 349 ° 17 km/h 660 m -4.4 m/s 402.50 MHz Aichach (DE) 0.00 km UNKNOWN
N3240565 RS41 2018-11-05 12:58:22 48.64 10.4608 297 ° 15 km/h 690 m -4.9 m/s 402.50 MHz Dillingen (DE) 0.00 km FOUND
N3330447 RS41 2018-11-05 06:44:17 48.5369 10.5005 261 ° 4 km/h 495 m -4.8 m/s 402.50 MHz Dillingen (DE) 0.00 km FOUND
N3330413 RS41 2018-10-31 18:41:42 48.8887 11.5656 34 ° 43 km/h 3139 m -5.4 m/s 402.50 MHz Ingolstadt (DE) 0.00 km UNKNOWN
N3330397 RS41 2018-10-31 12:38:43 48.7906 11.6622 359 ° 26 km/h 2529 m -7.9 m/s 402.50 MHz Ingolstadt (DE) 0.00 km UNKNOWN
N3330398 RS41 2018-10-31 06:34:14 48.5134 11.7918 294 ° 20 km/h 958 m -10.2 m/s 402.50 MHz Freising (DE) 0.00 km UNKNOWN
N3330399 RS41 2018-10-30 18:44:42 48.5537 12.0577 83 ° 70 km/h 1529 m -6.3 m/s 402.50 MHz Landshut (DE) 0.00 km UNKNOWN
N3330536 RS41 2018-10-30 12:57:48 48.721 12.0374 6 ° 56 km/h 1926 m -3.7 m/s 402.50 MHz Landshut (DE) 0.00 km UNKNOWN
N3330540 RS41 2018-10-30 06:33:38 48.7915 11.2139 359 ° 35 km/h 1699 m -8.4 m/s 402.50 MHz Neuburg an der Donau (DE) 0.00 km UNKNOWN
N3330538 RS41 2018-10-29 18:22:02 49.0582 10.9282 352 ° 107 km/h 3626 m -4.0 m/s 402.50 MHz Roth bei Nürnberg (DE) 0.00 km UNKNOWN
N3210165 RS41 2018-10-29 12:45:24 48.9905 11.5468 9 ° 41 km/h 2523 m -4.2 m/s 402.50 MHz Ingolstadt (DE) 0.00 km UNKNOWN
N3210158 RS41 2018-10-29 06:33:54 48.7066 11.4544 346 ° 33 km/h 1615 m -8.9 m/s 402.50 MHz Ingolstadt (DE) 0.00 km UNKNOWN
N3210159 RS41 2018-10-26 05:50:56 47.5979 12.5448 89 ° 46 km/h 2285 m -6.9 m/s 402.50 MHz Kirchdorf in Tirol (AT) 0.00 km UNKNOWN
N3210349 RS41 2018-10-25 17:55:58 47.0615 12.4597 132 ° 69 km/h 3872 m -6.3 m/s 402.50 MHz Virgen (AT) 0.00 km UNKNOWN
N3210315 RS41 2018-10-25 11:30:29 46.9146 12.1789 140 ° 85 km/h 4723 m -8.0 m/s 402.50 MHz Brunico (IT) 0.00 km UNKNOWN
N3210257 RS41 2018-10-25 05:38:08 46.7633 11.7046 147 ° 78 km/h 4685 m -10.6 m/s 402.50 MHz Bressanone (IT) 0.00 km UNKNOWN
N3210262 RS41 2018-10-24 17:25:08 46.4271 11.394 170 ° 119 km/h 5827 m -7.1 m/s 402.50 MHz Laives (IT) 0.00 km UNKNOWN
N3210258 RS41 2018-10-24 11:18:35 46.4232 11.4655 167 ° 131 km/h 5984 m -9.3 m/s 402.50 MHz Laives (IT) 0.00 km UNKNOWN
N3220295 RS41 2018-10-24 05:30:12 46.4514 11.4084 174 ° 130 km/h 5754 m -6.0 m/s 402.50 MHz Laives (IT) 0.00 km UNKNOWN
N3220289 RS41 2018-10-23 17:27:13 46.6997 11.2264 168 ° 107 km/h 4628 m -4.8 m/s 402.50 MHz Merano (IT) 0.00 km UNKNOWN
N3220302 RS41 2018-10-23 11:30:22 46.79 10.964 151 ° 65 km/h 4036 m -4.4 m/s 402.50 MHz Sölden (AT) 0.00 km UNKNOWN
N3220326 RS41 2018-10-23 05:28:46 46.9781 10.67 195 ° 48 km/h 3576 m -7.7 m/s 402.50 MHz Pfunds (AT) 0.00 km UNKNOWN
N3220301 RS41 2018-10-22 17:48:45 47.1788 10.7704 230 ° 30 km/h 2892 m -3.7 m/s 402.50 MHz Arzl im Pitztal (AT) 0.00 km UNKNOWN
N3210334 RS41 2018-10-22 11:47:40 47.2406 9.96175 162 ° 13 km/h 2260 m -3.8 m/s 402.50 MHz Bludenz (AT) 0.00 km UNKNOWN
N3210335 RS41 2018-10-22 05:34:22 47.1906 9.77676 263 ° 19 km/h 2281 m -11.2 m/s 402.50 MHz Ludesch (AT) 0.00 km UNKNOWN
N3210313 RS41 2018-10-19 05:47:13 47.4201 11.1407 136 ° 6 km/h 2309 m -5.1 m/s 402.50 MHz Leutasch (AT) 0.00 km UNKNOWN
N3210314 RS41 2018-10-18 17:50:51 47.395 10.8291 294 ° 9 km/h 2159 m -4.6 m/s 402.50 MHz Ehrwald (AT) 0.00 km UNKNOWN
DFM3876E DFM 2018-10-18 14:31:02 47.3728 10.8178 198 ° 17 km/h 3998 m -4.8 m/s MHz Ehrwald (AT) 0.00 km UNKNOWN
N3210253 RS41 2018-10-18 12:00:12 47.3641 10.603 277 ° 11 km/h 2259 m -5.7 m/s 402.50 MHz Reutte (AT) 0.00 km UNKNOWN
DFM38361 DFM 2018-10-18 08:02:30 47.3456 10.6581 181 ° 31 km/h 7108 m -4.4 m/s MHz Tarrenz (AT) 0.00 km UNKNOWN
N3330531 RS41 2018-10-18 05:34:01 47.4591 10.6974 282 ° 7 km/h 1615 m -9.2 m/s 402.50 MHz Reutte (AT) 0.00 km UNKNOWN
N3210264 RS41 2018-10-17 17:47:21 47.5392 10.9666 295 ° 9 km/h 1847 m -5.5 m/s 402.50 MHz Garmisch-Partenkirchen (DE) 0.00 km UNKNOWN
DFM388AC DFM 2018-10-17 14:27:38 47.5741 11.1518 9 ° 11 km/h 2770 m -4.0 m/s MHz Garmisch-Partenkirchen (DE) 0.00 km UNKNOWN
N3210261 RS41 2018-10-17 11:50:10 47.6106 10.9484 274 ° 11 km/h 1642 m -7.3 m/s 402.50 MHz Garmisch-Partenkirchen (DE) 0.00 km UNKNOWN
N3220306 RS41 2018-10-17 05:33:08 47.5938 11.1807 108 ° 4 km/h 1456 m -5.0 m/s 402.50 MHz Garmisch-Partenkirchen (DE) 0.00 km UNKNOWN
N3220311 RS41 2018-10-16 18:05:56 47.5444 11.3351 268 ° 7 km/h 1851 m -4.4 m/s 402.50 MHz Garmisch-Partenkirchen (DE) 0.00 km UNKNOWN
DFM38892 DFM 2018-10-16 14:26:42 47.6073 11.4462 234 ° 9 km/h 2022 m -4.0 m/s MHz Achenkirch (AT) 0.00 km UNKNOWN
N3220304 RS41 2018-10-16 11:25:46 47.6115 11.0848 18 ° 2 km/h 1489 m -5.9 m/s 402.50 MHz Garmisch-Partenkirchen (DE) 0.00 km UNKNOWN
N3220305 RS41 2018-10-16 05:53:55 47.5804 11.2483 360 ° 9 km/h 1465 m -3.9 m/s 402.50 MHz Garmisch-Partenkirchen (DE) 0.00 km UNKNOWN
N3220312 RS41 2018-10-15 17:46:53 47.7782 11.0773 354 ° 7 km/h 1194 m -4.0 m/s 402.50 MHz Weilheim in Oberbayern (DE) 0.00 km UNKNOWN
N3330411 RS41 2018-10-15 11:26:53 47.929 10.751 317 ° 9 km/h 882 m -13.5 m/s 402.50 MHz Kaufbeuren (DE) 0.00 km UNKNOWN
N3220292 RS41 2018-10-15 05:38:45 47.9728 10.7235 351 ° 20 km/h 802 m -7.6 m/s 402.50 MHz Kaufbeuren (DE) 0.00 km LOST
DFM3889C DFM 2018-10-12 08:17:49 47.7553 11.0728 100 ° 11 km/h 6271 m -4.8 m/s MHz Weilheim in Oberbayern (DE) 0.00 km UNKNOWN
N3220319 RS41 2018-10-12 05:44:36 47.7728 11.2393 129 ° 17 km/h 1126 m -9.7 m/s 402.50 MHz Weilheim in Oberbayern (DE) 0.00 km UNKNOWN
N3220291 RS41 2018-10-11 17:17:20 47.9923 11.1328 336 ° 22 km/h 930 m -10.0 m/s 402.50 MHz Starnberg (DE) 0.00 km LOST
DFM3889E DFM 2018-10-11 14:58:34 48.1149 11.1404 4 ° 15 km/h 2897 m -3.5 m/s MHz Fürstenfeldbruck (DE) 0.00 km FOUND
N3330402 RS41 2018-10-11 11:45:15 48.1041 11.0386 266 ° 7 km/h 726 m -6.5 m/s 402.50 MHz Landsberg am Lech (DE) 0.00 km UNKNOWN
N3330412 RS41 2018-10-11 05:37:44 48.2279 10.8972 341 ° 11 km/h 646 m -4.2 m/s 402.50 MHz Königsbrunn (DE) 0.00 km UNKNOWN
N3330445 RS41 2018-10-10 17:47:06 48.2881 10.2452 149 ° 9 km/h 591 m -5.6 m/s 402.50 MHz Senden (DE) 0.00 km FOUND
DFM38893 DFM 2018-10-10 14:44:40 48.2729 9.96835 308 ° 50 km/h 5429 m -5.3 m/s MHz Senden (DE) 0.00 km UNKNOWN
N3330529 RS41 2018-10-10 11:59:19 48.2794 9.90175 185 ° 9 km/h 560 m -4.8 m/s 402.50 MHz Senden (DE) 0.00 km FOUND
N3330525 RS41 2018-10-10 06:26:28 48.1474 9.41236 231 ° 22 km/h 860 m -2.8 m/s 402.50 MHz Ehingen (DE) 0.00 km UNKNOWN
N3220327 RS41 2018-10-09 18:40:18 47.7188 9.6161 321 ° 11 km/h 1080 m -2.1 m/s 402.50 MHz Ravensburg (DE) 0.00 km UNKNOWN
N3220290 RS41 2018-10-09 11:48:13 47.7143 10.2547 227 ° 13 km/h 1121 m -7.5 m/s 402.50 MHz Kempten (DE) 0.00 km UNKNOWN
N3330513 RS41 2018-10-09 06:30:22 47.4642 10.053 325 ° 13 km/h 1686 m -2.9 m/s 402.50 MHz Egg (AT) 0.00 km UNKNOWN
N3330523 RS41 2018-10-08 17:21:44 47.6757 10.5264 281 ° 17 km/h 1227 m -6.3 m/s 402.50 MHz Kempten (DE) 0.00 km UNKNOWN
N3330532 RS41 2018-10-08 12:13:59 47.6756 10.2109 264 ° 13 km/h 1151 m -8.2 m/s 402.50 MHz Kempten (DE) 0.00 km UNKNOWN
N3330446 RS41 2018-10-08 05:51:55 47.6696 10.5625 270 ° 13 km/h 1232 m -8.9 m/s 402.50 MHz Kempten (DE) 0.00 km UNKNOWN
DFM388B8 DFM 2018-10-05 08:47:01 47.9631 10.8221 272 ° 24 km/h 9130 m -0.5 m/s MHz Landsberg am Lech (DE) 0.00 km UNKNOWN
N3220310 RS41 2018-10-05 05:58:21 47.8317 10.9702 96 ° 22 km/h 1268 m -9.0 m/s 402.50 MHz Weilheim in Oberbayern (DE) 0.00 km UNKNOWN
N3330534 RS41 2018-10-04 17:32:32 47.555 11.0705 338 ° 15 km/h 1827 m -7.5 m/s 402.50 MHz Garmisch-Partenkirchen (DE) 0.00 km UNKNOWN
N3330524 RS41 2018-10-04 12:27:45 47.2857 11.1518 265 ° 9 km/h 3049 m -2.2 m/s 402.50 MHz Inzing (AT) 0.00 km UNKNOWN
N3230320 RS41 2018-10-04 05:56:52 47.327 11.3605 104 ° 11 km/h 2420 m -2.3 m/s 402.50 MHz Innsbruck (AT) 0.00 km UNKNOWN
N3220309 RS41 2018-10-02 17:34:55 47.2224 11.4016 143 ° 46 km/h 2941 m -8.6 m/s 402.50 MHz Mutters (AT) 0.00 km UNKNOWN
N3220321 RS41 2018-10-02 11:43:25 47.0982 11.0578 109 ° 30 km/h 3162 m -6.5 m/s 402.50 MHz Umhausen (AT) 0.00 km UNKNOWN
N3210326 RS41 2018-10-02 06:05:21 46.6955 10.7776 183 ° 59 km/h 4498 m -2.9 m/s 402.50 MHz Merano (IT) 0.00 km UNKNOWN
N3410009 RS41 2018-10-01 18:29:36 47.9932 11.8226 137 ° 37 km/h 1257 m -1.9 m/s 402.50 MHz Vaterstetten (DE) 0.00 km FOUND
N3330533 RS41 2018-10-01 11:28:07 48.1768 11.4387 112 ° 35 km/h 1160 m -5.7 m/s 402.50 MHz Germering (DE) 0.00 km UNKNOWN
N3410008 RS41 2018-10-01 06:24:33 48.3695 11.705 129 ° 22 km/h 1068 m -2.3 m/s 402.50 MHz Freising (DE) 0.00 km FOUND
N3410007 RS41 2018-09-28 05:35:05 47.6743 11.6199 115 ° 28 km/h 1468 m -4.5 m/s 402.50 MHz Achenkirch (AT) 0.00 km UNKNOWN
N3330537 RS41 2018-09-27 17:28:26 47.504 11.2158 66 ° 4 km/h 2181 m -8.3 m/s 402.50 MHz Garmisch-Partenkirchen (DE) 0.00 km UNKNOWN
DFM38857 DFM 2018-09-27 14:50:16 47.2991 11.3098 107 ° 15 km/h 3201 m -4.8 m/s MHz Völs (AT) 0.00 km UNKNOWN
N3250091 RS41 2018-09-27 11:59:24 47.3471 11.2966 36 ° 13 km/h 2240 m -2.5 m/s 402.50 MHz Seefeld in Tirol (AT) 0.00 km UNKNOWN
DFM388A2 DFM 2018-09-27 09:07:15 47.2087 11.3187 161 ° 41 km/h 5529 m -3.4 m/s MHz Götzens (AT) 0.00 km UNKNOWN
N3410059 RS41 2018-09-27 06:21:44 47.1487 11.2959 193 ° 20 km/h 3217 m -4.2 m/s 402.50 MHz Fulpmes (AT) 0.00 km UNKNOWN
N3220229 RS41 2018-09-26 17:48:18 47.0886 10.6203 178 ° 17 km/h 3172 m -7.3 m/s 402.50 MHz Fliess (AT) 0.00 km UNKNOWN
DFM3883A DFM 2018-09-26 14:49:17 46.932 10.4642 181 ° 50 km/h 5100 m -5.2 m/s MHz Pfunds (AT) 0.00 km LOST
N3240604 RS41 2018-09-26 11:58:32 46.8389 10.4274 138 ° 26 km/h 3893 m -3.4 m/s 402.50 MHz Pfunds (AT) 0.00 km LOST
N3410082 RS41 2018-09-26 05:32:04 46.7425 10.5579 196 ° 46 km/h 4591 m -7.0 m/s 402.50 MHz Pfunds (AT) 0.00 km UNKNOWN
N3220185 RS41 2018-09-25 18:14:36 46.2582 11.7141 168 ° 106 km/h 6728 m -2.5 m/s 402.50 MHz Feltre (IT) 0.00 km UNKNOWN
N3220170 RS41 2018-09-25 11:30:55 46.8329 12.0763 146 ° 78 km/h 4585 m -4.4 m/s 402.50 MHz Brunico (IT) 0.00 km UNKNOWN
N3220318 RS41 2018-09-25 05:35:16 46.8326 12.3766 145 ° 93 km/h 5149 m -5.8 m/s 402.50 MHz Virgen (AT) 0.00 km UNKNOWN
N3220177 RS41 2018-09-24 17:27:52 46.9232 12.5215 136 ° 133 km/h 5825 m -15.9 m/s 402.50 MHz Matrei in Osttirol (AT) 0.00 km UNKNOWN
N3220314 RS41 2018-09-24 11:36:04 46.8595 12.6535 124 ° 89 km/h 4728 m -4.2 m/s 402.50 MHz Lienz (AT) 0.00 km UNKNOWN
N3220183 RS41 2018-09-24 06:21:06 47.2394 13.8267 138 ° 119 km/h 3130 m -1.4 m/s 402.50 MHz Mariapfarr (AT) 0.00 km UNKNOWN
N3220258 RS41 2018-09-21 05:51:46 47.863 11.6539 89 ° 33 km/h 1718 m -2.0 m/s 402.50 MHz Geretsried (DE) 0.00 km UNKNOWN
N3240511 RS41 2018-09-20 18:21:04 47.7099 11.4599 352 ° 6 km/h 1742 m -4.4 m/s 402.50 MHz Geretsried (DE) 0.00 km FOUND
DFM96ABD DFM 2018-09-20 14:57:06 47.7535 11.4348 303 ° 11 km/h 2076 m -3.7 m/s MHz Geretsried (DE) 0.00 km UNKNOWN
N3220230 RS41 2018-09-20 12:01:55 47.7333 11.3319 338 ° 11 km/h 1700 m -7.5 m/s 402.50 MHz Geretsried (DE) 0.00 km UNKNOWN
N3220189 RS41 2018-09-20 05:59:35 47.6 11.1905 233 ° 4 km/h 1586 m -4.4 m/s 402.50 MHz Garmisch-Partenkirchen (DE) 0.00 km UNKNOWN
N3220178 RS41 2018-09-19 18:00:03 47.6463 11.4038 102 ° 11 km/h 1884 m -6.5 m/s 402.50 MHz Geretsried (DE) 0.00 km UNKNOWN
N3130759 RS41 2018-09-19 12:04:27 47.7614 11.5339 81 ° 13 km/h 1816 m -4.5 m/s 402.50 MHz Geretsried (DE) 0.00 km UNKNOWN
N3220179 RS41 2018-09-19 06:06:50 47.672 11.6506 130 ° 17 km/h 1877 m -5.6 m/s 402.50 MHz Achenkirch (AT) 0.00 km UNKNOWN
N3130760 RS41 2018-09-18 17:37:39 48.1197 11.0475 44 ° 28 km/h 911 m -5.8 m/s 402.50 MHz Landsberg am Lech (DE) 0.00 km UNKNOWN
N3410083 RS41 2018-09-18 11:48:41 48.2075 10.8188 73 ° 20 km/h 731 m -10.2 m/s 402.50 MHz Königsbrunn (DE) 0.00 km UNKNOWN
N3130807 RS41 2018-09-18 07:07:06 48.2771 10.4201 63 ° 7 km/h 642 m -1.6 m/s 402.50 MHz Senden (DE) 0.00 km FOUND
N3220313 RS41 2018-09-17 17:45:09 47.715 10.8063 290 ° 17 km/h 1371 m -8.6 m/s 402.50 MHz Kaufbeuren (DE) 0.00 km FOUND
DFM96AE8 DFM 2018-09-17 14:53:09 47.6902 10.8877 21 ° 24 km/h 2956 m -4.0 m/s MHz Weilheim in Oberbayern (DE) 0.00 km UNKNOWN
N3220334 RS41 2018-09-17 11:40:08 47.7181 11.0847 241 ° 4 km/h 1483 m -8.9 m/s 402.50 MHz Weilheim in Oberbayern (DE) 0.00 km UNKNOWN
N3220188 RS41 2018-09-17 05:54:05 47.7073 11.4667 101 ° 9 km/h 1583 m -8.2 m/s 402.50 MHz Geretsried (DE) 0.00 km UNKNOWN
N3130770 RS41 2018-09-14 06:01:24 47.9345 11.8655 221 ° 4 km/h 1426 m -2.6 m/s 402.50 MHz Vaterstetten (DE) 0.00 km UNKNOWN
N3220181 RS41 2018-09-13 17:50:04 47.9219 11.6664 217 ° 15 km/h 1604 m -8.9 m/s 402.50 MHz Geretsried (DE) 0.00 km FOUND
N3220192 RS41 2018-09-13 11:47:49 47.9056 11.5052 74 ° 7 km/h 1613 m -7.1 m/s 402.50 MHz Geretsried (DE) 0.00 km LOST
N3220190 RS41 2018-09-13 06:03:52 47.7885 11.4995 109 ° 15 km/h 1555 m -8.8 m/s 402.50 MHz Geretsried (DE) 0.00 km UNKNOWN
N3220182 RS41 2018-09-12 18:35:11 48.5059 11.916 50 ° 13 km/h 1625 m -1.9 m/s 402.50 MHz Freising (DE) 0.00 km UNKNOWN
N3240568 RS41 2018-09-12 11:58:42 48.2737 11.4849 84 ° 15 km/h 1368 m -10.1 m/s 402.50 MHz Dachau (DE) 0.00 km UNKNOWN
N3240581 RS41 2018-09-12 05:48:02 47.8797 11.3843 89 ° 15 km/h 1371 m -11.8 m/s 402.50 MHz Geretsried (DE) 0.00 km UNKNOWN
N3240580 RS41 2018-09-11 18:18:31 47.4527 11.476 84 ° 15 km/h 2269 m -5.1 m/s 402.50 MHz Thaur (AT) 0.00 km UNKNOWN
N3240570 RS41 2018-09-11 11:34:09 47.447 11.278 70 ° 13 km/h 2300 m -9.9 m/s 402.50 MHz Leutasch (AT) 0.00 km UNKNOWN
N3240569 RS41 2018-09-11 05:24:10 47.3005 11.2139 118 ° 28 km/h 3057 m -5.5 m/s 402.50 MHz Inzing (AT) 0.00 km UNKNOWN
N3220288 RS41 2018-09-10 18:11:19 46.847 11.566 157 ° 50 km/h 6152 m -2.3 m/s 402.50 MHz Bressanone (IT) 0.00 km UNKNOWN
N3240578 RS41 2018-09-10 12:12:43 47.3273 11.6782 104 ° 17 km/h 2921 m -4.6 m/s 402.50 MHz Vomp (AT) 0.00 km FOUND
N3240566 RS41 2018-09-10 05:37:25 47.6486 11.5228 108 ° 19 km/h 1812 m -9.1 m/s 402.50 MHz Achenkirch (AT) 0.00 km UNKNOWN
N3240579 RS41 2018-09-07 05:43:33 47.9364 11.484 97 ° 28 km/h 1532 m -10.8 m/s 402.50 MHz Geretsried (DE) 0.00 km UNKNOWN
N3240567 RS41 2018-09-06 18:11:02 47.9811 11.8033 166 ° 6 km/h 1509 m -8.1 m/s 402.50 MHz Vaterstetten (DE) 0.00 km UNKNOWN
N3130037 RS41 2018-09-06 11:48:58 47.9236 11.5078 214 ° 4 km/h 1606 m -9.2 m/s 402.50 MHz Geretsried (DE) 0.00 km UNKNOWN
DFM96A49 DFM 2018-09-06 08:40:55 47.9017 11.6156 26 ° 7 km/h 1347 m -4.3 m/s MHz Geretsried (DE) 0.00 km UNKNOWN
N3130065 RS41 2018-09-06 05:40:07 47.8014 11.4861 64 ° 6 km/h 1717 m -9.1 m/s 402.50 MHz Geretsried (DE) 0.00 km UNKNOWN
N3130024 RS41 2018-09-05 17:51:18 47.6709 11.5086 14 ° 4 km/h 1873 m -6.1 m/s 402.50 MHz Geretsried (DE) 0.00 km UNKNOWN
N3130010 RS41 2018-09-05 11:53:46 47.7133 11.3111 300 ° 7 km/h 1720 m -10.3 m/s 402.50 MHz Weilheim in Oberbayern (DE) 0.00 km UNKNOWN
N3130814 RS41 2018-09-05 05:47:01 47.6168 11.1881 282 ° 13 km/h 1687 m -7.2 m/s 402.50 MHz Garmisch-Partenkirchen (DE) 0.00 km UNKNOWN
N3130812 RS41 2018-09-04 17:54:47 47.6954 10.995 73 ° 7 km/h 1443 m -3.8 m/s 402.50 MHz Weilheim in Oberbayern (DE) 0.00 km UNKNOWN
N3120676 RS41 2018-09-04 11:41:48 47.7376 10.8295 91 ° 11 km/h 1224 m -4.6 m/s 402.50 MHz Kaufbeuren (DE) 0.00 km UNKNOWN
N3230486 RS41 2018-09-04 05:46:42 47.5738 10.6342 77 ° 9 km/h 1429 m -4.6 m/s 402.50 MHz Reutte (AT) 0.00 km UNKNOWN
N3130022 RS41 2018-09-03 18:04:55 47.8926 10.5069 145 ° 13 km/h 915 m -7.8 m/s 402.50 MHz Kaufbeuren (DE) 0.00 km UNKNOWN
N3030168 RS41 2018-09-03 11:44:42 47.9706 10.3609 129 ° 6 km/h 832 m -9.6 m/s 402.50 MHz Memmingen (DE) 0.00 km UNKNOWN
N3130023 RS41 2018-09-03 05:42:22 48.0312 10.3198 292 ° 4 km/h 764 m -6.5 m/s 402.50 MHz Memmingen (DE) 0.00 km UNKNOWN
N3130066 RS41 2018-08-31 05:31:47 48.1591 11.6694 266 ° 24 km/h 1551 m -5.1 m/s 402.50 MHz München (DE) 0.00 km UNKNOWN
N3130828 RS41 2018-08-30 17:17:10 47.9439 11.4523 168 ° 7 km/h 1494 m -11.5 m/s 402.50 MHz Geretsried (DE) 0.00 km UNKNOWN
N3120550 RS41 2018-08-30 11:27:37 48.4399 11.5368 123 ° 37 km/h 1242 m -8.0 m/s 402.50 MHz Pfaffenhofen an der Ilm (DE) 0.00 km UNKNOWN
DFM96ADA DFM 2018-08-30 07:31:53 48.125 11.1783 40 ° 85 km/h 12069 m 3.4 m/s MHz Fürstenfeldbruck (DE) 0.00 km UNKNOWN
N3230487 RS41 2018-08-30 05:27:55 48.3007 11.6559 127 ° 46 km/h 1413 m -8.5 m/s 402.50 MHz Unterschleißheim (DE) 0.00 km UNKNOWN
N3130008 RS41 2018-08-29 17:36:12 48.1494 11.5046 74 ° 4 km/h 1259 m -8.2 m/s 402.50 MHz München (DE) 0.00 km UNKNOWN
N3130056 RS41 2018-08-29 05:55:55 47.903 11.5154 97 ° 31 km/h 1818 m -5.7 m/s 402.50 MHz Geretsried (DE) 0.00 km UNKNOWN
N3230497 RS41 2018-08-28 17:46:31 47.7563 11.5485 64 ° 13 km/h 1963 m -12.8 m/s 402.50 MHz Geretsried (DE) 0.00 km UNKNOWN
N3130009 RS41 2018-08-28 11:44:06 47.7251 11.4453 3 ° 15 km/h 1894 m -6.4 m/s 402.50 MHz Geretsried (DE) 0.00 km UNKNOWN
N3230489 RS41 2018-08-28 06:07:24 47.5356 11.9391 89 ° 24 km/h 2681 m -4.6 m/s 402.50 MHz Breitenbach am Inn (AT) 0.00 km UNKNOWN
N3120699 RS41 2018-08-27 17:35:48 47.6078 11.9243 91 ° 46 km/h 2413 m -4.9 m/s 402.50 MHz Kirchbichl (AT) 0.00 km UNKNOWN
N3120217 RS41 2018-08-27 11:38:30 47.5994 11.5039 95 ° 37 km/h 2207 m -8.9 m/s 402.50 MHz Achenkirch (AT) 0.00 km UNKNOWN
N3110222 RS41 2018-08-27 05:45:33 47.5097 11.471 98 ° 31 km/h 2170 m -7.9 m/s 402.50 MHz Achenkirch (AT) 0.00 km UNKNOWN
N3120692 RS41 2018-08-24 05:43:50 48.1006 11.4888 108 ° 44 km/h 1289 m -10.6 m/s 402.50 MHz München (DE) 0.00 km UNKNOWN
N3120663 RS41 2018-08-23 17:32:28 47.9713 11.1685 136 ° 31 km/h 1090 m -9.2 m/s 402.50 MHz Starnberg (DE) 0.00 km FOUND
N3120697 RS41 2018-08-23 06:11:55 47.9317 10.9041 88 ° 30 km/h 1037 m -7.6 m/s 402.50 MHz Landsberg am Lech (DE) 0.00 km UNKNOWN
N3120686 RS41 2018-08-22 18:39:56 48.1157 10.8901 271 ° 15 km/h 917 m -10.7 m/s 402.50 MHz Landsberg am Lech (DE) 0.00 km UNKNOWN
N3230131 RS41 2018-08-22 11:51:51 48.0893 10.7129 279 ° 9 km/h 853 m -10.3 m/s 402.50 MHz Landsberg am Lech (DE) 0.00 km UNKNOWN
N3120700 RS41 2018-08-22 06:26:59 47.9887 10.6131 21 ° 11 km/h 793 m -5.2 m/s 402.50 MHz Kaufbeuren (DE) 0.00 km UNKNOWN
N3120659 RS41 2018-08-21 17:46:49 47.8504 10.6072 229 ° 19 km/h 1020 m -9.2 m/s 402.50 MHz Kaufbeuren (DE) 0.00 km UNKNOWN
N3120687 RS41 2018-08-21 11:51:28 47.8104 10.5345 221 ° 15 km/h 1120 m -9.8 m/s 402.50 MHz Kaufbeuren (DE) 0.00 km UNKNOWN
N3120220 RS41 2018-08-21 05:42:05 47.7264 10.729 279 ° 19 km/h 1184 m -11.6 m/s 402.50 MHz Kaufbeuren (DE) 0.00 km UNKNOWN
N3120654 RS41 2018-08-20 17:39:14 47.6949 10.8416 214 ° 7 km/h 1377 m -8.6 m/s 402.50 MHz Reutte (AT) 0.00 km UNKNOWN
N3120235 RS41 2018-08-20 11:48:22 47.7391 10.7323 239 ° 6 km/h 1322 m -9.5 m/s 402.50 MHz Kaufbeuren (DE) 0.00 km UNKNOWN
N3120702 RS41 2018-08-20 06:29:08 47.6493 10.6133 137 ° 2 km/h 1209 m -2.6 m/s 402.50 MHz Reutte (AT) 0.00 km UNKNOWN
N3120688 RS41 2018-08-17 06:08:03 47.9474 11.1919 95 ° 7 km/h 1202 m -8.0 m/s 402.50 MHz Starnberg (DE) 0.00 km UNKNOWN
N3120240 RS41 2018-08-16 17:44:30 47.813 11.0109 253 ° 15 km/h 1356 m -11.1 m/s 402.50 MHz Weilheim in Oberbayern (DE) 0.00 km UNKNOWN
N3120691 RS41 2018-08-16 11:31:41 47.7616 10.8736 242 ° 9 km/h 1288 m -10.6 m/s 402.50 MHz Weilheim in Oberbayern (DE) 0.00 km UNKNOWN
N3120693 RS41 2018-08-16 05:51:28 47.5733 10.8156 266 ° 2 km/h 1552 m -6.5 m/s 402.50 MHz Reutte (AT) 0.00 km UNKNOWN
N3120245 RS41 2018-08-14 18:50:59 47.9549 11.6715 148 ° 20 km/h 1703 m -3.9 m/s 402.50 MHz Unterhaching (DE) 0.00 km UNKNOWN
N3120025 RS41 2018-08-14 12:07:03 48.1848 11.6387 110 ° 24 km/h 1607 m -9.2 m/s 402.50 MHz München (DE) 0.00 km UNKNOWN
N3120246 RS41 2018-08-14 05:46:19 48.1808 11.7535 109 ° 26 km/h 1570 m -3.2 m/s 402.50 MHz Vaterstetten (DE) 0.00 km UNKNOWN
N3120218 RS41 2018-08-13 17:26:15 48.2687 11.6377 64 ° 22 km/h 1290 m -8.7 m/s 404.30 MHz Unterschleißheim (DE) 0.00 km UNKNOWN
N3120685 RS41 2018-08-13 12:01:10 48.2874 11.6686 55 ° 15 km/h 2216 m -9.9 m/s 402.50 MHz Unterschleißheim (DE) 0.00 km UNKNOWN
N3120028 RS41 2018-08-13 06:46:24 48.0982 11.7426 82 ° 22 km/h 1387 m -3.9 m/s 402.50 MHz Vaterstetten (DE) 0.00 km UNKNOWN
N3120238 RS41 2018-08-10 05:48:59 48.5914 11.5364 109 ° 41 km/h 1175 m -7.0 m/s 402.50 MHz Pfaffenhofen an der Ilm (DE) 0.00 km UNKNOWN
N3120219 RS41 2018-08-09 17:49:36 48.3604 11.3932 121 ° 61 km/h 1159 m -9.2 m/s 402.50 MHz Dachau (DE) 0.00 km UNKNOWN
N3350620 RS41 2018-08-09 12:13:26 48.498 11.2309 28 ° 15 km/h 941 m -8.2 m/s 402.50 MHz Aichach (DE) 0.00 km UNKNOWN
N3120026 RS41 2018-08-09 06:04:33 48.3269 11.1327 324 ° 22 km/h 903 m -8.9 m/s 402.50 MHz Aichach (DE) 0.00 km UNKNOWN
N3340840 RS41 2018-08-08 18:07:31 48.2022 11.3447 71 ° 7 km/h 1110 m -7.3 m/s 402.50 MHz Olching (DE) 0.00 km UNKNOWN
N3340874 RS41 2018-08-08 06:12:46 47.9734 11.278 100 ° 39 km/h 1326 m -13.6 m/s 402.50 MHz Starnberg (DE) 0.00 km UNKNOWN
N3340872 RS41 2018-08-07 18:05:16 48.0524 11.4572 6 ° 7 km/h 1172 m -4.3 m/s 402.50 MHz Starnberg (DE) 0.00 km UNKNOWN
N3340828 RS41 2018-08-07 12:36:04 48.0428 11.164 357 ° 19 km/h 2779 m -11.1 m/s 404.30 MHz Starnberg (DE) 0.00 km UNKNOWN
N3350622 RS41 2018-08-07 12:29:13 48.0865 11.2622 101 ° 20 km/h 916 m -4.1 m/s 402.50 MHz Germering (DE) 0.00 km UNKNOWN
N3340837 RS41 2018-08-07 06:02:31 47.9021 11.2157 144 ° 4 km/h 1271 m -7.7 m/s 402.50 MHz Weilheim in Oberbayern (DE) 0.00 km UNKNOWN
N3350630 RS41 2018-08-06 17:28:59 47.8394 11.4491 242 ° 4 km/h 1695 m -5.1 m/s 402.50 MHz Geretsried (DE) 0.00 km UNKNOWN
N3340838 RS41 2018-08-06 12:33:00 47.9347 11.5699 212 ° 11 km/h 1790 m -11.1 m/s 402.50 MHz Geretsried (DE) 0.00 km UNKNOWN
N3350621 RS41 2018-08-06 06:15:17 47.7859 11.4272 256 ° 6 km/h 1679 m -4.5 m/s 402.50 MHz Geretsried (DE) 0.00 km UNKNOWN
N3350624 RS41 2018-08-03 06:12:00 47.5513 10.0169 254 ° 13 km/h 1011 m -13.1 m/s 402.50 MHz Egg (AT) 0.00 km UNKNOWN
N3350619 RS41 2018-08-02 18:01:11 47.7265 10.7111 264 ° 6 km/h 1189 m -10.3 m/s 402.50 MHz Kaufbeuren (DE) 0.00 km UNKNOWN
N3350585 RS41 2018-08-02 12:09:43 47.8462 10.7054 166 ° 15 km/h 1158 m -10.4 m/s 402.50 MHz Kaufbeuren (DE) 0.00 km UNKNOWN
N3350623 RS41 2018-08-02 06:18:20 47.872 10.6854 133 ° 4 km/h 987 m -7.2 m/s 402.50 MHz Kaufbeuren (DE) 0.00 km UNKNOWN
N3340832 RS41 2018-08-01 18:44:56 48.078 11.0218 205 ° 44 km/h 1047 m -8.1 m/s 402.50 MHz Landsberg am Lech (DE) 0.00 km UNKNOWN
N3340829 RS41 2018-08-01 12:29:55 48.0361 10.982 261 ° 11 km/h 1050 m -5.8 m/s 402.50 MHz Landsberg am Lech (DE) 0.00 km UNKNOWN
N3340835 RS41 2018-08-01 06:54:13 47.8779 10.9369 118 ° 9 km/h 1029 m -2.9 m/s 402.50 MHz Weilheim in Oberbayern (DE) 0.00 km UNKNOWN
N3340871 RS41 2018-07-31 17:43:21 47.7246 11.0379 233 ° 7 km/h 1463 m -9.0 m/s 402.50 MHz Weilheim in Oberbayern (DE) 0.00 km UNKNOWN
N3340876 RS41 2018-07-31 05:48:41 47.6218 10.9763 252 ° 6 km/h 1299 m -7.3 m/s 402.50 MHz Garmisch-Partenkirchen (DE) 0.00 km UNKNOWN
N3340817 RS41 2018-07-30 17:40:56 47.7461 11.0576 239 ° 9 km/h 1542 m -12.7 m/s 402.50 MHz Weilheim in Oberbayern (DE) 0.00 km UNKNOWN
N3340831 RS41 2018-07-30 12:40:05 47.9601 11.1835 78 ° 6 km/h 1208 m -2.8 m/s 402.50 MHz Starnberg (DE) 0.00 km UNKNOWN
N3340882 RS41 2018-07-30 06:00:34 47.9698 11.0805 113 ° 6 km/h 921 m -10.8 m/s 402.50 MHz Weilheim in Oberbayern (DE) 0.00 km UNKNOWN
DFM96D31 DFM 2018-07-27 08:45:23 47.5827 10.8829 181 ° 22 km/h 7398 m -3.1 m/s MHz Reutte (AT) 0.00 km UNKNOWN
N3350579 RS41 2018-07-27 06:01:00 47.6338 10.6028 281 ° 11 km/h 1233 m -11.8 m/s 402.50 MHz Reutte (AT) 0.00 km UNKNOWN
N3340836 RS41 2018-07-26 17:54:50 47.6137 10.5013 259 ° 28 km/h 1384 m -9.0 m/s 402.50 MHz Kempten (DE) 0.00 km UNKNOWN
N3340825 RS41 2018-07-26 14:44:30 47.2501 10.4489 208 ° 9 km/h 2723 m -2.8 m/s 402.50 MHz Zams (AT) 0.00 km UNKNOWN
N3350573 RS41 2018-07-26 12:41:55 47.4375 10.294 207 ° 30 km/h 5230 m -3.6 m/s 404.30 MHz Sonthofen (DE) 0.00 km UNKNOWN
N3350616 RS41 2018-07-26 12:08:13 47.4824 10.284 228 ° 15 km/h 1593 m -8.3 m/s 402.50 MHz Sonthofen (DE) 0.00 km UNKNOWN
N3350625 RS41 2018-07-26 06:24:16 47.3433 10.3148 124 ° 0 km/h 1715 m -6.0 m/s 402.50 MHz Mittelberg (AT) 0.00 km UNKNOWN
N3350575 RS41 2018-07-25 18:43:33 47.4652 10.4284 248 ° 11 km/h 1929 m -4.8 m/s 402.50 MHz Sonthofen (DE) 0.00 km UNKNOWN
N3350577 RS41 2018-07-25 12:03:06 47.6557 10.4891 232 ° 13 km/h 1294 m -6.5 m/s 402.50 MHz Kempten (DE) 0.00 km UNKNOWN
N3350586 RS41 2018-07-25 06:08:37 47.5989 10.4471 190 ° 2 km/h 1230 m -11.2 m/s 402.50 MHz Sonthofen (DE) 0.00 km UNKNOWN
N3340821 RS41 2018-07-24 18:03:01 47.4342 10.7387 158 ° 15 km/h 1749 m -5.0 m/s 402.50 MHz Reutte (AT) 0.00 km UNKNOWN
N3340820 RS41 2018-07-24 11:51:04 47.3397 10.799 132 ° 7 km/h 2378 m -9.6 m/s 402.50 MHz Tarrenz (AT) 0.00 km UNKNOWN
N3340833 RS41 2018-07-24 05:54:23 47.1938 10.8509 56 ° 15 km/h 2817 m -8.6 m/s 402.50 MHz Oetz (AT) 0.00 km UNKNOWN
N3340819 RS41 2018-07-23 17:37:22 47.2002 10.7412 237 ° 17 km/h 2846 m -9.3 m/s 402.50 MHz Arzl im Pitztal (AT) 0.00 km UNKNOWN
DFM96A6E DFM 2018-07-23 14:39:10 47.0058 10.7515 197 ° 87 km/h 8885 m -3.2 m/s MHz Fliess (AT) 0.00 km UNKNOWN
N3340873 RS41 2018-07-23 12:13:42 46.9098 10.5915 229 ° 41 km/h 3851 m -3.2 m/s 402.50 MHz Pfunds (AT) 0.00 km UNKNOWN
N3350576 RS41 2018-07-23 09:37:57 46.8273 10.5814 186 ° 37 km/h 6273 m -2.3 m/s 402.50 MHz Pfunds (AT) 0.00 km UNKNOWN
N3350626 RS41 2018-07-23 05:38:30 47.3483 10.7211 186 ° 19 km/h 2350 m -3.9 m/s 402.50 MHz Tarrenz (AT) 0.00 km UNKNOWN
N3350574 RS41 2018-07-20 05:54:37 47.9033 11.4885 306 ° 15 km/h 932 m -13.4 m/s 402.50 MHz Geretsried (DE) 0.00 km UNKNOWN
N3350571 RS41 2018-07-19 17:53:47 47.7094 11.4459 172 ° 9 km/h 1817 m -4.3 m/s 402.50 MHz Geretsried (DE) 0.00 km UNKNOWN
N3350572 RS41 2018-07-19 11:56:04 47.8391 11.229 95 ° 9 km/h 1556 m -12.0 m/s 402.50 MHz Weilheim in Oberbayern (DE) 0.00 km FOUND
N3350628 RS41 2018-07-19 06:15:11 47.8251 11.1848 279 ° 11 km/h 1241 m -9.9 m/s 402.50 MHz Weilheim in Oberbayern (DE) 0.00 km UNKNOWN
N3350584 RS41 2018-07-18 18:02:26 47.7907 11.313 157 ° 13 km/h 1626 m -11.1 m/s 402.50 MHz Weilheim in Oberbayern (DE) 0.00 km UNKNOWN
N3340818 RS41 2018-07-18 11:48:40 47.6477 11.3568 135 ° 17 km/h 2017 m -9.0 m/s 402.50 MHz Geretsried (DE) 0.00 km UNKNOWN
N3350588 RS41 2018-07-18 05:49:51 47.5862 11.2242 124 ° 17 km/h 1764 m -12.3 m/s 402.50 MHz Garmisch-Partenkirchen (DE) 0.00 km UNKNOWN
N3350580 RS41 2018-07-17 19:04:20 47.6859 11.3554 123 ° 43 km/h 1493 m -1.7 m/s 402.50 MHz Geretsried (DE) 0.00 km UNKNOWN
DFM96D94 DFM 2018-07-17 19:00:22 47.6589 11.1734 130 ° 30 km/h 1436 m -11.5 m/s MHz Garmisch-Partenkirchen (DE) 0.00 km UNKNOWN
DFM96C9C DFM 2018-07-17 14:47:44 47.7784 11.3212 94 ° 22 km/h 1589 m -2.3 m/s MHz Geretsried (DE) 0.00 km UNKNOWN
DFM96D42 DFM 2018-07-17 13:37:25 47.584 11.6743 168 ° 39 km/h 276